
Distance (Route):
Temperature : 0.8°C
Humidity : 39.9%
Pressure : 0hPa| Receiver | Frames | First received | Last received |
|---|---|---|---|
| PETON7-10 | 477 | 2026-09-01 11:22:21 | 2026-09-01 13:46:29 |
| DO3MHA-11 | 274 | 2026-09-01 11:59:52 | 2026-09-01 13:06:19 |
| HA6NAB-11 | 240 | 2026-09-01 11:45:18 | 2026-09-01 13:21:42 |
| OE3OSB-13 | 224 | 2026-09-01 11:24:45 | 2026-09-01 13:48:10 |
| OE5DRO-10 | 217 | 2026-09-01 11:42:13 | 2026-09-01 13:20:54 |
| PG1ADW-2 | 199 | 2026-09-01 11:42:38 | 2026-09-01 13:17:33 |
| OE5DXL-15 | 161 | 2026-09-01 11:45:35 | 2026-09-01 13:15:53 |
| OE5MMP-10 | 160 | 2026-09-01 12:12:06 | 2026-09-01 12:58:32 |
| OE3JTB-15 | 135 | 2026-09-01 11:19:50 | 2026-09-01 13:53:45 |
| SP3WXH-11 | 105 | 2026-09-01 12:03:40 | 2026-09-01 13:11:58 |
| POL1PZ | 44 | 2026-09-01 13:27:35 | 2026-09-01 13:45:09 |
| OM5KV | 34 | 2026-09-01 13:05:17 | 2026-09-01 13:09:32 |
| OK1SLM-15 | 32 | 2026-09-01 12:27:34 | 2026-09-01 12:49:16 |
| SONDE2-11 | 29 | 2026-09-01 12:51:39 | 2026-09-01 13:09:46 |
| DB0DAN | 24 | 2026-09-01 12:22:55 | 2026-09-01 12:53:40 |
| S52SK | 8 | 2026-09-01 11:42:53 | 2026-09-01 11:46:40 |
| NBG1-10 | 8 | 2026-09-01 12:24:47 | 2026-09-01 12:54:24 |
| SP9KGR-15 | 7 | 2026-09-01 12:37:22 | 2026-09-01 12:40:10 |
| SQ9EZE-14 | 4 | 2026-09-01 13:11:07 | 2026-09-01 13:13:56 |
| SP3BTT-10 | 1 | 2026-09-01 12:40:19 | 2026-09-01 12:40:19 |
| SQ9EZE-15 | 1 | 2026-09-01 12:42:34 | 2026-09-01 12:42:34 |
| Receiver | Date | Latitude | Longitude | Direction | Speed | Altitude | Climb | Temperature | Humidity | Pressure | Voltage | Killtimer | Uptime | BKT | XDATA |
|---|---|---|---|---|---|---|---|---|---|---|---|---|---|---|---|
| OE3JTB-15 | 2026-09-01 13:53:45 | 49.44513 | 19.00318 | 116° | 40km/h | 2957m | -2.9m/s | 0.8°C | 39.9% | 0hPa | 2.7V | 00:00:00 | 00:00:00 | 00:00:00 | |
| OE3JTB-15 | 2026-09-01 13:53:26 | 49.44595 | 19.00048 | 118° | 40km/h | 3009m | -2.9m/s | 0.8°C | 43.0% | 0hPa | 2.7V | 00:00:00 | 03:13:36 | 00:00:00 | |
| OE3JTB-15 | 2026-09-01 13:53:07 | 49.44673 | 18.99769 | 109° | 44km/h | 3075m | -2.2m/s | 0.3°C | 42.8% | 0hPa | 2.7V | 00:00:00 | 00:00:00 | 00:00:00 | |
| OE3JTB-15 | 2026-09-01 13:52:48 | 49.44730 | 18.99463 | 108° | 44km/h | 3123m | -2.6m/s | 0.7°C | 37.3% | 0hPa | 2.7V | 00:00:00 | 00:00:00 | 00:00:00 | |
| OE3JTB-15 | 2026-09-01 13:52:29 | 49.44779 | 18.99155 | 103° | 44km/h | 3178m | -2.7m/s | 1.1°C | 29.5% | 0hPa | 2.7V | 00:00:00 | 03:12:39 | 00:00:00 | |
| OE3JTB-15 | 2026-09-01 13:51:56 | 49.44849 | 18.98603 | 101° | 46km/h | 3274m | -3.1m/s | 0.9°C | 28.5% | 0hPa | 2.7V | 00:00:00 | 00:00:00 | 00:00:00 | |
| OE3JTB-15 | 2026-09-01 13:51:37 | 49.44884 | 18.98272 | 98° | 46km/h | 3338m | -2.8m/s | 0.6°C | 32.9% | 0hPa | 2.6V | 00:00:00 | 00:00:00 | 00:00:00 | |
| OE3JTB-15 | 2026-09-01 13:51:18 | 49.44897 | 18.97941 | 91° | 46km/h | 3399m | -3.2m/s | 0.3°C | 31.5% | 0hPa | 2.6V | 07:22:00 | 03:11:28 | 00:00:00 | |
| OE3JTB-15 | 2026-09-01 13:50:59 | 49.44906 | 18.97606 | 92° | 46km/h | 3465m | -3.4m/s | 0.1°C | 31.2% | 0hPa | 2.6V | 00:00:00 | 00:00:00 | 00:00:00 | |
| OE3JTB-15 | 2026-09-01 13:50:40 | 49.44912 | 18.97268 | 91° | 47km/h | 3533m | -2.9m/s | -0.1°C | 28.7% | 0hPa | 2.7V | 00:00:00 | 00:00:00 | 00:00:00 | |
| OE3JTB-15 | 2026-09-01 13:50:21 | 49.44913 | 18.96917 | 90° | 49km/h | 3601m | -3.4m/s | -0.5°C | 23.2% | 0hPa | 2.7V | 00:00:00 | 03:10:31 | 00:00:00 | |
| OE3JTB-15 | 2026-09-01 13:50:02 | 49.44912 | 18.96553 | 90° | 49km/h | 3669m | -3.6m/s | -0.8°C | 21.4% | 0hPa | 2.7V | 00:00:00 | 00:00:00 | 00:00:00 | |
| OE3JTB-15 | 2026-09-01 13:49:43 | 49.44918 | 18.96185 | 92° | 51km/h | 3740m | -3.5m/s | -1.3°C | 23.0% | 0hPa | 2.6V | 00:00:00 | 00:00:00 | 00:00:00 | |
| OE3JTB-15 | 2026-09-01 13:49:24 | 49.44923 | 18.95811 | 90° | 51km/h | 3810m | -3.3m/s | -1.8°C | 23.6% | 0hPa | 2.6V | 00:00:00 | 03:09:34 | 00:00:00 | |
| OE3JTB-15 | 2026-09-01 13:49:05 | 49.44932 | 18.95437 | 94° | 51km/h | 3880m | -4.0m/s | -2.1°C | 18.8% | 0hPa | 2.6V | 00:00:00 | 00:00:00 | 00:00:00 | |
| OE3JTB-15 | 2026-09-01 13:48:46 | 49.44946 | 18.95056 | 95° | 53km/h | 3955m | -3.5m/s | -2.5°C | 17.6% | 0hPa | 2.7V | 07:24:00 | 00:00:00 | 00:00:00 | |
| OE3JTB-15 | 2026-09-01 13:48:20 | 49.44984 | 18.94528 | 96° | 55km/h | 4061m | -3.8m/s | -3.4°C | 15.5% | 0hPa | 2.7V | 00:00:00 | 03:08:30 | 00:00:00 | |
| OE3OSB-13 | 2026-09-01 13:48:10 | 49.45020 | 18.94036 | 99° | 57km/h | 4161m | -3.8m/s | -4.1°C | 14.4% | -1.0hPa | 2.7V | 00:00:00 | 00:00:00 | 00:00:00 | |
| OE3JTB-15 | 2026-09-01 13:47:51 | 49.45030 | 18.93909 | 95° | 55km/h | 4185m | -3.8m/s | -4.1°C | 14.9% | 0hPa | 2.7V | 00:00:00 | 00:00:00 | 00:00:00 | |
| OE3OSB-13 | 2026-09-01 13:47:39 | 49.45064 | 18.93399 | 95° | 55km/h | 4283m | -2.8m/s | -4.6°C | 10.8% | -1.0hPa | 2.6V | 00:00:00 | 00:00:00 | 00:00:00 | |
| OE3JTB-15 | 2026-09-01 13:47:22 | 49.45071 | 18.93293 | 97° | 58km/h | 4303m | -3.7m/s | -4.7°C | 10.6% | 0hPa | 2.6V | 00:00:00 | 00:00:00 | 00:00:00 | |
| OE3OSB-13 | 2026-09-01 13:47:08 | 49.45099 | 18.92941 | 99° | 58km/h | 4362m | -4.3m/s | -4.9°C | 9.6% | -1.0hPa | 2.6V | 00:00:00 | 00:00:00 | 00:00:00 | |
| OE3JTB-15 | 2026-09-01 13:46:53 | 49.45130 | 18.92641 | 101° | 60km/h | 4413m | -3.4m/s | -5.1°C | 9.3% | 0hPa | 2.6V | 00:00:00 | 03:07:03 | 00:00:00 | |
| OE3OSB-13 | 2026-09-01 13:46:37 | 49.45176 | 18.92253 | 100° | 60km/h | 4472m | -3.1m/s | -5.5°C | 8.7% | -1.0hPa | 2.6V | 00:00:00 | 00:00:00 | 00:00:00 | |
| PETON7-10 | 2026-09-01 13:46:29 | 49.45197 | 18.92090 | 104° | 62km/h | 4496m | -3.6m/s | -5.7°C | 8.8% | 0hPa | 2.6V | 07:27:00 | 00:00:00 | 00:00:00 | |
| OE3JTB-15 | 2026-09-01 13:46:24 | 49.45214 | 18.91973 | 103° | 62km/h | 4513m | -2.9m/s | -5.8°C | 8.8% | 0hPa | 2.6V | 00:00:00 | 00:00:00 | 00:00:00 | |
| PETON7-10 | 2026-09-01 13:46:14 | 49.45243 | 18.91732 | 101° | 62km/h | 4551m | -4.7m/s | -6.1°C | 8.6% | 0hPa | 2.7V | 00:00:00 | 00:00:00 | 00:00:00 | |
| PETON7-10 | 2026-09-01 13:45:57 | 49.45291 | 18.91323 | 101° | 62km/h | 4616m | -3.1m/s | -6.6°C | 8.1% | 0hPa | 2.7V | 00:00:00 | 03:06:07 | 00:00:00 | |
| OE3JTB-15 | 2026-09-01 13:45:55 | 49.45297 | 18.91276 | 100° | 60km/h | 4622m | -3.5m/s | -6.6°C | 8.1% | 0hPa | 2.7V | 00:00:00 | 00:00:00 | 00:00:00 | |
| OE3OSB-13 | 2026-09-01 13:45:35 | 49.45364 | 18.90715 | 101° | 60km/h | 4715m | -3.9m/s | -7.4°C | 7.7% | -1.0hPa | 2.7V | 00:00:00 | 00:00:00 | 00:00:00 | |
| PETON7-10 | 2026-09-01 13:45:27 | 49.45374 | 18.90624 | 100° | 60km/h | 4727m | -2.9m/s | -7.4°C | 7.9% | 0hPa | 2.7V | 00:00:00 | 00:00:00 | 00:00:00 | |
| OE3JTB-15 | 2026-09-01 13:45:26 | 49.45377 | 18.90601 | 99° | 60km/h | 4730m | -3.4m/s | -7.4°C | 7.9% | 0hPa | 2.7V | 00:00:00 | 03:05:36 | 00:00:00 | |
| PETON7-10 | 2026-09-01 13:45:12 | 49.45410 | 18.90276 | 100° | 58km/h | 4782m | -4.1m/s | -7.9°C | 8.0% | 0hPa | 2.7V | 00:00:00 | 03:05:22 | 00:00:00 | |
| POL1PZ | 2026-09-01 13:45:09 | 49.45415 | 18.90230 | 100° | 60km/h | 4790m | -3.6m/s | -8.0°C | 7.9% | 0hPa | 2.7V | 07:28:00 | 00:00:00 | 00:00:00 | |
| OE3OSB-13 | 2026-09-01 13:45:03 | 49.45430 | 18.90074 | 99° | 57km/h | 4813m | -2.4m/s | -8.2°C | 7.7% | -1.0hPa | 2.7V | 00:00:00 | 00:00:00 | 00:00:00 | |
| OE3JTB-15 | 2026-09-01 13:44:57 | 49.45444 | 18.89936 | 98° | 58km/h | 4837m | -3.6m/s | -8.2°C | 7.5% | 0hPa | 2.7V | 07:28:00 | 00:00:00 | 00:00:00 | |
| POL1PZ | 2026-09-01 13:44:47 | 49.45460 | 18.89731 | 99° | 58km/h | 4877m | -4.8m/s | -8.5°C | 6.6% | 0hPa | 2.7V | 07:29:00 | 00:00:00 | 00:00:00 | |
| PETON7-10 | 2026-09-01 13:44:42 | 49.45474 | 18.89596 | 101° | 58km/h | 4901m | -3.0m/s | -8.4°C | 5.5% | 0hPa | 2.7V | 00:00:00 | 00:00:00 | 00:00:00 | |
| OE3OSB-13 | 2026-09-01 13:44:32 | 49.45502 | 18.89372 | 100° | 58km/h | 4931m | -3.1m/s | -8.5°C | 4.1% | -1.0hPa | 2.7V | 00:00:00 | 00:00:00 | 00:00:00 | |
| OE3JTB-15 | 2026-09-01 13:44:28 | 49.45514 | 18.89282 | 103° | 58km/h | 4944m | -3.8m/s | -8.5°C | 4.4% | 0hPa | 2.7V | 00:00:00 | 00:00:00 | 00:00:00 | |
| PETON7-10 | 2026-09-01 13:44:27 | 49.45517 | 18.89260 | 103° | 60km/h | 4948m | -3.5m/s | -8.5°C | 4.4% | 0hPa | 2.7V | 07:29:00 | 03:04:37 | 00:00:00 | |
| PETON7-10 | 2026-09-01 13:44:12 | 49.45568 | 18.88918 | 102° | 60km/h | 4996m | -3.6m/s | -8.6°C | 4.6% | 0hPa | 2.7V | 00:00:00 | 00:00:00 | 00:00:00 | |
| POL1PZ | 2026-09-01 13:44:06 | 49.45583 | 18.88804 | 102° | 58km/h | 5017m | -3.5m/s | -8.7°C | 3.5% | 0hPa | 2.7V | 07:30:00 | 00:00:00 | 00:00:00 | |
| OE3OSB-13 | 2026-09-01 13:44:01 | 49.45604 | 18.88669 | 104° | 60km/h | 5042m | -4.4m/s | -8.9°C | 2.7% | -1.0hPa | 2.7V | 00:00:00 | 00:00:00 | 00:00:00 | |
| PETON7-10 | 2026-09-01 13:43:57 | 49.45619 | 18.88577 | 104° | 60km/h | 5060m | -5.2m/s | -8.9°C | 2.6% | 0hPa | 2.7V | 00:00:00 | 00:00:00 | 00:00:00 | |
| POL1PZ | 2026-09-01 13:43:46 | 49.45656 | 18.88353 | 105° | 60km/h | 5095m | -3.9m/s | -9.1°C | 2.3% | 0hPa | 2.7V | 07:30:00 | 00:00:00 | 00:00:00 | |
| PETON7-10 | 2026-09-01 13:43:42 | 49.45675 | 18.88237 | 105° | 62km/h | 5115m | -4.0m/s | -9.2°C | 2.5% | 0hPa | 2.7V | 00:00:00 | 03:03:52 | 00:00:00 | |
| OE3OSB-13 | 2026-09-01 13:43:30 | 49.45720 | 18.87957 | 103° | 58km/h | 5164m | -4.3m/s | -9.5°C | 2.5% | -1.0hPa | 2.7V | 00:00:00 | 00:00:00 | 00:00:00 | |
| PETON7-10 | 2026-09-01 13:43:26 | 49.45734 | 18.87865 | 103° | 60km/h | 5180m | -3.2m/s | -9.5°C | 2.9% | 0hPa | 2.7V | 00:00:00 | 00:00:00 | 00:00:00 | |
| POL1PZ | 2026-09-01 13:43:25 | 49.45734 | 18.87865 | 104° | 62km/h | 5180m | -3.3m/s | -9.5°C | 2.8% | 0hPa | 2.6V | 07:30:00 | 00:00:00 | 00:00:00 | |
| PETON7-10 | 2026-09-01 13:43:11 | 49.45785 | 18.87524 | 102° | 60km/h | 5238m | -4.1m/s | -9.8°C | 3.6% | 0hPa | 2.6V | 00:00:00 | 00:00:00 | 00:00:00 | |
| POL1PZ | 2026-09-01 13:43:04 | 49.45805 | 18.87390 | 104° | 60km/h | 5260m | -4.1m/s | -10.1°C | 3.7% | 0hPa | 2.6V | 07:31:00 | 00:00:00 | 00:00:00 | |
| OE3OSB-13 | 2026-09-01 13:42:59 | 49.45825 | 18.87254 | 103° | 60km/h | 5290m | -7.4m/s | -10.4°C | 3.8% | -1.0hPa | 2.6V | 00:00:00 | 00:00:00 | 00:00:00 | |
| PETON7-10 | 2026-09-01 13:42:56 | 49.45836 | 18.87185 | 104° | 64km/h | 5309m | -4.1m/s | -10.4°C | 4.2% | 0hPa | 2.6V | 00:00:00 | 03:03:06 | 00:00:00 | |
| POL1PZ | 2026-09-01 13:42:43 | 49.45884 | 18.86895 | 105° | 64km/h | 5360m | -3.0m/s | -10.8°C | 4.0% | 0hPa | 2.6V | 07:31:00 | 00:00:00 | 00:00:00 | |
| OE3OSB-13 | 2026-09-01 13:42:28 | 49.45951 | 18.86496 | 104° | 66km/h | 5415m | -2.3m/s | -11.1°C | 4.9% | -1.0hPa | 2.6V | 00:00:00 | 00:00:00 | 00:00:00 | |
| PETON7-10 | 2026-09-01 13:42:26 | 49.45959 | 18.86446 | 105° | 66km/h | 5421m | -2.8m/s | -11.1°C | 5.0% | 0hPa | 2.6V | 07:31:00 | 00:00:00 | 00:00:00 | |
| POL1PZ | 2026-09-01 13:42:21 | 49.45977 | 18.86348 | 107° | 66km/h | 5431m | -2.6m/s | -11.3°C | 4.8% | 0hPa | 2.6V | 07:31:00 | 00:00:00 | 00:00:00 | |
| PETON7-10 | 2026-09-01 13:42:11 | 49.46017 | 18.86077 | 103° | 66km/h | 5480m | -3.2m/s | -11.4°C | 5.3% | 0hPa | 2.6V | 00:00:00 | 03:02:21 | 00:00:00 | |
| OE3JTB-15 | 2026-09-01 13:42:09 | 49.46024 | 18.86027 | 103° | 68km/h | 5486m | -2.5m/s | -11.5°C | 5.6% | 0hPa | 2.6V | 00:00:00 | 03:02:19 | 00:00:00 | |
| OE3OSB-13 | 2026-09-01 13:41:57 | 49.46067 | 18.85725 | 101° | 62km/h | 5530m | -5.3m/s | -11.8°C | 3.9% | -1.0hPa | 2.6V | 00:00:00 | 00:00:00 | 00:00:00 | |
| PETON7-10 | 2026-09-01 13:41:56 | 49.46070 | 18.85701 | 101° | 66km/h | 5536m | -5.2m/s | -11.7°C | 3.7% | 0hPa | 2.6V | 00:00:00 | 00:00:00 | 00:00:00 | |
| PETON7-10 | 2026-09-01 13:41:40 | 49.46111 | 18.85302 | 99° | 69km/h | 5609m | -6.7m/s | -12.0°C | 3.7% | 0hPa | 2.6V | 00:00:00 | 00:00:00 | 00:00:00 | |
| POL1PZ | 2026-09-01 13:41:39 | 49.46111 | 18.85302 | 100° | 66km/h | 5609m | -6.7m/s | -12.0°C | 3.5% | 0hPa | 2.6V | 07:32:00 | 00:00:00 | 00:00:00 | |
| OE3OSB-13 | 2026-09-01 13:41:26 | 49.46146 | 18.84932 | 97° | 69km/h | 5681m | -3.3m/s | -12.2°C | 10.4% | -1.0hPa | 2.6V | 00:00:00 | 00:00:00 | 00:00:00 | |
| PETON7-10 | 2026-09-01 13:41:25 | 49.46148 | 18.84905 | 99° | 71km/h | 5685m | -3.5m/s | -12.2°C | 10.6% | 0hPa | 2.6V | 00:00:00 | 03:01:35 | 00:00:00 | |
| OE3JTB-15 | 2026-09-01 13:41:19 | 49.46164 | 18.84743 | 100° | 73km/h | 5710m | -4.2m/s | -12.4°C | 15.6% | 0hPa | 2.6V | 00:00:00 | 00:00:00 | 00:00:00 | |
| POL1PZ | 2026-09-01 13:41:18 | 49.46165 | 18.84743 | 100° | 71km/h | 5710m | -4.3m/s | -12.4°C | 15.3% | 0hPa | 2.6V | 07:32:00 | 00:00:00 | 00:00:00 | |
| PETON7-10 | 2026-09-01 13:41:10 | 49.46191 | 18.84491 | 100° | 75km/h | 5748m | -5.4m/s | -12.7°C | 21.5% | 0hPa | 2.6V | 00:00:00 | 00:00:00 | 00:00:00 | |
| POL1PZ | 2026-09-01 13:40:57 | 49.46227 | 18.84150 | 100° | 75km/h | 5800m | -2.7m/s | -13.2°C | 29.4% | 0hPa | 2.6V | 07:32:00 | 00:00:00 | 00:00:00 | |
| PETON7-10 | 2026-09-01 13:40:55 | 49.46236 | 18.84064 | 99° | 75km/h | 5810m | -3.3m/s | -13.3°C | 30.6% | 0hPa | 2.6V | 00:00:00 | 00:00:00 | 00:00:00 | |
| OE3JTB-15 | 2026-09-01 13:40:49 | 49.46254 | 18.83893 | 101° | 75km/h | 5831m | -3.6m/s | -13.5°C | 36.6% | 0hPa | 2.6V | 00:00:00 | 00:00:00 | 00:00:00 | |
| PETON7-10 | 2026-09-01 13:40:40 | 49.46282 | 18.83635 | 99° | 77km/h | 5867m | -5.4m/s | -13.8°C | 43.0% | 0hPa | 2.6V | 00:00:00 | 03:00:50 | 00:00:00 | |
| POL1PZ | 2026-09-01 13:40:36 | 49.46290 | 18.83551 | 101° | 75km/h | 5881m | -4.5m/s | -14.1°C | 45.0% | 0hPa | 2.6V | 07:33:00 | 00:00:00 | 00:00:00 | |
| PETON7-10 | 2026-09-01 13:40:25 | 49.46325 | 18.83192 | 98° | 78km/h | 5939m | -4.3m/s | -14.5°C | 52.8% | 0hPa | 2.6V | 07:33:00 | 00:00:00 | 00:00:00 | |
| OE3OSB-13 | 2026-09-01 13:40:24 | 49.46330 | 18.83131 | 96° | 78km/h | 5948m | -4.1m/s | -14.5°C | 53.3% | -1.0hPa | 2.6V | 00:00:00 | 00:00:00 | 00:00:00 | |
| POL1PZ | 2026-09-01 13:40:15 | 49.46346 | 18.82918 | 97° | 78km/h | 5983m | -5.7m/s | -14.7°C | 56.1% | 0hPa | 2.6V | 07:33:00 | 00:00:00 | 00:00:00 | |
| PETON7-10 | 2026-09-01 13:40:10 | 49.46356 | 18.82737 | 95° | 78km/h | 6011m | -5.6m/s | -14.9°C | 57.2% | 0hPa | 2.6V | 00:00:00 | 00:00:00 | 00:00:00 | |
| OE3OSB-13 | 2026-09-01 13:39:53 | 49.46375 | 18.82192 | 91° | 80km/h | 6098m | -5.1m/s | -15.3°C | 53.8% | -1.0hPa | 2.6V | 00:00:00 | 00:00:00 | 00:00:00 | |
| PETON7-10 | 2026-09-01 13:39:40 | 49.46383 | 18.81826 | 93° | 78km/h | 6159m | -7.1m/s | -15.6°C | 50.8% | 0hPa | 2.6V | 00:00:00 | 00:00:00 | 00:00:00 | |
| POL1PZ | 2026-09-01 13:39:34 | 49.46387 | 18.81673 | 94° | 78km/h | 6181m | -3.3m/s | -15.7°C | 49.2% | 0hPa | 2.5V | 07:34:00 | 00:00:00 | 00:00:00 | |
| PETON7-10 | 2026-09-01 13:39:25 | 49.46399 | 18.81371 | 94° | 77km/h | 6219m | -3.9m/s | -15.9°C | 48.4% | 0hPa | 2.5V | 00:00:00 | 00:00:00 | 00:00:00 | |
| OE3OSB-13 | 2026-09-01 13:39:22 | 49.46404 | 18.81252 | 94° | 75km/h | 6235m | -3.8m/s | -16.0°C | 46.8% | -1.0hPa | 2.5V | 00:00:00 | 00:00:00 | 00:00:00 | |
| OE3JTB-15 | 2026-09-01 13:39:14 | 49.46415 | 18.81047 | 96° | 78km/h | 6266m | -3.5m/s | -16.1°C | 45.8% | 0hPa | 2.5V | 00:00:00 | 02:59:24 | 00:00:00 | |
| POL1PZ | 2026-09-01 13:39:13 | 49.46415 | 18.81046 | 97° | 77km/h | 6266m | -3.6m/s | -16.2°C | 45.0% | 0hPa | 2.5V | 07:34:00 | 00:00:00 | 00:00:00 | |
| PETON7-10 | 2026-09-01 13:39:10 | 49.46423 | 18.80927 | 95° | 78km/h | 6282m | -3.9m/s | -16.1°C | 43.6% | 0hPa | 2.5V | 00:00:00 | 02:59:20 | 00:00:00 | |
| OE3OSB-13 | 2026-09-01 13:38:51 | 49.46469 | 18.80319 | 98° | 78km/h | 6368m | -3.4m/s | -16.4°C | 25.6% | -1.0hPa | 2.5V | 00:00:00 | 00:00:00 | 00:00:00 | |
| OE3JTB-15 | 2026-09-01 13:38:45 | 49.46483 | 18.80165 | 99° | 82km/h | 6384m | -3.1m/s | -16.4°C | 26.1% | 0hPa | 2.5V | 00:00:00 | 00:00:00 | 00:00:00 | |
| PETON7-10 | 2026-09-01 13:38:40 | 49.46497 | 18.80009 | 98° | 82km/h | 6404m | -4.9m/s | -16.6°C | 26.6% | 0hPa | 2.5V | 00:00:00 | 00:00:00 | 00:00:00 | |
| POL1PZ | 2026-09-01 13:38:32 | 49.46516 | 18.79789 | 99° | 82km/h | 6441m | -5.6m/s | -17.0°C | 28.0% | 0hPa | 2.5V | 07:35:00 | 00:00:00 | 00:00:00 | |
| PETON7-10 | 2026-09-01 13:38:25 | 49.46540 | 18.79534 | 97° | 82km/h | 6475m | -4.0m/s | -17.2°C | 28.2% | 0hPa | 2.5V | 07:35:00 | 02:58:35 | 00:00:00 | |
| OE3OSB-13 | 2026-09-01 13:38:20 | 49.46555 | 18.79344 | 97° | 80km/h | 6501m | -4.0m/s | -17.6°C | 27.5% | -1.0hPa | 2.5V | 00:00:00 | 00:00:00 | 00:00:00 | |
| OE3JTB-15 | 2026-09-01 13:38:16 | 49.46564 | 18.79249 | 99° | 82km/h | 6513m | -3.8m/s | -17.6°C | 28.1% | 0hPa | 2.5V | 00:00:00 | 00:00:00 | 00:00:00 | |
| POL1PZ | 2026-09-01 13:38:12 | 49.46573 | 18.79154 | 100° | 84km/h | 6525m | -5.0m/s | -17.8°C | 26.4% | 0hPa | 2.5V | 07:36:00 | 00:00:00 | 00:00:00 | |
| PETON7-10 | 2026-09-01 13:38:10 | 49.46583 | 18.79058 | 100° | 82km/h | 6539m | -4.7m/s | -17.9°C | 27.2% | 0hPa | 2.5V | 00:00:00 | 00:00:00 | 00:00:00 | |
| OE3OSB-13 | 2026-09-01 13:37:48 | 49.46662 | 18.78366 | 101° | 80km/h | 6649m | -4.5m/s | -18.8°C | 28.1% | -1.0hPa | 2.6V | 00:00:00 | 00:00:00 | 00:00:00 | |
| OE3JTB-15 | 2026-09-01 13:37:43 | 49.46683 | 18.78212 | 102° | 86km/h | 6667m | -3.1m/s | -18.9°C | 23.4% | 0hPa | 2.6V | 07:35:00 | 02:57:53 | 00:00:00 | |
| PETON7-10 | 2026-09-01 13:37:40 | 49.46695 | 18.78118 | 102° | 84km/h | 6677m | -4.1m/s | -18.9°C | 18.9% | 0hPa | 2.6V | 00:00:00 | 02:57:50 | 00:00:00 | |
| POL1PZ | 2026-09-01 13:37:31 | 49.46730 | 18.77860 | 104° | 84km/h | 6715m | -4.8m/s | -19.1°C | 14.5% | 0hPa | 2.6V | 07:36:00 | 00:00:00 | 00:00:00 | |
| PETON7-10 | 2026-09-01 13:37:25 | 49.46764 | 18.77638 | 104° | 88km/h | 6744m | -3.9m/s | -19.1°C | 16.4% | 0hPa | 2.6V | 00:00:00 | 00:00:00 | 00:00:00 | |
| OE3OSB-13 | 2026-09-01 13:37:17 | 49.46804 | 18.77376 | 102° | 86km/h | 6778m | -4.0m/s | -19.3°C | 15.7% | -1.0hPa | 2.5V | 00:00:00 | 00:00:00 | 00:00:00 | |
| OE3JTB-15 | 2026-09-01 13:37:14 | 49.46818 | 18.77276 | 103° | 91km/h | 6791m | -5.4m/s | -19.6°C | 16.9% | 0hPa | 2.5V | 00:00:00 | 00:00:00 | 00:00:00 | |
| POL1PZ | 2026-09-01 13:37:11 | 49.46828 | 18.77209 | 103° | 88km/h | 6801m | -5.7m/s | -19.7°C | 16.7% | 0hPa | 2.6V | 07:37:00 | 00:00:00 | 00:00:00 | |
| PETON7-10 | 2026-09-01 13:37:10 | 49.46836 | 18.77142 | 102° | 89km/h | 6810m | -4.0m/s | -19.7°C | 18.0% | 0hPa | 2.6V | 00:00:00 | 00:00:00 | 00:00:00 | |
| OE3OSB-13 | 2026-09-01 13:36:46 | 49.46950 | 18.76313 | 101° | 93km/h | 6927m | -4.3m/s | -20.6°C | 19.7% | -1.0hPa | 2.6V | 00:00:00 | 00:00:00 | 00:00:00 | |
| OE3JTB-15 | 2026-09-01 13:36:45 | 49.46955 | 18.76278 | 102° | 95km/h | 6931m | -4.7m/s | -20.7°C | 20.4% | 0hPa | 2.6V | 00:00:00 | 00:00:00 | 00:00:00 | |
| PETON7-10 | 2026-09-01 13:36:40 | 49.46977 | 18.76099 | 102° | 95km/h | 6956m | -4.6m/s | -20.9°C | 20.3% | 0hPa | 2.6V | 00:00:00 | 00:00:00 | 00:00:00 | |
| POL1PZ | 2026-09-01 13:36:30 | 49.47019 | 18.75774 | 101° | 95km/h | 6997m | -4.3m/s | -21.2°C | 20.1% | 0hPa | 2.5V | 07:37:00 | 00:00:00 | 00:00:00 | |
| PETON7-10 | 2026-09-01 13:36:25 | 49.47045 | 18.75556 | 101° | 97km/h | 7025m | -4.8m/s | -21.5°C | 21.5% | 0hPa | 2.5V | 07:37:00 | 00:00:00 | 00:00:00 | |
| OE3JTB-15 | 2026-09-01 13:36:16 | 49.47082 | 18.75226 | 99° | 99km/h | 7067m | -5.2m/s | -21.8°C | 21.9% | 0hPa | 2.5V | 00:00:00 | 02:56:26 | 00:00:00 | |
| OE3OSB-13 | 2026-09-01 13:36:15 | 49.47085 | 18.75189 | 99° | 95km/h | 7072m | -5.1m/s | -21.9°C | 21.1% | -1.0hPa | 2.5V | 00:00:00 | 00:00:00 | 00:00:00 | |
| PETON7-10 | 2026-09-01 13:36:10 | 49.47104 | 18.75003 | 99° | 99km/h | 7098m | -5.6m/s | -22.1°C | 22.5% | 0hPa | 2.5V | 00:00:00 | 02:56:20 | 00:00:00 | |
| POL1PZ | 2026-09-01 13:36:09 | 49.47104 | 18.75003 | 99° | 99km/h | 7098m | -5.7m/s | -22.1°C | 21.6% | 0hPa | 2.5V | 07:37:00 | 00:00:00 | 00:00:00 | |
| PETON7-10 | 2026-09-01 13:35:55 | 49.47154 | 18.74435 | 98° | 99km/h | 7188m | -5.8m/s | -22.9°C | 23.9% | 0hPa | 2.5V | 00:00:00 | 00:00:00 | 00:00:00 | |
| POL1PZ | 2026-09-01 13:35:48 | 49.47172 | 18.74206 | 98° | 99km/h | 7220m | -5.7m/s | -23.3°C | 23.5% | 0hPa | 2.6V | 07:37:00 | 00:00:00 | 00:00:00 | |
| OE3JTB-15 | 2026-09-01 13:35:47 | 49.47177 | 18.74130 | 97° | 102km/h | 7231m | -5.4m/s | -23.3°C | 24.8% | 0hPa | 2.6V | 00:00:00 | 00:00:00 | 00:00:00 | |
| OE3OSB-13 | 2026-09-01 13:35:44 | 49.47186 | 18.74014 | 95° | 100km/h | 7247m | -4.5m/s | -23.5°C | 24.1% | -1.0hPa | 2.6V | 00:00:00 | 00:00:00 | 00:00:00 | |
| PETON7-10 | 2026-09-01 13:35:40 | 49.47195 | 18.73858 | 94° | 102km/h | 7268m | -6.4m/s | -23.7°C | 25.5% | 0hPa | 2.6V | 00:00:00 | 00:00:00 | 00:00:00 | |
| PETON7-10 | 2026-09-01 13:35:25 | 49.47220 | 18.73260 | 94° | 104km/h | 7354m | -6.2m/s | -24.3°C | 26.9% | 0hPa | 2.6V | 00:00:00 | 02:55:35 | 00:00:00 | |
| OE3JTB-15 | 2026-09-01 13:35:18 | 49.47229 | 18.72977 | 93° | 102km/h | 7399m | -6.6m/s | -24.6°C | 30.3% | 0hPa | 2.6V | 00:00:00 | 00:00:00 | 00:00:00 | |
| OE3OSB-13 | 2026-09-01 13:35:13 | 49.47236 | 18.72777 | 93° | 102km/h | 7429m | -5.0m/s | -24.9°C | 29.9% | -1.0hPa | 2.6V | 00:00:00 | 00:00:00 | 00:00:00 | |
| PETON7-10 | 2026-09-01 13:35:10 | 49.47241 | 18.72658 | 94° | 104km/h | 7443m | -4.4m/s | -25.0°C | 31.6% | 0hPa | 2.6V | 00:00:00 | 00:00:00 | 00:00:00 | |
| POL1PZ | 2026-09-01 13:35:08 | 49.47242 | 18.72619 | 94° | 102km/h | 7447m | -3.9m/s | -25.0°C | 30.4% | 0hPa | 2.6V | 07:38:00 | 00:00:00 | 00:00:00 | |
| PETON7-10 | 2026-09-01 13:34:55 | 49.47257 | 18.72056 | 94° | 102km/h | 7505m | -3.8m/s | -25.5°C | 34.5% | 0hPa | 2.6V | 00:00:00 | 00:00:00 | 00:00:00 | |
| OE3JTB-15 | 2026-09-01 13:34:49 | 49.47262 | 18.71819 | 91° | 104km/h | 7531m | -4.7m/s | -25.5°C | 36.7% | 0hPa | 2.6V | 00:00:00 | 02:54:59 | 00:00:00 | |
| POL1PZ | 2026-09-01 13:34:48 | 49.47262 | 18.71819 | 92° | 102km/h | 7531m | -4.7m/s | -25.6°C | 35.3% | 0hPa | 2.6V | 07:39:00 | 00:00:00 | 00:00:00 | |
| OE3OSB-13 | 2026-09-01 13:34:42 | 49.47265 | 18.71540 | 91° | 102km/h | 7563m | -5.0m/s | -25.8°C | 36.6% | -1.0hPa | 2.6V | 00:00:00 | 00:00:00 | 00:00:00 | |
| PETON7-10 | 2026-09-01 13:34:40 | 49.47266 | 18.71460 | 91° | 104km/h | 7573m | -5.0m/s | -25.7°C | 35.6% | 0hPa | 2.6V | 00:00:00 | 02:54:50 | 00:00:00 | |
| POL1PZ | 2026-09-01 13:34:27 | 49.47275 | 18.70977 | 93° | 104km/h | 7625m | -3.7m/s | -26.1°C | 50.3% | 0hPa | 2.6V | 07:39:00 | 00:00:00 | 00:00:00 | |
| PETON7-10 | 2026-09-01 13:34:25 | 49.47278 | 18.70855 | 93° | 104km/h | 7638m | -4.7m/s | -26.1°C | 48.9% | 0hPa | 2.6V | 07:39:00 | 00:00:00 | 00:00:00 | |
| OE3JTB-15 | 2026-09-01 13:34:20 | 49.47285 | 18.70653 | 94° | 104km/h | 7660m | -4.2m/s | -26.3°C | 31.4% | 0hPa | 2.6V | 00:00:00 | 00:00:00 | 00:00:00 | |
| PETON7-10 | 2026-09-01 13:34:10 | 49.47303 | 18.70247 | 94° | 104km/h | 7704m | -5.0m/s | -26.5°C | 18.3% | 0hPa | 2.6V | 00:00:00 | 00:00:00 | 00:00:00 | |
| POL1PZ | 2026-09-01 13:34:07 | 49.47306 | 18.70167 | 95° | 104km/h | 7714m | -4.5m/s | -26.7°C | 17.0% | 0hPa | 2.6V | 07:39:00 | 00:00:00 | 00:00:00 | |
| PETON7-10 | 2026-09-01 13:33:55 | 49.47331 | 18.69641 | 96° | 104km/h | 7772m | -3.8m/s | -27.0°C | 32.0% | 0hPa | 2.6V | 00:00:00 | 02:54:05 | 00:00:00 | |
| OE3JTB-15 | 2026-09-01 13:33:51 | 49.47341 | 18.69479 | 95° | 106km/h | 7787m | -3.8m/s | -27.1°C | 32.0% | 0hPa | 2.6V | 07:39:00 | 00:00:00 | 00:00:00 | |
| POL1PZ | 2026-09-01 13:33:46 | 49.47349 | 18.69318 | 95° | 104km/h | 7805m | -4.3m/s | -27.3°C | 30.8% | 0hPa | 2.6V | 07:40:00 | 00:00:00 | 00:00:00 | |
| PETON7-10 | 2026-09-01 13:33:40 | 49.47364 | 18.69035 | 96° | 106km/h | 7836m | -4.4m/s | -27.5°C | 38.0% | 0hPa | 2.6V | 00:00:00 | 00:00:00 | 00:00:00 | |
| POL1PZ | 2026-09-01 13:33:26 | 49.47397 | 18.68501 | 97° | 106km/h | 7898m | -6.0m/s | -28.2°C | 43.7% | 0hPa | 2.5V | 07:40:00 | 00:00:00 | 00:00:00 | |
| PETON7-10 | 2026-09-01 13:33:25 | 49.47403 | 18.68419 | 96° | 106km/h | 7910m | -4.6m/s | -28.2°C | 48.0% | 0hPa | 2.5V | 00:00:00 | 00:00:00 | 00:00:00 | |
| OE3JTB-15 | 2026-09-01 13:33:22 | 49.47411 | 18.68295 | 96° | 106km/h | 7922m | -4.0m/s | -28.2°C | 47.5% | 0hPa | 2.5V | 00:00:00 | 02:53:32 | 00:00:00 | |
| PETON7-10 | 2026-09-01 13:33:10 | 49.47444 | 18.67801 | 97° | 106km/h | 7978m | -4.7m/s | -28.7°C | 53.2% | 0hPa | 2.5V | 00:00:00 | 02:53:20 | 00:00:00 | |
| POL1PZ | 2026-09-01 13:33:05 | 49.47456 | 18.67636 | 98° | 106km/h | 7995m | -4.8m/s | -29.0°C | 52.7% | 0hPa | 2.5V | 07:41:00 | 00:00:00 | 00:00:00 | |
| PETON7-10 | 2026-09-01 13:32:55 | 49.47490 | 18.67185 | 97° | 108km/h | 8043m | -4.2m/s | -29.3°C | 62.8% | 0hPa | 2.5V | 00:00:00 | 00:00:00 | 00:00:00 | |
| OE3JTB-15 | 2026-09-01 13:32:53 | 49.47496 | 18.67103 | 97° | 108km/h | 8052m | -4.6m/s | -29.4°C | 62.8% | 0hPa | 2.6V | 00:00:00 | 00:00:00 | 00:00:00 | |
| POL1PZ | 2026-09-01 13:32:44 | 49.47522 | 18.66774 | 98° | 106km/h | 8090m | -4.7m/s | -29.7°C | 58.3% | 0hPa | 2.6V | 07:41:00 | 00:00:00 | 00:00:00 | |
| PETON7-10 | 2026-09-01 13:32:40 | 49.47540 | 18.66568 | 98° | 108km/h | 8113m | -4.4m/s | -29.9°C | 60.8% | 0hPa | 2.6V | 00:00:00 | 00:00:00 | 00:00:00 | |
| PETON7-10 | 2026-09-01 13:32:25 | 49.47596 | 18.65945 | 99° | 108km/h | 8182m | -4.5m/s | -30.5°C | 65.5% | 0hPa | 2.6V | 07:41:00 | 02:52:35 | 00:00:00 | |
| POL1PZ | 2026-09-01 13:32:24 | 49.47596 | 18.65945 | 99° | 106km/h | 8182m | -4.5m/s | -30.5°C | 63.3% | 0hPa | 2.6V | 07:41:00 | 00:00:00 | 00:00:00 | |
| PETON7-10 | 2026-09-01 13:32:10 | 49.47653 | 18.65323 | 99° | 110km/h | 8252m | -4.6m/s | -31.1°C | 69.5% | 0hPa | 2.6V | 00:00:00 | 00:00:00 | 00:00:00 | |
| OE3OSB-13 | 2026-09-01 13:32:07 | 49.47669 | 18.65155 | 97° | 108km/h | 8270m | -4.9m/s | -31.3°C | 65.8% | -1.0hPa | 2.5V | 00:00:00 | 00:00:00 | 00:00:00 | |
| POL1PZ | 2026-09-01 13:32:04 | 49.47673 | 18.65113 | 99° | 110km/h | 8275m | -4.4m/s | -31.3°C | 65.0% | 0hPa | 2.5V | 07:42:00 | 00:00:00 | 00:00:00 | |
| PETON7-10 | 2026-09-01 13:31:55 | 49.47710 | 18.64694 | 98° | 110km/h | 8320m | -4.2m/s | -31.7°C | 62.3% | 0hPa | 2.5V | 00:00:00 | 00:00:00 | 00:00:00 | |
| POL1PZ | 2026-09-01 13:31:43 | 49.47753 | 18.64231 | 99° | 110km/h | 8369m | -4.0m/s | -32.2°C | 57.5% | 0hPa | 2.5V | 07:42:00 | 00:00:00 | 00:00:00 | |
| PETON7-10 | 2026-09-01 13:31:40 | 49.47769 | 18.64062 | 99° | 110km/h | 8388m | -5.2m/s | -32.4°C | 59.4% | 0hPa | 2.5V | 00:00:00 | 02:51:50 | 00:00:00 | |
| OE3OSB-13 | 2026-09-01 13:31:36 | 49.47785 | 18.63894 | 98° | 108km/h | 8408m | -5.5m/s | -32.6°C | 57.1% | -1.0hPa | 2.5V | 00:00:00 | 00:00:00 | 00:00:00 | |
| OE3JTB-15 | 2026-09-01 13:31:26 | 49.47827 | 18.63477 | 99° | 108km/h | 8455m | -4.5m/s | -32.9°C | 71.7% | 0hPa | 2.5V | 00:00:00 | 00:00:00 | 00:00:00 | |
| PETON7-10 | 2026-09-01 13:31:25 | 49.47831 | 18.63435 | 99° | 108km/h | 8459m | -4.5m/s | -32.9°C | 72.0% | 0hPa | 2.6V | 00:00:00 | 00:00:00 | 00:00:00 | |
| POL1PZ | 2026-09-01 13:31:23 | 49.47836 | 18.63393 | 100° | 110km/h | 8464m | -4.5m/s | -33.0°C | 69.4% | 0hPa | 2.5V | 07:43:00 | 00:00:00 | 00:00:00 | |
| PETON7-10 | 2026-09-01 13:31:10 | 49.47897 | 18.62815 | 99° | 106km/h | 8530m | -6.9m/s | -33.4°C | 66.1% | 0hPa | 2.5V | 00:00:00 | 00:00:00 | 00:00:00 | |
| OE3OSB-13 | 2026-09-01 13:31:05 | 49.47923 | 18.62528 | 97° | 106km/h | 8569m | -4.8m/s | -33.6°C | 61.4% | -1.0hPa | 2.5V | 00:00:00 | 00:00:00 | 00:00:00 | |
| POL1PZ | 2026-09-01 13:31:02 | 49.47923 | 18.62528 | 99° | 108km/h | 8569m | -4.8m/s | -33.6°C | 61.6% | 0hPa | 2.5V | 07:43:00 | 00:00:00 | 00:00:00 | |
| OE3JTB-15 | 2026-09-01 13:30:57 | 49.47945 | 18.62282 | 99° | 104km/h | 8598m | -4.9m/s | -33.7°C | 67.9% | 0hPa | 2.5V | 00:00:00 | 00:00:00 | 00:00:00 | |
| PETON7-10 | 2026-09-01 13:30:55 | 49.47953 | 18.62202 | 99° | 104km/h | 8607m | -4.7m/s | -33.8°C | 67.1% | 0hPa | 2.5V | 00:00:00 | 02:51:05 | 00:00:00 | |
| POL1PZ | 2026-09-01 13:30:41 | 49.48007 | 18.61684 | 100° | 104km/h | 8667m | -5.0m/s | -34.2°C | 61.4% | 0hPa | 2.5V | 07:43:00 | 00:00:00 | 00:00:00 | |
| PETON7-10 | 2026-09-01 13:30:40 | 49.48015 | 18.61604 | 100° | 104km/h | 8676m | -5.1m/s | -34.2°C | 62.7% | 0hPa | 2.5V | 00:00:00 | 00:00:00 | 00:00:00 | |
| OE3OSB-13 | 2026-09-01 13:30:34 | 49.48044 | 18.61322 | 99° | 104km/h | 8708m | -4.9m/s | -34.5°C | 58.7% | -1.0hPa | 2.6V | 00:00:00 | 00:00:00 | 00:00:00 | |
| OE3JTB-15 | 2026-09-01 13:30:28 | 49.48066 | 18.61121 | 100° | 102km/h | 8732m | -4.9m/s | -34.6°C | 61.2% | 0hPa | 2.6V | 00:00:00 | 02:50:38 | 00:00:00 | |
| PETON7-10 | 2026-09-01 13:30:25 | 49.48078 | 18.61002 | 99° | 102km/h | 8746m | -4.0m/s | -34.7°C | 60.9% | 0hPa | 2.6V | 07:43:00 | 00:00:00 | 00:00:00 | |
| POL1PZ | 2026-09-01 13:30:20 | 49.48093 | 18.60844 | 99° | 102km/h | 8764m | -4.7m/s | -34.9°C | 60.1% | 0hPa | 2.6V | 07:43:00 | 00:00:00 | 00:00:00 | |
| PETON7-10 | 2026-09-01 13:30:10 | 49.48126 | 18.60410 | 96° | 102km/h | 8814m | -4.4m/s | -35.2°C | 62.4% | 0hPa | 2.6V | 00:00:00 | 02:50:20 | 00:00:00 | |
| OE3JTB-15 | 2026-09-01 13:29:59 | 49.48151 | 18.59978 | 94° | 100km/h | 8863m | -3.6m/s | -35.5°C | 60.8% | 0hPa | 2.6V | 07:43:00 | 00:00:00 | 00:00:00 | |
| PETON7-10 | 2026-09-01 13:29:55 | 49.48158 | 18.59821 | 94° | 100km/h | 8881m | -5.2m/s | -35.6°C | 59.3% | 0hPa | 2.5V | 00:00:00 | 00:00:00 | 00:00:00 | |
| PETON7-10 | 2026-09-01 13:29:40 | 49.48173 | 18.59235 | 91° | 100km/h | 8945m | -4.2m/s | -36.0°C | 58.9% | 0hPa | 2.5V | 00:00:00 | 00:00:00 | 00:00:00 | |
| POL1PZ | 2026-09-01 13:29:39 | 49.48173 | 18.59235 | 92° | 100km/h | 8945m | -4.3m/s | -36.0°C | 56.2% | 0hPa | 2.5V | 07:44:00 | 00:00:00 | 00:00:00 | |
| OE3OSB-13 | 2026-09-01 13:29:31 | 49.48176 | 18.58848 | 90° | 99km/h | 8987m | -5.0m/s | -36.4°C | 54.6% | -1.0hPa | 2.5V | 00:00:00 | 00:00:00 | 00:00:00 | |
| OE3JTB-15 | 2026-09-01 13:29:30 | 49.48176 | 18.58848 | 91° | 97km/h | 8988m | -4.9m/s | -36.4°C | 57.4% | 0hPa | 2.5V | 00:00:00 | 00:00:00 | 00:00:00 | |
| PETON7-10 | 2026-09-01 13:29:25 | 49.48177 | 18.58655 | 91° | 97km/h | 9011m | -4.6m/s | -36.5°C | 57.7% | 0hPa | 2.5V | 00:00:00 | 02:49:35 | 00:00:00 | |
| POL1PZ | 2026-09-01 13:29:18 | 49.48179 | 18.58427 | 92° | 97km/h | 9037m | -4.8m/s | -36.8°C | 55.5% | 0hPa | 2.5V | 07:44:00 | 00:00:00 | 00:00:00 | |
| PETON7-10 | 2026-09-01 13:29:10 | 49.48182 | 18.58088 | 91° | 97km/h | 9079m | -4.9m/s | -37.1°C | 58.5% | 0hPa | 2.5V | 00:00:00 | 00:00:00 | 00:00:00 | |
| OE3OSB-13 | 2026-09-01 13:29:00 | 49.48187 | 18.57713 | 91° | 95km/h | 9126m | -4.4m/s | -37.5°C | 55.4% | -1.0hPa | 2.5V | 00:00:00 | 00:00:00 | 00:00:00 | |
| POL1PZ | 2026-09-01 13:28:58 | 49.48187 | 18.57676 | 92° | 97km/h | 9130m | -4.6m/s | -37.5°C | 55.5% | 0hPa | 2.5V | 07:44:00 | 00:00:00 | 00:00:00 | |
| PETON7-10 | 2026-09-01 13:28:55 | 49.48188 | 18.57527 | 92° | 95km/h | 9148m | -4.4m/s | -37.6°C | 58.2% | 0hPa | 2.5V | 00:00:00 | 00:00:00 | 00:00:00 | |
| POL1PZ | 2026-09-01 13:28:37 | 49.48192 | 18.56896 | 91° | 97km/h | 9224m | -4.3m/s | -38.3°C | 57.0% | 0hPa | 2.5V | 07:45:00 | 00:00:00 | 00:00:00 | |
| OE3JTB-15 | 2026-09-01 13:28:32 | 49.48193 | 18.56668 | 90° | 99km/h | 9250m | -4.6m/s | -38.6°C | 60.1% | 0hPa | 2.5V | 00:00:00 | 00:00:00 | 00:00:00 | |
| OE3OSB-13 | 2026-09-01 13:28:29 | 49.48193 | 18.56553 | 90° | 97km/h | 9264m | -4.7m/s | -38.6°C | 57.2% | -1.0hPa | 2.5V | 00:00:00 | 00:00:00 | 00:00:00 | |
| PETON7-10 | 2026-09-01 13:28:25 | 49.48194 | 18.56400 | 91° | 99km/h | 9282m | -4.5m/s | -38.7°C | 61.6% | 0hPa | 2.5V | 07:45:00 | 00:00:00 | 00:00:00 | |
| POL1PZ | 2026-09-01 13:28:17 | 49.48196 | 18.56130 | 92° | 99km/h | 9314m | -4.8m/s | -39.1°C | 0% | 0hPa | 2.6V | 07:45:00 | 00:00:00 | 00:00:00 | |
| PETON7-10 | 2026-09-01 13:28:10 | 49.48199 | 18.55821 | 92° | 100km/h | 9350m | -5.2m/s | -39.3°C | 63.4% | 0hPa | 2.6V | 00:00:00 | 00:00:00 | 00:00:00 | |
| OE3JTB-15 | 2026-09-01 13:28:03 | 49.48203 | 18.55549 | 92° | 100km/h | 9381m | -3.5m/s | -39.6°C | 63.1% | 0hPa | 2.6V | 00:00:00 | 00:00:00 | 00:00:00 | |
| OE3OSB-13 | 2026-09-01 13:27:58 | 49.48207 | 18.55357 | 91° | 99km/h | 9403m | -4.5m/s | -39.9°C | 60.6% | -1.0hPa | 2.6V | 00:00:00 | 00:00:00 | 00:00:00 | |
| POL1PZ | 2026-09-01 13:27:56 | 49.48208 | 18.55318 | 92° | 100km/h | 9408m | -4.5m/s | 0°C | 0% | 0hPa | 2.6V | 00:00:00 | 00:00:00 | 00:00:00 | |
| PETON7-10 | 2026-09-01 13:27:55 | 49.48209 | 18.55240 | 92° | 100km/h | 9416m | -4.2m/s | -39.8°C | 65.0% | 0hPa | 2.6V | 00:00:00 | 02:48:05 | 00:00:00 | |
| PETON7-10 | 2026-09-01 13:27:40 | 49.48219 | 18.54660 | 92° | 100km/h | 9482m | -4.4m/s | -40.4°C | 62.4% | 0hPa | 2.6V | 00:00:00 | 00:00:00 | 00:00:00 | |
| POL1PZ | 2026-09-01 13:27:35 | 49.48220 | 18.54505 | 91° | 100km/h | 9498m | -4.0m/s | 0°C | 0% | 0hPa | 2.6V | 00:00:00 | 00:00:00 | 00:00:00 | |
| OE3JTB-15 | 2026-09-01 13:27:34 | 49.48221 | 18.54427 | 91° | 99km/h | 9507m | -4.1m/s | -40.8°C | 60.5% | 0hPa | 2.6V | 00:00:00 | 02:47:44 | 00:00:00 | |
| OE3OSB-13 | 2026-09-01 13:27:27 | 49.48226 | 18.54155 | 91° | 99km/h | 9537m | -4.3m/s | -41.0°C | 54.6% | -1.0hPa | 2.6V | 00:00:00 | 00:00:00 | 00:00:00 | |
| PETON7-10 | 2026-09-01 13:27:25 | 49.48227 | 18.54079 | 92° | 99km/h | 9546m | -4.0m/s | -40.9°C | 58.3% | 0hPa | 2.6V | 00:00:00 | 00:00:00 | 00:00:00 | |
| PETON7-10 | 2026-09-01 13:27:10 | 49.48228 | 18.53503 | 91° | 100km/h | 9610m | -3.8m/s | -41.5°C | 62.1% | 0hPa | 2.6V | 00:00:00 | 02:47:20 | 00:00:00 | |
| OE3JTB-15 | 2026-09-01 13:27:06 | 49.48228 | 18.53312 | 90° | 100km/h | 9630m | -4.3m/s | -41.6°C | 59.5% | 0hPa | 2.6V | 00:00:00 | 00:00:00 | 00:00:00 | |
| OE3OSB-13 | 2026-09-01 13:26:56 | 49.48228 | 18.52963 | 90° | 100km/h | 9669m | -5.0m/s | -41.9°C | 56.1% | -1.0hPa | 2.5V | 00:00:00 | 00:00:00 | 00:00:00 | |
| PETON7-10 | 2026-09-01 13:26:55 | 49.48228 | 18.52923 | 91° | 102km/h | 9674m | -4.7m/s | -41.9°C | 60.4% | 0hPa | 2.5V | 00:00:00 | 00:00:00 | 00:00:00 | |
| PETON7-10 | 2026-09-01 13:26:40 | 49.48231 | 18.52332 | 92° | 104km/h | 9742m | -4.1m/s | -42.5°C | 60.7% | 0hPa | 2.6V | 00:00:00 | 00:00:00 | 00:00:00 | |
| OE3JTB-15 | 2026-09-01 13:26:35 | 49.48234 | 18.52132 | 92° | 104km/h | 9763m | -4.0m/s | -42.7°C | 60.5% | 0hPa | 2.6V | 00:00:00 | 00:00:00 | 00:00:00 | |
| PETON7-10 | 2026-09-01 13:26:25 | 49.48241 | 18.51727 | 92° | 104km/h | 9806m | -4.4m/s | -43.0°C | 57.7% | 0hPa | 2.6V | 07:47:00 | 02:46:35 | 00:00:00 | |
| PETON7-10 | 2026-09-01 13:26:10 | 49.48245 | 18.51122 | 90° | 106km/h | 9872m | -4.4m/s | -43.4°C | 58.5% | 0hPa | 2.6V | 00:00:00 | 00:00:00 | 00:00:00 | |
| OE3JTB-15 | 2026-09-01 13:26:06 | 49.48244 | 18.50959 | 90° | 106km/h | 9889m | -4.1m/s | -43.7°C | 55.8% | 0hPa | 2.6V | 07:47:00 | 02:46:16 | 00:00:00 | |
| OE3OSB-13 | 2026-09-01 13:25:54 | 49.48243 | 18.50462 | 90° | 104km/h | 9938m | -4.4m/s | -44.0°C | 52.6% | -1.0hPa | 2.6V | 00:00:00 | 00:00:00 | 00:00:00 | |
| PETON7-10 | 2026-09-01 13:25:40 | 49.48243 | 18.49891 | 91° | 106km/h | 9998m | -3.8m/s | -44.5°C | 52.0% | 0hPa | 2.6V | 00:00:00 | 02:45:50 | 00:00:00 | |
| OE3JTB-15 | 2026-09-01 13:25:28 | 49.48247 | 18.49395 | 92° | 106km/h | 10049m | -4.6m/s | -44.6°C | 48.3% | 0hPa | 2.6V | 00:00:00 | 00:00:00 | 00:00:00 | |
| PETON7-10 | 2026-09-01 13:25:25 | 49.48249 | 18.49270 | 92° | 106km/h | 10062m | -4.4m/s | -44.7°C | 47.9% | 0hPa | 2.5V | 00:00:00 | 00:00:00 | 00:00:00 | |
| PETON7-10 | 2026-09-01 13:25:10 | 49.48256 | 18.48655 | 91° | 106km/h | 10126m | -4.5m/s | -45.1°C | 51.1% | 0hPa | 2.6V | 00:00:00 | 00:00:00 | 00:00:00 | |
| OE3OSB-13 | 2026-09-01 13:24:52 | 49.48257 | 18.47907 | 90° | 106km/h | 10207m | -4.6m/s | -45.8°C | 43.7% | -1.0hPa | 2.6V | 00:00:00 | 00:00:00 | 00:00:00 | |
| PETON7-10 | 2026-09-01 13:24:40 | 49.48254 | 18.47410 | 89° | 106km/h | 10261m | -4.4m/s | -46.2°C | 49.4% | 0hPa | 2.6V | 00:00:00 | 00:00:00 | 00:00:00 | |
| OE3JTB-15 | 2026-09-01 13:24:30 | 49.48249 | 18.46997 | 89° | 108km/h | 10306m | -4.8m/s | -46.6°C | 48.9% | 0hPa | 2.5V | 00:00:00 | 02:44:40 | 00:00:00 | |
| PETON7-10 | 2026-09-01 13:24:25 | 49.48245 | 18.46791 | 88° | 108km/h | 10329m | -4.3m/s | -46.8°C | 49.6% | 0hPa | 2.5V | 07:49:00 | 00:00:00 | 00:00:00 | |
| OE3OSB-13 | 2026-09-01 13:24:21 | 49.48242 | 18.46624 | 88° | 108km/h | 10346m | -4.1m/s | -46.9°C | 47.2% | -1.0hPa | 2.5V | 00:00:00 | 00:00:00 | 00:00:00 | |
| PETON7-10 | 2026-09-01 13:24:10 | 49.48240 | 18.46166 | 90° | 106km/h | 10393m | -4.3m/s | -47.4°C | 52.7% | 0hPa | 2.5V | 00:00:00 | 02:44:20 | 00:00:00 | |
| OE3OSB-13 | 2026-09-01 13:23:50 | 49.48243 | 18.45303 | 90° | 106km/h | 10490m | -4.8m/s | -48.3°C | 48.5% | -1.0hPa | 2.5V | 00:00:00 | 00:00:00 | 00:00:00 | |
| PETON7-10 | 2026-09-01 13:23:40 | 49.48246 | 18.44928 | 92° | 106km/h | 10534m | -4.8m/s | -48.6°C | 52.1% | 0hPa | 2.5V | 00:00:00 | 00:00:00 | 00:00:00 | |
| OE3JTB-15 | 2026-09-01 13:23:32 | 49.48252 | 18.44599 | 92° | 110km/h | 10574m | -5.2m/s | -48.8°C | 50.9% | 0hPa | 2.5V | 00:00:00 | 00:00:00 | 00:00:00 | |
| PETON7-10 | 2026-09-01 13:23:25 | 49.48258 | 18.44307 | 92° | 110km/h | 10609m | -5.1m/s | -49.1°C | 49.9% | 0hPa | 2.5V | 00:00:00 | 02:43:35 | 00:00:00 | |
| OE3OSB-13 | 2026-09-01 13:23:19 | 49.48264 | 18.44010 | 92° | 108km/h | 10643m | -5.1m/s | -49.4°C | 45.6% | -1.0hPa | 2.5V | 00:00:00 | 00:00:00 | 00:00:00 | |
| PETON7-10 | 2026-09-01 13:23:11 | 49.48275 | 18.43667 | 93° | 111km/h | 10682m | -4.7m/s | -49.7°C | 49.8% | 0hPa | 2.5V | 00:00:00 | 00:00:00 | 00:00:00 | |
| OE3JTB-15 | 2026-09-01 13:23:03 | 49.48282 | 18.43366 | 93° | 110km/h | 10716m | -5.0m/s | -50.0°C | 49.8% | 0hPa | 2.5V | 00:00:00 | 02:43:13 | 00:00:00 | |
| OE3OSB-13 | 2026-09-01 13:22:48 | 49.48300 | 18.42681 | 92° | 111km/h | 10791m | -5.1m/s | -50.7°C | 46.1% | -1.0hPa | 2.5V | 00:00:00 | 00:00:00 | 00:00:00 | |
| PETON7-10 | 2026-09-01 13:22:40 | 49.48312 | 18.42379 | 95° | 111km/h | 10826m | -5.0m/s | -50.9°C | 50.5% | 0hPa | 2.5V | 00:00:00 | 02:42:50 | 00:00:00 | |
| PETON7-10 | 2026-09-01 13:22:25 | 49.48341 | 18.41737 | 95° | 111km/h | 10902m | -5.0m/s | -51.5°C | 51.7% | 0hPa | 2.5V | 07:51:00 | 00:00:00 | 00:00:00 | |
| OE3OSB-13 | 2026-09-01 13:22:17 | 49.48358 | 18.41347 | 93° | 111km/h | 10950m | -5.4m/s | -52.0°C | 47.3% | -1.0hPa | 2.6V | 00:00:00 | 00:00:00 | 00:00:00 | |
| OE3OSB-13 | 2026-09-01 13:21:46 | 49.48414 | 18.40010 | 93° | 110km/h | 11111m | -4.6m/s | -53.4°C | 48.0% | -1.0hPa | 2.6V | 00:00:00 | 00:00:00 | 00:00:00 | |
| HA6NAB-11 | 2026-09-01 13:21:42 | 49.48418 | 18.39924 | 94° | 111km/h | 11120m | -4.8m/s | -53.5°C | 47.2% | 0hPa | 2.6V | 00:00:00 | 00:00:00 | 00:00:00 | |
| PETON7-10 | 2026-09-01 13:21:40 | 49.48422 | 18.39794 | 94° | 111km/h | 11135m | -5.0m/s | -53.6°C | 52.1% | 0hPa | 2.6V | 00:00:00 | 00:00:00 | 00:00:00 | |
| HA6NAB-11 | 2026-09-01 13:21:36 | 49.48427 | 18.39665 | 94° | 110km/h | 11150m | -5.6m/s | -53.8°C | 46.6% | 0hPa | 2.6V | 00:00:00 | 00:00:00 | 00:00:00 | |
| HA6NAB-11 | 2026-09-01 13:21:30 | 49.48435 | 18.39409 | 94° | 111km/h | 11182m | -5.2m/s | -54.0°C | 46.8% | 0hPa | 2.6V | 00:00:00 | 00:00:00 | 00:00:00 | |
| PETON7-10 | 2026-09-01 13:21:25 | 49.48443 | 18.39151 | 93° | 111km/h | 11210m | -4.7m/s | -54.2°C | 52.9% | 0hPa | 2.6V | 00:00:00 | 00:00:00 | 00:00:00 | |
| HA6NAB-11 | 2026-09-01 13:21:24 | 49.48443 | 18.39151 | 93° | 111km/h | 11210m | -4.7m/s | -54.3°C | 47.5% | 0hPa | 2.6V | 00:00:00 | 00:00:00 | 00:00:00 | |
| OE3OSB-13 | 2026-09-01 13:21:14 | 49.48452 | 18.38675 | 91° | 111km/h | 11268m | -5.3m/s | -54.8°C | 44.6% | -1.0hPa | 2.6V | 00:00:00 | 00:00:00 | 00:00:00 | |
| PETON7-10 | 2026-09-01 13:21:10 | 49.48454 | 18.38501 | 92° | 113km/h | 11289m | -5.2m/s | -54.9°C | 50.1% | 0hPa | 2.6V | 00:00:00 | 02:41:20 | 00:00:00 | |
| PETON7-10 | 2026-09-01 13:20:55 | 49.48453 | 18.37845 | 90° | 110km/h | 11368m | -5.6m/s | -55.5°C | 48.7% | 0hPa | 2.6V | 00:00:00 | 00:00:00 | 00:00:00 | |
| OE5DRO-10 | 2026-09-01 13:20:54 | 49.48453 | 18.37802 | 90° | 108km/h | 11374m | -5.3m/s | -55.5°C | 48.5% | 0hPa | 2.6V | 07:52:00 | 00:00:00 | 00:00:00 | |
| HA6NAB-11 | 2026-09-01 13:20:46 | 49.48448 | 18.37503 | 88° | 108km/h | 11411m | -5.0m/s | -55.8°C | 42.5% | 0hPa | 2.6V | 00:00:00 | 00:00:00 | 00:00:00 | |
| OE3OSB-13 | 2026-09-01 13:20:43 | 49.48442 | 18.37336 | 85° | 108km/h | 11433m | -5.5m/s | -56.0°C | 41.5% | -1.0hPa | 2.6V | 00:00:00 | 00:00:00 | 00:00:00 | |
| HA6NAB-11 | 2026-09-01 13:20:41 | 49.48439 | 18.37294 | 87° | 108km/h | 11438m | -5.5m/s | -56.0°C | 41.5% | 0hPa | 2.6V | 00:00:00 | 00:00:00 | 00:00:00 | |
| PETON7-10 | 2026-09-01 13:20:40 | 49.48436 | 18.37210 | 86° | 110km/h | 11449m | -5.1m/s | -56.1°C | 46.7% | 0hPa | 2.6V | 00:00:00 | 00:00:00 | 00:00:00 | |
| OE5DRO-10 | 2026-09-01 13:20:34 | 49.48423 | 18.36959 | 86° | 110km/h | 11481m | -5.3m/s | -56.3°C | 46.8% | 0hPa | 2.6V | 00:00:00 | 00:00:00 | 00:00:00 | |
| PETON7-10 | 2026-09-01 13:20:25 | 49.48402 | 18.36577 | 86° | 110km/h | 11529m | -5.6m/s | -56.4°C | 44.5% | 0hPa | 2.5V | 07:53:00 | 02:40:35 | 00:00:00 | |
| OE3JTB-15 | 2026-09-01 13:20:19 | 49.48393 | 18.36319 | 88° | 104km/h | 11562m | -5.4m/s | -56.5°C | 43.3% | 0hPa | 2.5V | 00:00:00 | 00:00:00 | 00:00:00 | |
| OE5DRO-10 | 2026-09-01 13:20:14 | 49.48388 | 18.36109 | 88° | 106km/h | 11588m | -5.5m/s | -56.6°C | 43.0% | 0hPa | 2.5V | 00:00:00 | 00:00:00 | 00:00:00 | |
| OE3OSB-13 | 2026-09-01 13:20:12 | 49.48385 | 18.36025 | 87° | 108km/h | 11599m | -5.3m/s | -56.7°C | 37.3% | -1.0hPa | 2.5V | 00:00:00 | 00:00:00 | 00:00:00 | |
| PETON7-10 | 2026-09-01 13:20:10 | 49.48384 | 18.35940 | 89° | 106km/h | 11610m | -5.1m/s | -56.7°C | 42.7% | 0hPa | 2.5V | 00:00:00 | 00:00:00 | 00:00:00 | |
| OE5DRO-10 | 2026-09-01 13:19:55 | 49.48379 | 18.35330 | 90° | 100km/h | 11689m | -4.8m/s | -57.0°C | 39.7% | 0hPa | 2.6V | 00:00:00 | 00:00:00 | 00:00:00 | |
| OE3JTB-15 | 2026-09-01 13:19:49 | 49.48375 | 18.35097 | 88° | 104km/h | 11717m | -4.8m/s | -57.1°C | 39.2% | 0hPa | 2.6V | 07:53:00 | 00:00:00 | 00:00:00 | |
| OE3OSB-13 | 2026-09-01 13:19:41 | 49.48365 | 18.34786 | 86° | 102km/h | 11753m | -5.3m/s | -57.3°C | 32.3% | -1.0hPa | 2.6V | 00:00:00 | 00:00:00 | 00:00:00 | |
| PETON7-10 | 2026-09-01 13:19:40 | 49.48363 | 18.34746 | 86° | 106km/h | 11759m | -5.4m/s | -57.3°C | 37.7% | 0hPa | 2.6V | 00:00:00 | 02:39:50 | 00:00:00 | |
| OE5DRO-10 | 2026-09-01 13:19:36 | 49.48355 | 18.34586 | 85° | 108km/h | 11780m | -5.4m/s | -57.3°C | 37.1% | 0hPa | 2.6V | 00:00:00 | 00:00:00 | 00:00:00 | |
| PETON7-10 | 2026-09-01 13:19:25 | 49.48321 | 18.34137 | 83° | 110km/h | 11836m | -5.2m/s | -57.4°C | 36.9% | 0hPa | 2.5V | 00:00:00 | 00:00:00 | 00:00:00 | |
| OE3JTB-15 | 2026-09-01 13:19:20 | 49.48303 | 18.33929 | 82° | 111km/h | 11861m | -4.7m/s | -57.5°C | 37.3% | 0hPa | 2.5V | 00:00:00 | 02:39:30 | 00:00:00 | |
| OE5DRO-10 | 2026-09-01 13:19:17 | 49.48290 | 18.33803 | 81° | 111km/h | 11876m | -5.0m/s | -57.5°C | 36.9% | 0hPa | 2.5V | 00:00:00 | 00:00:00 | 00:00:00 | |
| PETON7-10 | 2026-09-01 13:19:10 | 49.48257 | 18.33506 | 80° | 113km/h | 11910m | -4.8m/s | -57.8°C | 36.3% | 0hPa | 2.5V | 00:00:00 | 00:00:00 | 00:00:00 | |
| OE5DRO-10 | 2026-09-01 13:18:58 | 49.48200 | 18.32986 | 82° | 108km/h | 11969m | -5.4m/s | -58.1°C | 37.2% | 0hPa | 2.5V | 00:00:00 | 00:00:00 | 00:00:00 | |
| PETON7-10 | 2026-09-01 13:18:55 | 49.48188 | 18.32858 | 82° | 110km/h | 11985m | -5.5m/s | -58.2°C | 37.8% | 0hPa | 2.5V | 00:00:00 | 02:39:05 | 00:00:00 | |
| OE3JTB-15 | 2026-09-01 13:18:51 | 49.48172 | 18.32686 | 83° | 108km/h | 12006m | -5.4m/s | -58.2°C | 37.9% | 0hPa | 2.5V | 00:00:00 | 00:00:00 | 00:00:00 | |
| PETON7-10 | 2026-09-01 13:18:40 | 49.48138 | 18.32223 | 86° | 106km/h | 12064m | -5.6m/s | -58.3°C | 38.2% | 0hPa | 2.6V | 00:00:00 | 00:00:00 | 00:00:00 | |
| OE3OSB-13 | 2026-09-01 13:18:39 | 49.48136 | 18.32181 | 85° | 106km/h | 12070m | -5.6m/s | -58.4°C | 32.5% | -1.0hPa | 2.6V | 00:00:00 | 00:00:00 | 00:00:00 | |
| OE5DRO-10 | 2026-09-01 13:18:28 | 49.48115 | 18.31724 | 87° | 104km/h | 12130m | -5.7m/s | -58.5°C | 38.1% | 0hPa | 2.6V | 00:00:00 | 00:00:00 | 00:00:00 | |
| PETON7-10 | 2026-09-01 13:18:25 | 49.48110 | 18.31604 | 87° | 106km/h | 12146m | -5.4m/s | -58.4°C | 37.9% | 0hPa | 2.5V | 07:55:00 | 00:00:00 | 00:00:00 | |
| OE3JTB-15 | 2026-09-01 13:18:22 | 49.48105 | 18.31482 | 87° | 106km/h | 12164m | -5.8m/s | -58.5°C | 36.3% | 0hPa | 2.5V | 00:00:00 | 00:00:00 | 00:00:00 | |
| PETON7-10 | 2026-09-01 13:18:10 | 49.48088 | 18.30992 | 88° | 104km/h | 12230m | -5.1m/s | -58.2°C | 27.3% | 0hPa | 2.5V | 00:00:00 | 02:38:20 | 00:00:00 | |
| OE5DRO-10 | 2026-09-01 13:18:09 | 49.48087 | 18.30953 | 88° | 106km/h | 12235m | -5.0m/s | -58.2°C | 27.0% | 0hPa | 2.5V | 07:55:00 | 00:00:00 | 00:00:00 | |
| OE3OSB-13 | 2026-09-01 13:18:08 | 49.48086 | 18.30913 | 87° | 102km/h | 12240m | -4.9m/s | -58.2°C | 21.8% | -1.0hPa | 2.5V | 00:00:00 | 00:00:00 | 00:00:00 | |
| HA6NAB-11 | 2026-09-01 13:18:04 | 49.48082 | 18.30792 | 88° | 106km/h | 12256m | -5.2m/s | -58.1°C | 20.7% | 0hPa | 2.5V | 07:55:00 | 00:00:00 | 00:00:00 | |
| HA6NAB-11 | 2026-09-01 13:17:59 | 49.48075 | 18.30587 | 87° | 106km/h | 12283m | -5.6m/s | -57.9°C | 18.7% | 0hPa | 2.5V | 07:55:00 | 00:00:00 | 00:00:00 | |
| PETON7-10 | 2026-09-01 13:17:55 | 49.48067 | 18.30382 | 87° | 110km/h | 12311m | -5.4m/s | -57.6°C | 22.0% | 0hPa | 2.5V | 00:00:00 | 00:00:00 | 00:00:00 | |
| HA6NAB-11 | 2026-09-01 13:17:54 | 49.48067 | 18.30382 | 88° | 106km/h | 12311m | -5.5m/s | -57.7°C | 17.6% | 0hPa | 2.6V | 07:56:00 | 00:00:00 | 00:00:00 | |
| OE3JTB-15 | 2026-09-01 13:17:53 | 49.48064 | 18.30298 | 88° | 106km/h | 12321m | -5.1m/s | -57.7°C | 21.7% | 0hPa | 2.6V | 00:00:00 | 02:38:03 | 00:00:00 | |
| OE5DRO-10 | 2026-09-01 13:17:50 | 49.48060 | 18.30170 | 88° | 108km/h | 12337m | -5.1m/s | -57.8°C | 21.7% | 0hPa | 2.6V | 00:00:00 | 00:00:00 | 00:00:00 | |
| HA6NAB-11 | 2026-09-01 13:17:48 | 49.48059 | 18.30127 | 89° | 111km/h | 12342m | -5.1m/s | -57.8°C | 17.2% | 0hPa | 2.6V | 07:56:00 | 00:00:00 | 00:00:00 | |
| HA6NAB-11 | 2026-09-01 13:17:43 | 49.48052 | 18.29912 | 88° | 110km/h | 12367m | -5.1m/s | -58.0°C | 16.9% | 0hPa | 2.6V | 07:56:00 | 00:00:00 | 00:00:00 | |
| PETON7-10 | 2026-09-01 13:17:40 | 49.48047 | 18.29744 | 88° | 104km/h | 12387m | -4.9m/s | -58.0°C | 20.6% | 0hPa | 2.6V | 00:00:00 | 00:00:00 | 00:00:00 | |
| OE3OSB-13 | 2026-09-01 13:17:37 | 49.48045 | 18.29620 | 88° | 106km/h | 12401m | -5.0m/s | -58.1°C | 15.5% | -1.0hPa | 2.6V | 00:00:00 | 00:00:00 | 00:00:00 | |
| PG1ADW-2 | 2026-09-01 13:17:33 | 49.48043 | 18.29456 | 89° | 100km/h | 12423m | -5.4m/s | -57.9°C | 18.8% | 0hPa | 2.6V | 00:00:00 | 00:00:00 | 00:00:00 | |
| OE5DRO-10 | 2026-09-01 13:17:31 | 49.48042 | 18.29375 | 89° | 99km/h | 12434m | -5.5m/s | -57.9°C | 18.5% | 0hPa | 2.6V | 00:00:00 | 00:00:00 | 00:00:00 | |
| HA6NAB-11 | 2026-09-01 13:17:30 | 49.48042 | 18.29375 | 90° | 104km/h | 12434m | -5.6m/s | -57.9°C | 14.4% | 0hPa | 2.6V | 07:56:00 | 00:00:00 | 00:00:00 | |
| PETON7-10 | 2026-09-01 13:17:25 | 49.48043 | 18.29136 | 93° | 97km/h | 12467m | -5.6m/s | -58.0°C | 17.5% | 0hPa | 2.6V | 00:00:00 | 02:37:35 | 00:00:00 | |
| HA6NAB-11 | 2026-09-01 13:17:24 | 49.48043 | 18.29136 | 93° | 100km/h | 12467m | -5.6m/s | -58.0°C | 13.5% | 0hPa | 2.6V | 07:56:00 | 00:00:00 | 00:00:00 | |
| OE3JTB-15 | 2026-09-01 13:17:23 | 49.48045 | 18.29059 | 93° | 95km/h | 12477m | -5.0m/s | -58.0°C | 17.4% | 0hPa | 2.6V | 00:00:00 | 00:00:00 | 00:00:00 | |
| HA6NAB-11 | 2026-09-01 13:17:19 | 49.48049 | 18.28945 | 95° | 97km/h | 12493m | -5.1m/s | -58.0°C | 13.0% | 0hPa | 2.5V | 07:56:00 | 00:00:00 | 00:00:00 | |
| PG1ADW-2 | 2026-09-01 13:17:13 | 49.48062 | 18.28687 | 93° | 93km/h | 12528m | -5.2m/s | -58.2°C | 16.3% | 0hPa | 2.5V | 07:56:00 | 00:00:00 | 00:00:00 | |
| OE5DRO-10 | 2026-09-01 13:17:12 | 49.48062 | 18.28649 | 92° | 93km/h | 12534m | -5.1m/s | -58.2°C | 16.2% | 0hPa | 2.6V | 00:00:00 | 00:00:00 | 00:00:00 | |
| PETON7-10 | 2026-09-01 13:17:10 | 49.48063 | 18.28574 | 92° | 93km/h | 12544m | -4.8m/s | -58.2°C | 16.3% | 0hPa | 2.6V | 00:00:00 | 00:00:00 | 00:00:00 | |
| HA6NAB-11 | 2026-09-01 13:17:07 | 49.48065 | 18.28496 | 93° | 100km/h | 12553m | -4.7m/s | -58.3°C | 11.8% | 0hPa | 2.6V | 07:56:00 | 00:00:00 | 00:00:00 | |
| OE3OSB-13 | 2026-09-01 13:17:06 | 49.48074 | 18.28134 | 91° | 88km/h | 12607m | -6.1m/s | -58.0°C | 9.8% | -1.0hPa | 2.6V | 00:00:00 | 00:00:00 | 00:00:00 | |
| HA6NAB-11 | 2026-09-01 13:17:01 | 49.48071 | 18.28272 | 93° | 89km/h | 12584m | -5.2m/s | -58.2°C | 10.7% | 0hPa | 2.6V | 07:57:00 | 00:00:00 | 00:00:00 | |
| PETON7-10 | 2026-09-01 13:16:55 | 49.48077 | 18.28031 | 94° | 86km/h | 12624m | -5.0m/s | -57.8°C | 13.6% | 0hPa | 2.6V | 00:00:00 | 00:00:00 | 00:00:00 | |
| OE3JTB-15 | 2026-09-01 13:16:54 | 49.48078 | 18.27996 | 94° | 82km/h | 12629m | -5.4m/s | -57.8°C | 13.3% | 0hPa | 2.6V | 00:00:00 | 00:00:00 | 00:00:00 | |
| PG1ADW-2 | 2026-09-01 13:16:53 | 49.48079 | 18.27960 | 93° | 84km/h | 12635m | -5.1m/s | -57.7°C | 13.1% | 0hPa | 2.6V | 00:00:00 | 00:00:00 | 00:00:00 | |
| HA6NAB-11 | 2026-09-01 13:16:48 | 49.48083 | 18.27823 | 92° | 86km/h | 12656m | -5.7m/s | -56.7°C | 8.0% | 0hPa | 2.6V | 07:57:00 | 00:00:00 | 00:00:00 | |
| PETON7-10 | 2026-09-01 13:16:40 | 49.48084 | 18.27538 | 91° | 80km/h | 12708m | -5.7m/s | -57.0°C | 10.9% | 0hPa | 2.6V | 00:00:00 | 02:36:50 | 00:00:00 | |
| OE3OSB-13 | 2026-09-01 13:16:35 | 49.48086 | 18.27347 | 90° | 80km/h | 12739m | -4.8m/s | -57.1°C | 7.1% | -1.0hPa | 2.6V | 00:00:00 | 00:00:00 | 00:00:00 | |
| OE5DRO-10 | 2026-09-01 13:16:34 | 49.48086 | 18.27347 | 91° | 78km/h | 12739m | -4.7m/s | -57.1°C | 10.6% | 0hPa | 2.6V | 00:00:00 | 00:00:00 | 00:00:00 | |
| PG1ADW-2 | 2026-09-01 13:16:33 | 49.48086 | 18.27316 | 91° | 78km/h | 12744m | -4.7m/s | -56.9°C | 10.4% | 0hPa | 2.6V | 00:00:00 | 02:36:43 | 00:00:00 | |
| OE5DRO-10 | 2026-09-01 13:16:14 | 49.48082 | 18.26740 | 88° | 88km/h | 12848m | -6.2m/s | -57.8°C | 9.7% | 0hPa | 2.6V | 00:00:00 | 00:00:00 | 00:00:00 | |
| PG1ADW-2 | 2026-09-01 13:16:13 | 49.48080 | 18.26708 | 88° | 88km/h | 12854m | -5.6m/s | -57.8°C | 9.5% | 0hPa | 2.6V | 00:00:00 | 00:00:00 | 00:00:00 | |
| HA6NAB-11 | 2026-09-01 13:16:12 | 49.48080 | 18.26708 | 88° | 82km/h | 12854m | -5.7m/s | -57.8°C | 6.3% | 0hPa | 2.5V | 00:00:00 | 00:00:00 | 00:00:00 | |
| PETON7-10 | 2026-09-01 13:16:10 | 49.48077 | 18.26610 | 88° | 88km/h | 12870m | -5.8m/s | -57.7°C | 9.2% | 0hPa | 2.5V | 00:00:00 | 00:00:00 | 00:00:00 | |
| HA6NAB-11 | 2026-09-01 13:16:06 | 49.48075 | 18.26510 | 89° | 86km/h | 12888m | -5.2m/s | -57.7°C | 5.8% | 0hPa | 2.5V | 00:00:00 | 00:00:00 | 00:00:00 | |
| OE3OSB-13 | 2026-09-01 13:16:04 | 49.48072 | 18.26375 | 87° | 88km/h | 12909m | -5.4m/s | -57.8°C | 5.3% | -1.0hPa | 2.5V | 00:00:00 | 00:00:00 | 00:00:00 | |
| HA6NAB-11 | 2026-09-01 13:16:00 | 49.48070 | 18.26305 | 89° | 89km/h | 12921m | -5.6m/s | -57.8°C | 5.4% | 0hPa | 2.5V | 00:00:00 | 00:00:00 | 00:00:00 | |
| OE3JTB-15 | 2026-09-01 13:15:56 | 49.48063 | 18.26130 | 87° | 97km/h | 12948m | -6.2m/s | -57.7°C | 8.2% | 0hPa | 2.5V | 07:57:00 | 00:00:00 | 00:00:00 | |
| PETON7-10 | 2026-09-01 13:15:55 | 49.48062 | 18.26094 | 87° | 97km/h | 12954m | -6.1m/s | -57.7°C | 8.2% | 0hPa | 2.6V | 00:00:00 | 02:36:05 | 00:00:00 | |
| HA6NAB-11 | 2026-09-01 13:15:54 | 49.48062 | 18.26094 | 88° | 91km/h | 12954m | -6.1m/s | -57.7°C | 5.0% | 0hPa | 2.6V | 00:00:00 | 00:00:00 | 00:00:00 | |
| OE5DXL-15 | 2026-09-01 13:15:53 | 49.48060 | 18.26023 | 88° | 99km/h | 12966m | -5.4m/s | -57.6°C | 8.1% | 0hPa | 2.6V | 00:00:00 | 00:00:00 | 00:00:00 | |
| HA6NAB-11 | 2026-09-01 13:15:49 | 49.48058 | 18.25913 | 90° | 97km/h | 12981m | -5.1m/s | -57.7°C | 4.8% | 0hPa | 2.6V | 00:00:00 | 00:00:00 | 00:00:00 | |
| HA6NAB-11 | 2026-09-01 13:15:43 | 49.48059 | 18.25682 | 92° | 100km/h | 13010m | -5.2m/s | -57.7°C | 4.4% | 0hPa | 2.6V | 00:00:00 | 00:00:00 | 00:00:00 | |
| PETON7-10 | 2026-09-01 13:15:40 | 49.48062 | 18.25530 | 93° | 97km/h | 13032m | -5.6m/s | -57.6°C | 7.2% | 0hPa | 2.6V | 00:00:00 | 00:00:00 | 00:00:00 | |
| OE5DRO-10 | 2026-09-01 13:15:36 | 49.48069 | 18.25381 | 95° | 97km/h | 13053m | -5.9m/s | -57.0°C | 6.5% | 0hPa | 2.5V | 07:58:00 | 00:00:00 | 00:00:00 | |
| OE3OSB-13 | 2026-09-01 13:15:33 | 49.48078 | 18.25230 | 95° | 99km/h | 13075m | -5.5m/s | -56.5°C | 3.1% | -1.0hPa | 2.5V | 00:00:00 | 00:00:00 | 00:00:00 | |
| OE3JTB-15 | 2026-09-01 13:15:27 | 49.48092 | 18.25040 | 97° | 91km/h | 13100m | -5.0m/s | -55.8°C | 5.6% | 0hPa | 2.5V | 00:00:00 | 00:00:00 | 00:00:00 | |
| PETON7-10 | 2026-09-01 13:15:25 | 49.48097 | 18.24965 | 98° | 93km/h | 13110m | -5.1m/s | -55.8°C | 5.5% | 0hPa | 2.5V | 00:00:00 | 00:00:00 | 00:00:00 | |
| OE5DXL-15 | 2026-09-01 13:15:23 | 49.48104 | 18.24891 | 99° | 88km/h | 13120m | -5.1m/s | -55.7°C | 5.4% | 0hPa | 2.5V | 00:00:00 | 00:00:00 | 00:00:00 | |
| OE5DRO-10 | 2026-09-01 13:15:17 | 49.48128 | 18.24672 | 101° | 88km/h | 13155m | -5.9m/s | -55.5°C | 5.2% | 0hPa | 2.5V | 00:00:00 | 00:00:00 | 00:00:00 | |
| PG1ADW-2 | 2026-09-01 13:15:13 | 49.48145 | 18.24531 | 102° | 86km/h | 13176m | -4.9m/s | -55.3°C | 5.1% | 0hPa | 2.5V | 00:00:00 | 02:35:23 | 00:00:00 | |
| PETON7-10 | 2026-09-01 13:15:10 | 49.48158 | 18.24429 | 102° | 84km/h | 13191m | -5.2m/s | -55.1°C | 5.0% | 0hPa | 2.6V | 00:00:00 | 02:35:20 | 00:00:00 | |
| HA6NAB-11 | 2026-09-01 13:15:07 | 49.48167 | 18.24362 | 102° | 86km/h | 13201m | -4.8m/s | -54.9°C | 2.3% | 0hPa | 2.6V | 07:59:00 | 00:00:00 | 00:00:00 | |
| HA6NAB-11 | 2026-09-01 13:15:01 | 49.48189 | 18.24168 | 99° | 82km/h | 13230m | -5.5m/s | -54.5°C | 2.1% | 0hPa | 2.6V | 07:59:00 | 00:00:00 | 00:00:00 | |
| OE3JTB-15 | 2026-09-01 13:14:58 | 49.48201 | 18.24040 | 97° | 86km/h | 13251m | -4.9m/s | -54.3°C | 4.5% | 0hPa | 2.6V | 00:00:00 | 02:35:08 | 00:00:00 | |
| HA6NAB-11 | 2026-09-01 13:14:56 | 49.48203 | 18.24008 | 97° | 84km/h | 13256m | -5.3m/s | -54.4°C | 2.0% | 0hPa | 2.6V | 07:59:00 | 00:00:00 | 00:00:00 | |
| PETON7-10 | 2026-09-01 13:14:55 | 49.48208 | 18.23943 | 96° | 84km/h | 13267m | -5.6m/s | -54.3°C | 4.4% | 0hPa | 2.6V | 00:00:00 | 00:00:00 | 00:00:00 | |
| OE5DXL-15 | 2026-09-01 13:14:53 | 49.48211 | 18.23878 | 94° | 86km/h | 13279m | -5.4m/s | -54.3°C | 4.3% | 0hPa | 2.6V | 00:00:00 | 00:00:00 | 00:00:00 | |
| HA6NAB-11 | 2026-09-01 13:14:50 | 49.48213 | 18.23813 | 94° | 84km/h | 13290m | -5.7m/s | -54.2°C | 1.9% | 0hPa | 2.6V | 07:59:00 | 00:00:00 | 00:00:00 | |
| HA6NAB-11 | 2026-09-01 13:14:45 | 49.48217 | 18.23650 | 92° | 84km/h | 13316m | -5.5m/s | -54.1°C | 1.8% | 0hPa | 2.6V | 07:59:00 | 00:00:00 | 00:00:00 | |
| PETON7-10 | 2026-09-01 13:14:40 | 49.48216 | 18.23452 | 89° | 88km/h | 13349m | -5.3m/s | -53.8°C | 4.0% | 0hPa | 2.6V | 00:00:00 | 00:00:00 | 00:00:00 | |
| OE5DRO-10 | 2026-09-01 13:14:39 | 49.48216 | 18.23419 | 89° | 89km/h | 13354m | -4.5m/s | -53.8°C | 4.1% | 0hPa | 2.6V | 00:00:00 | 00:00:00 | 00:00:00 | |
| PG1ADW-2 | 2026-09-01 13:14:33 | 49.48211 | 18.23218 | 88° | 89km/h | 13385m | -5.1m/s | -53.7°C | 4.1% | 0hPa | 2.5V | 07:59:00 | 00:00:00 | 00:00:00 | |
| HA6NAB-11 | 2026-09-01 13:14:32 | 49.48211 | 18.23218 | 89° | 88km/h | 13385m | -5.2m/s | -53.8°C | 1.8% | 0hPa | 2.5V | 07:59:00 | 00:00:00 | 00:00:00 | |
| OE3OSB-13 | 2026-09-01 13:14:30 | 49.48208 | 18.23115 | 87° | 89km/h | 13401m | -5.0m/s | -53.7°C | 1.6% | -1.0hPa | 2.5V | 00:00:00 | 00:00:00 | 00:00:00 | |
| OE3JTB-15 | 2026-09-01 13:14:29 | 49.48207 | 18.23080 | 87° | 89km/h | 13406m | -5.4m/s | -53.6°C | 4.1% | 0hPa | 2.5V | 00:00:00 | 00:00:00 | 00:00:00 | |
| HA6NAB-11 | 2026-09-01 13:14:27 | 49.48206 | 18.23045 | 87° | 91km/h | 13411m | -5.3m/s | -53.5°C | 1.7% | 0hPa | 2.6V | 08:00:00 | 00:00:00 | 00:00:00 | |
| PETON7-10 | 2026-09-01 13:14:25 | 49.48200 | 18.22939 | 85° | 91km/h | 13427m | -5.2m/s | -53.4°C | 3.9% | 0hPa | 2.6V | 07:59:00 | 02:34:35 | 00:00:00 | |
| HA6NAB-11 | 2026-09-01 13:14:22 | 49.48195 | 18.22869 | 86° | 91km/h | 13437m | -5.8m/s | -53.4°C | 1.7% | 0hPa | 2.6V | 08:00:00 | 00:00:00 | 00:00:00 | |
| OE5DRO-10 | 2026-09-01 13:14:20 | 49.48190 | 18.22762 | 87° | 89km/h | 13454m | -5.3m/s | -53.4°C | 4.0% | 0hPa | 2.6V | 00:00:00 | 00:00:00 | 00:00:00 | |
| HA6NAB-11 | 2026-09-01 13:14:15 | 49.48184 | 18.22623 | 86° | 89km/h | 13477m | -5.8m/s | -53.2°C | 1.7% | 0hPa | 2.6V | 08:00:00 | 00:00:00 | 00:00:00 | |
| PG1ADW-2 | 2026-09-01 13:14:13 | 49.48177 | 18.22520 | 85° | 86km/h | 13495m | -6.4m/s | -53.2°C | 3.9% | 0hPa | 2.6V | 00:00:00 | 00:00:00 | 00:00:00 | |
| PETON7-10 | 2026-09-01 13:14:10 | 49.48171 | 18.22416 | 85° | 86km/h | 13513m | -6.3m/s | -53.2°C | 3.9% | 0hPa | 2.5V | 00:00:00 | 00:00:00 | 00:00:00 | |
| HA6NAB-11 | 2026-09-01 13:14:07 | 49.48167 | 18.22346 | 87° | 89km/h | 13525m | -6.1m/s | -53.3°C | 1.6% | 0hPa | 2.5V | 08:00:00 | 00:00:00 | 00:00:00 | |
| HA6NAB-11 | 2026-09-01 13:14:02 | 49.48161 | 18.22177 | 89° | 86km/h | 13553m | -6.0m/s | -53.3°C | 1.7% | 0hPa | 2.5V | 08:00:00 | 00:00:00 | 00:00:00 | |
| OE3OSB-13 | 2026-09-01 13:13:59 | 49.48157 | 18.22047 | 86° | 82km/h | 13577m | -6.2m/s | -53.5°C | 1.5% | -1.0hPa | 2.5V | 00:00:00 | 00:00:00 | 00:00:00 | |
| SQ9EZE-14 | 2026-09-01 13:13:56 | 49.48154 | 18.21983 | 87° | 82km/h | 13590m | -6.6m/s | -53.6°C | 0% | 0hPa | 2.5V | 00:00:00 | 00:00:00 | 00:00:00 | |
| PETON7-10 | 2026-09-01 13:13:55 | 49.48151 | 18.21919 | 86° | 86km/h | 13602m | -6.0m/s | -53.5°C | 4.0% | 0hPa | 2.5V | 00:00:00 | 00:00:00 | 00:00:00 | |
| PG1ADW-2 | 2026-09-01 13:13:53 | 49.48147 | 18.21854 | 85° | 88km/h | 13615m | -6.0m/s | -53.5°C | 4.0% | 0hPa | 2.5V | 00:00:00 | 02:34:03 | 00:00:00 | |
| HA6NAB-11 | 2026-09-01 13:13:47 | 49.48138 | 18.21688 | 86° | 86km/h | 13646m | -6.1m/s | -53.5°C | 1.6% | 0hPa | 2.5V | 08:00:00 | 00:00:00 | 00:00:00 | |
| OE5DRO-10 | 2026-09-01 13:13:42 | 49.48128 | 18.21492 | 86° | 89km/h | 13683m | -6.2m/s | -53.4°C | 3.9% | 0hPa | 2.5V | 00:00:00 | 00:00:00 | 00:00:00 | |
| SQ9EZE-14 | 2026-09-01 13:13:41 | 49.48128 | 18.21492 | 87° | 84km/h | 13683m | -6.2m/s | 0°C | 0% | 0hPa | 2.6V | 00:00:00 | 00:00:00 | 00:00:00 | |
| PETON7-10 | 2026-09-01 13:13:40 | 49.48125 | 18.21425 | 86° | 89km/h | 13695m | -5.9m/s | -53.4°C | 3.8% | 0hPa | 2.6V | 00:00:00 | 02:33:50 | 00:00:00 | |
| OE5DXL-15 | 2026-09-01 13:13:37 | 49.48119 | 18.21321 | 86° | 88km/h | 13714m | -5.6m/s | -53.4°C | 3.9% | 0hPa | 2.6V | 00:00:00 | 02:33:47 | 00:00:00 | |
| HA6NAB-11 | 2026-09-01 13:13:35 | 49.48117 | 18.21285 | 87° | 93km/h | 13719m | -5.6m/s | -53.5°C | 1.6% | 0hPa | 2.6V | 08:00:00 | 00:00:00 | 00:00:00 | |
| PG1ADW-2 | 2026-09-01 13:13:33 | 49.48112 | 18.21178 | 87° | 88km/h | 13736m | -5.4m/s | -53.5°C | 3.9% | 0hPa | 2.6V | 00:00:00 | 00:00:00 | 00:00:00 | |
| OE3JTB-15 | 2026-09-01 13:13:31 | 49.48109 | 18.21108 | 87° | 88km/h | 13748m | -5.9m/s | -53.6°C | 4.0% | 0hPa | 2.6V | 00:00:00 | 02:33:41 | 00:00:00 | |
| HA6NAB-11 | 2026-09-01 13:13:29 | 49.48108 | 18.21073 | 87° | 89km/h | 13754m | -5.7m/s | -53.7°C | 1.7% | 0hPa | 2.6V | 08:00:00 | 00:00:00 | 00:00:00 | |
| OE3OSB-13 | 2026-09-01 13:13:28 | 49.48104 | 18.21004 | 85° | 88km/h | 13766m | -6.0m/s | -53.8°C | 1.5% | -1.0hPa | 2.6V | 00:00:00 | 00:00:00 | 00:00:00 | |
| SQ9EZE-14 | 2026-09-01 13:13:26 | 49.48102 | 18.20970 | 86° | 88km/h | 13773m | -6.0m/s | 0°C | 0% | 0hPa | 2.6V | 00:00:00 | 00:00:00 | 00:00:00 | |
| PETON7-10 | 2026-09-01 13:13:25 | 49.48098 | 18.20902 | 85° | 86km/h | 13785m | -6.0m/s | -53.9°C | 4.0% | 0hPa | 2.6V | 00:00:00 | 00:00:00 | 00:00:00 | |
| OE5DRO-10 | 2026-09-01 13:13:23 | 49.48093 | 18.20834 | 83° | 88km/h | 13797m | -5.9m/s | -53.9°C | 3.9% | 0hPa | 2.5V | 00:00:00 | 00:00:00 | 00:00:00 | |
| PG1ADW-2 | 2026-09-01 13:13:13 | 49.48072 | 18.20504 | 87° | 88km/h | 13863m | -7.0m/s | -53.9°C | 4.0% | 0hPa | 2.5V | 08:00:00 | 00:00:00 | 00:00:00 | |
| PETON7-10 | 2026-09-01 13:13:10 | 49.48068 | 18.20404 | 86° | 89km/h | 13883m | -6.9m/s | -53.9°C | 4.0% | 0hPa | 2.6V | 00:00:00 | 00:00:00 | 00:00:00 | |
| OE5DXL-15 | 2026-09-01 13:13:06 | 49.48060 | 18.20265 | 85° | 86km/h | 13910m | -6.4m/s | -54.0°C | 4.0% | 0hPa | 2.6V | 00:00:00 | 00:00:00 | 00:00:00 | |
| OE5DRO-10 | 2026-09-01 13:13:04 | 49.48056 | 18.20195 | 85° | 88km/h | 13923m | -6.6m/s | -54.0°C | 4.0% | 0hPa | 2.6V | 00:00:00 | 00:00:00 | 00:00:00 | |
| OE3OSB-13 | 2026-09-01 13:12:57 | 49.48043 | 18.19952 | 86° | 86km/h | 13971m | -7.3m/s | -54.0°C | 1.5% | -1.0hPa | 2.6V | 00:00:00 | 00:00:00 | 00:00:00 | |
| PETON7-10 | 2026-09-01 13:12:55 | 49.48040 | 18.19886 | 86° | 86km/h | 13985m | -7.1m/s | -53.9°C | 4.0% | 0hPa | 2.6V | 00:00:00 | 02:33:05 | 00:00:00 | |
| HA6NAB-11 | 2026-09-01 13:12:54 | 49.48040 | 18.19886 | 86° | 86km/h | 13985m | -7.1m/s | -54.0°C | 1.7% | 0hPa | 2.6V | 08:00:00 | 00:00:00 | 00:00:00 | |
| PG1ADW-2 | 2026-09-01 13:12:53 | 49.48036 | 18.19820 | 85° | 86km/h | 13998m | -5.8m/s | -53.9°C | 4.1% | 0hPa | 2.6V | 00:00:00 | 00:00:00 | 00:00:00 | |
| HA6NAB-11 | 2026-09-01 13:12:48 | 49.48027 | 18.19687 | 84° | 86km/h | 14021m | -6.1m/s | -54.0°C | 1.7% | 0hPa | 2.6V | 00:00:00 | 00:00:00 | 00:00:00 | |
| HA6NAB-11 | 2026-09-01 13:12:43 | 49.48016 | 18.19522 | 87° | 84km/h | 14054m | -6.6m/s | -53.9°C | 1.7% | 0hPa | 2.6V | 00:00:00 | 00:00:00 | 00:00:00 | |
| PETON7-10 | 2026-09-01 13:12:40 | 49.48012 | 18.19393 | 89° | 88km/h | 14081m | -7.0m/s | -53.8°C | 4.1% | 0hPa | 2.6V | 08:01:00 | 00:00:00 | 00:00:00 | |
| HA6NAB-11 | 2026-09-01 13:12:37 | 49.48011 | 18.19328 | 90° | 86km/h | 14095m | -7.2m/s | -53.6°C | 1.7% | 0hPa | 2.5V | 00:00:00 | 00:00:00 | 00:00:00 | |
| OE5DXL-15 | 2026-09-01 13:12:35 | 49.48010 | 18.19225 | 90° | 89km/h | 14116m | -6.6m/s | -53.6°C | 3.9% | 0hPa | 2.5V | 00:00:00 | 00:00:00 | 00:00:00 | |
| PG1ADW-2 | 2026-09-01 13:12:33 | 49.48010 | 18.19155 | 90° | 89km/h | 14129m | -6.5m/s | -53.6°C | 3.9% | 0hPa | 2.5V | 00:00:00 | 02:32:43 | 00:00:00 | |
| HA6NAB-11 | 2026-09-01 13:12:31 | 49.48010 | 18.19120 | 91° | 91km/h | 14135m | -5.9m/s | -53.6°C | 1.6% | 0hPa | 2.5V | 00:00:00 | 00:00:00 | 00:00:00 | |
| OE5DRO-10 | 2026-09-01 13:12:26 | 49.48012 | 18.18914 | 92° | 89km/h | 14176m | -6.7m/s | -53.6°C | 3.9% | 0hPa | 2.5V | 00:00:00 | 00:00:00 | 00:00:00 | |
| PETON7-10 | 2026-09-01 13:12:25 | 49.48012 | 18.18880 | 92° | 89km/h | 14182m | -6.6m/s | -53.6°C | 3.9% | 0hPa | 2.5V | 00:00:00 | 00:00:00 | 00:00:00 | |
| PG1ADW-2 | 2026-09-01 13:12:13 | 49.48014 | 18.18464 | 91° | 89km/h | 14258m | -6.2m/s | -53.8°C | 3.9% | 0hPa | 2.5V | 00:00:00 | 00:00:00 | 00:00:00 | |
| PETON7-10 | 2026-09-01 13:12:10 | 49.48014 | 18.18360 | 91° | 89km/h | 14277m | -6.3m/s | -54.0°C | 3.9% | 0hPa | 2.5V | 00:00:00 | 02:32:20 | 00:00:00 | |
| OE5DRO-10 | 2026-09-01 13:12:07 | 49.48013 | 18.18256 | 88° | 89km/h | 14297m | -6.7m/s | -54.1°C | 4.0% | 0hPa | 2.5V | 00:00:00 | 00:00:00 | 00:00:00 | |
| OE5DXL-15 | 2026-09-01 13:12:05 | 49.48010 | 18.18186 | 87° | 89km/h | 14310m | -6.0m/s | -54.3°C | 4.0% | 0hPa | 2.5V | 00:00:00 | 00:00:00 | 00:00:00 | |
| OE3JTB-15 | 2026-09-01 13:12:04 | 49.48009 | 18.18151 | 86° | 89km/h | 14316m | -6.3m/s | -54.3°C | 4.0% | 0hPa | 2.5V | 00:00:00 | 02:32:14 | 00:00:00 | |
| SP3WXH-11 | 2026-09-01 13:11:58 | 49.48000 | 18.17940 | 88° | 89km/h | 14353m | -6.3m/s | -54.7°C | 1.5% | -1.0hPa | 2.5V | 00:00:00 | 00:00:00 | 00:00:00 | |
| PETON7-10 | 2026-09-01 13:11:55 | 49.47997 | 18.17836 | 88° | 89km/h | 14373m | -6.6m/s | -54.8°C | 4.4% | 0hPa | 2.5V | 00:00:00 | 00:00:00 | 00:00:00 | |
| PG1ADW-2 | 2026-09-01 13:11:53 | 49.47995 | 18.17768 | 88° | 88km/h | 14386m | -7.0m/s | -54.9°C | 4.4% | 0hPa | 2.5V | 00:00:00 | 00:00:00 | 00:00:00 | |
| OE5DRO-10 | 2026-09-01 13:11:48 | 49.47993 | 18.17596 | 92° | 88km/h | 14419m | -6.0m/s | -54.6°C | 4.2% | 0hPa | 2.5V | 00:00:00 | 00:00:00 | 00:00:00 | |
| PETON7-10 | 2026-09-01 13:11:40 | 49.48001 | 18.17320 | 90° | 88km/h | 14469m | -6.2m/s | -54.0°C | 4.0% | 0hPa | 2.5V | 00:00:00 | 00:00:00 | 00:00:00 | |
| OE5DXL-15 | 2026-09-01 13:11:35 | 49.47999 | 18.17150 | 91° | 86km/h | 14500m | -6.2m/s | -53.9°C | 3.9% | 0hPa | 2.5V | 00:00:00 | 00:00:00 | 00:00:00 | |
| PG1ADW-2 | 2026-09-01 13:11:33 | 49.47999 | 18.17082 | 92° | 86km/h | 14512m | -6.1m/s | -53.8°C | 3.9% | 0hPa | 2.5V | 00:00:00 | 00:00:00 | 00:00:00 | |
| OE5DRO-10 | 2026-09-01 13:11:29 | 49.48000 | 18.16948 | 88° | 86km/h | 14536m | -6.4m/s | -53.7°C | 3.8% | 0hPa | 2.5V | 00:00:00 | 00:00:00 | 00:00:00 | |
| SP3WXH-11 | 2026-09-01 13:11:27 | 49.47998 | 18.16881 | 85° | 86km/h | 14548m | -6.2m/s | -53.8°C | 1.3% | -1.0hPa | 2.5V | 00:00:00 | 00:00:00 | 00:00:00 | |
| PETON7-10 | 2026-09-01 13:11:25 | 49.47993 | 18.16814 | 84° | 86km/h | 14561m | -6.3m/s | -53.8°C | 3.8% | 0hPa | 2.5V | 00:00:00 | 02:31:35 | 00:00:00 | |
| OE3OSB-13 | 2026-09-01 13:11:24 | 49.47991 | 18.16781 | 82° | 86km/h | 14567m | -6.0m/s | -53.9°C | 1.3% | -1.0hPa | 2.5V | 00:00:00 | 00:00:00 | 00:00:00 | |
| HA6NAB-11 | 2026-09-01 13:11:15 | 49.47976 | 18.16516 | 90° | 84km/h | 14616m | -7.8m/s | -54.3°C | 1.5% | 0hPa | 2.5V | 08:02:00 | 00:00:00 | 00:00:00 | |
| PG1ADW-2 | 2026-09-01 13:11:13 | 49.47975 | 18.16417 | 90° | 84km/h | 14637m | -7.1m/s | -54.3°C | 3.9% | 0hPa | 2.5V | 00:00:00 | 02:31:23 | 00:00:00 | |
| PETON7-10 | 2026-09-01 13:11:10 | 49.47975 | 18.16317 | 90° | 86km/h | 14659m | -7.2m/s | -54.0°C | 3.8% | 0hPa | 2.6V | 00:00:00 | 00:00:00 | 00:00:00 | |
| HA6NAB-11 | 2026-09-01 13:11:09 | 49.47974 | 18.16317 | 91° | 86km/h | 14659m | -7.2m/s | -54.0°C | 1.4% | 0hPa | 2.6V | 08:02:00 | 00:00:00 | 00:00:00 | |
| SQ9EZE-14 | 2026-09-01 13:11:07 | 49.47975 | 18.16251 | 92° | 86km/h | 14673m | -7.4m/s | 0°C | 0% | 0hPa | 2.6V | 08:02:00 | 00:00:00 | 00:00:00 | |
| OE3JTB-15 | 2026-09-01 13:11:06 | 49.47977 | 18.16184 | 94° | 80km/h | 14688m | -7.1m/s | -54.0°C | 3.8% | 0hPa | 2.6V | 00:00:00 | 00:00:00 | 00:00:00 | |
| OE5DXL-15 | 2026-09-01 13:11:05 | 49.47978 | 18.16150 | 95° | 80km/h | 14695m | -6.5m/s | -54.0°C | 3.9% | 0hPa | 2.6V | 00:00:00 | 00:00:00 | 00:00:00 | |
| HA6NAB-11 | 2026-09-01 13:11:03 | 49.47980 | 18.16117 | 96° | 88km/h | 14702m | -6.5m/s | -54.0°C | 1.4% | 0hPa | 2.6V | 00:00:00 | 00:00:00 | 00:00:00 | |
| SP3WXH-11 | 2026-09-01 13:10:56 | 49.48000 | 18.15824 | 96° | 78km/h | 14762m | -6.7m/s | -53.6°C | 1.2% | -1.0hPa | 2.6V | 00:00:00 | 00:00:00 | 00:00:00 | |
| PETON7-10 | 2026-09-01 13:10:55 | 49.48000 | 18.15824 | 97° | 78km/h | 14762m | -6.7m/s | -53.5°C | 3.8% | 0hPa | 2.6V | 00:00:00 | 00:00:00 | 00:00:00 | |
| PG1ADW-2 | 2026-09-01 13:10:53 | 49.48005 | 18.15763 | 96° | 77km/h | 14776m | -6.8m/s | -53.5°C | 3.7% | 0hPa | 2.6V | 00:00:00 | 00:00:00 | 00:00:00 | |
| HA6NAB-11 | 2026-09-01 13:10:52 | 49.48005 | 18.15763 | 97° | 80km/h | 14776m | -6.8m/s | -53.5°C | 1.4% | 0hPa | 2.6V | 00:00:00 | 00:00:00 | 00:00:00 | |
| OE5DRO-10 | 2026-09-01 13:10:51 | 49.48008 | 18.15701 | 94° | 77km/h | 14790m | -6.7m/s | -53.4°C | 3.7% | 0hPa | 2.6V | 00:00:00 | 00:00:00 | 00:00:00 | |
| HA6NAB-11 | 2026-09-01 13:10:46 | 49.48010 | 18.15580 | 92° | 77km/h | 14818m | -7.3m/s | -53.0°C | 1.2% | 0hPa | 2.5V | 00:00:00 | 00:00:00 | 00:00:00 | |
| PETON7-10 | 2026-09-01 13:10:40 | 49.48015 | 18.15371 | 94° | 73km/h | 14864m | -7.1m/s | -52.6°C | 3.4% | 0hPa | 2.5V | 00:00:00 | 02:30:50 | 00:00:00 | |
| OE3JTB-15 | 2026-09-01 13:10:37 | 49.48019 | 18.15284 | 95° | 73km/h | 14885m | -6.8m/s | -52.7°C | 3.5% | 0hPa | 2.5V | 00:00:00 | 02:30:47 | 00:00:00 | |
| OE5DXL-15 | 2026-09-01 13:10:35 | 49.48022 | 18.15227 | 94° | 73km/h | 14898m | -6.7m/s | -52.7°C | 3.5% | 0hPa | 2.5V | 08:03:00 | 00:00:00 | 00:00:00 | |
| PG1ADW-2 | 2026-09-01 13:10:33 | 49.48023 | 18.15170 | 93° | 71km/h | 14913m | -7.1m/s | -52.7°C | 3.5% | 0hPa | 2.5V | 00:00:00 | 00:00:00 | 00:00:00 | |
| OE5DRO-10 | 2026-09-01 13:10:32 | 49.48024 | 18.15142 | 93° | 71km/h | 14920m | -7.3m/s | -52.7°C | 3.5% | 0hPa | 2.5V | 00:00:00 | 00:00:00 | 00:00:00 | |
| PETON7-10 | 2026-09-01 13:10:25 | 49.48027 | 18.14950 | 91° | 73km/h | 14969m | -7.0m/s | -52.7°C | 3.5% | 0hPa | 2.5V | 08:03:00 | 00:00:00 | 00:00:00 | |
| OE3OSB-13 | 2026-09-01 13:10:22 | 49.48025 | 18.14843 | 87° | 69km/h | 14996m | -7.1m/s | -52.7°C | 1.0% | -1.0hPa | 2.6V | 00:00:00 | 00:00:00 | 00:00:00 | |
| OE5DRO-10 | 2026-09-01 13:10:13 | 49.48017 | 18.14616 | 87° | 78km/h | 15052m | -7.2m/s | -52.3°C | 3.4% | 0hPa | 2.6V | 00:00:00 | 00:00:00 | 00:00:00 | |
| PETON7-10 | 2026-09-01 13:10:10 | 49.48013 | 18.14529 | 86° | 80km/h | 15072m | -6.4m/s | -52.4°C | 3.4% | 0hPa | 2.6V | 00:00:00 | 00:00:00 | 00:00:00 | |
| OE3JTB-15 | 2026-09-01 13:10:08 | 49.48010 | 18.14469 | 85° | 78km/h | 15085m | -6.9m/s | -52.5°C | 3.4% | 0hPa | 2.6V | 08:03:00 | 00:00:00 | 00:00:00 | |
| OE5DXL-15 | 2026-09-01 13:10:05 | 49.48004 | 18.14377 | 85° | 78km/h | 15106m | -7.1m/s | -52.6°C | 3.4% | 0hPa | 2.6V | 00:00:00 | 00:00:00 | 00:00:00 | |
| SP3WXH-11 | 2026-09-01 13:09:54 | 49.47981 | 18.14004 | 87° | 78km/h | 15192m | -7.8m/s | -53.0°C | 1.0% | -1.0hPa | 2.6V | 00:00:00 | 00:00:00 | 00:00:00 | |
| OE3OSB-13 | 2026-09-01 13:09:51 | 49.47980 | 18.13914 | 89° | 75km/h | 15215m | -7.5m/s | -53.0°C | 1.0% | -1.0hPa | 2.6V | 00:00:00 | 00:00:00 | 00:00:00 | |
| SONDE2-11 | 2026-09-01 13:09:46 | 49.47980 | 18.13711 | 90° | 77km/h | 15267m | -7.2m/s | -53.0°C | 1.0% | -1.0hPa | 2.6V | 00:00:00 | 00:00:00 | 00:00:00 | |
| PETON7-10 | 2026-09-01 13:09:40 | 49.47980 | 18.13619 | 92° | 75km/h | 15289m | -6.5m/s | -52.9°C | 3.5% | 0hPa | 2.6V | 00:00:00 | 00:00:00 | 00:00:00 | |
| OE3JTB-15 | 2026-09-01 13:09:39 | 49.47981 | 18.13588 | 92° | 73km/h | 15295m | -7.2m/s | -52.8°C | 3.4% | 0hPa | 2.5V | 00:00:00 | 00:00:00 | 00:00:00 | |
| OE5DXL-15 | 2026-09-01 13:09:35 | 49.47983 | 18.13468 | 91° | 71km/h | 15326m | -7.6m/s | -52.7°C | 3.5% | 0hPa | 2.5V | 00:00:00 | 00:00:00 | 00:00:00 | |
| PG1ADW-2 | 2026-09-01 13:09:33 | 49.47983 | 18.13411 | 90° | 73km/h | 15341m | -7.7m/s | -52.8°C | 3.5% | 0hPa | 2.5V | 00:00:00 | 00:00:00 | 00:00:00 | |
| OM5KV | 2026-09-01 13:09:32 | 49.47983 | 18.13411 | 91° | 73km/h | 15341m | -7.7m/s | -52.8°C | 1.2% | 0hPa | 2.5V | 00:00:00 | 00:00:00 | 00:00:00 | |
| OM5KV | 2026-09-01 13:09:31 | 49.47983 | 18.13383 | 91° | 71km/h | 15349m | -7.5m/s | -52.8°C | 1.2% | 0hPa | 2.5V | 00:00:00 | 00:00:00 | 00:00:00 | |
| OM5KV | 2026-09-01 13:09:26 | 49.47985 | 18.13243 | 94° | 75km/h | 15388m | -8.2m/s | -52.6°C | 1.2% | 0hPa | 2.5V | 00:00:00 | 00:00:00 | 00:00:00 | |
| PETON7-10 | 2026-09-01 13:09:25 | 49.47988 | 18.13184 | 94° | 71km/h | 15403m | -7.4m/s | -52.6°C | 3.4% | 0hPa | 2.5V | 00:00:00 | 00:00:00 | 00:00:00 | |
| SP3WXH-11 | 2026-09-01 13:09:23 | 49.47992 | 18.13096 | 94° | 75km/h | 15424m | -7.3m/s | -52.7°C | 1.0% | -1.0hPa | 2.5V | 00:00:00 | 00:00:00 | 00:00:00 | |
| OE3OSB-13 | 2026-09-01 13:09:20 | 49.47996 | 18.13010 | 95° | 71km/h | 15446m | -7.6m/s | -52.8°C | 1.0% | -1.0hPa | 2.5V | 00:00:00 | 00:00:00 | 00:00:00 | |
| OM5KV | 2026-09-01 13:09:19 | 49.47996 | 18.13010 | 96° | 71km/h | 15446m | -7.6m/s | -52.8°C | 1.2% | 0hPa | 2.5V | 08:05:00 | 00:00:00 | 00:00:00 | |
| HA6NAB-11 | 2026-09-01 13:09:17 | 49.47998 | 18.12983 | 96° | 71km/h | 15454m | -7.8m/s | -52.8°C | 1.2% | 0hPa | 2.5V | 00:00:00 | 00:00:00 | 00:00:00 | |
| OE5DRO-10 | 2026-09-01 13:09:16 | 49.48001 | 18.12929 | 95° | 64km/h | 15469m | -7.1m/s | -52.6°C | 3.4% | 0hPa | 2.5V | 00:00:00 | 00:00:00 | 00:00:00 | |
| SONDE2-11 | 2026-09-01 13:09:15 | 49.48005 | 18.12852 | 94° | 66km/h | 15491m | -7.2m/s | -52.6°C | 1.0% | -1.0hPa | 2.5V | 00:00:00 | 00:00:00 | 00:00:00 | |
| PG1ADW-2 | 2026-09-01 13:09:13 | 49.48005 | 18.12851 | 95° | 62km/h | 15491m | -7.2m/s | -52.6°C | 3.4% | 0hPa | 2.5V | 00:00:00 | 00:00:00 | 00:00:00 | |
| HA6NAB-11 | 2026-09-01 13:09:12 | 49.48005 | 18.12851 | 95° | 66km/h | 15491m | -7.2m/s | -52.6°C | 1.2% | 0hPa | 2.6V | 00:00:00 | 00:00:00 | 00:00:00 | |
| PETON7-10 | 2026-09-01 13:09:10 | 49.48008 | 18.12776 | 94° | 62km/h | 15513m | -7.4m/s | -52.5°C | 3.4% | 0hPa | 2.6V | 00:00:00 | 02:29:20 | 00:00:00 | |
| HA6NAB-11 | 2026-09-01 13:09:06 | 49.48010 | 18.12703 | 93° | 64km/h | 15534m | -7.0m/s | -52.6°C | 1.2% | 0hPa | 2.6V | 00:00:00 | 00:00:00 | 00:00:00 | |
| OE5DXL-15 | 2026-09-01 13:09:05 | 49.48012 | 18.12654 | 92° | 62km/h | 15549m | -7.2m/s | -52.5°C | 3.4% | 0hPa | 2.6V | 00:00:00 | 00:00:00 | 00:00:00 | |
| SP3WXH-11 | 2026-09-01 13:08:52 | 49.48001 | 18.12322 | 86° | 60km/h | 15650m | -6.9m/s | -52.8°C | 1.0% | -1.0hPa | 2.6V | 00:00:00 | 00:00:00 | 00:00:00 | |
| OE3OSB-13 | 2026-09-01 13:08:49 | 49.47998 | 18.12251 | 86° | 60km/h | 15672m | -7.4m/s | -52.9°C | 1.0% | -1.0hPa | 2.6V | 00:00:00 | 00:00:00 | 00:00:00 | |
| OM5KV | 2026-09-01 13:08:46 | 49.47997 | 18.12227 | 88° | 60km/h | 15679m | -6.6m/s | -52.9°C | 1.1% | 0hPa | 2.6V | 08:05:00 | 00:00:00 | 00:00:00 | |
| SONDE2-11 | 2026-09-01 13:08:44 | 49.47995 | 18.12155 | 89° | 62km/h | 15700m | -7.5m/s | -52.8°C | 1.0% | -1.0hPa | 2.6V | 00:00:00 | 00:00:00 | 00:00:00 | |
| OE3JTB-15 | 2026-09-01 13:08:41 | 49.47996 | 18.12081 | 93° | 60km/h | 15722m | -7.0m/s | -52.8°C | 3.4% | 0hPa | 2.6V | 00:00:00 | 00:00:00 | 00:00:00 | |
| PETON7-10 | 2026-09-01 13:08:40 | 49.47997 | 18.12055 | 94° | 62km/h | 15730m | -7.0m/s | -52.8°C | 3.3% | 0hPa | 2.5V | 00:00:00 | 00:00:00 | 00:00:00 | |
| OM5KV | 2026-09-01 13:08:39 | 49.47997 | 18.12055 | 94° | 66km/h | 15730m | -7.0m/s | -52.8°C | 1.1% | 0hPa | 2.5V | 08:05:00 | 00:00:00 | 00:00:00 | |
| OE5DRO-10 | 2026-09-01 13:08:38 | 49.47999 | 18.12003 | 94° | 60km/h | 15744m | -7.0m/s | -52.8°C | 3.4% | 0hPa | 2.5V | 00:00:00 | 00:00:00 | 00:00:00 | |
| OE5DXL-15 | 2026-09-01 13:08:35 | 49.48002 | 18.11928 | 94° | 58km/h | 15765m | -7.0m/s | -53.0°C | 3.4% | 0hPa | 2.5V | 00:00:00 | 00:00:00 | 00:00:00 | |
| OM5KV | 2026-09-01 13:08:34 | 49.48002 | 18.11928 | 94° | 64km/h | 15765m | -7.0m/s | -53.0°C | 1.1% | 0hPa | 2.5V | 08:05:00 | 00:00:00 | 00:00:00 | |
| PG1ADW-2 | 2026-09-01 13:08:33 | 49.48003 | 18.11880 | 93° | 58km/h | 15779m | -7.3m/s | -53.0°C | 3.4% | 0hPa | 2.5V | 00:00:00 | 02:28:43 | 00:00:00 | |
| OM5KV | 2026-09-01 13:08:28 | 49.48005 | 18.11789 | 92° | 58km/h | 15807m | -7.3m/s | -52.9°C | 1.1% | 0hPa | 2.5V | 08:05:00 | 00:00:00 | 00:00:00 | |
| PETON7-10 | 2026-09-01 13:08:24 | 49.48008 | 18.11672 | 94° | 57km/h | 15843m | -7.4m/s | -52.9°C | 3.4% | 0hPa | 2.5V | 00:00:00 | 02:28:34 | 00:00:00 | |
| OM5KV | 2026-09-01 13:08:22 | 49.48009 | 18.11649 | 95° | 60km/h | 15851m | -7.0m/s | -53.0°C | 1.1% | 0hPa | 2.5V | 08:05:00 | 00:00:00 | 00:00:00 | |
| SP3WXH-11 | 2026-09-01 13:08:21 | 49.48012 | 18.11582 | 93° | 55km/h | 15870m | -6.7m/s | -53.0°C | 0.9% | -1.0hPa | 2.5V | 00:00:00 | 00:00:00 | 00:00:00 | |
| OE5DRO-10 | 2026-09-01 13:08:19 | 49.48013 | 18.11560 | 94° | 55km/h | 15877m | -6.5m/s | -53.0°C | 3.4% | 0hPa | 2.5V | 00:00:00 | 00:00:00 | 00:00:00 | |
| OM5KV | 2026-09-01 13:08:18 | 49.48012 | 18.11560 | 94° | 57km/h | 15877m | -6.5m/s | -53.0°C | 1.1% | 0hPa | 2.5V | 08:05:00 | 00:00:00 | 00:00:00 | |
| OE3OSB-13 | 2026-09-01 13:08:17 | 49.48014 | 18.11517 | 93° | 55km/h | 15891m | -7.9m/s | -53.0°C | 0.9% | -1.0hPa | 2.5V | 00:00:00 | 00:00:00 | 00:00:00 | |
| OM5KV | 2026-09-01 13:08:16 | 49.48014 | 18.11517 | 94° | 55km/h | 15891m | -7.9m/s | -53.0°C | 1.1% | 0hPa | 2.5V | 08:05:00 | 00:00:00 | 00:00:00 | |
| PG1ADW-2 | 2026-09-01 13:08:13 | 49.48019 | 18.11431 | 96° | 51km/h | 15920m | -7.5m/s | -53.0°C | 3.5% | 0hPa | 2.5V | 00:00:00 | 00:00:00 | 00:00:00 | |
| OE3JTB-15 | 2026-09-01 13:08:12 | 49.48021 | 18.11409 | 96° | 49km/h | 15928m | -6.8m/s | -53.0°C | 3.5% | 0hPa | 2.6V | 00:00:00 | 00:00:00 | 00:00:00 | |
| PETON7-10 | 2026-09-01 13:08:09 | 49.48026 | 18.11343 | 98° | 49km/h | 15949m | -5.9m/s | -52.9°C | 3.5% | 0hPa | 2.6V | 08:05:00 | 00:00:00 | 00:00:00 | |
| OE5DXL-15 | 2026-09-01 13:08:05 | 49.48035 | 18.11258 | 101° | 46km/h | 15976m | -6.8m/s | -52.7°C | 3.5% | 0hPa | 2.7V | 00:00:00 | 00:00:00 | 00:00:00 | |
| SP3WXH-11 | 2026-09-01 13:07:50 | 49.48060 | 18.10978 | 89° | 42km/h | 16080m | -6.6m/s | -51.7°C | 0.8% | -1.0hPa | 2.7V | 00:00:00 | 00:00:00 | 00:00:00 | |
| OE3OSB-13 | 2026-09-01 13:07:46 | 49.48060 | 18.10924 | 91° | 47km/h | 16100m | -6.2m/s | -51.6°C | 0.8% | -1.0hPa | 2.7V | 00:00:00 | 00:00:00 | 00:00:00 | |
| OE3JTB-15 | 2026-09-01 13:07:43 | 49.48063 | 18.10867 | 96° | 40km/h | 16119m | -6.6m/s | -51.6°C | 3.2% | 0hPa | 2.7V | 00:00:00 | 02:27:53 | 00:00:00 | |
| SONDE2-11 | 2026-09-01 13:07:42 | 49.48066 | 18.10830 | 98° | 46km/h | 16132m | -7.4m/s | -51.7°C | 0.8% | -1.0hPa | 2.7V | 00:00:00 | 00:00:00 | 00:00:00 | |
| OE5DRO-10 | 2026-09-01 13:07:41 | 49.48066 | 18.10830 | 99° | 42km/h | 16133m | -7.4m/s | -51.6°C | 3.2% | 0hPa | 2.7V | 00:00:00 | 00:00:00 | 00:00:00 | |
| PETON7-10 | 2026-09-01 13:07:39 | 49.48069 | 18.10797 | 98° | 42km/h | 16147m | -7.5m/s | -51.8°C | 3.3% | 0hPa | 2.7V | 00:00:00 | 02:27:49 | 00:00:00 | |
| OM5KV | 2026-09-01 13:07:37 | 49.48071 | 18.10781 | 98° | 42km/h | 16154m | -7.2m/s | -51.8°C | 1.0% | 0hPa | 2.7V | 08:06:00 | 00:00:00 | 00:00:00 | |
| OM5KV | 2026-09-01 13:07:36 | 49.48072 | 18.10765 | 97° | 40km/h | 16161m | -6.9m/s | -51.8°C | 1.0% | 0hPa | 2.7V | 08:06:00 | 00:00:00 | 00:00:00 | |
| OE5DXL-15 | 2026-09-01 13:07:35 | 49.48074 | 18.10734 | 96° | 37km/h | 16175m | -7.0m/s | -51.7°C | 3.3% | 0hPa | 2.7V | 00:00:00 | 00:00:00 | 00:00:00 | |
| PG1ADW-2 | 2026-09-01 13:07:33 | 49.48076 | 18.10702 | 97° | 38km/h | 16188m | -6.3m/s | -51.5°C | 3.3% | 0hPa | 2.6V | 00:00:00 | 00:00:00 | 00:00:00 | |
| HA6NAB-11 | 2026-09-01 13:07:31 | 49.48079 | 18.10669 | 101° | 44km/h | 16201m | -6.6m/s | -50.9°C | 0.9% | 0hPa | 2.6V | 00:00:00 | 00:00:00 | 00:00:00 | |
| OM5KV | 2026-09-01 13:07:26 | 49.48088 | 18.10605 | 104° | 42km/h | 16228m | -6.2m/s | -50.7°C | 0.9% | 0hPa | 2.6V | 08:06:00 | 00:00:00 | 00:00:00 | |
| HA6NAB-11 | 2026-09-01 13:07:25 | 49.48091 | 18.10589 | 106° | 40km/h | 16234m | -6.7m/s | -50.7°C | 0.9% | 0hPa | 2.6V | 00:00:00 | 00:00:00 | 00:00:00 | |
| PETON7-10 | 2026-09-01 13:07:24 | 49.48096 | 18.10560 | 107° | 33km/h | 16247m | -6.6m/s | -50.6°C | 3.1% | 0hPa | 2.6V | 00:00:00 | 00:00:00 | 00:00:00 | |
| OE5DRO-10 | 2026-09-01 13:07:22 | 49.48102 | 18.10531 | 108° | 33km/h | 16260m | -6.2m/s | -50.6°C | 3.0% | 0hPa | 2.6V | 00:00:00 | 00:00:00 | 00:00:00 | |
| OM5KV | 2026-09-01 13:07:21 | 49.48102 | 18.10531 | 109° | 37km/h | 16260m | -6.3m/s | -50.6°C | 0.9% | 0hPa | 2.6V | 08:06:00 | 00:00:00 | 00:00:00 | |
| SP3WXH-11 | 2026-09-01 13:07:19 | 49.48113 | 18.10480 | 109° | 31km/h | 16286m | -6.0m/s | -50.6°C | 0.7% | -1.0hPa | 2.6V | 00:00:00 | 00:00:00 | 00:00:00 | |
| OE3OSB-13 | 2026-09-01 13:07:15 | 49.48121 | 18.10445 | 108° | 31km/h | 16306m | -7.0m/s | -50.6°C | 0.8% | -1.0hPa | 2.6V | 00:00:00 | 00:00:00 | 00:00:00 | |
| OE3JTB-15 | 2026-09-01 13:07:14 | 49.48124 | 18.10433 | 108° | 29km/h | 16313m | -6.5m/s | -50.5°C | 3.0% | 0hPa | 2.6V | 00:00:00 | 00:00:00 | 00:00:00 | |
| OM5KV | 2026-09-01 13:07:10 | 49.48130 | 18.10398 | 106° | 31km/h | 16333m | -6.5m/s | -50.4°C | 0.9% | 0hPa | 2.6V | 08:06:00 | 00:00:00 | 00:00:00 | |
| PETON7-10 | 2026-09-01 13:07:09 | 49.48134 | 18.10374 | 103° | 29km/h | 16345m | -6.3m/s | -50.3°C | 2.9% | 0hPa | 2.6V | 00:00:00 | 00:00:00 | 00:00:00 | |
| OM5KV | 2026-09-01 13:07:08 | 49.48134 | 18.10374 | 104° | 31km/h | 16345m | -6.4m/s | -50.3°C | 0.9% | 0hPa | 2.6V | 08:06:00 | 00:00:00 | 00:00:00 | |
| OE5DXL-15 | 2026-09-01 13:07:05 | 49.48140 | 18.10327 | 100° | 31km/h | 16371m | -7.3m/s | -50.3°C | 2.8% | 0hPa | 2.6V | 00:00:00 | 00:00:00 | 00:00:00 | |
| OM5KV | 2026-09-01 13:07:04 | 49.48140 | 18.10328 | 101° | 31km/h | 16371m | -7.3m/s | -50.3°C | 0.8% | 0hPa | 2.6V | 08:06:00 | 00:00:00 | 00:00:00 | |
| OE5DRO-10 | 2026-09-01 13:07:03 | 49.48142 | 18.10305 | 97° | 29km/h | 16385m | -7.1m/s | -50.3°C | 2.9% | 0hPa | 2.6V | 08:06:00 | 00:00:00 | 00:00:00 | |
| OM5KV | 2026-09-01 13:07:02 | 49.48142 | 18.10305 | 98° | 29km/h | 16385m | -7.1m/s | -50.4°C | 0.9% | 0hPa | 2.6V | 08:06:00 | 00:00:00 | 00:00:00 | |
| SP3WXH-11 | 2026-09-01 13:06:48 | 49.48125 | 18.10127 | 71° | 29km/h | 16499m | -7.1m/s | -51.0°C | 0.8% | -1.0hPa | 2.6V | 00:00:00 | 00:00:00 | 00:00:00 | |
| OM5KV | 2026-09-01 13:06:46 | 49.48125 | 18.10127 | 73° | 31km/h | 16499m | -7.1m/s | -51.0°C | 0.9% | 0hPa | 2.6V | 08:07:00 | 00:00:00 | 00:00:00 | |
| OE3JTB-15 | 2026-09-01 13:06:45 | 49.48120 | 18.10104 | 72° | 37km/h | 16513m | -6.4m/s | -51.0°C | 3.0% | 0hPa | 2.6V | 00:00:00 | 00:00:00 | 00:00:00 | |
| OE5DRO-10 | 2026-09-01 13:06:44 | 49.48117 | 18.10092 | 70° | 35km/h | 16519m | -6.3m/s | -51.0°C | 3.0% | 0hPa | 2.6V | 00:00:00 | 00:00:00 | 00:00:00 | |
| OM5KV | 2026-09-01 13:06:42 | 49.48111 | 18.10069 | 66° | 31km/h | 16533m | -7.2m/s | -51.2°C | 0.9% | 0hPa | 2.6V | 08:07:00 | 00:00:00 | 00:00:00 | |
| OM5KV | 2026-09-01 13:06:41 | 49.48108 | 18.10058 | 63° | 31km/h | 16541m | -8.1m/s | -51.3°C | 0% | 0hPa | 2.6V | 08:07:00 | 00:00:00 | 00:00:00 | |
| SONDE2-11 | 2026-09-01 13:06:40 | 49.48100 | 18.10037 | 58° | 31km/h | 16556m | -7.5m/s | -51.3°C | 0.8% | -1.0hPa | 2.6V | 00:00:00 | 00:00:00 | 00:00:00 | |
| PETON7-10 | 2026-09-01 13:06:39 | 49.48099 | 18.10037 | 59° | 35km/h | 16556m | -7.4m/s | -51.3°C | 3.1% | 0hPa | 2.6V | 00:00:00 | 00:00:00 | 00:00:00 | |
| OM5KV | 2026-09-01 13:06:36 | 49.48091 | 18.10016 | 57° | 33km/h | 16571m | -7.2m/s | -51.5°C | 1.0% | 0hPa | 2.7V | 08:07:00 | 00:00:00 | 00:00:00 | |
| OE5DXL-15 | 2026-09-01 13:06:35 | 49.48082 | 18.09995 | 60° | 38km/h | 16585m | -7.4m/s | -51.5°C | 3.1% | 0hPa | 2.7V | 00:00:00 | 00:00:00 | 00:00:00 | |
| OM5KV | 2026-09-01 13:06:34 | 49.48082 | 18.09995 | 60° | 33km/h | 16585m | -7.5m/s | -51.5°C | 0% | 0hPa | 2.7V | 08:07:00 | 00:00:00 | 00:00:00 | |
| PG1ADW-2 | 2026-09-01 13:06:33 | 49.48073 | 18.09972 | 62° | 38km/h | 16600m | -6.9m/s | -51.6°C | 3.1% | 0hPa | 2.7V | 00:00:00 | 00:00:00 | 00:00:00 | |
| OM5KV | 2026-09-01 13:06:31 | 49.48069 | 18.09960 | 64° | 35km/h | 16607m | -7.6m/s | -51.7°C | 1.0% | 0hPa | 2.7V | 08:07:00 | 00:00:00 | 00:00:00 | |
| OM5KV | 2026-09-01 13:06:27 | 49.48052 | 18.09911 | 62° | 38km/h | 16636m | -7.3m/s | -51.8°C | 0% | 0hPa | 2.7V | 08:07:00 | 00:00:00 | 00:00:00 | |
| OE5DRO-10 | 2026-09-01 13:06:25 | 49.48038 | 18.09872 | 63° | 38km/h | 16658m | -6.4m/s | -51.5°C | 3.1% | 0hPa | 2.7V | 00:00:00 | 00:00:00 | 00:00:00 | |
| PETON7-10 | 2026-09-01 13:06:24 | 49.48033 | 18.09858 | 63° | 38km/h | 16665m | -7.6m/s | -51.6°C | 3.1% | 0hPa | 2.7V | 00:00:00 | 00:00:00 | 00:00:00 | |
| OM5KV | 2026-09-01 13:06:21 | 49.48024 | 18.09831 | 64° | 40km/h | 16680m | -7.9m/s | -51.6°C | 0% | 0hPa | 2.7V | 08:07:00 | 00:00:00 | 00:00:00 | |
| DO3MHA-11 | 2026-09-01 13:06:19 | 49.48011 | 18.09789 | 64° | 38km/h | 16702m | -7.2m/s | -51.8°C | 3.1% | 0hPa | 2.7V | 00:00:00 | 02:26:29 | 00:00:00 | |
| SP3WXH-11 | 2026-09-01 13:06:17 | 49.47997 | 18.09746 | 63° | 40km/h | 16723m | -7.1m/s | -51.8°C | 0.8% | -1.0hPa | 2.7V | 00:00:00 | 00:00:00 | 00:00:00 | |
| OE3JTB-15 | 2026-09-01 13:06:16 | 49.47997 | 18.09746 | 64° | 37km/h | 16723m | -7.1m/s | -51.7°C | 3.2% | 0hPa | 2.7V | 00:00:00 | 02:26:26 | 00:00:00 | |
| OM5KV | 2026-09-01 13:06:15 | 49.47997 | 18.09746 | 64° | 40km/h | 16723m | -7.1m/s | -51.8°C | 0% | 0hPa | 2.7V | 08:07:00 | 00:00:00 | 00:00:00 | |
| PG1ADW-2 | 2026-09-01 13:06:13 | 49.47983 | 18.09706 | 63° | 37km/h | 16744m | -7.1m/s | -51.7°C | 3.2% | 0hPa | 2.7V | 00:00:00 | 00:00:00 | 00:00:00 | |
| SONDE2-11 | 2026-09-01 13:06:09 | 49.47962 | 18.09644 | 62° | 35km/h | 16780m | -6.9m/s | -51.7°C | 0.8% | -1.0hPa | 2.6V | 00:00:00 | 00:00:00 | 00:00:00 | |
| DO3MHA-11 | 2026-09-01 13:06:08 | 49.47962 | 18.09644 | 63° | 37km/h | 16780m | -6.8m/s | -51.6°C | 3.1% | 0hPa | 2.6V | 08:07:00 | 02:26:18 | 00:00:00 | |
| OE5DRO-10 | 2026-09-01 13:06:06 | 49.47953 | 18.09618 | 65° | 37km/h | 16794m | -7.3m/s | -51.6°C | 3.1% | 0hPa | 2.7V | 00:00:00 | 00:00:00 | 00:00:00 | |
| OM5KV | 2026-09-01 13:06:02 | 49.47941 | 18.09577 | 66° | 38km/h | 16816m | -7.6m/s | 0°C | 0% | 0hPa | 2.7V | 08:07:00 | 00:00:00 | 00:00:00 | |
| DO3MHA-11 | 2026-09-01 13:05:58 | 49.47921 | 18.09513 | 65° | 35km/h | 16855m | -7.7m/s | -51.9°C | 3.2% | 0hPa | 2.7V | 00:00:00 | 02:26:08 | 00:00:00 | |
| OM5KV | 2026-09-01 13:05:57 | 49.47921 | 18.09513 | 66° | 35km/h | 16855m | -7.8m/s | 0°C | 0% | 0hPa | 2.7V | 00:00:00 | 00:00:00 | 00:00:00 | |
| PETON7-10 | 2026-09-01 13:05:54 | 49.47908 | 18.09466 | 70° | 35km/h | 16887m | -7.6m/s | -52.1°C | 3.2% | 0hPa | 2.7V | 08:07:00 | 00:00:00 | 00:00:00 | |
| PG1ADW-2 | 2026-09-01 13:05:53 | 49.47905 | 18.09453 | 70° | 35km/h | 16894m | -7.2m/s | -52.0°C | 3.2% | 0hPa | 2.6V | 00:00:00 | 02:26:03 | 00:00:00 | |
| OM5KV | 2026-09-01 13:05:51 | 49.47902 | 18.09441 | 70° | 35km/h | 16901m | -7.4m/s | 0°C | 0% | 0hPa | 2.6V | 00:00:00 | 00:00:00 | 00:00:00 | |
| DO3MHA-11 | 2026-09-01 13:05:48 | 49.47887 | 18.09390 | 64° | 35km/h | 16930m | -7.5m/s | -52.2°C | 3.2% | 0hPa | 2.6V | 00:00:00 | 02:25:58 | 00:00:00 | |
| OE5DRO-10 | 2026-09-01 13:05:47 | 49.47883 | 18.09378 | 63° | 37km/h | 16938m | -8.1m/s | -52.3°C | 3.2% | 0hPa | 2.6V | 00:00:00 | 00:00:00 | 00:00:00 | |
| OM5KV | 2026-09-01 13:05:46 | 49.47878 | 18.09365 | 62° | 35km/h | 16946m | -8.2m/s | 0°C | 0% | 0hPa | 2.6V | 00:00:00 | 00:00:00 | 00:00:00 | |
| OE3OSB-13 | 2026-09-01 13:05:42 | 49.47862 | 18.09319 | 61° | 33km/h | 16977m | -8.1m/s | -52.4°C | 0.9% | -1.0hPa | 2.6V | 00:00:00 | 00:00:00 | 00:00:00 | |
| PETON7-10 | 2026-09-01 13:05:39 | 49.47849 | 18.09284 | 61° | 38km/h | 16999m | -6.6m/s | -52.1°C | 3.2% | 0hPa | 2.6V | 00:00:00 | 00:00:00 | 00:00:00 | |
| SONDE2-11 | 2026-09-01 13:05:38 | 49.47840 | 18.09261 | 56° | 37km/h | 17013m | -7.3m/s | -52.2°C | 0.8% | -1.0hPa | 2.6V | 00:00:00 | 00:00:00 | 00:00:00 | |
| OE5DXL-15 | 2026-09-01 13:05:35 | 49.47829 | 18.09236 | 53° | 40km/h | 17028m | -8.0m/s | -52.4°C | 3.2% | 0hPa | 2.6V | 00:00:00 | 00:00:00 | 00:00:00 | |
| PG1ADW-2 | 2026-09-01 13:05:33 | 49.47816 | 18.09213 | 51° | 40km/h | 17043m | -7.1m/s | -52.5°C | 3.2% | 0hPa | 2.6V | 00:00:00 | 00:00:00 | 00:00:00 | |
| OE5DRO-10 | 2026-09-01 13:05:28 | 49.47784 | 18.09156 | 50° | 40km/h | 17080m | -7.5m/s | -52.9°C | 3.3% | 0hPa | 2.6V | 00:00:00 | 00:00:00 | 00:00:00 | |
| PETON7-10 | 2026-09-01 13:05:24 | 49.47759 | 18.09110 | 51° | 40km/h | 17109m | -7.2m/s | -53.1°C | 3.3% | 0hPa | 2.6V | 00:00:00 | 02:25:34 | 00:00:00 | |
| OM5KV | 2026-09-01 13:05:23 | 49.47759 | 18.09110 | 52° | 38km/h | 17109m | -7.3m/s | 0°C | 0% | 0hPa | 2.6V | 00:00:00 | 00:00:00 | 00:00:00 | |
| OE3JTB-15 | 2026-09-01 13:05:18 | 49.47719 | 18.09039 | 49° | 42km/h | 17154m | -7.8m/s | -53.2°C | 3.3% | 0hPa | 2.6V | 00:00:00 | 00:00:00 | 00:00:00 | |
| OM5KV | 2026-09-01 13:05:17 | 49.47719 | 18.09039 | 49° | 40km/h | 17154m | -7.9m/s | 0°C | 0% | 0hPa | 2.6V | 00:00:00 | 00:00:00 | 00:00:00 | |
| SP3WXH-11 | 2026-09-01 13:05:14 | 49.47692 | 18.08993 | 46° | 38km/h | 17185m | -8.2m/s | -53.5°C | 0.9% | -1.0hPa | 2.6V | 00:00:00 | 00:00:00 | 00:00:00 | |
| PG1ADW-2 | 2026-09-01 13:05:13 | 49.47685 | 18.08982 | 48° | 42km/h | 17193m | -7.5m/s | -53.6°C | 3.4% | 0hPa | 2.6V | 00:00:00 | 00:00:00 | 00:00:00 | |
| OE3OSB-13 | 2026-09-01 13:05:11 | 49.47672 | 18.08960 | 48° | 37km/h | 17208m | -7.2m/s | -53.7°C | 0.9% | -1.0hPa | 2.7V | 00:00:00 | 00:00:00 | 00:00:00 | |
| DO3MHA-11 | 2026-09-01 13:05:09 | 49.47660 | 18.08938 | 52° | 42km/h | 17223m | -7.7m/s | -53.8°C | 3.4% | 0hPa | 2.7V | 00:00:00 | 02:25:19 | 00:00:00 | |
| SONDE2-11 | 2026-09-01 13:05:07 | 49.47642 | 18.08900 | 54° | 40km/h | 17246m | -7.8m/s | -54.1°C | 0.9% | -1.0hPa | 2.7V | 00:00:00 | 00:00:00 | 00:00:00 | |
| OE5DXL-15 | 2026-09-01 13:05:05 | 49.47636 | 18.08887 | 56° | 46km/h | 17254m | -7.4m/s | -54.2°C | 3.4% | 0hPa | 2.7V | 00:00:00 | 00:00:00 | 00:00:00 | |
| DO3MHA-11 | 2026-09-01 13:04:59 | 49.47597 | 18.08803 | 56° | 42km/h | 17303m | -7.7m/s | -54.5°C | 3.6% | 0hPa | 2.7V | 00:00:00 | 02:25:09 | 00:00:00 | |
| PETON7-10 | 2026-09-01 13:04:54 | 49.47567 | 18.08735 | 56° | 47km/h | 17340m | -8.4m/s | -54.8°C | 3.6% | 0hPa | 2.7V | 00:00:00 | 00:00:00 | 00:00:00 | |
| PG1ADW-2 | 2026-09-01 13:04:53 | 49.47561 | 18.08721 | 57° | 47km/h | 17349m | -8.5m/s | -54.9°C | 3.6% | 0hPa | 2.7V | 00:00:00 | 00:00:00 | 00:00:00 | |
| OE5DRO-10 | 2026-09-01 13:04:50 | 49.47542 | 18.08675 | 60° | 47km/h | 17373m | -7.5m/s | -55.1°C | 3.7% | 0hPa | 2.7V | 00:00:00 | 00:00:00 | 00:00:00 | |
| DO3MHA-11 | 2026-09-01 13:04:49 | 49.47536 | 18.08659 | 61° | 49km/h | 17381m | -8.3m/s | -55.2°C | 3.7% | 0hPa | 2.7V | 00:00:00 | 02:24:59 | 00:00:00 | |
| SP3WXH-11 | 2026-09-01 13:04:44 | 49.47501 | 18.08554 | 63° | 49km/h | 17428m | -7.5m/s | -55.4°C | 1.0% | -1.0hPa | 2.7V | 00:00:00 | 00:00:00 | 00:00:00 | |
| OE3OSB-13 | 2026-09-01 13:04:40 | 49.47485 | 18.08504 | 64° | 47km/h | 17451m | -7.3m/s | -55.6°C | 1.0% | -1.0hPa | 2.7V | 00:00:00 | 00:00:00 | 00:00:00 | |
| PETON7-10 | 2026-09-01 13:04:39 | 49.47480 | 18.08487 | 66° | 46km/h | 17459m | -8.2m/s | -55.6°C | 3.9% | 0hPa | 2.7V | 00:00:00 | 02:24:49 | 00:00:00 | |
| SONDE2-11 | 2026-09-01 13:04:36 | 49.47462 | 18.08422 | 68° | 44km/h | 17491m | -8.2m/s | -55.3°C | 1.0% | -1.0hPa | 2.7V | 00:00:00 | 00:00:00 | 00:00:00 | |
| OE5DXL-15 | 2026-09-01 13:04:35 | 49.47462 | 18.08422 | 69° | 42km/h | 17491m | -8.1m/s | -55.3°C | 3.8% | 0hPa | 2.7V | 00:00:00 | 00:00:00 | 00:00:00 | |
| PG1ADW-2 | 2026-09-01 13:04:33 | 49.47454 | 18.08390 | 70° | 44km/h | 17507m | -7.6m/s | -55.1°C | 3.8% | 0hPa | 2.6V | 00:00:00 | 02:24:43 | 00:00:00 | |
| OE5DRO-10 | 2026-09-01 13:04:31 | 49.47446 | 18.08357 | 71° | 44km/h | 17522m | -7.4m/s | -55.2°C | 3.8% | 0hPa | 2.6V | 00:00:00 | 00:00:00 | 00:00:00 | |
| HA6NAB-11 | 2026-09-01 13:04:28 | 49.47439 | 18.08322 | 73° | 47km/h | 17538m | -7.8m/s | -55.2°C | 1.1% | 0hPa | 2.6V | 08:09:00 | 00:00:00 | 00:00:00 | |
| DO3MHA-11 | 2026-09-01 13:04:26 | 49.47428 | 18.08269 | 75° | 44km/h | 17561m | -7.5m/s | -55.2°C | 3.8% | 0hPa | 2.6V | 00:00:00 | 02:24:36 | 00:00:00 | |
| PETON7-10 | 2026-09-01 13:04:24 | 49.47422 | 18.08233 | 76° | 42km/h | 17576m | -7.3m/s | -55.2°C | 3.8% | 0hPa | 2.6V | 00:00:00 | 00:00:00 | 00:00:00 | |
| HA6NAB-11 | 2026-09-01 13:04:22 | 49.47419 | 18.08216 | 77° | 46km/h | 17584m | -7.5m/s | -55.3°C | 1.1% | 0hPa | 2.7V | 08:09:00 | 00:00:00 | 00:00:00 | |
| OE3JTB-15 | 2026-09-01 13:04:16 | 49.47400 | 18.08073 | 82° | 33km/h | 17653m | -7.1m/s | -55.2°C | 3.8% | 0hPa | 2.7V | 00:00:00 | 00:00:00 | 00:00:00 | |
| PG1ADW-2 | 2026-09-01 13:04:13 | 49.47398 | 18.08057 | 83° | 35km/h | 17660m | -7.5m/s | -55.2°C | 3.8% | 0hPa | 2.7V | 08:09:00 | 00:00:00 | 00:00:00 | |
| OE5DRO-10 | 2026-09-01 13:04:12 | 49.47397 | 18.08041 | 83° | 35km/h | 17668m | -7.9m/s | -55.1°C | 3.7% | 0hPa | 2.7V | 08:09:00 | 00:00:00 | 00:00:00 | |
| HA6NAB-11 | 2026-09-01 13:04:11 | 49.47397 | 18.08041 | 84° | 40km/h | 17668m | -8.0m/s | -55.2°C | 1.1% | 0hPa | 2.7V | 00:00:00 | 00:00:00 | 00:00:00 | |
| OE3OSB-13 | 2026-09-01 13:04:10 | 49.47393 | 18.07997 | 82° | 37km/h | 17691m | -7.2m/s | -55.0°C | 0.9% | -1.0hPa | 2.7V | 00:00:00 | 00:00:00 | 00:00:00 | |
| PETON7-10 | 2026-09-01 13:04:09 | 49.47393 | 18.07997 | 83° | 33km/h | 17691m | -7.1m/s | -54.9°C | 3.7% | 0hPa | 2.7V | 00:00:00 | 00:00:00 | 00:00:00 | |
| HA6NAB-11 | 2026-09-01 13:04:07 | 49.47390 | 18.07969 | 83° | 35km/h | 17706m | -7.0m/s | -54.9°C | 1.1% | 0hPa | 2.7V | 00:00:00 | 00:00:00 | 00:00:00 | |
| DO3MHA-11 | 2026-09-01 13:04:06 | 49.47389 | 18.07956 | 83° | 33km/h | 17714m | -8.4m/s | -54.9°C | 3.7% | 0hPa | 2.7V | 00:00:00 | 02:24:16 | 00:00:00 | |
| OE5DXL-15 | 2026-09-01 13:04:05 | 49.47388 | 18.07944 | 82° | 26km/h | 17721m | -6.9m/s | -54.9°C | 3.7% | 0hPa | 2.7V | 00:00:00 | 00:00:00 | 00:00:00 | |
| SONDE2-11 | 2026-09-01 13:04:04 | 49.47387 | 18.07933 | 81° | 29km/h | 17729m | -8.5m/s | -55.0°C | 0.9% | -1.0hPa | 2.7V | 00:00:00 | 00:00:00 | 00:00:00 | |
| HA6NAB-11 | 2026-09-01 13:04:00 | 49.47383 | 18.07897 | 81° | 33km/h | 17753m | -7.5m/s | -55.1°C | 1.1% | 0hPa | 2.7V | 00:00:00 | 00:00:00 | 00:00:00 | |
| DO3MHA-11 | 2026-09-01 13:03:56 | 49.47376 | 18.07830 | 83° | 29km/h | 17791m | -8.0m/s | -54.8°C | 4.0% | 0hPa | 2.7V | 00:00:00 | 02:24:06 | 00:00:00 | |
| PETON7-10 | 2026-09-01 13:03:54 | 49.47374 | 18.07804 | 84° | 24km/h | 17807m | -7.7m/s | -54.6°C | 3.9% | 0hPa | 2.7V | 00:00:00 | 02:24:04 | 00:00:00 | |
| PG1ADW-2 | 2026-09-01 13:03:53 | 49.47373 | 18.07791 | 84° | 20km/h | 17814m | -7.8m/s | -54.7°C | 4.0% | 0hPa | 2.7V | 00:00:00 | 00:00:00 | 00:00:00 | |
| HA6NAB-11 | 2026-09-01 13:03:49 | 49.47370 | 18.07747 | 84° | 26km/h | 17847m | -8.6m/s | -54.9°C | 1.2% | 0hPa | 2.7V | 00:00:00 | 00:00:00 | 00:00:00 | |
| OE3JTB-15 | 2026-09-01 13:03:47 | 49.47369 | 18.07728 | 82° | 16km/h | 17864m | -8.2m/s | -54.8°C | 4.1% | 0hPa | 2.7V | 00:00:00 | 00:00:00 | 00:00:00 | |
| DO3MHA-11 | 2026-09-01 13:03:46 | 49.47368 | 18.07719 | 82° | 18km/h | 17872m | -8.5m/s | -54.7°C | 4.2% | 0hPa | 2.7V | 00:00:00 | 02:23:56 | 00:00:00 | |
| HA6NAB-11 | 2026-09-01 13:03:43 | 49.47366 | 18.07703 | 80° | 20km/h | 17888m | -7.6m/s | -54.1°C | 1.1% | 0hPa | 2.6V | 00:00:00 | 00:00:00 | 00:00:00 | |
| SP3WXH-11 | 2026-09-01 13:03:41 | 49.47362 | 18.07684 | 64° | 16km/h | 17912m | -8.7m/s | -52.2°C | 0.8% | -1.0hPa | 2.6V | 00:00:00 | 00:00:00 | 00:00:00 | |
| OE3OSB-13 | 2026-09-01 13:03:39 | 49.47356 | 18.07668 | 56° | 15km/h | 17937m | -8.7m/s | -52.0°C | 0.8% | -1.0hPa | 2.6V | 00:00:00 | 00:00:00 | 00:00:00 | |
| DO3MHA-11 | 2026-09-01 13:03:36 | 49.47351 | 18.07657 | 56° | 15km/h | 17954m | -8.9m/s | -51.7°C | 3.1% | 0hPa | 2.6V | 00:00:00 | 02:23:46 | 00:00:00 | |
| OE5DXL-15 | 2026-09-01 13:03:35 | 49.47349 | 18.07652 | 61° | 18km/h | 17963m | -8.5m/s | -51.7°C | 3.2% | 0hPa | 2.6V | 00:00:00 | 00:00:00 | 00:00:00 | |
| OE5DRO-10 | 2026-09-01 13:03:34 | 49.47347 | 18.07647 | 58° | 16km/h | 17971m | -7.7m/s | -51.7°C | 3.2% | 0hPa | 2.6V | 00:00:00 | 00:00:00 | 00:00:00 | |
| PG1ADW-2 | 2026-09-01 13:03:33 | 49.47345 | 18.07642 | 58° | 16km/h | 17979m | -7.6m/s | -51.6°C | 3.1% | 0hPa | 2.6V | 00:00:00 | 00:00:00 | 00:00:00 | |
| HA6NAB-11 | 2026-09-01 13:03:32 | 49.47345 | 18.07642 | 58° | 15km/h | 17979m | -7.7m/s | -51.6°C | 0.8% | 0hPa | 2.6V | 00:00:00 | 00:00:00 | 00:00:00 | |
| DO3MHA-11 | 2026-09-01 13:03:26 | 49.47332 | 18.07613 | 59° | 18km/h | 18036m | -8.1m/s | -51.4°C | 3.1% | 0hPa | 2.6V | 00:00:00 | 02:23:36 | 00:00:00 | |
| PETON7-10 | 2026-09-01 13:03:24 | 49.47328 | 18.07603 | 58° | 20km/h | 18052m | -8.0m/s | -51.5°C | 3.1% | 0hPa | 2.6V | 00:00:00 | 00:00:00 | 00:00:00 | |
| OE3JTB-15 | 2026-09-01 13:03:18 | 49.47308 | 18.07562 | 50° | 24km/h | 18109m | -8.8m/s | -51.9°C | 3.1% | 0hPa | 2.6V | 00:00:00 | 02:23:27 | 00:00:00 | |
| DO3MHA-11 | 2026-09-01 13:03:16 | 49.47305 | 18.07556 | 48° | 22km/h | 18118m | -8.6m/s | -51.9°C | 3.2% | 0hPa | 2.6V | 00:00:00 | 02:23:26 | 00:00:00 | |
| OE5DRO-10 | 2026-09-01 13:03:15 | 49.47301 | 18.07550 | 54° | 22km/h | 18126m | -8.1m/s | -51.9°C | 3.2% | 0hPa | 2.6V | 00:00:00 | 00:00:00 | 00:00:00 | |
| PG1ADW-2 | 2026-09-01 13:03:13 | 49.47296 | 18.07538 | 56° | 24km/h | 18143m | -8.0m/s | -52.0°C | 3.2% | 0hPa | 2.7V | 00:00:00 | 02:23:23 | 00:00:00 | |
| SP3WXH-11 | 2026-09-01 13:03:11 | 49.47287 | 18.07516 | 65° | 22km/h | 18167m | -8.1m/s | -52.0°C | 0.7% | -1.0hPa | 2.6V | 00:00:00 | 00:00:00 | 00:00:00 | |
| PETON7-10 | 2026-09-01 13:03:09 | 49.47285 | 18.07508 | 67° | 24km/h | 18175m | -7.9m/s | -51.9°C | 3.2% | 0hPa | 2.6V | 00:00:00 | 02:23:19 | 00:00:00 | |
| OE3OSB-13 | 2026-09-01 13:03:07 | 49.47281 | 18.07491 | 70° | 22km/h | 18190m | -7.5m/s | -52.0°C | 0.8% | -1.0hPa | 2.6V | 00:00:00 | 00:00:00 | 00:00:00 | |
| DO3MHA-11 | 2026-09-01 13:03:06 | 49.47279 | 18.07483 | 74° | 22km/h | 18198m | -8.0m/s | -51.9°C | 3.2% | 0hPa | 2.6V | 00:00:00 | 02:23:16 | 00:00:00 | |
| OE5DXL-15 | 2026-09-01 13:03:05 | 49.47278 | 18.07475 | 76° | 26km/h | 18206m | -8.1m/s | -51.8°C | 3.2% | 0hPa | 2.6V | 00:00:00 | 00:00:00 | 00:00:00 | |
| SONDE2-11 | 2026-09-01 13:03:03 | 49.47274 | 18.07451 | 80° | 20km/h | 18229m | -7.9m/s | -51.8°C | 0.7% | -1.0hPa | 2.6V | 00:00:00 | 00:00:00 | 00:00:00 | |
| DO3MHA-11 | 2026-09-01 13:02:56 | 49.47271 | 18.07397 | 90° | 26km/h | 18277m | -7.9m/s | -51.6°C | 3.1% | 0hPa | 2.6V | 00:00:00 | 02:23:06 | 00:00:00 | |
| PETON7-10 | 2026-09-01 13:02:54 | 49.47271 | 18.07377 | 97° | 27km/h | 18293m | -8.3m/s | -51.7°C | 3.1% | 0hPa | 2.6V | 00:00:00 | 00:00:00 | 00:00:00 | |
| PG1ADW-2 | 2026-09-01 13:02:53 | 49.47272 | 18.07367 | 99° | 29km/h | 18302m | -8.4m/s | -51.7°C | 3.1% | 0hPa | 2.7V | 00:00:00 | 00:00:00 | 00:00:00 | |
| HA6NAB-11 | 2026-09-01 13:02:50 | 49.47274 | 18.07347 | 102° | 26km/h | 18319m | -8.6m/s | -51.8°C | 0.9% | 0hPa | 2.7V | 08:11:00 | 00:00:00 | 00:00:00 | |
| OE3JTB-15 | 2026-09-01 13:02:49 | 49.47279 | 18.07308 | 100° | 31km/h | 18351m | -7.9m/s | -51.9°C | 3.1% | 0hPa | 2.7V | 00:00:00 | 00:00:00 | 00:00:00 | |
| DO3MHA-11 | 2026-09-01 13:02:46 | 49.47280 | 18.07297 | 98° | 29km/h | 18359m | -9.0m/s | -52.0°C | 3.1% | 0hPa | 2.7V | 08:10:00 | 02:22:56 | 00:00:00 | |
| HA6NAB-11 | 2026-09-01 13:02:44 | 49.47281 | 18.07287 | 98° | 27km/h | 18368m | -8.5m/s | -52.0°C | 0.9% | 0hPa | 2.6V | 08:11:00 | 00:00:00 | 00:00:00 | |
| PETON7-10 | 2026-09-01 13:02:39 | 49.47286 | 18.07218 | 97° | 31km/h | 18416m | -7.2m/s | -52.2°C | 3.2% | 0hPa | 2.6V | 00:00:00 | 00:00:00 | 00:00:00 | |
| OE5DRO-10 | 2026-09-01 13:02:37 | 49.47288 | 18.07194 | 95° | 33km/h | 18432m | -7.5m/s | -52.4°C | 3.2% | 0hPa | 2.6V | 00:00:00 | 00:00:00 | 00:00:00 | |
| OE3OSB-13 | 2026-09-01 13:02:36 | 49.47289 | 18.07170 | 95° | 29km/h | 18446m | -6.9m/s | -52.5°C | 0.8% | -1.0hPa | 2.6V | 00:00:00 | 00:00:00 | 00:00:00 | |
| OE5DXL-15 | 2026-09-01 13:02:35 | 49.47289 | 18.07170 | 96° | 35km/h | 18446m | -6.8m/s | -52.5°C | 3.3% | 0hPa | 2.6V | 00:00:00 | 00:00:00 | 00:00:00 | |
| HA6NAB-11 | 2026-09-01 13:02:34 | 49.47289 | 18.07170 | 97° | 31km/h | 18446m | -6.9m/s | -52.5°C | 0.9% | 0hPa | 2.6V | 08:11:00 | 00:00:00 | 00:00:00 | |
| SONDE2-11 | 2026-09-01 13:02:33 | 49.47294 | 18.07123 | 100° | 31km/h | 18477m | -7.9m/s | -52.7°C | 0.8% | -1.0hPa | 2.6V | 00:00:00 | 00:00:00 | 00:00:00 | |
| HA6NAB-11 | 2026-09-01 13:02:28 | 49.47297 | 18.07098 | 103° | 33km/h | 18493m | -8.5m/s | -52.9°C | 0.9% | 0hPa | 2.6V | 08:11:00 | 00:00:00 | 00:00:00 | |
| DO3MHA-11 | 2026-09-01 13:02:26 | 49.47301 | 18.07060 | 100° | 35km/h | 18518m | -8.2m/s | -53.0°C | 3.3% | 0hPa | 2.6V | 00:00:00 | 02:22:36 | 00:00:00 | |
| PETON7-10 | 2026-09-01 13:02:24 | 49.47304 | 18.07034 | 99° | 37km/h | 18535m | -8.0m/s | -53.0°C | 3.4% | 0hPa | 2.6V | 00:00:00 | 02:22:34 | 00:00:00 | |
| OE5DRO-10 | 2026-09-01 13:02:18 | 49.47311 | 18.06951 | 100° | 37km/h | 18584m | -8.1m/s | -53.2°C | 3.3% | 0hPa | 2.6V | 00:00:00 | 00:00:00 | 00:00:00 | |
| DO3MHA-11 | 2026-09-01 13:02:16 | 49.47314 | 18.06923 | 100° | 38km/h | 18600m | -7.6m/s | -53.2°C | 3.3% | 0hPa | 2.7V | 00:00:00 | 02:22:26 | 00:00:00 | |
| PG1ADW-2 | 2026-09-01 13:02:13 | 49.47319 | 18.06881 | 100° | 37km/h | 18623m | -8.3m/s | -53.3°C | 3.4% | 0hPa | 2.6V | 00:00:00 | 00:00:00 | 00:00:00 | |
| PETON7-10 | 2026-09-01 13:02:09 | 49.47325 | 18.06822 | 100° | 37km/h | 18657m | -8.8m/s | -53.5°C | 3.4% | 0hPa | 2.7V | 00:00:00 | 00:00:00 | 00:00:00 | |
| SP3WXH-11 | 2026-09-01 13:02:08 | 49.47327 | 18.06807 | 100° | 38km/h | 18665m | -9.1m/s | -53.5°C | 0.8% | -1.0hPa | 2.7V | 00:00:00 | 00:00:00 | 00:00:00 | |
| DO3MHA-11 | 2026-09-01 13:02:06 | 49.47330 | 18.06778 | 102° | 37km/h | 18682m | -8.4m/s | -53.5°C | 3.4% | 0hPa | 2.7V | 00:00:00 | 02:22:16 | 00:00:00 | |
| OE3OSB-13 | 2026-09-01 13:02:05 | 49.47335 | 18.06750 | 103° | 35km/h | 18699m | -8.4m/s | -53.6°C | 0.8% | -1.0hPa | 2.7V | 00:00:00 | 00:00:00 | 00:00:00 | |
| SONDE2-11 | 2026-09-01 13:02:00 | 49.47344 | 18.06696 | 105° | 35km/h | 18731m | -8.1m/s | -53.7°C | 0.8% | -1.0hPa | 2.7V | 00:00:00 | 00:00:00 | 00:00:00 | |
| OE5DRO-10 | 2026-09-01 13:01:59 | 49.47346 | 18.06683 | 106° | 33km/h | 18739m | -7.6m/s | -53.7°C | 3.4% | 0hPa | 2.7V | 00:00:00 | 00:00:00 | 00:00:00 | |
| DO3MHA-11 | 2026-09-01 13:01:56 | 49.47354 | 18.06642 | 108° | 33km/h | 18764m | -8.3m/s | -53.9°C | 3.5% | 0hPa | 2.7V | 00:00:00 | 02:22:06 | 00:00:00 | |
| PETON7-10 | 2026-09-01 13:01:54 | 49.47360 | 18.06616 | 109° | 31km/h | 18781m | -8.4m/s | -53.9°C | 3.4% | 0hPa | 2.7V | 00:00:00 | 00:00:00 | 00:00:00 | |
| PG1ADW-2 | 2026-09-01 13:01:53 | 49.47362 | 18.06603 | 110° | 29km/h | 18788m | -7.9m/s | 0°C | 0% | 0hPa | 2.7V | 00:00:00 | 02:22:03 | 00:00:00 | |
| HA6NAB-11 | 2026-09-01 13:01:51 | 49.47365 | 18.06590 | 111° | 33km/h | 18797m | -8.7m/s | -53.9°C | 0.9% | 0hPa | 2.7V | 08:11:00 | 00:00:00 | 00:00:00 | |
| DO3MHA-11 | 2026-09-01 13:01:46 | 49.47384 | 18.06523 | 117° | 29km/h | 18847m | -8.6m/s | -54.1°C | 3.5% | 0hPa | 2.7V | 00:00:00 | 02:21:56 | 00:00:00 | |
| OE5DRO-10 | 2026-09-01 13:01:40 | 49.47405 | 18.06460 | 116° | 22km/h | 18900m | -8.8m/s | -54.2°C | 3.6% | 0hPa | 2.7V | 00:00:00 | 00:00:00 | 00:00:00 | |
| PETON7-10 | 2026-09-01 13:01:39 | 49.47408 | 18.06450 | 113° | 22km/h | 18909m | -9.1m/s | -54.2°C | 3.6% | 0hPa | 2.7V | 00:00:00 | 02:21:49 | 00:00:00 | |
| SP3WXH-11 | 2026-09-01 13:01:37 | 49.47412 | 18.06433 | 105° | 22km/h | 18926m | -8.0m/s | -54.3°C | 0.8% | -1.0hPa | 2.7V | 00:00:00 | 00:00:00 | 00:00:00 | |
| DO3MHA-11 | 2026-09-01 13:01:36 | 49.47414 | 18.06425 | 104° | 22km/h | 18935m | -8.7m/s | -54.3°C | 3.6% | 0hPa | 2.7V | 00:00:00 | 02:21:46 | 00:00:00 | |
| OE5DXL-15 | 2026-09-01 13:01:35 | 49.47415 | 18.06417 | 102° | 24km/h | 18943m | -7.9m/s | -54.4°C | 3.6% | 0hPa | 2.7V | 08:12:00 | 00:00:00 | 00:00:00 | |
| OE3OSB-13 | 2026-09-01 13:01:34 | 49.47416 | 18.06400 | 94° | 20km/h | 18960m | -8.6m/s | -54.5°C | 0.9% | -1.0hPa | 2.7V | 00:00:00 | 00:00:00 | 00:00:00 | |
| PG1ADW-2 | 2026-09-01 13:01:33 | 49.47416 | 18.06400 | 95° | 24km/h | 18960m | -8.6m/s | 0°C | 0% | 0hPa | 2.7V | 00:00:00 | 00:00:00 | 00:00:00 | |
| SONDE2-11 | 2026-09-01 13:01:29 | 49.47416 | 18.06367 | 86° | 20km/h | 18995m | -8.7m/s | -54.4°C | 0.9% | -1.0hPa | 2.7V | 00:00:00 | 00:00:00 | 00:00:00 | |
| DO3MHA-11 | 2026-09-01 13:01:26 | 49.47414 | 18.06344 | 80° | 24km/h | 19022m | -8.5m/s | -54.1°C | 3.6% | 0hPa | 2.7V | 00:00:00 | 02:21:36 | 00:00:00 | |
| PETON7-10 | 2026-09-01 13:01:24 | 49.47411 | 18.06330 | 69° | 26km/h | 19039m | -8.3m/s | -54.0°C | 3.7% | 0hPa | 2.7V | 08:12:00 | 00:00:00 | 00:00:00 | |
| HA6NAB-11 | 2026-09-01 13:01:23 | 49.47411 | 18.06330 | 70° | 18km/h | 19039m | -8.3m/s | -54.0°C | 1.0% | 0hPa | 2.7V | 00:00:00 | 00:00:00 | 00:00:00 | |
| OE5DRO-10 | 2026-09-01 13:01:21 | 49.47404 | 18.06309 | 61° | 24km/h | 19065m | -8.4m/s | -53.8°C | 3.7% | 0hPa | 2.7V | 08:12:00 | 00:00:00 | 00:00:00 | |
| DO3MHA-11 | 2026-09-01 13:01:16 | 49.47386 | 18.06259 | 67° | 24km/h | 19108m | -8.3m/s | -53.6°C | 3.6% | 0hPa | 2.7V | 08:12:00 | 02:21:26 | 00:00:00 | |
| PG1ADW-2 | 2026-09-01 13:01:13 | 49.47379 | 18.06229 | 72° | 24km/h | 19136m | -10.1m/s | 0°C | 0% | 0hPa | 2.7V | 00:00:00 | 00:00:00 | 00:00:00 | |
| OE3JTB-15 | 2026-09-01 13:01:12 | 49.47373 | 18.06203 | 70° | 18km/h | 19164m | -9.4m/s | -53.7°C | 3.6% | 0hPa | 2.7V | 08:12:00 | 00:00:00 | 00:00:00 | |
| PETON7-10 | 2026-09-01 13:01:09 | 49.47371 | 18.06196 | 68° | 18km/h | 19173m | -9.0m/s | -53.4°C | 3.5% | 0hPa | 2.7V | 00:00:00 | 00:00:00 | 00:00:00 | |
| DO3MHA-11 | 2026-09-01 13:01:06 | 49.47364 | 18.06176 | 52° | 18km/h | 19199m | -9.4m/s | -52.8°C | 3.3% | 0hPa | 2.7V | 00:00:00 | 02:21:16 | 00:00:00 | |
| OE5DXL-15 | 2026-09-01 13:01:05 | 49.47361 | 18.06171 | 47° | 18km/h | 19209m | -9.6m/s | -52.6°C | 3.2% | 0hPa | 2.7V | 00:00:00 | 00:00:00 | 00:00:00 | |
| OE3OSB-13 | 2026-09-01 13:01:02 | 49.47351 | 18.06155 | 45° | 18km/h | 19236m | -8.7m/s | -52.5°C | 0.7% | -1.0hPa | 2.7V | 00:00:00 | 00:00:00 | 00:00:00 | |
| SONDE2-11 | 2026-09-01 13:00:58 | 49.47339 | 18.06131 | 62° | 18km/h | 19272m | -8.8m/s | -52.6°C | 0.7% | -1.0hPa | 2.7V | 00:00:00 | 00:00:00 | 00:00:00 | |
| DO3MHA-11 | 2026-09-01 13:00:56 | 49.47336 | 18.06119 | 65° | 16km/h | 19290m | -8.9m/s | -52.6°C | 3.3% | 0hPa | 2.7V | 00:00:00 | 02:21:06 | 00:00:00 | |
| PETON7-10 | 2026-09-01 13:00:54 | 49.47332 | 18.06109 | 57° | 18km/h | 19309m | -9.0m/s | -52.7°C | 3.4% | 0hPa | 2.7V | 00:00:00 | 02:21:04 | 00:00:00 | |
| DO3MHA-11 | 2026-09-01 13:00:46 | 49.47302 | 18.06091 | 8° | 20km/h | 19377m | -8.8m/s | -53.2°C | 3.5% | 0hPa | 2.7V | 00:00:00 | 02:20:56 | 00:00:00 | |
| OE3JTB-15 | 2026-09-01 13:00:43 | 49.47272 | 18.06080 | 21° | 15km/h | 19432m | -8.9m/s | -53.0°C | 3.5% | 0hPa | 2.7V | 00:00:00 | 00:00:00 | 00:00:00 | |
| PETON7-10 | 2026-09-01 13:00:39 | 49.47268 | 18.06078 | 22° | 15km/h | 19441m | -8.7m/s | -52.7°C | 3.4% | 0hPa | 2.7V | 00:00:00 | 00:00:00 | 00:00:00 | |
| HA6NAB-11 | 2026-09-01 13:00:37 | 49.47264 | 18.06075 | 24° | 16km/h | 19450m | -8.6m/s | -52.5°C | 0.9% | 0hPa | 2.7V | 00:00:00 | 00:00:00 | 00:00:00 | |
| DO3MHA-11 | 2026-09-01 13:00:36 | 49.47256 | 18.06071 | 24° | 16km/h | 19467m | -8.7m/s | -52.4°C | 3.3% | 0hPa | 2.7V | 00:00:00 | 02:20:46 | 00:00:00 | |
| OE5DXL-15 | 2026-09-01 13:00:35 | 49.47252 | 18.06068 | 23° | 9km/h | 19475m | -8.3m/s | -52.3°C | 3.3% | 0hPa | 2.7V | 00:00:00 | 00:00:00 | 00:00:00 | |
| HA6NAB-11 | 2026-09-01 13:00:32 | 49.47245 | 18.06063 | 28° | 15km/h | 19492m | -8.4m/s | -52.3°C | 0.9% | 0hPa | 2.7V | 00:00:00 | 00:00:00 | 00:00:00 | |
| OE3OSB-13 | 2026-09-01 13:00:31 | 49.47239 | 18.06057 | 30° | 15km/h | 19509m | -8.3m/s | -52.3°C | 0.8% | -1.0hPa | 2.7V | 00:00:00 | 00:00:00 | 00:00:00 | |
| SONDE2-11 | 2026-09-01 13:00:27 | 49.47226 | 18.06043 | 36° | 15km/h | 19543m | -8.9m/s | -52.3°C | 0.7% | -1.0hPa | 2.7V | 00:00:00 | 00:00:00 | 00:00:00 | |
| DO3MHA-11 | 2026-09-01 13:00:26 | 49.47223 | 18.06040 | 39° | 7km/h | 19553m | -9.4m/s | -52.2°C | 3.2% | 0hPa | 2.7V | 00:00:00 | 02:20:36 | 00:00:00 | |
| PETON7-10 | 2026-09-01 13:00:24 | 49.47218 | 18.06034 | 28° | 5km/h | 19571m | -9.2m/s | -52.3°C | 3.2% | 0hPa | 2.7V | 00:00:00 | 00:00:00 | 00:00:00 | |
| HA6NAB-11 | 2026-09-01 13:00:20 | 49.47212 | 18.06031 | 4° | 5km/h | 19599m | -9.5m/s | -52.5°C | 0.9% | 0hPa | 2.7V | 00:00:00 | 00:00:00 | 00:00:00 | |
| DO3MHA-11 | 2026-09-01 13:00:17 | 49.47208 | 18.06033 | 72° | 7km/h | 19643m | -8.9m/s | -52.3°C | 3.2% | 0hPa | 2.7V | 00:00:00 | 02:20:26 | 00:00:00 | |
| HA6NAB-11 | 2026-09-01 13:00:14 | 49.47208 | 18.06032 | 89° | 2km/h | 19652m | -8.5m/s | -52.3°C | 0.9% | 0hPa | 2.6V | 00:00:00 | 00:00:00 | 00:00:00 | |
| PETON7-10 | 2026-09-01 13:00:09 | 49.47203 | 18.06016 | 57° | 15km/h | 19707m | -9.1m/s | -52.5°C | 3.3% | 0hPa | 2.6V | 00:00:00 | 02:20:19 | 00:00:00 | |
| DO3MHA-11 | 2026-09-01 13:00:06 | 49.47198 | 18.06006 | 42° | 13km/h | 19734m | -8.6m/s | -52.7°C | 3.4% | 0hPa | 2.6V | 00:00:00 | 02:20:16 | 00:00:00 | |
| OE5DRO-10 | 2026-09-01 13:00:05 | 49.47196 | 18.06004 | 42° | 16km/h | 19742m | -8.1m/s | -52.7°C | 3.4% | 0hPa | 2.6V | 00:00:00 | 00:00:00 | 00:00:00 | |
| SP3WXH-11 | 2026-09-01 13:00:04 | 49.47194 | 18.06001 | 35° | 11km/h | 19750m | -8.1m/s | -52.8°C | 0.8% | -1.0hPa | 2.6V | 00:00:00 | 00:00:00 | 00:00:00 | |
| PG1ADW-2 | 2026-09-01 12:59:57 | 49.47177 | 18.05973 | 51° | 20km/h | 19818m | -10.4m/s | -52.5°C | 3.2% | 0hPa | 2.6V | 00:00:00 | 02:20:07 | 00:00:00 | |
| DO3MHA-11 | 2026-09-01 12:59:56 | 49.47174 | 18.05968 | 47° | 18km/h | 19828m | -9.8m/s | -52.3°C | 3.2% | 0hPa | 2.6V | 00:00:00 | 02:20:06 | 00:00:00 | |
| PETON7-10 | 2026-09-01 12:59:54 | 49.47167 | 18.05957 | 45° | 18km/h | 19846m | -8.7m/s | -52.3°C | 3.1% | 0hPa | 2.6V | 00:00:00 | 00:00:00 | 00:00:00 | |
| DO3MHA-11 | 2026-09-01 12:59:46 | 49.47146 | 18.05918 | 65° | 22km/h | 19921m | -9.4m/s | -52.9°C | 3.3% | 0hPa | 2.7V | 08:13:00 | 02:19:56 | 00:00:00 | |
| OE3JTB-15 | 2026-09-01 12:59:45 | 49.47136 | 18.05893 | 50° | 26km/h | 19960m | -10.4m/s | -53.2°C | 3.4% | 0hPa | 2.7V | 00:00:00 | 00:00:00 | 00:00:00 | |
| PETON7-10 | 2026-09-01 12:59:39 | 49.47122 | 18.05875 | 33° | 24km/h | 19988m | -9.5m/s | -53.5°C | 3.4% | 0hPa | 2.7V | 00:00:00 | 00:00:00 | 00:00:00 | |
| PG1ADW-2 | 2026-09-01 12:59:37 | 49.47110 | 18.05864 | 30° | 24km/h | 20006m | -9.0m/s | -53.7°C | 3.5% | 0hPa | 2.7V | 08:14:00 | 00:00:00 | 00:00:00 | |
| DO3MHA-11 | 2026-09-01 12:59:36 | 49.47103 | 18.05858 | 29° | 24km/h | 20016m | -9.4m/s | -53.7°C | 3.6% | 0hPa | 2.6V | 00:00:00 | 02:19:46 | 00:00:00 | |
| OE5DXL-15 | 2026-09-01 12:59:35 | 49.47097 | 18.05853 | 31° | 24km/h | 20025m | -9.3m/s | -53.8°C | 3.6% | 0hPa | 2.6V | 00:00:00 | 00:00:00 | 00:00:00 | |
| SP3WXH-11 | 2026-09-01 12:59:33 | 49.47087 | 18.05842 | 39° | 24km/h | 20045m | -10.2m/s | -53.9°C | 0.8% | -1.0hPa | 2.6V | 00:00:00 | 00:00:00 | 00:00:00 | |
| OE3OSB-13 | 2026-09-01 12:59:31 | 49.47072 | 18.05814 | 57° | 22km/h | 20081m | -9.8m/s | -53.9°C | 0.8% | -1.0hPa | 2.6V | 00:00:00 | 00:00:00 | 00:00:00 | |
| OE5DRO-10 | 2026-09-01 12:59:28 | 49.47066 | 18.05799 | 60° | 24km/h | 20100m | -9.5m/s | -53.7°C | 3.6% | 0hPa | 2.6V | 00:00:00 | 00:00:00 | 00:00:00 | |
| DO3MHA-11 | 2026-09-01 12:59:27 | 49.47063 | 18.05792 | 58° | 22km/h | 20109m | -9.2m/s | -53.7°C | 3.5% | 0hPa | 2.7V | 00:00:00 | 02:19:36 | 00:00:00 | |
| SONDE2-11 | 2026-09-01 12:59:26 | 49.47060 | 18.05785 | 53° | 20km/h | 20119m | -11.3m/s | -53.7°C | 0.8% | -1.0hPa | 2.7V | 00:00:00 | 00:00:00 | 00:00:00 | |
| PETON7-10 | 2026-09-01 12:59:24 | 49.47056 | 18.05779 | 48° | 24km/h | 20131m | -12.0m/s | -53.6°C | 3.6% | 0hPa | 2.7V | 00:00:00 | 02:19:34 | 00:00:00 | |
| HA6NAB-11 | 2026-09-01 12:59:19 | 49.47040 | 18.05758 | 35° | 24km/h | 20172m | -10.5m/s | -53.3°C | 0.9% | 0hPa | 2.7V | 08:14:00 | 00:00:00 | 00:00:00 | |
| PG1ADW-2 | 2026-09-01 12:59:17 | 49.47024 | 18.05743 | 32° | 24km/h | 20201m | -10.3m/s | -53.2°C | 3.5% | 0hPa | 2.7V | 00:00:00 | 00:00:00 | 00:00:00 | |
| HA6NAB-11 | 2026-09-01 12:59:14 | 49.47013 | 18.05732 | 33° | 27km/h | 20222m | -10.5m/s | -53.1°C | 0.9% | 0hPa | 2.7V | 08:14:00 | 00:00:00 | 00:00:00 | |
| OE3JTB-15 | 2026-09-01 12:59:13 | 49.46990 | 18.05707 | 40° | 20km/h | 20261m | -9.3m/s | -53.2°C | 3.4% | 0hPa | 2.7V | 00:00:00 | 00:00:00 | 00:00:00 | |
| PETON7-10 | 2026-09-01 12:59:09 | 49.46980 | 18.05693 | 42° | 22km/h | 20279m | -10.1m/s | -53.2°C | 3.5% | 0hPa | 2.7V | 08:14:00 | 00:00:00 | 00:00:00 | |
| OE5DRO-10 | 2026-09-01 12:59:08 | 49.46976 | 18.05687 | 42° | 20km/h | 20289m | -9.4m/s | -53.2°C | 3.5% | 0hPa | 2.6V | 00:00:00 | 00:00:00 | 00:00:00 | |
| DO3MHA-11 | 2026-09-01 12:59:06 | 49.46967 | 18.05675 | 42° | 20km/h | 20307m | -9.7m/s | -53.2°C | 3.5% | 0hPa | 2.6V | 00:00:00 | 02:19:16 | 00:00:00 | |
| OE5DXL-15 | 2026-09-01 12:59:05 | 49.46962 | 18.05669 | 42° | 18km/h | 20317m | -9.9m/s | -53.2°C | 3.5% | 0hPa | 2.6V | 00:00:00 | 00:00:00 | 00:00:00 | |
| HA6NAB-11 | 2026-09-01 12:59:03 | 49.46958 | 18.05664 | 45° | 20km/h | 20327m | -9.7m/s | -53.2°C | 0.9% | 0hPa | 2.6V | 08:15:00 | 00:00:00 | 00:00:00 | |
| SP3WXH-11 | 2026-09-01 12:59:02 | 49.46952 | 18.05653 | 48° | 18km/h | 20347m | -10.2m/s | -53.0°C | 0.8% | -1.0hPa | 2.6V | 00:00:00 | 00:00:00 | 00:00:00 | |
| OE3OSB-13 | 2026-09-01 12:58:58 | 49.46941 | 18.05626 | 67° | 22km/h | 20387m | -10.2m/s | -52.9°C | 0.7% | -1.0hPa | 2.6V | 00:00:00 | 00:00:00 | 00:00:00 | |
| SONDE2-11 | 2026-09-01 12:58:56 | 49.46934 | 18.05589 | 76° | 13km/h | 20436m | -10.2m/s | -52.9°C | 0.7% | -1.0hPa | 2.6V | 00:00:00 | 00:00:00 | 00:00:00 | |
| PETON7-10 | 2026-09-01 12:58:55 | 49.46935 | 18.05595 | 77° | 15km/h | 20426m | -9.4m/s | -52.8°C | 3.4% | 0hPa | 2.6V | 00:00:00 | 00:00:00 | 00:00:00 | |
| OE5DRO-10 | 2026-09-01 12:58:49 | 49.46931 | 18.05570 | 75° | 18km/h | 20478m | -10.6m/s | -52.8°C | 3.4% | 0hPa | 2.6V | 00:00:00 | 00:00:00 | 00:00:00 | |
| DO3MHA-11 | 2026-09-01 12:58:46 | 49.46927 | 18.05555 | 70° | 16km/h | 20507m | -10.1m/s | -52.9°C | 3.5% | 0hPa | 2.6V | 00:00:00 | 02:18:56 | 00:00:00 | |
| OE3JTB-15 | 2026-09-01 12:58:44 | 49.46919 | 18.05525 | 62° | 29km/h | 20556m | -9.3m/s | -52.6°C | 3.5% | 0hPa | 2.6V | 00:00:00 | 02:18:51 | 00:00:00 | |
| PETON7-10 | 2026-09-01 12:58:39 | 49.46915 | 18.05514 | 55° | 26km/h | 20576m | -9.9m/s | -52.3°C | 3.4% | 0hPa | 2.6V | 00:00:00 | 02:18:49 | 00:00:00 | |
| PG1ADW-2 | 2026-09-01 12:58:37 | 49.46910 | 18.05504 | 49° | 29km/h | 20597m | -10.4m/s | -52.2°C | 3.3% | 0hPa | 2.6V | 00:00:00 | 02:18:47 | 00:00:00 | |
| DO3MHA-11 | 2026-09-01 12:58:36 | 49.46906 | 18.05499 | 43° | 27km/h | 20607m | -10.5m/s | -52.3°C | 3.3% | 0hPa | 2.7V | 00:00:00 | 02:18:46 | 00:00:00 | |
| OE5DXL-15 | 2026-09-01 12:58:35 | 49.46903 | 18.05493 | 43° | 31km/h | 20618m | -10.8m/s | -52.3°C | 3.4% | 0hPa | 2.7V | 00:00:00 | 00:00:00 | 00:00:00 | |
| OE5MMP-10 | 2026-09-01 12:58:32 | 49.46890 | 18.05476 | 42° | 31km/h | 20648m | -9.9m/s | -52.2°C | 3.3% | 0hPa | 2.6V | 08:15:00 | 02:18:42 | 00:00:00 | |
| SP3WXH-11 | 2026-09-01 12:58:31 | 49.46885 | 18.05468 | 44° | 27km/h | 20658m | -9.5m/s | -52.3°C | 0.8% | -1.0hPa | 2.6V | 00:00:00 | 00:00:00 | 00:00:00 | |
| OE5DRO-10 | 2026-09-01 12:58:30 | 49.46880 | 18.05460 | 45° | 31km/h | 20667m | -9.7m/s | -52.3°C | 3.3% | 0hPa | 2.6V | 08:15:00 | 00:00:00 | 00:00:00 | |
| OE3OSB-13 | 2026-09-01 12:58:27 | 49.46862 | 18.05433 | 47° | 35km/h | 20697m | -10.3m/s | -52.3°C | 0.7% | -1.0hPa | 2.6V | 00:00:00 | 00:00:00 | 00:00:00 | |
| DO3MHA-11 | 2026-09-01 12:58:26 | 49.46856 | 18.05423 | 50° | 31km/h | 20707m | -10.1m/s | -52.1°C | 3.3% | 0hPa | 2.6V | 00:00:00 | 02:18:36 | 00:00:00 | |
| SONDE2-11 | 2026-09-01 12:58:24 | 49.46841 | 18.05394 | 50° | 29km/h | 20738m | -10.8m/s | -51.8°C | 0.7% | -1.0hPa | 2.6V | 00:00:00 | 00:00:00 | 00:00:00 | |
| PG1ADW-2 | 2026-09-01 12:58:17 | 49.46813 | 18.05337 | 55° | 31km/h | 20797m | -10.9m/s | -51.6°C | 3.2% | 0hPa | 2.6V | 00:00:00 | 00:00:00 | 00:00:00 | |
| DO3MHA-11 | 2026-09-01 12:58:16 | 49.46808 | 18.05327 | 57° | 33km/h | 20808m | -9.3m/s | -51.6°C | 3.2% | 0hPa | 2.6V | 08:15:00 | 02:18:26 | 00:00:00 | |
| OE3JTB-15 | 2026-09-01 12:58:12 | 49.46787 | 18.05259 | 71° | 27km/h | 20870m | -10.6m/s | -51.4°C | 3.1% | 0hPa | 2.6V | 00:00:00 | 00:00:00 | 00:00:00 | |
| PETON7-10 | 2026-09-01 12:58:09 | 49.46784 | 18.05247 | 71° | 29km/h | 20880m | -10.9m/s | -51.5°C | 3.1% | 0hPa | 2.6V | 00:00:00 | 00:00:00 | 00:00:00 | |
| OE5MMP-10 | 2026-09-01 12:58:08 | 49.46782 | 18.05236 | 70° | 29km/h | 20891m | -10.6m/s | -51.5°C | 3.1% | 0hPa | 2.6V | 00:00:00 | 02:18:18 | 00:00:00 | |
| DO3MHA-11 | 2026-09-01 12:58:06 | 49.46776 | 18.05212 | 68° | 27km/h | 20912m | -10.8m/s | -51.5°C | 3.1% | 0hPa | 2.6V | 00:00:00 | 02:18:16 | 00:00:00 | |
| OE5DXL-15 | 2026-09-01 12:58:05 | 49.46773 | 18.05201 | 69° | 26km/h | 20923m | -10.6m/s | -51.5°C | 3.1% | 0hPa | 2.6V | 00:00:00 | 00:00:00 | 00:00:00 | |
| SP3WXH-11 | 2026-09-01 12:58:00 | 49.46762 | 18.05151 | 76° | 24km/h | 20974m | -10.4m/s | -51.6°C | 0.7% | -1.0hPa | 2.6V | 00:00:00 | 00:00:00 | 00:00:00 | |
| OE3OSB-13 | 2026-09-01 12:57:56 | 49.46757 | 18.05110 | 80° | 27km/h | 21015m | -10.7m/s | -51.8°C | 0.7% | -1.0hPa | 2.6V | 00:00:00 | 00:00:00 | 00:00:00 | |
| SONDE2-11 | 2026-09-01 12:57:52 | 49.46750 | 18.05058 | 76° | 26km/h | 21069m | -10.9m/s | -52.0°C | 0.7% | -1.0hPa | 2.6V | 00:00:00 | 00:00:00 | 00:00:00 | |
| OE5MMP-10 | 2026-09-01 12:57:48 | 49.46746 | 18.05032 | 80° | 22km/h | 21102m | -10.8m/s | -51.9°C | 3.2% | 0hPa | 2.6V | 00:00:00 | 02:17:58 | 00:00:00 | |
| DO3MHA-11 | 2026-09-01 12:57:46 | 49.46745 | 18.05018 | 86° | 22km/h | 21124m | -11.0m/s | -52.1°C | 3.2% | 0hPa | 2.7V | 00:00:00 | 02:17:56 | 00:00:00 | |
| OE3JTB-15 | 2026-09-01 12:57:43 | 49.46742 | 18.04981 | 83° | 16km/h | 21176m | -10.1m/s | -52.2°C | 3.4% | 0hPa | 2.7V | 00:00:00 | 00:00:00 | 00:00:00 | |
| PETON7-10 | 2026-09-01 12:57:39 | 49.46741 | 18.04962 | 83° | 22km/h | 21196m | -10.7m/s | -52.2°C | 3.3% | 0hPa | 2.7V | 00:00:00 | 00:00:00 | 00:00:00 | |
| PG1ADW-2 | 2026-09-01 12:57:37 | 49.46739 | 18.04941 | 82° | 18km/h | 21217m | -10.8m/s | -52.1°C | 3.4% | 0hPa | 2.6V | 00:00:00 | 00:00:00 | 00:00:00 | |
| OE5MMP-10 | 2026-09-01 12:57:36 | 49.46738 | 18.04931 | 83° | 22km/h | 21227m | -9.9m/s | -52.1°C | 3.3% | 0hPa | 2.7V | 00:00:00 | 02:17:46 | 00:00:00 | |
| OE5DRO-10 | 2026-09-01 12:57:33 | 49.46736 | 18.04903 | 88° | 15km/h | 21260m | -10.7m/s | -52.2°C | 3.3% | 0hPa | 2.7V | 00:00:00 | 00:00:00 | 00:00:00 | |
| SP3WXH-11 | 2026-09-01 12:57:29 | 49.46736 | 18.04871 | 92° | 18km/h | 21301m | -10.3m/s | -52.2°C | 0.7% | -1.0hPa | 2.6V | 00:00:00 | 00:00:00 | 00:00:00 | |
| DO3MHA-11 | 2026-09-01 12:57:26 | 49.46736 | 18.04849 | 87° | 11km/h | 21331m | -10.1m/s | -52.0°C | 3.2% | 0hPa | 2.6V | 00:00:00 | 02:17:36 | 00:00:00 | |
| OE3OSB-13 | 2026-09-01 12:57:25 | 49.46736 | 18.04842 | 83° | 16km/h | 21340m | -9.1m/s | -52.0°C | 0.7% | -1.0hPa | 2.6V | 00:00:00 | 00:00:00 | 00:00:00 | |
| PETON7-10 | 2026-09-01 12:57:24 | 49.46735 | 18.04835 | 83° | 9km/h | 21350m | -9.3m/s | -51.8°C | 3.1% | 0hPa | 2.6V | 00:00:00 | 00:00:00 | 00:00:00 | |
| SONDE2-11 | 2026-09-01 12:57:21 | 49.46734 | 18.04815 | 99° | 7km/h | 21391m | -11.0m/s | -51.9°C | 0.7% | -1.0hPa | 2.6V | 00:00:00 | 00:00:00 | 00:00:00 | |
| PG1ADW-2 | 2026-09-01 12:57:17 | 49.46736 | 18.04810 | 175° | 5km/h | 21420m | -8.9m/s | -52.0°C | 3.2% | 0hPa | 2.6V | 00:00:00 | 02:17:27 | 00:00:00 | |
| OE5MMP-10 | 2026-09-01 12:57:16 | 49.46738 | 18.04810 | 185° | 5km/h | 21430m | -10.3m/s | -52.0°C | 3.3% | 0hPa | 2.6V | 00:00:00 | 02:17:26 | 00:00:00 | |
| OE5DRO-10 | 2026-09-01 12:57:14 | 49.46741 | 18.04811 | 187° | 5km/h | 21450m | -9.8m/s | -52.1°C | 3.3% | 0hPa | 2.6V | 00:00:00 | 00:00:00 | 00:00:00 | |
| PETON7-10 | 2026-09-01 12:57:09 | 49.46749 | 18.04807 | 133° | 4km/h | 21501m | -10.9m/s | -52.2°C | 3.1% | 0hPa | 2.6V | 00:00:00 | 02:17:19 | 00:00:00 | |
| DO3MHA-11 | 2026-09-01 12:57:06 | 49.46751 | 18.04803 | 159° | 4km/h | 21535m | -10.7m/s | -52.6°C | 3.2% | 0hPa | 2.6V | 00:00:00 | 02:17:16 | 00:00:00 | |
| OE5DXL-15 | 2026-09-01 12:57:05 | 49.46752 | 18.04803 | 200° | 9km/h | 21545m | -10.5m/s | -52.6°C | 3.2% | 0hPa | 2.6V | 08:16:00 | 00:00:00 | 00:00:00 | |
| SP3WXH-11 | 2026-09-01 12:56:58 | 49.46754 | 18.04815 | 296° | 2km/h | 21619m | -11.6m/s | -52.9°C | 0.8% | -1.0hPa | 2.7V | 00:00:00 | 00:00:00 | 00:00:00 | |
| OE3OSB-13 | 2026-09-01 12:56:54 | 49.46752 | 18.04815 | 30° | 2km/h | 21662m | -10.7m/s | -53.0°C | 0.8% | -1.0hPa | 2.7V | 00:00:00 | 00:00:00 | 00:00:00 | |
| SONDE2-11 | 2026-09-01 12:56:50 | 49.46748 | 18.04809 | 65° | 5km/h | 21714m | -10.2m/s | -53.1°C | 0.8% | -1.0hPa | 2.7V | 00:00:00 | 00:00:00 | 00:00:00 | |
| HA6NAB-11 | 2026-09-01 12:56:47 | 49.46747 | 18.04807 | 76° | 7km/h | 21725m | -11.1m/s | -53.1°C | 0.9% | 0hPa | 2.7V | 08:17:00 | 00:00:00 | 00:00:00 | |
| DO3MHA-11 | 2026-09-01 12:56:46 | 49.46747 | 18.04801 | 77° | 9km/h | 21746m | -11.1m/s | -53.1°C | 3.3% | 0hPa | 2.7V | 08:16:00 | 02:16:56 | 00:00:00 | |
| OE5MMP-10 | 2026-09-01 12:56:45 | 49.46746 | 18.04797 | 79° | 18km/h | 21757m | -11.1m/s | -53.1°C | 3.4% | 0hPa | 2.7V | 08:16:00 | 02:16:55 | 00:00:00 | |
| HA6NAB-11 | 2026-09-01 12:56:41 | 49.46743 | 18.04780 | 72° | 18km/h | 21790m | -10.9m/s | -53.2°C | 0.9% | 0hPa | 2.6V | 08:17:00 | 00:00:00 | 00:00:00 | |
| PETON7-10 | 2026-09-01 12:56:39 | 49.46737 | 18.04759 | 65° | 18km/h | 21822m | -9.7m/s | -53.2°C | 3.5% | 0hPa | 2.6V | 00:00:00 | 00:00:00 | 00:00:00 | |
| PG1ADW-2 | 2026-09-01 12:56:37 | 49.46732 | 18.04745 | 62° | 18km/h | 21843m | -10.9m/s | -53.1°C | 3.5% | 0hPa | 2.6V | 08:17:00 | 00:00:00 | 00:00:00 | |
| OE5DRO-10 | 2026-09-01 12:56:36 | 49.46730 | 18.04738 | 63° | 16km/h | 21854m | -11.2m/s | -53.1°C | 3.5% | 0hPa | 2.6V | 00:00:00 | 00:00:00 | 00:00:00 | |
| OE5MMP-10 | 2026-09-01 12:56:35 | 49.46727 | 18.04731 | 63° | 18km/h | 21865m | -10.6m/s | -53.0°C | 3.4% | 0hPa | 2.7V | 00:00:00 | 02:16:45 | 00:00:00 | |
| DO3MHA-11 | 2026-09-01 12:56:33 | 49.46723 | 18.04718 | 69° | 16km/h | 21886m | -10.4m/s | -53.1°C | 3.4% | 0hPa | 2.7V | 00:00:00 | 02:16:43 | 00:00:00 | |
| HA6NAB-11 | 2026-09-01 12:56:29 | 49.46719 | 18.04700 | 73° | 16km/h | 21916m | -9.7m/s | -53.2°C | 0.8% | 0hPa | 2.7V | 00:00:00 | 00:00:00 | 00:00:00 | |
| SP3WXH-11 | 2026-09-01 12:56:27 | 49.46715 | 18.04681 | 66° | 16km/h | 21947m | -11.2m/s | -53.3°C | 0.8% | -1.0hPa | 2.7V | 00:00:00 | 00:00:00 | 00:00:00 | |
| OE5MMP-10 | 2026-09-01 12:56:25 | 49.46711 | 18.04669 | 61° | 16km/h | 21969m | -9.9m/s | -53.4°C | 3.4% | 0hPa | 2.7V | 00:00:00 | 02:16:35 | 00:00:00 | |
| PETON7-10 | 2026-09-01 12:56:24 | 49.46708 | 18.04663 | 59° | 16km/h | 21979m | -9.7m/s | -53.4°C | 3.5% | 0hPa | 2.7V | 00:00:00 | 02:16:34 | 00:00:00 | |
| DO3MHA-11 | 2026-09-01 12:56:23 | 49.46706 | 18.04658 | 56° | 18km/h | 21989m | -11.9m/s | -53.4°C | 3.4% | 0hPa | 2.7V | 00:00:00 | 02:16:33 | 00:00:00 | |
| SONDE2-11 | 2026-09-01 12:56:19 | 49.46695 | 18.04631 | 63° | 16km/h | 22045m | -11.0m/s | -53.5°C | 0.8% | -1.0hPa | 2.7V | 00:00:00 | 00:00:00 | 00:00:00 | |
| OE5DRO-10 | 2026-09-01 12:56:17 | 49.46693 | 18.04625 | 67° | 11km/h | 22056m | -10.8m/s | -53.5°C | 3.6% | 0hPa | 2.7V | 00:00:00 | 00:00:00 | 00:00:00 | |
| OE5MMP-10 | 2026-09-01 12:56:15 | 49.46690 | 18.04611 | 71° | 13km/h | 22077m | -10.2m/s | -53.6°C | 3.6% | 0hPa | 2.7V | 00:00:00 | 02:16:25 | 00:00:00 | |
| DO3MHA-11 | 2026-09-01 12:56:13 | 49.46686 | 18.04598 | 70° | 11km/h | 22098m | -10.7m/s | -53.6°C | 3.6% | 0hPa | 2.6V | 00:00:00 | 02:16:23 | 00:00:00 | |
| PETON7-10 | 2026-09-01 12:56:08 | 49.46677 | 18.04574 | 49° | 5km/h | 22150m | -10.6m/s | -53.6°C | 3.6% | 0hPa | 2.7V | 00:00:00 | 00:00:00 | 00:00:00 | |
| OE5MMP-10 | 2026-09-01 12:56:05 | 49.46673 | 18.04568 | 40° | 4km/h | 22184m | -10.6m/s | -53.4°C | 3.5% | 0hPa | 2.6V | 00:00:00 | 02:16:15 | 00:00:00 | |
| DO3MHA-11 | 2026-09-01 12:56:03 | 49.46671 | 18.04565 | 42° | 4km/h | 22205m | -11.5m/s | -53.4°C | 3.5% | 0hPa | 2.6V | 00:00:00 | 02:16:13 | 00:00:00 | |
| SP3WXH-11 | 2026-09-01 12:55:57 | 49.46668 | 18.04565 | 312° | 4km/h | 22281m | -10.9m/s | -53.2°C | 0.8% | -1.0hPa | 2.6V | 00:00:00 | 00:00:00 | 00:00:00 | |
| OE3OSB-13 | 2026-09-01 12:55:52 | 49.46663 | 18.04581 | 298° | 13km/h | 22337m | -11.2m/s | -53.1°C | 0.8% | -1.0hPa | 2.6V | 00:00:00 | 00:00:00 | 00:00:00 | |
| SONDE2-11 | 2026-09-01 12:55:48 | 49.46655 | 18.04601 | 308° | 16km/h | 22380m | -10.4m/s | -52.9°C | 0.7% | -1.0hPa | 2.6V | 00:00:00 | 00:00:00 | 00:00:00 | |
| DO3MHA-11 | 2026-09-01 12:55:43 | 49.46642 | 18.04623 | 316° | 22km/h | 22423m | -10.3m/s | -52.8°C | 3.5% | 0hPa | 2.6V | 00:00:00 | 02:15:53 | 00:00:00 | |
| OE5DRO-10 | 2026-09-01 12:55:39 | 49.46627 | 18.04648 | 310° | 24km/h | 22468m | -13.2m/s | -52.6°C | 3.4% | 0hPa | 2.7V | 08:18:00 | 00:00:00 | 00:00:00 | |
| PETON7-10 | 2026-09-01 12:55:38 | 49.46623 | 18.04655 | 310° | 24km/h | 22481m | -12.1m/s | -52.5°C | 3.3% | 0hPa | 2.6V | 00:00:00 | 02:15:48 | 00:00:00 | |
| PG1ADW-2 | 2026-09-01 12:55:37 | 49.46620 | 18.04661 | 312° | 24km/h | 22492m | -10.5m/s | -52.6°C | 3.4% | 0hPa | 2.6V | 00:00:00 | 00:00:00 | 00:00:00 | |
| OE5DXL-15 | 2026-09-01 12:55:35 | 49.46613 | 18.04671 | 322° | 20km/h | 22515m | -11.3m/s | -52.6°C | 3.4% | 0hPa | 2.7V | 00:00:00 | 00:00:00 | 00:00:00 | |
| DO3MHA-11 | 2026-09-01 12:55:33 | 49.46604 | 18.04679 | 337° | 26km/h | 22536m | -10.8m/s | -52.7°C | 3.4% | 0hPa | 2.7V | 00:00:00 | 02:15:43 | 00:00:00 | |
| SP3WXH-11 | 2026-09-01 12:55:25 | 49.46556 | 18.04704 | 338° | 26km/h | 22628m | -12.3m/s | -52.9°C | 0.8% | -1.0hPa | 2.7V | 00:00:00 | 00:00:00 | 00:00:00 | |
| DO3MHA-11 | 2026-09-01 12:55:23 | 49.46543 | 18.04711 | 339° | 20km/h | 22652m | -11.9m/s | -52.6°C | 3.4% | 0hPa | 2.7V | 00:00:00 | 02:15:33 | 00:00:00 | |
| OE5MMP-10 | 2026-09-01 12:55:21 | 49.46532 | 18.04716 | 348° | 16km/h | 22676m | -11.4m/s | -52.3°C | 3.4% | 0hPa | 2.7V | 00:00:00 | 02:15:31 | 00:00:00 | |
| OE5DRO-10 | 2026-09-01 12:55:20 | 49.46526 | 18.04717 | 354° | 15km/h | 22687m | -11.9m/s | -52.2°C | 3.3% | 0hPa | 2.6V | 00:00:00 | 00:00:00 | 00:00:00 | |
| HA6NAB-11 | 2026-09-01 12:55:19 | 49.46521 | 18.04718 | 361° | 20km/h | 22699m | -11.5m/s | -52.2°C | 0.8% | 0hPa | 2.6V | 08:18:00 | 00:00:00 | 00:00:00 | |
| PG1ADW-2 | 2026-09-01 12:55:17 | 49.46512 | 18.04717 | 9° | 13km/h | 22723m | -11.0m/s | -52.2°C | 3.3% | 0hPa | 2.6V | 00:00:00 | 00:00:00 | 00:00:00 | |
| SONDE2-11 | 2026-09-01 12:55:16 | 49.46508 | 18.04716 | 5° | 15km/h | 22734m | -11.4m/s | -52.3°C | 0.7% | -1.0hPa | 2.6V | 00:00:00 | 00:00:00 | 00:00:00 | |
| HA6NAB-11 | 2026-09-01 12:55:13 | 49.46497 | 18.04714 | 8° | 15km/h | 22770m | -12.4m/s | -52.3°C | 0.8% | 0hPa | 2.6V | 08:18:00 | 00:00:00 | 00:00:00 | |
| OE5MMP-10 | 2026-09-01 12:55:10 | 49.46486 | 18.04712 | 8° | 13km/h | 22806m | -11.4m/s | -52.1°C | 3.3% | 0hPa | 2.6V | 00:00:00 | 02:15:20 | 00:00:00 | |
| PETON7-10 | 2026-09-01 12:55:08 | 49.46481 | 18.04709 | 28° | 9km/h | 22830m | -11.8m/s | -52.1°C | 3.3% | 0hPa | 2.6V | 00:00:00 | 00:00:00 | 00:00:00 | |
| HA6NAB-11 | 2026-09-01 12:55:06 | 49.46479 | 18.04707 | 44° | 9km/h | 22842m | -12.2m/s | -52.2°C | 0.8% | 0hPa | 2.6V | 08:18:00 | 00:00:00 | 00:00:00 | |
| OE5DXL-15 | 2026-09-01 12:55:05 | 49.46475 | 18.04700 | 61° | 13km/h | 22866m | -11.7m/s | -52.1°C | 3.3% | 0hPa | 2.6V | 00:00:00 | 00:00:00 | 00:00:00 | |
| DO3MHA-11 | 2026-09-01 12:55:03 | 49.46473 | 18.04691 | 71° | 9km/h | 22891m | -13.0m/s | -52.2°C | 3.3% | 0hPa | 2.6V | 00:00:00 | 02:15:13 | 00:00:00 | |
| SP3WXH-11 | 2026-09-01 12:54:54 | 49.46463 | 18.04668 | 3° | 5km/h | 22994m | -10.7m/s | -52.0°C | 0.7% | -1.0hPa | 2.6V | 00:00:00 | 00:00:00 | 00:00:00 | |
| OE3OSB-13 | 2026-09-01 12:54:50 | 49.46449 | 18.04667 | 7° | 16km/h | 23056m | -10.9m/s | -52.2°C | 0.7% | -1.0hPa | 2.6V | 00:00:00 | 00:00:00 | 00:00:00 | |
| SONDE2-11 | 2026-09-01 12:54:45 | 49.46430 | 18.04663 | 6° | 20km/h | 23104m | -10.5m/s | -52.4°C | 0.7% | -1.0hPa | 2.6V | 00:00:00 | 00:00:00 | 00:00:00 | |
| DO3MHA-11 | 2026-09-01 12:54:43 | 49.46419 | 18.04661 | 7° | 15km/h | 23127m | -11.0m/s | -52.3°C | 3.3% | 0hPa | 2.6V | 00:00:00 | 02:14:53 | 00:00:00 | |
| OE5DRO-10 | 2026-09-01 12:54:42 | 49.46414 | 18.04660 | 8° | 15km/h | 23139m | -11.3m/s | -52.3°C | 3.3% | 0hPa | 2.6V | 00:00:00 | 00:00:00 | 00:00:00 | |
| PETON7-10 | 2026-09-01 12:54:38 | 49.46405 | 18.04651 | 76° | 15km/h | 23185m | -11.3m/s | -52.2°C | 3.2% | 0hPa | 2.6V | 08:19:00 | 00:00:00 | 00:00:00 | |
| PG1ADW-2 | 2026-09-01 12:54:37 | 49.46404 | 18.04647 | 91° | 13km/h | 23197m | -11.3m/s | -52.2°C | 3.3% | 0hPa | 2.6V | 00:00:00 | 02:14:47 | 00:00:00 | |
| OE5DXL-15 | 2026-09-01 12:54:35 | 49.46405 | 18.04636 | 95° | 15km/h | 23220m | -11.9m/s | -52.3°C | 3.3% | 0hPa | 2.6V | 00:00:00 | 00:00:00 | 00:00:00 | |
| DO3MHA-11 | 2026-09-01 12:54:33 | 49.46405 | 18.04624 | 84° | 15km/h | 23242m | -9.8m/s | -52.4°C | 3.4% | 0hPa | 2.6V | 00:00:00 | 02:14:43 | 00:00:00 | |
| OE5MMP-10 | 2026-09-01 12:54:28 | 49.46392 | 18.04609 | 4° | 15km/h | 23296m | -11.4m/s | -52.4°C | 3.3% | 0hPa | 2.6V | 00:00:00 | 02:14:38 | 00:00:00 | |
| NBG1-10 | 2026-09-01 12:54:24 | 49.46375 | 18.04608 | 10° | 13km/h | 23342m | -11.1m/s | -52.4°C | 3.3% | 0hPa | 2.6V | 00:00:00 | 02:14:34 | 00:00:00 | |
| PETON7-10 | 2026-09-01 12:54:23 | 49.46371 | 18.04606 | 22° | 13km/h | 23353m | -10.3m/s | -52.4°C | 3.3% | 0hPa | 2.6V | 00:00:00 | 00:00:00 | 00:00:00 | |
| OE3OSB-13 | 2026-09-01 12:54:19 | 49.46364 | 18.04591 | 64° | 7km/h | 23410m | -9.9m/s | -52.3°C | 0.7% | -1.0hPa | 2.6V | 00:00:00 | 00:00:00 | 00:00:00 | |
| OE5MMP-10 | 2026-09-01 12:54:18 | 49.46364 | 18.04591 | 65° | 13km/h | 23410m | -9.9m/s | -52.3°C | 3.3% | 0hPa | 2.6V | 08:19:00 | 02:14:28 | 00:00:00 | |
| PG1ADW-2 | 2026-09-01 12:54:17 | 49.46363 | 18.04589 | 43° | 11km/h | 23421m | -11.0m/s | -52.3°C | 3.3% | 0hPa | 2.7V | 00:00:00 | 00:00:00 | 00:00:00 | |
| HA6NAB-11 | 2026-09-01 12:54:15 | 49.46362 | 18.04588 | 15° | 9km/h | 23432m | -11.2m/s | -52.4°C | 0.8% | 0hPa | 2.7V | 08:19:00 | 00:00:00 | 00:00:00 | |
| SONDE2-11 | 2026-09-01 12:54:14 | 49.46356 | 18.04587 | 359° | 13km/h | 23454m | -11.1m/s | -52.5°C | 0.7% | -1.0hPa | 2.7V | 00:00:00 | 00:00:00 | 00:00:00 | |
| HA6NAB-11 | 2026-09-01 12:54:09 | 49.46339 | 18.04590 | 355° | 18km/h | 23502m | -11.6m/s | -52.3°C | 0.8% | 0hPa | 2.7V | 08:19:00 | 00:00:00 | 00:00:00 | |
| PETON7-10 | 2026-09-01 12:54:08 | 49.46331 | 18.04591 | 7° | 7km/h | 23525m | -11.7m/s | -52.3°C | 3.2% | 0hPa | 2.7V | 00:00:00 | 02:14:18 | 00:00:00 | |
| OE5DXL-15 | 2026-09-01 12:54:05 | 49.46321 | 18.04587 | 23° | 5km/h | 23561m | -11.4m/s | -52.4°C | 3.3% | 0hPa | 2.7V | 00:00:00 | 00:00:00 | 00:00:00 | |
| OE5DRO-10 | 2026-09-01 12:54:04 | 49.46319 | 18.04586 | 34° | 5km/h | 23573m | -11.7m/s | -52.4°C | 3.3% | 0hPa | 2.6V | 00:00:00 | 00:00:00 | 00:00:00 | |
| DO3MHA-11 | 2026-09-01 12:54:03 | 49.46317 | 18.04583 | 38° | 4km/h | 23585m | -11.7m/s | -52.4°C | 3.3% | 0hPa | 2.6V | 00:00:00 | 02:14:13 | 00:00:00 | |
| SP3WXH-11 | 2026-09-01 12:53:52 | 49.46318 | 18.04568 | 140° | 5km/h | 23721m | -11.9m/s | -52.7°C | 0.7% | -1.0hPa | 2.6V | 00:00:00 | 00:00:00 | 00:00:00 | |
| OE3OSB-13 | 2026-09-01 12:53:48 | 49.46324 | 18.04567 | 194° | 5km/h | 23768m | -12.7m/s | -52.6°C | 0.7% | -1.0hPa | 2.6V | 00:00:00 | 00:00:00 | 00:00:00 | |
| HA6NAB-11 | 2026-09-01 12:53:46 | 49.46324 | 18.04567 | 195° | 5km/h | 23769m | -12.7m/s | -52.6°C | 0.8% | 0hPa | 2.6V | 00:00:00 | 00:00:00 | 00:00:00 | |
| OE5MMP-10 | 2026-09-01 12:53:45 | 49.46327 | 18.04572 | 251° | 7km/h | 23805m | -11.6m/s | -52.5°C | 3.3% | 0hPa | 2.6V | 00:00:00 | 02:13:54 | 00:00:00 | |
| DO3MHA-11 | 2026-09-01 12:53:43 | 49.46327 | 18.04575 | 270° | 7km/h | 23817m | -12.2m/s | -52.4°C | 3.3% | 0hPa | 2.6V | 08:19:00 | 02:13:53 | 00:00:00 | |
| DB0DAN | 2026-09-01 12:53:40 | 49.46327 | 18.04586 | 286° | 9km/h | 23852m | -11.1m/s | -52.6°C | 0.7% | 0hPa | 2.7V | 00:00:00 | 00:00:00 | 00:00:00 | |
| PETON7-10 | 2026-09-01 12:53:38 | 49.46325 | 18.04592 | 291° | 13km/h | 23876m | -11.8m/s | -52.6°C | 3.4% | 0hPa | 2.6V | 00:00:00 | 00:00:00 | 00:00:00 | |
| PG1ADW-2 | 2026-09-01 12:53:37 | 49.46324 | 18.04595 | 304° | 15km/h | 23887m | -10.8m/s | -52.6°C | 3.4% | 0hPa | 2.6V | 08:20:00 | 00:00:00 | 00:00:00 | |
| OE5DXL-15 | 2026-09-01 12:53:35 | 49.46322 | 18.04598 | 328° | 16km/h | 23911m | -12.5m/s | -52.6°C | 3.4% | 0hPa | 2.6V | 00:00:00 | 00:00:00 | 00:00:00 | |
| OE5MMP-10 | 2026-09-01 12:53:34 | 49.46321 | 18.04598 | 348° | 16km/h | 23923m | -12.8m/s | -52.6°C | 3.4% | 0hPa | 2.6V | 00:00:00 | 02:13:44 | 00:00:00 | |
| DO3MHA-11 | 2026-09-01 12:53:33 | 49.46320 | 18.04599 | 353° | 16km/h | 23936m | -12.5m/s | -52.6°C | 3.4% | 0hPa | 2.6V | 00:00:00 | 02:13:43 | 00:00:00 | |
| NBG1-10 | 2026-09-01 12:53:28 | 49.46304 | 18.04599 | 1° | 18km/h | 24000m | -12.7m/s | -52.4°C | 3.3% | 0hPa | 2.6V | 00:00:00 | 02:13:38 | 00:00:00 | |
| DB0DAN | 2026-09-01 12:53:25 | 49.46289 | 18.04600 | 357° | 20km/h | 24037m | -11.7m/s | -52.5°C | 0.7% | 0hPa | 2.6V | 00:00:00 | 00:00:00 | 00:00:00 | |
| PETON7-10 | 2026-09-01 12:53:23 | 49.46278 | 18.04601 | 358° | 20km/h | 24060m | -11.0m/s | -52.5°C | 3.3% | 0hPa | 2.6V | 00:00:00 | 02:13:33 | 00:00:00 | |
| SP3WXH-11 | 2026-09-01 12:53:21 | 49.46263 | 18.04598 | 14° | 20km/h | 24095m | -12.2m/s | -52.6°C | 0.7% | -1.0hPa | 2.6V | 00:00:00 | 00:00:00 | 00:00:00 | |
| OE3OSB-13 | 2026-09-01 12:53:17 | 49.46242 | 18.04584 | 33° | 22km/h | 24140m | -9.1m/s | -52.6°C | 0.7% | -1.0hPa | 2.6V | 00:00:00 | 00:00:00 | 00:00:00 | |
| OE3JTB-15 | 2026-09-01 12:53:16 | 49.46230 | 18.04571 | 37° | 15km/h | 24165m | -7.4m/s | -52.8°C | 3.5% | 0hPa | 2.6V | 00:00:00 | 00:00:00 | 00:00:00 | |
| DO3MHA-11 | 2026-09-01 12:53:14 | 49.46230 | 18.04571 | 37° | 16km/h | 24165m | -7.4m/s | -52.8°C | 3.5% | 0hPa | 2.6V | 00:00:00 | 02:13:23 | 00:00:00 | |
| DB0DAN | 2026-09-01 12:53:10 | 49.46219 | 18.04561 | 29° | 16km/h | 24189m | -8.4m/s | -52.9°C | 0.7% | 0hPa | 2.7V | 00:00:00 | 00:00:00 | 00:00:00 | |
| HA6NAB-11 | 2026-09-01 12:53:09 | 49.46219 | 18.04560 | 30° | 16km/h | 24189m | -8.4m/s | -52.9°C | 0.8% | 0hPa | 2.6V | 00:00:00 | 00:00:00 | 00:00:00 | |
| PETON7-10 | 2026-09-01 12:53:08 | 49.46212 | 18.04553 | 45° | 11km/h | 24206m | -8.9m/s | -52.7°C | 3.4% | 0hPa | 2.6V | 00:00:00 | 00:00:00 | 00:00:00 | |
| OE5DRO-10 | 2026-09-01 12:53:07 | 49.46210 | 18.04549 | 54° | 11km/h | 24215m | -8.2m/s | -52.6°C | 3.5% | 0hPa | 2.6V | 00:00:00 | 00:00:00 | 00:00:00 | |
| OE5DXL-15 | 2026-09-01 12:53:05 | 49.46206 | 18.04539 | 61° | 11km/h | 24231m | -8.0m/s | -52.3°C | 3.4% | 0hPa | 2.6V | 00:00:00 | 00:00:00 | 00:00:00 | |
| HA6NAB-11 | 2026-09-01 12:53:04 | 49.46206 | 18.04539 | 61° | 15km/h | 24231m | -8.0m/s | -52.4°C | 0.8% | 0hPa | 2.6V | 00:00:00 | 00:00:00 | 00:00:00 | |
| DO3MHA-11 | 2026-09-01 12:53:03 | 49.46203 | 18.04528 | 69° | 9km/h | 24247m | -7.4m/s | -52.1°C | 3.4% | 0hPa | 2.6V | 00:00:00 | 02:13:13 | 00:00:00 | |
| SP3WXH-11 | 2026-09-01 12:52:50 | 49.46212 | 18.04495 | 184° | 5km/h | 24363m | -7.1m/s | -51.8°C | 0.7% | -1.0hPa | 2.6V | 00:00:00 | 00:00:00 | 00:00:00 | |
| OE3OSB-13 | 2026-09-01 12:52:45 | 49.46217 | 18.04493 | 147° | 4km/h | 24397m | -8.0m/s | -51.4°C | 0.7% | -1.0hPa | 2.6V | 00:00:00 | 00:00:00 | 00:00:00 | |
| DO3MHA-11 | 2026-09-01 12:52:43 | 49.46220 | 18.04491 | 166° | 15km/h | 24413m | -7.8m/s | -51.5°C | 3.2% | 0hPa | 2.6V | 00:00:00 | 02:12:53 | 00:00:00 | |
| SONDE2-11 | 2026-09-01 12:52:42 | 49.46226 | 18.04491 | 191° | 15km/h | 24429m | -7.0m/s | -51.6°C | 0.7% | -1.0hPa | 2.6V | 00:00:00 | 00:00:00 | 00:00:00 | |
| PETON7-10 | 2026-09-01 12:52:38 | 49.46239 | 18.04499 | 212° | 11km/h | 24453m | -8.7m/s | -51.7°C | 3.3% | 0hPa | 2.6V | 00:00:00 | 02:12:48 | 00:00:00 | |
| PG1ADW-2 | 2026-09-01 12:52:37 | 49.46243 | 18.04503 | 213° | 11km/h | 24462m | -8.3m/s | -51.6°C | 3.3% | 0hPa | 2.6V | 00:00:00 | 00:00:00 | 00:00:00 | |
| OE5DXL-15 | 2026-09-01 12:52:35 | 49.46249 | 18.04510 | 222° | 13km/h | 24479m | -8.1m/s | -51.7°C | 3.3% | 0hPa | 2.7V | 08:21:00 | 00:00:00 | 00:00:00 | |
| DO3MHA-11 | 2026-09-01 12:52:33 | 49.46253 | 18.04516 | 245° | 9km/h | 24496m | -8.9m/s | -52.0°C | 3.3% | 0hPa | 2.6V | 00:00:00 | 02:12:43 | 00:00:00 | |
| OE5DRO-10 | 2026-09-01 12:52:29 | 49.46256 | 18.04524 | 217° | 13km/h | 24528m | -8.0m/s | -51.7°C | 3.3% | 0hPa | 2.6V | 00:00:00 | 00:00:00 | 00:00:00 | |
| DO3MHA-11 | 2026-09-01 12:52:23 | 49.46270 | 18.04537 | 226° | 15km/h | 24578m | -7.9m/s | -51.4°C | 3.3% | 0hPa | 2.6V | 00:00:00 | 02:12:33 | 00:00:00 | |
| OE5MMP-10 | 2026-09-01 12:52:22 | 49.46272 | 18.04541 | 241° | 15km/h | 24586m | -7.7m/s | -51.4°C | 3.3% | 0hPa | 2.6V | 00:00:00 | 02:12:32 | 00:00:00 | |
| SP3WXH-11 | 2026-09-01 12:52:19 | 49.46273 | 18.04560 | 278° | 15km/h | 24618m | -7.5m/s | -51.3°C | 0.6% | -1.0hPa | 2.6V | 00:00:00 | 00:00:00 | 00:00:00 | |
| PG1ADW-2 | 2026-09-01 12:52:18 | 49.46273 | 18.04567 | 278° | 13km/h | 24626m | -7.5m/s | -51.2°C | 3.2% | 0hPa | 2.6V | 00:00:00 | 00:00:00 | 00:00:00 | |
| OE3OSB-13 | 2026-09-01 12:52:15 | 49.46271 | 18.04586 | 268° | 15km/h | 24652m | -9.2m/s | -51.1°C | 0.6% | -1.0hPa | 2.6V | 00:00:00 | 00:00:00 | 00:00:00 | |
| DO3MHA-11 | 2026-09-01 12:52:13 | 49.46271 | 18.04592 | 261° | 15km/h | 24660m | -7.2m/s | -50.9°C | 3.2% | 0hPa | 2.6V | 08:21:00 | 02:12:23 | 00:00:00 | |
| OE5MMP-10 | 2026-09-01 12:52:12 | 49.46273 | 18.04598 | 248° | 15km/h | 24668m | -8.0m/s | -50.8°C | 3.1% | 0hPa | 2.6V | 08:21:00 | 02:12:22 | 00:00:00 | |
| OE5DRO-10 | 2026-09-01 12:52:10 | 49.46276 | 18.04608 | 240° | 11km/h | 24685m | -9.1m/s | -50.8°C | 3.1% | 0hPa | 2.6V | 00:00:00 | 00:00:00 | 00:00:00 | |
| PETON7-10 | 2026-09-01 12:52:08 | 49.46279 | 18.04619 | 256° | 9km/h | 24703m | -8.9m/s | -50.6°C | 3.0% | 0hPa | 2.6V | 00:00:00 | 00:00:00 | 00:00:00 | |
| OE5DXL-15 | 2026-09-01 12:52:06 | 49.46280 | 18.04636 | 279° | 11km/h | 24730m | -8.9m/s | -50.7°C | 3.1% | 0hPa | 2.6V | 00:00:00 | 00:00:00 | 00:00:00 | |
| DO3MHA-11 | 2026-09-01 12:52:03 | 49.46279 | 18.04646 | 276° | 7km/h | 24748m | -9.1m/s | -50.6°C | 3.1% | 0hPa | 2.6V | 00:00:00 | 02:12:13 | 00:00:00 | |
| SP3WXH-11 | 2026-09-01 12:51:48 | 49.46259 | 18.04660 | 50° | 7km/h | 24880m | -8.8m/s | -51.0°C | 0.6% | -1.0hPa | 2.6V | 00:00:00 | 00:00:00 | 00:00:00 | |
| DO3MHA-11 | 2026-09-01 12:51:43 | 49.46253 | 18.04650 | 37° | 13km/h | 24914m | -7.5m/s | -50.9°C | 3.1% | 0hPa | 2.6V | 00:00:00 | 02:11:53 | 00:00:00 | |
| OE5MMP-10 | 2026-09-01 12:51:42 | 49.46250 | 18.04647 | 32° | 9km/h | 24922m | -7.9m/s | -50.9°C | 3.1% | 0hPa | 2.6V | 00:00:00 | 02:11:52 | 00:00:00 | |
| SONDE2-11 | 2026-09-01 12:51:39 | 49.46239 | 18.04641 | 15° | 15km/h | 24947m | -7.9m/s | -51.1°C | 0.6% | -1.0hPa | 2.6V | 00:00:00 | 00:00:00 | 00:00:00 | |
| PETON7-10 | 2026-09-01 12:51:38 | 49.46235 | 18.04639 | 11° | 9km/h | 24955m | -8.3m/s | -50.9°C | 3.1% | 0hPa | 2.6V | 00:00:00 | 00:00:00 | 00:00:00 | |
| PG1ADW-2 | 2026-09-01 12:51:37 | 49.46232 | 18.04638 | 8° | 9km/h | 24963m | -7.7m/s | -50.9°C | 3.1% | 0hPa | 2.6V | 00:00:00 | 00:00:00 | 00:00:00 | |
| HA6NAB-11 | 2026-09-01 12:51:36 | 49.46231 | 18.04638 | 8° | 15km/h | 24963m | -7.8m/s | -50.9°C | 0.7% | 0hPa | 2.6V | 08:22:00 | 00:00:00 | 00:00:00 | |
| OE5DXL-15 | 2026-09-01 12:51:35 | 49.46225 | 18.04639 | 347° | 9km/h | 24980m | -8.7m/s | -51.0°C | 3.2% | 0hPa | 2.6V | 00:00:00 | 02:11:45 | 00:00:00 | |
| DO3MHA-11 | 2026-09-01 12:51:34 | 49.46221 | 18.04640 | 347° | 7km/h | 24997m | -8.1m/s | -51.1°C | 3.2% | 0hPa | 2.6V | 00:00:00 | 02:11:43 | 00:00:00 | |
| OE5DRO-10 | 2026-09-01 12:51:33 | 49.46220 | 18.04640 | 358° | 7km/h | 25005m | -8.5m/s | -51.1°C | 3.1% | 0hPa | 2.6V | 00:00:00 | 00:00:00 | 00:00:00 | |
| HA6NAB-11 | 2026-09-01 12:51:32 | 49.46220 | 18.04640 | 359° | 4km/h | 25005m | -8.5m/s | -51.1°C | 0.7% | 0hPa | 2.6V | 00:00:00 | 00:00:00 | 00:00:00 | |
| OE5MMP-10 | 2026-09-01 12:51:27 | 49.46216 | 18.04636 | 16° | 11km/h | 25047m | -8.7m/s | -51.1°C | 3.0% | 0hPa | 2.6V | 00:00:00 | 02:11:37 | 00:00:00 | |
| HA6NAB-11 | 2026-09-01 12:51:26 | 49.46216 | 18.04636 | 17° | 7km/h | 25047m | -8.7m/s | -51.1°C | 0.7% | 0hPa | 2.6V | 00:00:00 | 00:00:00 | 00:00:00 | |
| DO3MHA-11 | 2026-09-01 12:51:23 | 49.46205 | 18.04639 | 329° | 11km/h | 25082m | -9.1m/s | -51.1°C | 3.2% | 0hPa | 2.6V | 00:00:00 | 02:11:33 | 00:00:00 | |
| HA6NAB-11 | 2026-09-01 12:51:20 | 49.46199 | 18.04646 | 327° | 15km/h | 25099m | -8.7m/s | -51.2°C | 0.7% | 0hPa | 2.6V | 00:00:00 | 00:00:00 | 00:00:00 | |
| SP3WXH-11 | 2026-09-01 12:51:17 | 49.46189 | 18.04651 | 77° | 5km/h | 25142m | -8.8m/s | -51.3°C | 0.6% | -1.0hPa | 2.6V | 00:00:00 | 00:00:00 | 00:00:00 | |
| OE3OSB-13 | 2026-09-01 12:51:13 | 49.46189 | 18.04645 | 239° | 2km/h | 25178m | -8.4m/s | -51.4°C | 0.6% | -1.0hPa | 2.6V | 00:00:00 | 00:00:00 | 00:00:00 | |
| PETON7-10 | 2026-09-01 12:51:08 | 49.46190 | 18.04664 | 271° | 13km/h | 25212m | -8.1m/s | -51.4°C | 3.3% | 0hPa | 2.6V | 00:00:00 | 02:11:18 | 00:00:00 | |
| OE5MMP-10 | 2026-09-01 12:51:07 | 49.46190 | 18.04671 | 279° | 13km/h | 25221m | -8.9m/s | -51.4°C | 3.3% | 0hPa | 2.6V | 00:00:00 | 02:11:17 | 00:00:00 | |
| OE5DXL-15 | 2026-09-01 12:51:05 | 49.46187 | 18.04686 | 296° | 13km/h | 25239m | -8.1m/s | -51.4°C | 3.3% | 0hPa | 2.7V | 00:00:00 | 00:00:00 | 00:00:00 | |
| DO3MHA-11 | 2026-09-01 12:51:03 | 49.46182 | 18.04696 | 317° | 11km/h | 25255m | -8.6m/s | -51.3°C | 3.3% | 0hPa | 2.6V | 00:00:00 | 02:11:13 | 00:00:00 | |
| SP3WXH-11 | 2026-09-01 12:50:46 | 49.46144 | 18.04753 | 1° | 16km/h | 25427m | -12.2m/s | -50.6°C | 0.6% | -1.0hPa | 2.6V | 00:00:00 | 00:00:00 | 00:00:00 | |
| DO3MHA-11 | 2026-09-01 12:50:43 | 49.46136 | 18.04754 | 354° | 11km/h | 25453m | -13.0m/s | -50.5°C | 3.1% | 0hPa | 2.6V | 08:22:00 | 02:10:53 | 00:00:00 | |
| OE3OSB-13 | 2026-09-01 12:50:41 | 49.46130 | 18.04756 | 337° | 9km/h | 25477m | -12.3m/s | -50.5°C | 0.6% | -1.0hPa | 2.7V | 00:00:00 | 00:00:00 | 00:00:00 | |
| PETON7-10 | 2026-09-01 12:50:38 | 49.46125 | 18.04762 | 305° | 13km/h | 25516m | -13.2m/s | -50.4°C | 3.1% | 0hPa | 2.7V | 00:00:00 | 00:00:00 | 00:00:00 | |
| OE5MMP-10 | 2026-09-01 12:50:37 | 49.46123 | 18.04765 | 310° | 13km/h | 25529m | -12.2m/s | -50.4°C | 3.1% | 0hPa | 2.7V | 08:23:00 | 02:10:47 | 00:00:00 | |
| OE5DXL-15 | 2026-09-01 12:50:35 | 49.46119 | 18.04768 | 359° | 11km/h | 25554m | -12.9m/s | -50.5°C | 3.2% | 0hPa | 2.6V | 00:00:00 | 00:00:00 | 00:00:00 | |
| DO3MHA-11 | 2026-09-01 12:50:33 | 49.46112 | 18.04767 | 14° | 13km/h | 25580m | -12.3m/s | -50.5°C | 3.2% | 0hPa | 2.6V | 00:00:00 | 02:10:43 | 00:00:00 | |
| OE5MMP-10 | 2026-09-01 12:50:27 | 49.46097 | 18.04747 | 108° | 9km/h | 25661m | -13.5m/s | -50.4°C | 3.1% | 0hPa | 2.6V | 00:00:00 | 02:10:37 | 00:00:00 | |
| DO3MHA-11 | 2026-09-01 12:50:23 | 49.46105 | 18.04739 | 180° | 7km/h | 25715m | -14.4m/s | -50.4°C | 3.1% | 0hPa | 2.6V | 00:00:00 | 02:10:33 | 00:00:00 | |
| OE5MMP-10 | 2026-09-01 12:50:17 | 49.46112 | 18.04753 | 273° | 7km/h | 25804m | -8.6m/s | -50.0°C | 3.0% | 0hPa | 2.6V | 00:00:00 | 02:10:27 | 00:00:00 | |
| OE5DRO-10 | 2026-09-01 12:50:16 | 49.46112 | 18.04756 | 275° | 7km/h | 25813m | -9.5m/s | -49.9°C | 3.0% | 0hPa | 2.6V | 00:00:00 | 00:00:00 | 00:00:00 | |
| SP3WXH-11 | 2026-09-01 12:50:15 | 49.46112 | 18.04759 | 211° | 4km/h | 25831m | -8.4m/s | -49.9°C | 0.6% | -1.0hPa | 2.6V | 00:00:00 | 00:00:00 | 00:00:00 | |
| DO3MHA-11 | 2026-09-01 12:50:13 | 49.46114 | 18.04760 | 195° | 9km/h | 25840m | -8.8m/s | -49.8°C | 3.0% | 0hPa | 2.6V | 00:00:00 | 02:10:23 | 00:00:00 | |
| OE3OSB-13 | 2026-09-01 12:50:10 | 49.46120 | 18.04763 | 202° | 11km/h | 25867m | -9.2m/s | -49.8°C | 0.5% | -1.0hPa | 2.7V | 00:00:00 | 00:00:00 | 00:00:00 | |
| PETON7-10 | 2026-09-01 12:50:08 | 49.46125 | 18.04766 | 217° | 5km/h | 25885m | -9.1m/s | -49.7°C | 3.0% | 0hPa | 2.7V | 08:23:00 | 00:00:00 | 00:00:00 | |
| OE5MMP-10 | 2026-09-01 12:50:07 | 49.46127 | 18.04769 | 217° | 5km/h | 25894m | -9.7m/s | -49.7°C | 2.9% | 0hPa | 2.6V | 00:00:00 | 02:10:17 | 00:00:00 | |
| OE5DXL-15 | 2026-09-01 12:50:05 | 49.46132 | 18.04774 | 224° | 11km/h | 25913m | -8.8m/s | -49.6°C | 3.0% | 0hPa | 2.6V | 00:00:00 | 00:00:00 | 00:00:00 | |
| DO3MHA-11 | 2026-09-01 12:50:03 | 49.46134 | 18.04779 | 227° | 4km/h | 25931m | -9.6m/s | -49.6°C | 3.0% | 0hPa | 2.6V | 00:00:00 | 02:10:13 | 00:00:00 | |
| DB0DAN | 2026-09-01 12:49:55 | 49.46131 | 18.04781 | 344° | 4km/h | 26024m | -14m/s | -49.6°C | 0.6% | 0hPa | 2.6V | 00:00:00 | 00:00:00 | 00:00:00 | |
| DO3MHA-11 | 2026-09-01 12:49:53 | 49.46129 | 18.04781 | 3° | 13km/h | 26051m | -13.4m/s | -49.6°C | 3.0% | 0hPa | 2.6V | 00:00:00 | 02:10:03 | 00:00:00 | |
| OE5MMP-10 | 2026-09-01 12:49:47 | 49.46119 | 18.04761 | 64° | 18km/h | 26136m | -13.5m/s | -49.7°C | 3.0% | 0hPa | 2.6V | 00:00:00 | 02:09:57 | 00:00:00 | |
| DO3MHA-11 | 2026-09-01 12:49:43 | 49.46107 | 18.04739 | 36° | 18km/h | 26192m | -12.9m/s | -49.7°C | 3.0% | 0hPa | 2.6V | 00:00:00 | 02:09:53 | 00:00:00 | |
| DB0DAN | 2026-09-01 12:49:40 | 49.46095 | 18.04727 | 37° | 16km/h | 26233m | -13.9m/s | -49.7°C | 0.6% | 0hPa | 2.7V | 00:00:00 | 00:00:00 | 00:00:00 | |
| OE3OSB-13 | 2026-09-01 12:49:39 | 49.46091 | 18.04723 | 44° | 16km/h | 26248m | -15.2m/s | -49.6°C | 0.6% | -1.0hPa | 2.7V | 00:00:00 | 00:00:00 | 00:00:00 | |
| PETON7-10 | 2026-09-01 12:49:38 | 49.46088 | 18.04718 | 54° | 13km/h | 26262m | -14.2m/s | -49.6°C | 3.0% | 0hPa | 2.7V | 00:00:00 | 02:09:48 | 00:00:00 | |
| OE5MMP-10 | 2026-09-01 12:49:37 | 49.46086 | 18.04712 | 63° | 15km/h | 26277m | -14.5m/s | -49.5°C | 3.0% | 0hPa | 2.7V | 00:00:00 | 02:09:47 | 00:00:00 | |
| HA6NAB-11 | 2026-09-01 12:49:36 | 49.46086 | 18.04712 | 64° | 18km/h | 26277m | -14.5m/s | -49.6°C | 0.6% | 0hPa | 2.6V | 00:00:00 | 00:00:00 | 00:00:00 | |
| OE5DXL-15 | 2026-09-01 12:49:35 | 49.46083 | 18.04699 | 76° | 7km/h | 26305m | -13.5m/s | -49.4°C | 3.0% | 0hPa | 2.6V | 00:00:00 | 00:00:00 | 00:00:00 | |
| DO3MHA-11 | 2026-09-01 12:49:33 | 49.46082 | 18.04685 | 83° | 9km/h | 26331m | -13.7m/s | -49.1°C | 2.9% | 0hPa | 2.6V | 00:00:00 | 02:09:43 | 00:00:00 | |
| HA6NAB-11 | 2026-09-01 12:49:31 | 49.46080 | 18.04673 | 77° | 15km/h | 26358m | -13.3m/s | -49.1°C | 0.6% | 0hPa | 2.6V | 00:00:00 | 00:00:00 | 00:00:00 | |
| OE5MMP-10 | 2026-09-01 12:49:27 | 49.46080 | 18.04661 | 158° | 5km/h | 26402m | -10.6m/s | -49.0°C | 2.9% | 0hPa | 2.6V | 00:00:00 | 02:09:37 | 00:00:00 | |
| HA6NAB-11 | 2026-09-01 12:49:25 | 49.46082 | 18.04660 | 155° | 5km/h | 26414m | -12.5m/s | -49.2°C | 0.6% | 0hPa | 2.6V | 00:00:00 | 00:00:00 | 00:00:00 | |
| DO3MHA-11 | 2026-09-01 12:49:23 | 49.46084 | 18.04658 | 96° | 7km/h | 26454m | -13.9m/s | -49.0°C | 2.9% | 0hPa | 2.6V | 00:00:00 | 02:09:33 | 00:00:00 | |
| OE5DRO-10 | 2026-09-01 12:49:19 | 49.46083 | 18.04650 | 99° | 7km/h | 26510m | -13.6m/s | -49.0°C | 2.9% | 0hPa | 2.6V | 00:00:00 | 00:00:00 | 00:00:00 | |
| OE5MMP-10 | 2026-09-01 12:49:17 | 49.46085 | 18.04645 | 139° | 5km/h | 26537m | -12.2m/s | -49.0°C | 2.8% | 0hPa | 2.6V | 00:00:00 | 02:09:27 | 00:00:00 | |
| OK1SLM-15 | 2026-09-01 12:49:16 | 49.46085 | 18.04645 | 140° | 9km/h | 26537m | -12.3m/s | -49.1°C | 0.6% | 0hPa | 2.6V | 08:24:00 | 00:00:00 | 00:00:00 | |
| PG1ADW-2 | 2026-09-01 12:49:15 | 49.46089 | 18.04640 | 142° | 9km/h | 26565m | -13.7m/s | -49.0°C | 2.8% | 0hPa | 2.6V | 00:00:00 | 02:09:25 | 00:00:00 | |
| DO3MHA-11 | 2026-09-01 12:49:13 | 49.46092 | 18.04636 | 126° | 4km/h | 26592m | -13.5m/s | -49.2°C | 2.9% | 0hPa | 2.6V | 08:24:00 | 02:09:23 | 00:00:00 | |
| SP3WXH-11 | 2026-09-01 12:49:12 | 49.46093 | 18.04634 | 112° | 4km/h | 26604m | -12.6m/s | -49.1°C | 0.6% | -1.0hPa | 2.6V | 00:00:00 | 00:00:00 | 00:00:00 | |
| OK1SLM-15 | 2026-09-01 12:49:10 | 49.46093 | 18.04633 | 98° | 4km/h | 26617m | -12.6m/s | -49.1°C | 0.6% | 0hPa | 2.6V | 08:24:00 | 00:00:00 | 00:00:00 | |
| PETON7-10 | 2026-09-01 12:49:08 | 49.46093 | 18.04629 | 100° | 11km/h | 26649m | -9.5m/s | -49.1°C | 2.9% | 0hPa | 2.6V | 00:00:00 | 00:00:00 | 00:00:00 | |
| OE5MMP-10 | 2026-09-01 12:49:07 | 49.46093 | 18.04628 | 108° | 9km/h | 26658m | -9.1m/s | -49.1°C | 2.9% | 0hPa | 2.6V | 08:24:00 | 02:09:17 | 00:00:00 | |
| OE5DXL-15 | 2026-09-01 12:49:05 | 49.46095 | 18.04625 | 127° | 9km/h | 26677m | -9.7m/s | -49.2°C | 2.9% | 0hPa | 2.6V | 00:00:00 | 00:00:00 | 00:00:00 | |
| DO3MHA-11 | 2026-09-01 12:49:03 | 49.46096 | 18.04619 | 102° | 13km/h | 26697m | -9.7m/s | -49.1°C | 2.9% | 0hPa | 2.6V | 00:00:00 | 02:09:13 | 00:00:00 | |
| OK1SLM-15 | 2026-09-01 12:49:00 | 49.46097 | 18.04605 | 87° | 13km/h | 26724m | -8.8m/s | -49.3°C | 0% | 0hPa | 2.6V | 00:00:00 | 00:00:00 | 00:00:00 | |
| OE5MMP-10 | 2026-09-01 12:48:57 | 49.46095 | 18.04590 | 79° | 15km/h | 26752m | -8.8m/s | -49.4°C | 3.0% | 0hPa | 2.6V | 00:00:00 | 02:09:07 | 00:00:00 | |
| PG1ADW-2 | 2026-09-01 12:48:55 | 49.46094 | 18.04579 | 83° | 9km/h | 26770m | -9.3m/s | -49.2°C | 3.0% | 0hPa | 2.6V | 00:00:00 | 00:00:00 | 00:00:00 | |
| PETON7-10 | 2026-09-01 12:48:53 | 49.46093 | 18.04568 | 88° | 9km/h | 26790m | -10.3m/s | -49.0°C | 2.9% | 0hPa | 2.6V | 00:00:00 | 02:09:03 | 00:00:00 | |
| DO3MHA-11 | 2026-09-01 12:48:52 | 49.46093 | 18.04564 | 88° | 11km/h | 26800m | -9.8m/s | -48.9°C | 2.9% | 0hPa | 2.6V | 00:00:00 | 02:09:02 | 00:00:00 | |
| OE5MMP-10 | 2026-09-01 12:48:47 | 49.46091 | 18.04538 | 88° | 7km/h | 26847m | -9.6m/s | -48.9°C | 2.9% | 0hPa | 2.6V | 00:00:00 | 02:08:57 | 00:00:00 | |
| HA6NAB-11 | 2026-09-01 12:48:45 | 49.46091 | 18.04531 | 118° | 5km/h | 26865m | -9.4m/s | -48.8°C | 0.6% | 0hPa | 2.6V | 00:00:00 | 00:00:00 | 00:00:00 | |
| DO3MHA-11 | 2026-09-01 12:48:42 | 49.46094 | 18.04530 | 211° | 5km/h | 26895m | -11.1m/s | -48.8°C | 2.9% | 0hPa | 2.6V | 00:00:00 | 02:08:52 | 00:00:00 | |
| OE5DRO-10 | 2026-09-01 12:48:41 | 49.46096 | 18.04532 | 220° | 7km/h | 26907m | -12.4m/s | -48.8°C | 2.9% | 0hPa | 2.7V | 00:00:00 | 00:00:00 | 00:00:00 | |
| HA6NAB-11 | 2026-09-01 12:48:39 | 49.46097 | 18.04534 | 225° | 7km/h | 26919m | -12.8m/s | -48.6°C | 0.6% | 0hPa | 2.7V | 00:00:00 | 00:00:00 | 00:00:00 | |
| PETON7-10 | 2026-09-01 12:48:38 | 49.46100 | 18.04538 | 227° | 7km/h | 26944m | -12.0m/s | -48.5°C | 2.8% | 0hPa | 2.7V | 00:00:00 | 00:00:00 | 00:00:00 | |
| OE5MMP-10 | 2026-09-01 12:48:37 | 49.46101 | 18.04539 | 227° | 5km/h | 26957m | -14.1m/s | -48.6°C | 2.9% | 0hPa | 2.6V | 00:00:00 | 02:08:47 | 00:00:00 | |
| PG1ADW-2 | 2026-09-01 12:48:35 | 49.46101 | 18.04540 | 224° | 7km/h | 26984m | -13.2m/s | -48.6°C | 2.8% | 0hPa | 2.6V | 00:00:00 | 00:00:00 | 00:00:00 | |
| HA6NAB-11 | 2026-09-01 12:48:34 | 49.46101 | 18.04540 | 0° | 0km/h | 26984m | -13.2m/s | -48.6°C | 0.6% | 0hPa | 2.6V | 00:00:00 | 00:00:00 | 00:00:00 | |
| DO3MHA-11 | 2026-09-01 12:48:32 | 49.46103 | 18.04542 | 200° | 11km/h | 27025m | -13.5m/s | -48.6°C | 2.8% | 0hPa | 2.6V | 00:00:00 | 02:08:42 | 00:00:00 | |
| HA6NAB-11 | 2026-09-01 12:48:29 | 49.46108 | 18.04546 | 212° | 9km/h | 27058m | -8.8m/s | -48.7°C | 0.6% | 0hPa | 2.6V | 00:00:00 | 00:00:00 | 00:00:00 | |
| OE5MMP-10 | 2026-09-01 12:48:27 | 49.46113 | 18.04551 | 219° | 7km/h | 27077m | -10.5m/s | -48.7°C | 2.9% | 0hPa | 2.6V | 00:00:00 | 02:08:37 | 00:00:00 | |
| PETON7-10 | 2026-09-01 12:48:23 | 49.46121 | 18.04565 | 242° | 7km/h | 27115m | -9.9m/s | -48.5°C | 2.9% | 0hPa | 2.6V | 00:00:00 | 00:00:00 | 00:00:00 | |
| DO3MHA-11 | 2026-09-01 12:48:22 | 49.46122 | 18.04568 | 250° | 4km/h | 27125m | -9.8m/s | -48.5°C | 2.9% | 0hPa | 2.6V | 00:00:00 | 02:08:32 | 00:00:00 | |
| HA6NAB-11 | 2026-09-01 12:48:19 | 49.46121 | 18.04569 | 56° | 4km/h | 27167m | -10.6m/s | -48.5°C | 0.6% | 0hPa | 2.6V | 00:00:00 | 00:00:00 | 00:00:00 | |
| OE5MMP-10 | 2026-09-01 12:48:17 | 49.46120 | 18.04568 | 56° | 7km/h | 27178m | -12.1m/s | -48.4°C | 2.8% | 0hPa | 2.6V | 00:00:00 | 02:08:27 | 00:00:00 | |
| PG1ADW-2 | 2026-09-01 12:48:15 | 49.46119 | 18.04565 | 76° | 11km/h | 27206m | -15.5m/s | -48.4°C | 2.8% | 0hPa | 2.6V | 00:00:00 | 00:00:00 | 00:00:00 | |
| DO3MHA-11 | 2026-09-01 12:48:12 | 49.46120 | 18.04557 | 109° | 11km/h | 27242m | -9.3m/s | -48.3°C | 2.8% | 0hPa | 2.6V | 00:00:00 | 02:08:22 | 00:00:00 | |
| SP3WXH-11 | 2026-09-01 12:48:10 | 49.46122 | 18.04549 | 122° | 11km/h | 27260m | -9.7m/s | -48.4°C | 0.5% | -1.0hPa | 2.7V | 00:00:00 | 00:00:00 | 00:00:00 | |
| PETON7-10 | 2026-09-01 12:48:08 | 49.46125 | 18.04542 | 122° | 13km/h | 27279m | -9.8m/s | -48.3°C | 2.8% | 0hPa | 2.7V | 00:00:00 | 02:08:18 | 00:00:00 | |
| OE5MMP-10 | 2026-09-01 12:48:07 | 49.46127 | 18.04538 | 117° | 11km/h | 27289m | -9.7m/s | -48.4°C | 2.8% | 0hPa | 2.7V | 00:00:00 | 02:08:17 | 00:00:00 | |
| OE3OSB-13 | 2026-09-01 12:48:06 | 49.46128 | 18.04535 | 113° | 9km/h | 27298m | -9.1m/s | -48.3°C | 0.5% | -1.0hPa | 2.6V | 00:00:00 | 00:00:00 | 00:00:00 | |
| OE5DXL-15 | 2026-09-01 12:48:05 | 49.46129 | 18.04531 | 103° | 13km/h | 27307m | -8.7m/s | -48.3°C | 2.8% | 0hPa | 2.6V | 08:25:00 | 00:00:00 | 00:00:00 | |
| OE5DRO-10 | 2026-09-01 12:48:03 | 49.46129 | 18.04525 | 97° | 13km/h | 27326m | -9.6m/s | -48.3°C | 2.9% | 0hPa | 2.7V | 00:00:00 | 00:00:00 | 00:00:00 | |
| DO3MHA-11 | 2026-09-01 12:48:02 | 49.46130 | 18.04521 | 96° | 16km/h | 27336m | -9.6m/s | -48.4°C | 2.8% | 0hPa | 2.6V | 00:00:00 | 02:08:12 | 00:00:00 | |
| OK1SLM-15 | 2026-09-01 12:48:01 | 49.46130 | 18.04521 | 96° | 9km/h | 27336m | -9.7m/s | -48.4°C | 0% | 0hPa | 2.6V | 00:00:00 | 00:00:00 | 00:00:00 | |
| OE5MMP-10 | 2026-09-01 12:47:57 | 49.46139 | 18.04500 | 136° | 16km/h | 27384m | -9.2m/s | -48.2°C | 2.9% | 0hPa | 2.6V | 00:00:00 | 02:08:07 | 00:00:00 | |
| OK1SLM-15 | 2026-09-01 12:47:56 | 49.46139 | 18.04500 | 136° | 20km/h | 27384m | -9.2m/s | -48.3°C | 0% | 0hPa | 2.6V | 00:00:00 | 00:00:00 | 00:00:00 | |
| PG1ADW-2 | 2026-09-01 12:47:55 | 49.46147 | 18.04489 | 143° | 13km/h | 27404m | -8.9m/s | -48.2°C | 2.9% | 0hPa | 2.6V | 00:00:00 | 02:08:05 | 00:00:00 | |
| PETON7-10 | 2026-09-01 12:47:53 | 49.46156 | 18.04481 | 157° | 13km/h | 27423m | -9.7m/s | -48.0°C | 2.9% | 0hPa | 2.6V | 08:25:00 | 00:00:00 | 00:00:00 | |
| DO3MHA-11 | 2026-09-01 12:47:52 | 49.46160 | 18.04478 | 161° | 9km/h | 27432m | -8.9m/s | -48.0°C | 2.8% | 0hPa | 2.7V | 00:00:00 | 02:08:02 | 00:00:00 | |
| OE5MMP-10 | 2026-09-01 12:47:47 | 49.46172 | 18.04474 | 171° | 11km/h | 27480m | -9.6m/s | -47.5°C | 2.7% | 0hPa | 2.7V | 00:00:00 | 02:07:57 | 00:00:00 | |
| OE5DRO-10 | 2026-09-01 12:47:44 | 49.46178 | 18.04472 | 171° | 11km/h | 27508m | -9.6m/s | -47.3°C | 2.7% | 0hPa | 2.7V | 00:00:00 | 00:00:00 | 00:00:00 | |
| HA6NAB-11 | 2026-09-01 12:47:42 | 49.46181 | 18.04471 | 175° | 13km/h | 27518m | -9.2m/s | -47.3°C | 0.5% | 0hPa | 2.7V | 08:26:00 | 00:00:00 | 00:00:00 | |
| SP3WXH-11 | 2026-09-01 12:47:40 | 49.46196 | 18.04471 | 188° | 15km/h | 27556m | -9.6m/s | -47.5°C | 0.5% | -1.0hPa | 2.7V | 00:00:00 | 00:00:00 | 00:00:00 | |
| PETON7-10 | 2026-09-01 12:47:38 | 49.46199 | 18.04472 | 199° | 11km/h | 27566m | -9.1m/s | -47.5°C | 2.7% | 0hPa | 2.7V | 00:00:00 | 00:00:00 | 00:00:00 | |
| OE5MMP-10 | 2026-09-01 12:47:37 | 49.46202 | 18.04474 | 215° | 11km/h | 27576m | -10.3m/s | -47.5°C | 2.7% | 0hPa | 2.7V | 08:26:00 | 02:07:47 | 00:00:00 | |
| OE5DXL-15 | 2026-09-01 12:47:35 | 49.46205 | 18.04481 | 247° | 11km/h | 27595m | -8.9m/s | -47.5°C | 2.7% | 0hPa | 2.6V | 00:00:00 | 00:00:00 | 00:00:00 | |
| DO3MHA-11 | 2026-09-01 12:47:32 | 49.46206 | 18.04493 | 269° | 9km/h | 27623m | -9.3m/s | -47.6°C | 2.7% | 0hPa | 2.6V | 00:00:00 | 02:07:42 | 00:00:00 | |
| HA6NAB-11 | 2026-09-01 12:47:31 | 49.46206 | 18.04493 | 269° | 13km/h | 27623m | -9.4m/s | -47.6°C | 0.6% | 0hPa | 2.6V | 08:26:00 | 00:00:00 | 00:00:00 | |
| DB0DAN | 2026-09-01 12:47:25 | 49.46205 | 18.04519 | 329° | 5km/h | 27691m | -9.8m/s | -47.3°C | 0.5% | 0hPa | 2.6V | 00:00:00 | 00:00:00 | 00:00:00 | |
| OE5DRO-10 | 2026-09-01 12:47:25 | 49.46205 | 18.04519 | 329° | 11km/h | 27691m | -9.7m/s | -47.3°C | 2.8% | 0hPa | 2.6V | 00:00:00 | 00:00:00 | 00:00:00 | |
| DO3MHA-11 | 2026-09-01 12:47:22 | 49.46199 | 18.04523 | 344° | 15km/h | 27720m | -9.7m/s | -47.0°C | 2.7% | 0hPa | 2.6V | 00:00:00 | 02:07:32 | 00:00:00 | |
| HA6NAB-11 | 2026-09-01 12:47:21 | 49.46195 | 18.04524 | 348° | 13km/h | 27729m | -9.2m/s | -47.0°C | 0.5% | 0hPa | 2.6V | 08:26:00 | 00:00:00 | 00:00:00 | |
| OE5MMP-10 | 2026-09-01 12:47:17 | 49.46180 | 18.04531 | 338° | 11km/h | 27767m | -9.9m/s | -46.9°C | 2.7% | 0hPa | 2.6V | 00:00:00 | 02:07:27 | 00:00:00 | |
| PG1ADW-2 | 2026-09-01 12:47:15 | 49.46173 | 18.04535 | 344° | 11km/h | 27787m | -9.7m/s | -46.8°C | 2.6% | 0hPa | 2.6V | 00:00:00 | 00:00:00 | 00:00:00 | |
| HA6NAB-11 | 2026-09-01 12:47:14 | 49.46173 | 18.04535 | 344° | 15km/h | 27787m | -9.7m/s | -46.8°C | 0.5% | 0hPa | 2.6V | 00:00:00 | 00:00:00 | 00:00:00 | |
| DB0DAN | 2026-09-01 12:47:10 | 49.46161 | 18.04540 | 15° | 5km/h | 27838m | -9.2m/s | -46.6°C | 0.5% | 0hPa | 2.6V | 00:00:00 | 00:00:00 | 00:00:00 | |
| PETON7-10 | 2026-09-01 12:47:08 | 49.46158 | 18.04538 | 37° | 11km/h | 27859m | -11.5m/s | -46.5°C | 2.6% | 0hPa | 2.7V | 00:00:00 | 00:00:00 | 00:00:00 | |
| OE5MMP-10 | 2026-09-01 12:47:07 | 49.46156 | 18.04536 | 41° | 13km/h | 27870m | -10.9m/s | -46.5°C | 2.6% | 0hPa | 2.7V | 00:00:00 | 02:07:17 | 00:00:00 | |
| OE5DRO-10 | 2026-09-01 12:47:06 | 49.46154 | 18.04533 | 45° | 9km/h | 27880m | -9.2m/s | -46.5°C | 2.7% | 0hPa | 2.7V | 08:26:00 | 00:00:00 | 00:00:00 | |
| OE5DXL-15 | 2026-09-01 12:47:05 | 49.46152 | 18.04530 | 39° | 11km/h | 27890m | -10.4m/s | -46.5°C | 2.7% | 0hPa | 2.6V | 00:00:00 | 00:00:00 | 00:00:00 | |
| OE3OSB-13 | 2026-09-01 12:47:04 | 49.46147 | 18.04523 | 44° | 15km/h | 27911m | -11.1m/s | -46.6°C | 0.5% | -1.0hPa | 2.6V | 00:00:00 | 00:00:00 | 00:00:00 | |
| DO3MHA-11 | 2026-09-01 12:47:02 | 49.46144 | 18.04519 | 49° | 9km/h | 27924m | -13.8m/s | -46.6°C | 2.7% | 0hPa | 2.6V | 00:00:00 | 02:07:12 | 00:00:00 | |
| OE5MMP-10 | 2026-09-01 12:46:57 | 49.46137 | 18.04497 | 80° | 5km/h | 28017m | -25.4m/s | -46.2°C | 2.5% | 0hPa | 2.6V | 00:00:00 | 02:07:07 | 00:00:00 | |
| PG1ADW-2 | 2026-09-01 12:46:55 | 49.46137 | 18.04494 | 82° | 11km/h | 28068m | -29.6m/s | -45.9°C | 2.5% | 0hPa | 2.6V | 00:00:00 | 00:00:00 | 00:00:00 | |
| PETON7-10 | 2026-09-01 12:46:53 | 49.46136 | 18.04495 | 289° | 11km/h | 28122m | -25.9m/s | -45.9°C | 2.5% | 0hPa | 2.6V | 00:00:00 | 00:00:00 | 00:00:00 | |
| DO3MHA-11 | 2026-09-01 12:46:52 | 49.46136 | 18.04495 | 299° | 11km/h | 28149m | -26.9m/s | -45.9°C | 2.5% | 0hPa | 2.6V | 00:00:00 | 02:07:02 | 00:00:00 | |
| OK1SLM-15 | 2026-09-01 12:46:51 | 49.46136 | 18.04495 | 299° | 2km/h | 28149m | -26.9m/s | -45.9°C | 0% | 0hPa | 2.6V | 00:00:00 | 00:00:00 | 00:00:00 | |
| OE5DRO-10 | 2026-09-01 12:46:47 | 49.46129 | 18.04503 | 334° | 16km/h | 28296m | -29.0m/s | -45.9°C | 2.4% | 0hPa | 2.6V | 00:00:00 | 00:00:00 | 00:00:00 | |
| DO3MHA-11 | 2026-09-01 12:46:42 | 49.46112 | 18.04510 | 356° | 16km/h | 28427m | -22.4m/s | -46.1°C | 2.4% | 0hPa | 2.6V | 00:00:00 | 02:06:52 | 00:00:00 | |
| PETON7-10 | 2026-09-01 12:46:38 | 49.46096 | 18.04510 | 359° | 16km/h | 28506m | -14.0m/s | -46.3°C | 2.5% | 0hPa | 2.7V | 00:00:00 | 02:06:48 | 00:00:00 | |
| OE5MMP-10 | 2026-09-01 12:46:37 | 49.46092 | 18.04511 | 354° | 16km/h | 28518m | -11.4m/s | -46.3°C | 2.5% | 0hPa | 2.7V | 00:00:00 | 02:06:47 | 00:00:00 | |
| PG1ADW-2 | 2026-09-01 12:46:35 | 49.46083 | 18.04513 | 347° | 18km/h | 28539m | -10.7m/s | -46.4°C | 2.6% | 0hPa | 2.7V | 00:00:00 | 02:06:45 | 00:00:00 | |
| OE3OSB-13 | 2026-09-01 12:46:33 | 49.46071 | 18.04520 | 335° | 16km/h | 28571m | -10.7m/s | -46.6°C | 0.5% | -1.0hPa | 2.7V | 00:00:00 | 00:00:00 | 00:00:00 | |
| DO3MHA-11 | 2026-09-01 12:46:32 | 49.46071 | 18.04520 | 336° | 16km/h | 28571m | -10.7m/s | -46.6°C | 2.6% | 0hPa | 2.7V | 00:00:00 | 02:06:42 | 00:00:00 | |
| OE5DRO-10 | 2026-09-01 12:46:27 | 49.46051 | 18.04530 | 357° | 20km/h | 28622m | -10.7m/s | -46.5°C | 2.6% | 0hPa | 2.7V | 00:00:00 | 00:00:00 | 00:00:00 | |
| OE5MMP-10 | 2026-09-01 12:46:17 | 49.46004 | 18.04514 | 21° | 20km/h | 28727m | -11.3m/s | -46.6°C | 2.6% | 0hPa | 2.7V | 00:00:00 | 02:06:27 | 00:00:00 | |
| PG1ADW-2 | 2026-09-01 12:46:15 | 49.45997 | 18.04509 | 31° | 22km/h | 28749m | -10.5m/s | -46.6°C | 2.6% | 0hPa | 2.7V | 00:00:00 | 00:00:00 | 00:00:00 | |
| DO3MHA-11 | 2026-09-01 12:46:12 | 49.45988 | 18.04496 | 55° | 26km/h | 28780m | -10.3m/s | -46.4°C | 2.6% | 0hPa | 2.7V | 08:27:00 | 02:06:22 | 00:00:00 | |
| PETON7-10 | 2026-09-01 12:46:08 | 49.45973 | 18.04463 | 49° | 24km/h | 28823m | -11.0m/s | -46.3°C | 2.6% | 0hPa | 2.7V | 00:00:00 | 00:00:00 | 00:00:00 | |
| SP3WXH-11 | 2026-09-01 12:46:06 | 49.45962 | 18.04447 | 40° | 27km/h | 28843m | -11.0m/s | -46.3°C | 0.5% | -1.0hPa | 2.7V | 00:00:00 | 00:00:00 | 00:00:00 | |
| OE5DXL-15 | 2026-09-01 12:46:05 | 49.45957 | 18.04440 | 43° | 22km/h | 28854m | -10.6m/s | -46.2°C | 2.6% | 0hPa | 2.7V | 00:00:00 | 00:00:00 | 00:00:00 | |
| OE3OSB-13 | 2026-09-01 12:46:02 | 49.45943 | 18.04416 | 59° | 16km/h | 28896m | -10.6m/s | -46.2°C | 0.5% | -1.0hPa | 2.7V | 00:00:00 | 00:00:00 | 00:00:00 | |
| OE5MMP-10 | 2026-09-01 12:45:57 | 49.45934 | 18.04389 | 66° | 22km/h | 28938m | -11.1m/s | -46.1°C | 2.6% | 0hPa | 2.7V | 00:00:00 | 02:06:07 | 00:00:00 | |
| OK1SLM-15 | 2026-09-01 12:45:56 | 49.45932 | 18.04380 | 64° | 26km/h | 28949m | -10.1m/s | -46.1°C | 0% | 0hPa | 2.7V | 00:00:00 | 00:00:00 | 00:00:00 | |
| PG1ADW-2 | 2026-09-01 12:45:55 | 49.45929 | 18.04372 | 59° | 22km/h | 28959m | -10.0m/s | -46.1°C | 2.6% | 0hPa | 2.7V | 00:00:00 | 00:00:00 | 00:00:00 | |
| PETON7-10 | 2026-09-01 12:45:53 | 49.45921 | 18.04358 | 41° | 22km/h | 28980m | -10.6m/s | -46.1°C | 2.6% | 0hPa | 2.7V | 00:00:00 | 02:06:03 | 00:00:00 | |
| DO3MHA-11 | 2026-09-01 12:45:52 | 49.45917 | 18.04353 | 29° | 20km/h | 28991m | -10.8m/s | -46.0°C | 2.6% | 0hPa | 2.7V | 00:00:00 | 02:06:02 | 00:00:00 | |
| OE5DRO-10 | 2026-09-01 12:45:49 | 49.45902 | 18.04344 | 26° | 20km/h | 29023m | -10.6m/s | -45.8°C | 2.5% | 0hPa | 2.7V | 00:00:00 | 00:00:00 | 00:00:00 | |
| OK1SLM-15 | 2026-09-01 12:45:48 | 49.45903 | 18.04344 | 27° | 18km/h | 29023m | -10.6m/s | -45.8°C | 0% | 0hPa | 2.7V | 00:00:00 | 00:00:00 | 00:00:00 | |
| OE5MMP-10 | 2026-09-01 12:45:47 | 49.45897 | 18.04336 | 61° | 24km/h | 29044m | -10.4m/s | -45.7°C | 2.5% | 0hPa | 2.7V | 00:00:00 | 02:05:57 | 00:00:00 | |
| DO3MHA-11 | 2026-09-01 12:45:42 | 49.45898 | 18.04290 | 98° | 20km/h | 29096m | -12.1m/s | -45.5°C | 2.5% | 0hPa | 2.7V | 00:00:00 | 02:05:52 | 00:00:00 | |
| HA6NAB-11 | 2026-09-01 12:45:41 | 49.45898 | 18.04290 | 98° | 31km/h | 29096m | -12.1m/s | -45.6°C | 0.5% | 0hPa | 2.6V | 08:28:00 | 00:00:00 | 00:00:00 | |
| PETON7-10 | 2026-09-01 12:45:38 | 49.45897 | 18.04250 | 64° | 24km/h | 29143m | -12.3m/s | -45.3°C | 2.5% | 0hPa | 2.6V | 08:28:00 | 00:00:00 | 00:00:00 | |
| OE5MMP-10 | 2026-09-01 12:45:37 | 49.45895 | 18.04245 | 48° | 24km/h | 29155m | -10.8m/s | -45.3°C | 2.5% | 0hPa | 2.6V | 00:00:00 | 02:05:47 | 00:00:00 | |
| OE5DXL-15 | 2026-09-01 12:45:35 | 49.45890 | 18.04240 | 27° | 22km/h | 29179m | -12.1m/s | -45.3°C | 2.5% | 0hPa | 2.7V | 00:00:00 | 00:00:00 | 00:00:00 | |
| DO3MHA-11 | 2026-09-01 12:45:32 | 49.45882 | 18.04227 | 68° | 20km/h | 29213m | -9.8m/s | -45.1°C | 2.6% | 0hPa | 2.7V | 00:00:00 | 02:05:42 | 00:00:00 | |
| OE5DRO-10 | 2026-09-01 12:45:30 | 49.45879 | 18.04206 | 85° | 22km/h | 29234m | -11.7m/s | -45.0°C | 2.6% | 0hPa | 2.7V | 00:00:00 | 00:00:00 | 00:00:00 | |
| OE5MMP-10 | 2026-09-01 12:45:27 | 49.45877 | 18.04163 | 87° | 13km/h | 29269m | -13.5m/s | -44.8°C | 2.5% | 0hPa | 2.7V | 00:00:00 | 02:05:37 | 00:00:00 | |
| HA6NAB-11 | 2026-09-01 12:45:25 | 49.45875 | 18.04140 | 75° | 26km/h | 29303m | -18.1m/s | -44.6°C | 0.5% | 0hPa | 2.7V | 00:00:00 | 00:00:00 | 00:00:00 | |
| PETON7-10 | 2026-09-01 12:45:23 | 49.45871 | 18.04123 | 68° | 16km/h | 29333m | -11.4m/s | -44.4°C | 2.4% | 0hPa | 2.7V | 00:00:00 | 00:00:00 | 00:00:00 | |
| DO3MHA-11 | 2026-09-01 12:45:18 | 49.45867 | 18.04103 | 76° | 18km/h | 29408m | -14.9m/s | -44.0°C | 2.3% | 0hPa | 2.7V | 00:00:00 | 02:05:28 | 00:00:00 | |
| OE5MMP-10 | 2026-09-01 12:45:17 | 49.45867 | 18.04092 | 91° | 22km/h | 29461m | -18.3m/s | -43.7°C | 2.3% | 0hPa | 2.7V | 00:00:00 | 02:05:25 | 00:00:00 | |
| PG1ADW-2 | 2026-09-01 12:45:15 | 49.45867 | 18.04092 | 91° | 20km/h | 29461m | -18.3m/s | -43.7°C | 2.3% | 0hPa | 2.7V | 00:00:00 | 02:05:25 | 00:00:00 | |
| HA6NAB-11 | 2026-09-01 12:45:13 | 49.45868 | 18.04078 | 97° | 24km/h | 29494m | -18.0m/s | -43.7°C | 0.4% | 0hPa | 2.7V | 00:00:00 | 00:00:00 | 00:00:00 | |
| OE5DRO-10 | 2026-09-01 12:45:11 | 49.45869 | 18.04058 | 96° | 22km/h | 29528m | -15.3m/s | -43.7°C | 2.3% | 0hPa | 2.7V | 00:00:00 | 00:00:00 | 00:00:00 | |
| PETON7-10 | 2026-09-01 12:45:08 | 49.45871 | 18.04027 | 92° | 18km/h | 29566m | -11.5m/s | -43.7°C | 2.4% | 0hPa | 2.7V | 00:00:00 | 02:05:18 | 00:00:00 | |
| OE5MMP-10 | 2026-09-01 12:45:05 | 49.45869 | 18.04005 | 60° | 16km/h | 29598m | -10.4m/s | -43.7°C | 2.4% | 0hPa | 2.7V | 00:00:00 | 02:05:15 | 00:00:00 | |
| SP3WXH-11 | 2026-09-01 12:45:04 | 49.45867 | 18.04001 | 51° | 13km/h | 29608m | -10.7m/s | -43.8°C | 0.4% | -1.0hPa | 2.7V | 00:00:00 | 00:00:00 | 00:00:00 | |
| OE3OSB-13 | 2026-09-01 12:44:59 | 49.45855 | 18.03985 | 51° | 15km/h | 29663m | -10.2m/s | -43.5°C | 0.4% | -1.0hPa | 2.7V | 00:00:00 | 00:00:00 | 00:00:00 | |
| DO3MHA-11 | 2026-09-01 12:44:58 | 49.45852 | 18.03980 | 67° | 26km/h | 29674m | -11.1m/s | -43.4°C | 2.4% | 0hPa | 2.7V | 00:00:00 | 02:05:08 | 00:00:00 | |
| PG1ADW-2 | 2026-09-01 12:44:55 | 49.45847 | 18.03952 | 80° | 16km/h | 29705m | -11.0m/s | -43.3°C | 2.3% | 0hPa | 2.7V | 00:00:00 | 00:00:00 | 00:00:00 | |
| OK1SLM-15 | 2026-09-01 12:44:54 | 49.45847 | 18.03952 | 80° | 29km/h | 29705m | -11.0m/s | -43.3°C | 0% | 0hPa | 2.7V | 08:28:00 | 00:00:00 | 00:00:00 | |
| PETON7-10 | 2026-09-01 12:44:53 | 49.45843 | 18.03930 | 71° | 18km/h | 29727m | -11.2m/s | -43.1°C | 2.3% | 0hPa | 2.7V | 00:00:00 | 00:00:00 | 00:00:00 | |
| OE5DRO-10 | 2026-09-01 12:44:52 | 49.45840 | 18.03920 | 67° | 16km/h | 29739m | -10.9m/s | -43.0°C | 2.3% | 0hPa | 2.6V | 00:00:00 | 00:00:00 | 00:00:00 | |
| OK1SLM-15 | 2026-09-01 12:44:49 | 49.45834 | 18.03901 | 57° | 26km/h | 29760m | -11.0m/s | 0°C | 0% | 0hPa | 2.6V | 08:28:00 | 00:00:00 | 00:00:00 | |
| DO3MHA-11 | 2026-09-01 12:44:48 | 49.45827 | 18.03889 | 49° | 16km/h | 29781m | -10.5m/s | -42.8°C | 2.2% | 0hPa | 2.6V | 00:00:00 | 02:04:58 | 00:00:00 | |
| OE5MMP-10 | 2026-09-01 12:44:45 | 49.45820 | 18.03875 | 64° | 16km/h | 29812m | -10.3m/s | -42.7°C | 2.2% | 0hPa | 2.6V | 00:00:00 | 02:04:55 | 00:00:00 | |
| OK1SLM-15 | 2026-09-01 12:44:43 | 49.45819 | 18.03871 | 64° | 15km/h | 29822m | -10.5m/s | 0°C | 0% | 0hPa | 2.6V | 00:00:00 | 00:00:00 | 00:00:00 | |
| DO3MHA-11 | 2026-09-01 12:44:38 | 49.45812 | 18.03833 | 74° | 15km/h | 29889m | -11.7m/s | -42.4°C | 2.2% | 0hPa | 2.6V | 08:29:00 | 02:04:48 | 00:00:00 | |
| OE5DXL-15 | 2026-09-01 12:44:35 | 49.45808 | 18.03817 | 49° | 27km/h | 29924m | -10.4m/s | -42.2°C | 2.2% | 0hPa | 2.7V | 00:00:00 | 00:00:00 | 00:00:00 | |
| OE5DRO-10 | 2026-09-01 12:44:33 | 49.45804 | 18.03810 | 53° | 26km/h | 29945m | -10.9m/s | -42.2°C | 2.2% | 0hPa | 2.7V | 00:00:00 | 00:00:00 | 00:00:00 | |
| DO3MHA-11 | 2026-09-01 12:44:28 | 49.45795 | 18.03779 | 76° | 27km/h | 30000m | -11.4m/s | -42.1°C | 2.2% | 0hPa | 2.7V | 00:00:00 | 02:04:38 | 00:00:00 | |
| OE5MMP-10 | 2026-09-01 12:44:25 | 49.45788 | 18.03750 | 63° | 27km/h | 30031m | -10.1m/s | -42.0°C | 2.2% | 0hPa | 2.7V | 00:00:00 | 02:04:35 | 00:00:00 | |
| PETON7-10 | 2026-09-01 12:44:23 | 49.45780 | 18.03731 | 47° | 33km/h | 30052m | -10.3m/s | -41.9°C | 2.2% | 0hPa | 2.7V | 00:00:00 | 02:04:33 | 00:00:00 | |
| DO3MHA-11 | 2026-09-01 12:44:18 | 49.45756 | 18.03699 | 46° | 37km/h | 30107m | -10.8m/s | -41.4°C | 2.2% | 0hPa | 2.7V | 00:00:00 | 02:04:28 | 00:00:00 | |
| OE5MMP-10 | 2026-09-01 12:44:15 | 49.45747 | 18.03667 | 82° | 37km/h | 30141m | -11.0m/s | -41.1°C | 2.1% | 0hPa | 2.7V | 00:00:00 | 02:04:25 | 00:00:00 | |
| OE5DRO-10 | 2026-09-01 12:44:14 | 49.45746 | 18.03652 | 83° | 35km/h | 30151m | -10.0m/s | -41.0°C | 2.1% | 0hPa | 2.7V | 08:29:00 | 00:00:00 | 00:00:00 | |
| DO3MHA-11 | 2026-09-01 12:44:08 | 49.45732 | 18.03559 | 68° | 27km/h | 30222m | -11.7m/s | -40.4°C | 2.0% | 0hPa | 2.7V | 00:00:00 | 02:04:18 | 00:00:00 | |
| OE5DXL-15 | 2026-09-01 12:44:05 | 49.45724 | 18.03532 | 69° | 27km/h | 30257m | -10.8m/s | -40.1°C | 2.0% | 0hPa | 2.7V | 00:00:00 | 00:00:00 | 00:00:00 | |
| SP3WXH-11 | 2026-09-01 12:44:02 | 49.45723 | 18.03507 | 99° | 26km/h | 30293m | -12.3m/s | -39.9°C | 0.3% | -1.0hPa | 2.7V | 00:00:00 | 00:00:00 | 00:00:00 | |
| OE3OSB-13 | 2026-09-01 12:43:57 | 49.45726 | 18.03435 | 91° | 40km/h | 30351m | -11.4m/s | -39.7°C | 0.3% | -1.0hPa | 2.7V | 00:00:00 | 00:00:00 | 00:00:00 | |
| OE5DRO-10 | 2026-09-01 12:43:55 | 49.45726 | 18.03404 | 87° | 27km/h | 30375m | -13.1m/s | -39.6°C | 2.0% | 0hPa | 2.7V | 00:00:00 | 00:00:00 | 00:00:00 | |
| PETON7-10 | 2026-09-01 12:43:53 | 49.45725 | 18.03379 | 88° | 27km/h | 30402m | -13.8m/s | -39.5°C | 1.9% | 0hPa | 2.7V | 00:00:00 | 00:00:00 | 00:00:00 | |
| DO3MHA-11 | 2026-09-01 12:43:48 | 49.45723 | 18.03336 | 89° | 29km/h | 30481m | -18.2m/s | -39.2°C | 1.9% | 0hPa | 2.7V | 00:00:00 | 02:03:58 | 00:00:00 | |
| OE5MMP-10 | 2026-09-01 12:43:45 | 49.45723 | 18.03304 | 91° | 27km/h | 30535m | -19.7m/s | -39.1°C | 1.9% | 0hPa | 2.7V | 00:00:00 | 02:03:55 | 00:00:00 | |
| HA6NAB-11 | 2026-09-01 12:43:40 | 49.45724 | 18.03255 | 85° | 29km/h | 30624m | -25.2m/s | -38.8°C | 0.3% | 0hPa | 2.7V | 00:00:00 | 00:00:00 | 00:00:00 | |
| DO3MHA-11 | 2026-09-01 12:43:38 | 49.45719 | 18.03227 | 67° | 20km/h | 30689m | -19.4m/s | -38.9°C | 1.8% | 0hPa | 2.7V | 00:00:00 | 02:03:48 | 00:00:00 | |
| OE5DRO-10 | 2026-09-01 12:43:36 | 49.45716 | 18.03215 | 56° | 18km/h | 30722m | -14.8m/s | -38.9°C | 1.8% | 0hPa | 2.6V | 00:00:00 | 00:00:00 | 00:00:00 | |
| OE5DXL-15 | 2026-09-01 12:43:35 | 49.45714 | 18.03210 | 68° | 16km/h | 30738m | -16.3m/s | -38.9°C | 1.8% | 0hPa | 2.6V | 00:00:00 | 00:00:00 | 08:30:00 | |
| HA6NAB-11 | 2026-09-01 12:43:34 | 49.45714 | 18.03210 | 68° | 15km/h | 30738m | -16.3m/s | -38.9°C | 0.3% | 0hPa | 2.6V | 00:00:00 | 00:00:00 | 00:00:00 | |
| SP3WXH-11 | 2026-09-01 12:43:31 | 49.45715 | 18.03181 | 111° | 22km/h | 30807m | -12.7m/s | -38.8°C | 0.3% | -1.0hPa | 2.6V | 00:00:00 | 00:00:00 | 00:00:00 | |
| OK1SLM-15 | 2026-09-01 12:43:29 | 49.45718 | 18.03173 | 117° | 22km/h | 30820m | -12.2m/s | 0°C | 0% | 0hPa | 2.6V | 00:00:00 | 00:00:00 | 00:00:00 | |
| DO3MHA-11 | 2026-09-01 12:43:28 | 49.45724 | 18.03159 | 135° | 18km/h | 30845m | -14.1m/s | -38.8°C | 1.9% | 0hPa | 2.6V | 00:00:00 | 02:03:38 | 00:00:00 | |
| PG1ADW-2 | 2026-09-01 12:43:27 | 49.45728 | 18.03154 | 148° | 15km/h | 30860m | -15.0m/s | -38.9°C | 1.9% | 0hPa | 2.6V | 00:00:00 | 00:00:00 | 00:00:00 | |
| OE3OSB-13 | 2026-09-01 12:43:26 | 49.45732 | 18.03151 | 163° | 16km/h | 30876m | -15.8m/s | -38.9°C | 0.3% | -1.0hPa | 2.6V | 00:00:00 | 00:00:00 | 00:00:00 | |
| OE5MMP-10 | 2026-09-01 12:43:25 | 49.45737 | 18.03149 | 166° | 15km/h | 30890m | -13.4m/s | -38.9°C | 1.9% | 0hPa | 2.6V | 00:00:00 | 02:03:35 | 00:00:00 | |
| PETON7-10 | 2026-09-01 12:43:23 | 49.45745 | 18.03143 | 145° | 13km/h | 30924m | -23.1m/s | -38.8°C | 1.9% | 0hPa | 2.6V | 00:00:00 | 00:00:00 | 08:30:00 | |
| DO3MHA-11 | 2026-09-01 12:43:18 | 49.45757 | 18.03117 | 83° | 9km/h | 31105m | -48.4m/s | -37.9°C | 1.7% | 0hPa | 2.6V | 00:00:00 | 02:03:28 | 00:00:00 | |
| OE5DRO-10 | 2026-09-01 12:43:17 | 49.45756 | 18.03114 | 68° | 15km/h | 31151m | -43.6m/s | -38.1°C | 1.8% | 0hPa | 2.6V | 00:00:00 | 00:00:00 | 00:00:00 | |
| OE5MMP-10 | 2026-09-01 12:43:15 | 49.45754 | 18.03108 | 57° | 11km/h | 31225m | -29.2m/s | -38.5°C | 1.8% | 0hPa | 2.7V | 00:00:00 | 02:03:25 | 00:00:00 | |
| HA6NAB-11 | 2026-09-01 12:43:12 | 49.45751 | 18.03102 | 51° | 9km/h | 31266m | -11.4m/s | -38.6°C | 0.3% | 0hPa | 2.7V | 00:00:00 | 00:00:00 | 00:00:00 | |
| HA6NAB-11 | 2026-09-01 12:43:06 | 49.45752 | 18.03084 | 140° | 15km/h | 31230m | 5.8m/s | -38.5°C | 0.3% | 0hPa | 2.7V | 00:00:00 | 00:00:00 | 00:00:00 | |
| OE5DXL-15 | 2026-09-01 12:43:05 | 49.45757 | 18.03078 | 144° | 16km/h | 31217m | 7.9m/s | -38.3°C | 1.8% | 0hPa | 2.7V | 00:00:00 | 00:00:00 | 00:00:00 | |
| PG1ADW-2 | 2026-09-01 12:43:04 | 49.45758 | 18.03076 | 122° | 18km/h | 31210m | 6.6m/s | -38.3°C | 1.8% | 0hPa | 2.7V | 00:00:00 | 00:00:00 | 00:00:00 | |
| SP3WXH-11 | 2026-09-01 12:43:00 | 49.45762 | 18.03051 | 101° | 27km/h | 31182m | 7.1m/s | -38.5°C | 0.3% | -1.0hPa | 2.7V | 00:00:00 | 00:00:00 | 00:00:00 | |
| DO3MHA-11 | 2026-09-01 12:42:58 | 49.45764 | 18.03031 | 103° | 15km/h | 31169m | 7.0m/s | -38.3°C | 1.8% | 0hPa | 2.7V | 00:00:00 | 02:03:08 | 00:00:00 | |
| OE5MMP-10 | 2026-09-01 12:42:55 | 49.45768 | 18.03015 | 141° | 16km/h | 31148m | 5.9m/s | -38.1°C | 1.8% | 0hPa | 2.7V | 00:00:00 | 02:03:05 | 00:00:00 | |
| PETON7-10 | 2026-09-01 12:42:53 | 49.45774 | 18.03009 | 149° | 18km/h | 31133m | 7.6m/s | -38.1°C | 1.8% | 0hPa | 2.7V | 00:00:00 | 02:03:03 | 00:00:00 | |
| HA6NAB-11 | 2026-09-01 12:42:49 | 49.45784 | 18.02998 | 138° | 15km/h | 31113m | 8.1m/s | -38.0°C | 0.3% | 0hPa | 2.7V | 00:00:00 | 00:00:00 | 00:00:00 | |
| DO3MHA-11 | 2026-09-01 12:42:48 | 49.45788 | 18.02990 | 117° | 18km/h | 31099m | 5.7m/s | -37.8°C | 1.7% | 0hPa | 2.7V | 00:00:00 | 02:02:58 | 00:00:00 | |
| OE5MMP-10 | 2026-09-01 12:42:45 | 49.45795 | 18.02967 | 115° | 22km/h | 31078m | 7.0m/s | -38.0°C | 1.8% | 0hPa | 2.7V | 00:00:00 | 02:02:55 | 00:00:00 | |
| HA6NAB-11 | 2026-09-01 12:42:44 | 49.45795 | 18.02967 | 115° | 29km/h | 31078m | 7.1m/s | -38.0°C | 0.3% | 0hPa | 2.7V | 00:00:00 | 00:00:00 | 00:00:00 | |
| PG1ADW-2 | 2026-09-01 12:42:43 | 49.45801 | 18.02947 | 118° | 16km/h | 31065m | 6.4m/s | -38.1°C | 1.8% | 0hPa | 2.7V | 00:00:00 | 00:00:00 | 00:00:00 | |
| OE5DRO-10 | 2026-09-01 12:42:39 | 49.45810 | 18.02936 | 201° | 16km/h | 31039m | 6.2m/s | -38.2°C | 1.8% | 0hPa | 2.7V | 00:00:00 | 00:00:00 | 00:00:00 | |
| DO3MHA-11 | 2026-09-01 12:42:38 | 49.45814 | 18.02938 | 194° | 16km/h | 31032m | 7.4m/s | -38.3°C | 1.8% | 0hPa | 2.7V | 00:00:00 | 02:02:48 | 00:00:00 | |
| OE5MMP-10 | 2026-09-01 12:42:35 | 49.45824 | 18.02936 | 150° | 20km/h | 31012m | 6.0m/s | -38.5°C | 1.9% | 0hPa | 2.6V | 00:00:00 | 02:02:45 | 00:00:00 | |
| SQ9EZE-15 | 2026-09-01 12:42:34 | 49.45824 | 18.02936 | 151° | 11km/h | 31012m | 6.0m/s | 0°C | 0% | 0hPa | 2.7V | 00:00:00 | 00:00:00 | 00:00:00 | |
| SP3WXH-11 | 2026-09-01 12:42:29 | 49.45830 | 18.02886 | 116° | 29km/h | 30963m | 5.7m/s | -39.0°C | 0.3% | -1.0hPa | 2.7V | 00:00:00 | 00:00:00 | 00:00:00 | |
| DO3MHA-11 | 2026-09-01 12:42:28 | 49.45830 | 18.02886 | 117° | 16km/h | 30963m | 5.7m/s | -39.0°C | 1.8% | 0hPa | 2.7V | 00:00:00 | 02:02:38 | 00:00:00 | |
| OE5MMP-10 | 2026-09-01 12:42:25 | 49.45839 | 18.02867 | 151° | 13km/h | 30943m | 7.5m/s | -38.8°C | 1.8% | 0hPa | 2.7V | 00:00:00 | 02:02:35 | 00:00:00 | |
| OE3OSB-13 | 2026-09-01 12:42:24 | 49.45841 | 18.02866 | 195° | 7km/h | 30936m | 6.0m/s | -38.8°C | 0.3% | -1.0hPa | 2.7V | 00:00:00 | 00:00:00 | 00:00:00 | |
| PETON7-10 | 2026-09-01 12:42:23 | 49.45844 | 18.02868 | 212° | 18km/h | 30930m | 6.0m/s | -38.8°C | 1.9% | 0hPa | 2.7V | 00:00:00 | 00:00:00 | 00:00:00 | |
| OE5DRO-10 | 2026-09-01 12:42:20 | 49.45854 | 18.02872 | 170° | 18km/h | 30910m | 5.7m/s | -38.9°C | 1.9% | 0hPa | 2.7V | 00:00:00 | 00:00:00 | 00:00:00 | |
| DO3MHA-11 | 2026-09-01 12:42:18 | 49.45860 | 18.02866 | 124° | 20km/h | 30898m | 6.4m/s | -39.0°C | 1.9% | 0hPa | 2.7V | 00:00:00 | 02:02:28 | 00:00:00 | |
| OE5MMP-10 | 2026-09-01 12:42:15 | 49.45860 | 18.02849 | 77° | 20km/h | 30877m | 6.2m/s | -38.8°C | 1.8% | 0hPa | 2.7V | 00:00:00 | 02:02:25 | 00:00:00 | |
| OK1SLM-15 | 2026-09-01 12:42:10 | 49.45866 | 18.02820 | 139° | 27km/h | 30849m | 6.6m/s | 0°C | 0% | 0hPa | 2.7V | 00:00:00 | 00:00:00 | 00:00:00 | |
| DO3MHA-11 | 2026-09-01 12:42:08 | 49.45881 | 18.02806 | 156° | 16km/h | 30829m | 7.7m/s | -38.7°C | 1.8% | 0hPa | 2.7V | 00:00:00 | 02:02:18 | 00:00:00 | |
| OE5DXL-15 | 2026-09-01 12:42:05 | 49.45889 | 18.02796 | 122° | 24km/h | 30810m | 7.2m/s | -38.6°C | 1.9% | 0hPa | 2.6V | 00:00:00 | 00:00:00 | 00:00:00 | |
| OK1SLM-15 | 2026-09-01 12:42:04 | 49.45889 | 18.02796 | 123° | 15km/h | 30810m | 7.2m/s | 0°C | 0% | 0hPa | 2.6V | 00:00:00 | 00:00:00 | 00:00:00 | |
| PG1ADW-2 | 2026-09-01 12:42:03 | 49.45892 | 18.02783 | 105° | 18km/h | 30796m | 5.2m/s | -38.7°C | 1.8% | 0hPa | 2.6V | 00:00:00 | 00:00:00 | 00:00:00 | |
| OE5DRO-10 | 2026-09-01 12:42:01 | 49.45893 | 18.02768 | 85° | 24km/h | 30784m | 8.7m/s | -38.8°C | 1.9% | 0hPa | 2.6V | 00:00:00 | 00:00:00 | 00:00:00 | |
| DO3MHA-11 | 2026-09-01 12:41:58 | 49.45891 | 18.02749 | 90° | 22km/h | 30763m | 6.7m/s | -38.7°C | 1.9% | 0hPa | 2.6V | 00:00:00 | 02:02:08 | 00:00:00 | |
| OE5MMP-10 | 2026-09-01 12:41:55 | 49.45896 | 18.02724 | 114° | 24km/h | 30742m | 5.5m/s | -38.7°C | 1.9% | 0hPa | 2.6V | 00:00:00 | 02:02:05 | 00:00:00 | |
| PETON7-10 | 2026-09-01 12:41:53 | 49.45900 | 18.02709 | 114° | 26km/h | 30728m | 7.6m/s | -38.7°C | 1.9% | 0hPa | 2.6V | 00:00:00 | 00:00:00 | 00:00:00 | |
| DO3MHA-11 | 2026-09-01 12:41:47 | 49.45903 | 18.02656 | 72° | 27km/h | 30688m | 7.4m/s | -38.6°C | 1.8% | 0hPa | 2.7V | 00:00:00 | 02:01:57 | 00:00:00 | |
| OE5MMP-10 | 2026-09-01 12:41:45 | 49.45896 | 18.02634 | 56° | 26km/h | 30673m | 6.2m/s | -38.7°C | 1.8% | 0hPa | 2.7V | 00:00:00 | 02:01:55 | 00:00:00 | |
| OE5DRO-10 | 2026-09-01 12:41:42 | 49.45886 | 18.02603 | 80° | 27km/h | 30653m | 7.0m/s | -38.7°C | 1.8% | 0hPa | 2.7V | 00:00:00 | 00:00:00 | 00:00:00 | |
| PETON7-10 | 2026-09-01 12:41:38 | 49.45886 | 18.02567 | 89° | 27km/h | 30628m | 7.2m/s | -38.7°C | 1.8% | 0hPa | 2.7V | 00:00:00 | 00:00:00 | 00:00:00 | |
| DO3MHA-11 | 2026-09-01 12:41:37 | 49.45886 | 18.02560 | 80° | 31km/h | 30622m | 5.6m/s | -38.8°C | 1.8% | 0hPa | 2.7V | 00:00:00 | 02:01:47 | 08:30:00 | |
| OE5DXL-15 | 2026-09-01 12:41:35 | 49.45884 | 18.02541 | 80° | 27km/h | 30610m | 7.1m/s | -38.8°C | 1.8% | 0hPa | 2.6V | 00:00:00 | 00:00:00 | 00:00:00 | |
| DO3MHA-11 | 2026-09-01 12:41:27 | 49.45874 | 18.02443 | 98° | 24km/h | 30559m | 6.7m/s | -39.1°C | 1.9% | 0hPa | 2.6V | 00:00:00 | 02:01:37 | 00:00:00 | |
| HA6NAB-11 | 2026-09-01 12:41:26 | 49.45874 | 18.02444 | 99° | 18km/h | 30559m | 6.8m/s | -39.2°C | 0.3% | 0hPa | 2.6V | 00:00:00 | 00:00:00 | 00:00:00 | |
| OE5MMP-10 | 2026-09-01 12:41:25 | 49.45878 | 18.02428 | 114° | 26km/h | 30544m | 7.0m/s | -39.1°C | 1.9% | 0hPa | 2.6V | 00:00:00 | 02:01:35 | 00:00:00 | |
| OE5DRO-10 | 2026-09-01 12:41:23 | 49.45882 | 18.02409 | 102° | 27km/h | 30532m | 5.7m/s | -39.1°C | 1.8% | 0hPa | 2.6V | 00:00:00 | 00:00:00 | 08:30:00 | |
| OE3OSB-13 | 2026-09-01 12:41:22 | 49.45883 | 18.02399 | 89° | 24km/h | 30525m | 6.7m/s | -39.2°C | 0.3% | -1.0hPa | 2.7V | 00:00:00 | 00:00:00 | 00:00:00 | |
| HA6NAB-11 | 2026-09-01 12:41:20 | 49.45882 | 18.02390 | 78° | 24km/h | 30518m | 8.3m/s | -39.3°C | 0.3% | 0hPa | 2.7V | 00:00:00 | 00:00:00 | 00:00:00 | |
| DO3MHA-11 | 2026-09-01 12:41:17 | 49.45874 | 18.02356 | 84° | 24km/h | 30491m | 6.6m/s | -39.2°C | 1.8% | 0hPa | 2.7V | 00:00:00 | 02:01:27 | 00:00:00 | |
| OE5MMP-10 | 2026-09-01 12:41:15 | 49.45875 | 18.02336 | 102° | 27km/h | 30479m | 5.1m/s | -39.3°C | 1.8% | 0hPa | 2.7V | 00:00:00 | 02:01:25 | 00:00:00 | |
| PG1ADW-2 | 2026-09-01 12:41:11 | 49.45881 | 18.02306 | 118° | 29km/h | 30454m | 5.4m/s | -39.4°C | 1.9% | 0hPa | 2.7V | 00:00:00 | 00:00:00 | 00:00:00 | |
| HA6NAB-11 | 2026-09-01 12:41:10 | 49.45881 | 18.02307 | 119° | 20km/h | 30454m | 5.4m/s | -39.5°C | 0.3% | 0hPa | 2.7V | 00:00:00 | 00:00:00 | 00:00:00 | |
| PETON7-10 | 2026-09-01 12:41:08 | 49.45889 | 18.02277 | 103° | 33km/h | 30433m | 5.8m/s | -39.4°C | 1.9% | 0hPa | 2.7V | 00:00:00 | 00:00:00 | 08:30:00 | |
| DO3MHA-11 | 2026-09-01 12:41:07 | 49.45890 | 18.02263 | 94° | 37km/h | 30427m | 6.0m/s | -39.4°C | 1.9% | 0hPa | 2.7V | 00:00:00 | 02:01:17 | 00:00:00 | |
| OE5DXL-15 | 2026-09-01 12:41:05 | 49.45888 | 18.02234 | 75° | 31km/h | 30412m | 7.8m/s | -39.5°C | 1.9% | 0hPa | 2.7V | 00:00:00 | 00:00:00 | 00:00:00 | |
| OE5DRO-10 | 2026-09-01 12:41:04 | 49.45885 | 18.02219 | 70° | 31km/h | 30405m | 5.8m/s | -39.5°C | 1.8% | 0hPa | 2.7V | 00:00:00 | 00:00:00 | 00:00:00 | |
| SP3WXH-11 | 2026-09-01 12:40:56 | 49.45886 | 18.02110 | 91° | 22km/h | 30348m | 5.8m/s | -39.8°C | 0.3% | -1.0hPa | 2.7V | 00:00:00 | 00:00:00 | 00:00:00 | |
| OE3OSB-13 | 2026-09-01 12:40:51 | 49.45888 | 18.02048 | 91° | 37km/h | 30318m | 4.8m/s | -40.0°C | 0.3% | -1.0hPa | 2.7V | 00:00:00 | 00:00:00 | 00:00:00 | |
| DO3MHA-11 | 2026-09-01 12:40:47 | 49.45885 | 18.02011 | 69° | 27km/h | 30298m | 6.7m/s | -40.0°C | 1.9% | 0hPa | 2.7V | 00:00:00 | 02:00:57 | 00:00:00 | |
| OE5DRO-10 | 2026-09-01 12:40:45 | 49.45880 | 18.01993 | 70° | 31km/h | 30286m | 7.3m/s | -40.2°C | 1.9% | 0hPa | 2.7V | 00:00:00 | 00:00:00 | 00:00:00 | |
| PETON7-10 | 2026-09-01 12:40:38 | 49.45866 | 18.01918 | 79° | 33km/h | 30241m | 6.3m/s | -40.6°C | 1.9% | 0hPa | 2.7V | 00:00:00 | 02:00:48 | 00:00:00 | |
| DO3MHA-11 | 2026-09-01 12:40:37 | 49.45865 | 18.01906 | 87° | 33km/h | 30234m | 7.7m/s | -40.6°C | 2.0% | 0hPa | 2.7V | 00:00:00 | 02:00:47 | 00:00:00 | |
| OE5MMP-10 | 2026-09-01 12:40:35 | 49.45864 | 18.01880 | 89° | 33km/h | 30222m | 4.1m/s | -40.9°C | 2.0% | 0hPa | 2.6V | 00:00:00 | 02:00:45 | 00:00:00 | |
| DO3MHA-11 | 2026-09-01 12:40:27 | 49.45837 | 18.01790 | 59° | 37km/h | 30171m | 5.1m/s | -41.3°C | 2.0% | 0hPa | 2.7V | 00:00:00 | 02:00:37 | 00:00:00 | |
| OE5DRO-10 | 2026-09-01 12:40:26 | 49.45833 | 18.01779 | 56° | 31km/h | 30165m | 7.3m/s | -41.4°C | 2.0% | 0hPa | 2.7V | 00:00:00 | 00:00:00 | 00:00:00 | |
| OE5MMP-10 | 2026-09-01 12:40:25 | 49.45827 | 18.01769 | 53° | 35km/h | 30158m | 7.0m/s | -41.4°C | 2.0% | 0hPa | 2.6V | 00:00:00 | 02:00:35 | 00:00:00 | |
| PETON7-10 | 2026-09-01 12:40:23 | 49.45817 | 18.01744 | 64° | 29km/h | 30146m | 5.3m/s | -41.3°C | 2.0% | 0hPa | 2.6V | 00:00:00 | 00:00:00 | 00:00:00 | |
| OE3OSB-13 | 2026-09-01 12:40:21 | 49.45808 | 18.01686 | 79° | 35km/h | 30119m | 5.9m/s | -41.5°C | 0.4% | -1.0hPa | 2.6V | 00:00:00 | 00:00:00 | 00:00:00 | |
| SP3BTT-10 | 2026-09-01 12:40:19 | 49.45808 | 18.01686 | 80° | 20km/h | 30120m | 5.9m/s | 0°C | 0% | 0hPa | 2.6V | 00:00:00 | 00:00:00 | 00:00:00 | |
| DO3MHA-11 | 2026-09-01 12:40:17 | 49.45803 | 18.01663 | 57° | 24km/h | 30105m | 7.3m/s | -41.5°C | 2.1% | 0hPa | 2.6V | 00:00:00 | 02:00:27 | 00:00:00 | |
| OE5MMP-10 | 2026-09-01 12:40:15 | 49.45795 | 18.01649 | 46° | 26km/h | 30093m | 6.8m/s | -41.7°C | 2.1% | 0hPa | 2.6V | 00:00:00 | 02:00:25 | 00:00:00 | |
| SP9KGR-15 | 2026-09-01 12:40:10 | 49.45782 | 18.01628 | 41° | 24km/h | 30065m | 8.1m/s | -42.1°C | 0% | 0hPa | 2.6V | 00:00:00 | 00:00:00 | 00:00:00 | |
| PETON7-10 | 2026-09-01 12:40:08 | 49.45766 | 18.01604 | 55° | 20km/h | 30045m | 6.1m/s | -42.1°C | 2.1% | 0hPa | 2.6V | 00:00:00 | 00:00:00 | 00:00:00 | |
| OE5DRO-10 | 2026-09-01 12:40:07 | 49.45761 | 18.01593 | 63° | 22km/h | 30038m | 8.4m/s | -42.1°C | 2.1% | 0hPa | 2.6V | 00:00:00 | 00:00:00 | 00:00:00 | |
| OE5DXL-15 | 2026-09-01 12:40:05 | 49.45756 | 18.01571 | 76° | 18km/h | 30025m | 4.8m/s | -42.0°C | 2.1% | 0hPa | 2.6V | 00:00:00 | 00:00:00 | 00:00:00 | |
| SP3WXH-11 | 2026-09-01 12:39:55 | 49.45730 | 18.01499 | 50° | 33km/h | 29948m | 5.5m/s | -42.3°C | 0.4% | -1.0hPa | 2.6V | 00:00:00 | 00:00:00 | 00:00:00 | |
| OE3OSB-13 | 2026-09-01 12:39:49 | 49.45722 | 18.01451 | 108° | 15km/h | 29916m | 5.6m/s | -42.2°C | 0.3% | -1.0hPa | 2.6V | 00:00:00 | 00:00:00 | 00:00:00 | |
| OE5DRO-10 | 2026-09-01 12:39:48 | 49.45722 | 18.01451 | 109° | 18km/h | 29916m | 5.6m/s | -42.2°C | 2.1% | 0hPa | 2.6V | 00:00:00 | 00:00:00 | 00:00:00 | |
| DO3MHA-11 | 2026-09-01 12:39:47 | 49.45723 | 18.01446 | 106° | 13km/h | 29909m | 8.0m/s | -42.2°C | 2.1% | 0hPa | 2.6V | 00:00:00 | 01:59:57 | 00:00:00 | |
| OE5MMP-10 | 2026-09-01 12:39:45 | 49.45722 | 18.01444 | 343° | 18km/h | 29894m | 5.6m/s | -42.3°C | 2.1% | 0hPa | 2.6V | 00:00:00 | 01:59:55 | 00:00:00 | |
| HA6NAB-11 | 2026-09-01 12:39:43 | 49.45720 | 18.01445 | 330° | 7km/h | 29888m | 6.5m/s | -42.4°C | 0.4% | 0hPa | 2.6V | 00:00:00 | 00:00:00 | 00:00:00 | |
| PETON7-10 | 2026-09-01 12:39:38 | 49.45704 | 18.01426 | 55° | 24km/h | 29847m | 6.2m/s | -42.3°C | 2.2% | 0hPa | 2.6V | 00:00:00 | 00:00:00 | 00:00:00 | |
| DO3MHA-11 | 2026-09-01 12:39:37 | 49.45700 | 18.01415 | 65° | 22km/h | 29841m | 6.0m/s | -42.3°C | 2.1% | 0hPa | 2.6V | 00:00:00 | 01:59:47 | 00:00:00 | |
| OE5DXL-15 | 2026-09-01 12:39:35 | 49.45696 | 18.01392 | 90° | 22km/h | 29827m | 6.6m/s | -42.4°C | 2.1% | 0hPa | 2.7V | 00:00:00 | 00:00:00 | 00:00:00 | |
| HA6NAB-11 | 2026-09-01 12:39:32 | 49.45697 | 18.01373 | 96° | 20km/h | 29816m | 4.8m/s | -42.5°C | 0.4% | 0hPa | 2.7V | 00:00:00 | 00:00:00 | 00:00:00 | |
| OE5DRO-10 | 2026-09-01 12:39:28 | 49.45683 | 18.01353 | 18° | 22km/h | 29782m | 7.2m/s | -42.8°C | 2.2% | 0hPa | 2.7V | 00:00:00 | 00:00:00 | 00:00:00 | |
| DO3MHA-11 | 2026-09-01 12:39:27 | 49.45679 | 18.01351 | 30° | 24km/h | 29775m | 6.6m/s | -42.7°C | 2.1% | 0hPa | 2.6V | 00:00:00 | 01:59:37 | 00:00:00 | |
| OK1SLM-15 | 2026-09-01 12:39:26 | 49.45679 | 18.01351 | 31° | 18km/h | 29775m | 6.7m/s | 0°C | 0% | 0hPa | 2.6V | 00:00:00 | 00:00:00 | 00:00:00 | |
| OE5MMP-10 | 2026-09-01 12:39:25 | 49.45672 | 18.01340 | 59° | 22km/h | 29762m | 6.5m/s | -42.7°C | 2.1% | 0hPa | 2.6V | 00:00:00 | 01:59:35 | 00:00:00 | |
| PG1ADW-2 | 2026-09-01 12:39:24 | 49.45668 | 18.01331 | 62° | 15km/h | 29755m | 7.0m/s | -42.8°C | 2.1% | 0hPa | 2.6V | 00:00:00 | 01:59:34 | 00:00:00 | |
| SP3WXH-11 | 2026-09-01 12:39:23 | 49.45661 | 18.01310 | 63° | 31km/h | 29741m | 5.3m/s | -42.9°C | 0.4% | -1.0hPa | 2.6V | 00:00:00 | 00:00:00 | 00:00:00 | |
| HA6NAB-11 | 2026-09-01 12:39:21 | 49.45661 | 18.01310 | 64° | 31km/h | 29742m | 5.3m/s | -42.9°C | 0.4% | 0hPa | 2.6V | 00:00:00 | 00:00:00 | 00:00:00 | |
| SP9KGR-15 | 2026-09-01 12:39:20 | 49.45658 | 18.01299 | 68° | 27km/h | 29737m | 4.5m/s | -42.9°C | 0% | 0hPa | 2.6V | 00:00:00 | 00:00:00 | 00:00:00 | |
| OE3OSB-13 | 2026-09-01 12:39:18 | 49.45655 | 18.01273 | 82° | 13km/h | 29710m | 5.4m/s | -43.3°C | 0.4% | -1.0hPa | 2.6V | 00:00:00 | 00:00:00 | 00:00:00 | |
| DO3MHA-11 | 2026-09-01 12:39:17 | 49.45655 | 18.01273 | 83° | 22km/h | 29710m | 5.4m/s | -43.2°C | 2.2% | 0hPa | 2.6V | 00:00:00 | 01:59:27 | 00:00:00 | |
| OK1SLM-15 | 2026-09-01 12:39:16 | 49.45655 | 18.01273 | 84° | 13km/h | 29710m | 5.4m/s | 0°C | 0% | 0hPa | 2.6V | 00:00:00 | 00:00:00 | 00:00:00 | |
| OE5MMP-10 | 2026-09-01 12:39:15 | 49.45651 | 18.01261 | 54° | 22km/h | 29695m | 7.3m/s | -43.2°C | 2.2% | 0hPa | 2.6V | 00:00:00 | 01:59:25 | 00:00:00 | |
| OE5DRO-10 | 2026-09-01 12:39:08 | 49.45623 | 18.01213 | 52° | 18km/h | 29646m | 5.9m/s | -43.5°C | 2.3% | 0hPa | 2.6V | 00:00:00 | 00:00:00 | 00:00:00 | |
| DO3MHA-11 | 2026-09-01 12:39:07 | 49.45620 | 18.01206 | 57° | 11km/h | 29641m | 3.8m/s | -43.5°C | 2.3% | 0hPa | 2.6V | 00:00:00 | 01:59:17 | 00:00:00 | |
| OE5DXL-15 | 2026-09-01 12:39:05 | 49.45617 | 18.01197 | 79° | 16km/h | 29628m | 9.2m/s | -43.5°C | 2.3% | 0hPa | 2.7V | 00:00:00 | 00:00:00 | 08:30:00 | |
| SP9KGR-15 | 2026-09-01 12:39:04 | 49.45617 | 18.01197 | 80° | 7km/h | 29628m | 9.3m/s | -43.5°C | 0% | 0hPa | 2.7V | 00:00:00 | 00:00:00 | 00:00:00 | |
| SP3WXH-11 | 2026-09-01 12:38:52 | 49.45600 | 18.01110 | 108° | 13km/h | 29532m | 8.2m/s | -43.5°C | 0.4% | -1.0hPa | 2.7V | 00:00:00 | 00:00:00 | 00:00:00 | |
| SP9KGR-15 | 2026-09-01 12:38:47 | 49.45605 | 18.01107 | 46° | 4km/h | 29506m | 7.8m/s | 0°C | 0% | 0hPa | 2.7V | 00:00:00 | 00:00:00 | 00:00:00 | |
| OE5MMP-10 | 2026-09-01 12:38:45 | 49.45601 | 18.01099 | 58° | 20km/h | 29493m | 4.7m/s | -43.5°C | 2.2% | 0hPa | 2.7V | 00:00:00 | 01:58:55 | 00:00:00 | |
| PG1ADW-2 | 2026-09-01 12:38:41 | 49.45593 | 18.01067 | 71° | 16km/h | 29467m | 6.1m/s | -43.4°C | 2.2% | 0hPa | 2.7V | 00:00:00 | 00:00:00 | 00:00:00 | |
| HA6NAB-11 | 2026-09-01 12:38:40 | 49.45593 | 18.01067 | 71° | 24km/h | 29467m | 6.1m/s | -43.5°C | 0.5% | 0hPa | 2.7V | 00:00:00 | 00:00:00 | 00:00:00 | |
| PETON7-10 | 2026-09-01 12:38:38 | 49.45585 | 18.01043 | 65° | 15km/h | 29448m | 5.0m/s | -43.6°C | 2.3% | 0hPa | 2.7V | 00:00:00 | 00:00:00 | 00:00:00 | |
| DO3MHA-11 | 2026-09-01 12:38:37 | 49.45584 | 18.01037 | 77° | 16km/h | 29441m | 7.4m/s | -43.6°C | 2.3% | 0hPa | 2.7V | 00:00:00 | 01:58:47 | 08:30:00 | |
| NBG1-10 | 2026-09-01 12:38:36 | 49.45584 | 18.01031 | 98° | 22km/h | 29434m | 8.0m/s | 0°C | 0% | 0hPa | 2.6V | 00:00:00 | 01:58:46 | 08:30:00 | |
| OE5DXL-15 | 2026-09-01 12:38:35 | 49.45584 | 18.01025 | 108° | 20km/h | 29427m | 6.2m/s | -43.7°C | 2.3% | 0hPa | 2.6V | 00:00:00 | 00:00:00 | 00:00:00 | |
| SP9KGR-15 | 2026-09-01 12:38:29 | 49.45580 | 18.00992 | 68° | 20km/h | 29394m | 6.0m/s | 0°C | 0% | 0hPa | 2.6V | 00:00:00 | 00:00:00 | 00:00:00 | |
| DO3MHA-11 | 2026-09-01 12:38:27 | 49.45577 | 18.00976 | 80° | 15km/h | 29374m | 5.2m/s | -43.9°C | 2.2% | 0hPa | 2.6V | 00:00:00 | 01:58:37 | 00:00:00 | |
| OE5MMP-10 | 2026-09-01 12:38:25 | 49.45575 | 18.00972 | 26° | 20km/h | 29363m | 7.5m/s | -44.1°C | 2.3% | 0hPa | 2.6V | 00:00:00 | 01:58:35 | 00:00:00 | |
| PETON7-10 | 2026-09-01 12:38:23 | 49.45570 | 18.00970 | 16° | 27km/h | 29349m | 5.7m/s | -44.0°C | 2.3% | 0hPa | 2.6V | 00:00:00 | 01:58:33 | 00:00:00 | |
| SP3WXH-11 | 2026-09-01 12:38:21 | 49.45561 | 18.00960 | 74° | 15km/h | 29331m | 7.2m/s | -44.3°C | 0.4% | -1.0hPa | 2.6V | 00:00:00 | 00:00:00 | 00:00:00 | |
| DO3MHA-11 | 2026-09-01 12:38:17 | 49.45562 | 18.00932 | 90° | 31km/h | 29313m | 5.2m/s | -44.3°C | 2.3% | 0hPa | 2.6V | 00:00:00 | 01:58:27 | 00:00:00 | |
| OE3OSB-13 | 2026-09-01 12:38:16 | 49.45559 | 18.00906 | 72° | 37km/h | 29299m | 7.0m/s | -44.5°C | 0.4% | -1.0hPa | 2.6V | 00:00:00 | 00:00:00 | 00:00:00 | |
| OE5MMP-10 | 2026-09-01 12:38:15 | 49.45559 | 18.00906 | 73° | 27km/h | 29300m | 6.9m/s | -44.4°C | 2.3% | 0hPa | 2.6V | 00:00:00 | 01:58:25 | 00:00:00 | |
| SP9KGR-15 | 2026-09-01 12:38:12 | 49.45552 | 18.00878 | 67° | 40km/h | 29288m | 5.6m/s | 0°C | 0% | 0hPa | 2.6V | 00:00:00 | 00:00:00 | 00:00:00 | |
| HA6NAB-11 | 2026-09-01 12:38:11 | 49.45548 | 18.00864 | 68° | 37km/h | 29282m | 7.4m/s | -44.7°C | 0.5% | 0hPa | 2.6V | 00:00:00 | 00:00:00 | 00:00:00 | |
| PETON7-10 | 2026-09-01 12:38:08 | 49.45535 | 18.00832 | 36° | 22km/h | 29254m | 8.0m/s | -44.8°C | 2.4% | 0hPa | 2.6V | 00:00:00 | 00:00:00 | 00:00:00 | |
| DO3MHA-11 | 2026-09-01 12:38:07 | 49.45532 | 18.00828 | 25° | 24km/h | 29247m | 6.1m/s | -44.9°C | 2.4% | 0hPa | 2.6V | 00:00:00 | 01:58:17 | 00:00:00 | |
| OE5MMP-10 | 2026-09-01 12:38:05 | 49.45525 | 18.00823 | 47° | 26km/h | 29236m | 5.7m/s | -45.0°C | 2.4% | 0hPa | 2.7V | 00:00:00 | 01:58:15 | 00:00:00 | |
| SP3WXH-11 | 2026-09-01 12:37:50 | 49.45495 | 18.00692 | 100° | 22km/h | 29134m | 8.8m/s | -45.4°C | 0.5% | -1.0hPa | 2.7V | 00:00:00 | 00:00:00 | 00:00:00 | |
| DO3MHA-11 | 2026-09-01 12:37:47 | 49.45499 | 18.00675 | 114° | 20km/h | 29121m | 4.7m/s | -45.4°C | 2.4% | 0hPa | 2.7V | 00:00:00 | 01:57:57 | 00:00:00 | |
| OK1SLM-15 | 2026-09-01 12:37:46 | 49.45499 | 18.00675 | 114° | 24km/h | 29121m | 4.7m/s | 0°C | 0% | 0hPa | 2.7V | 00:00:00 | 00:00:00 | 00:00:00 | |
| OE5MMP-10 | 2026-09-01 12:37:45 | 49.45501 | 18.00658 | 87° | 20km/h | 29109m | 7.6m/s | -45.4°C | 2.5% | 0hPa | 2.7V | 00:00:00 | 01:57:55 | 00:00:00 | |
| OE3OSB-13 | 2026-09-01 12:37:44 | 49.45500 | 18.00650 | 62° | 22km/h | 29102m | 6.9m/s | -45.5°C | 0.5% | -1.0hPa | 2.7V | 00:00:00 | 00:00:00 | 00:00:00 | |
| NBG1-10 | 2026-09-01 12:37:43 | 49.45496 | 18.00643 | 45° | 20km/h | 29095m | 6.6m/s | 0°C | 0% | 0hPa | 2.7V | 00:00:00 | 01:57:53 | 00:00:00 | |
| PG1ADW-2 | 2026-09-01 12:37:40 | 49.45483 | 18.00628 | 35° | 20km/h | 29075m | 5.8m/s | -45.5°C | 2.5% | 0hPa | 2.7V | 00:00:00 | 00:00:00 | 00:00:00 | |
| PETON7-10 | 2026-09-01 12:37:38 | 49.45477 | 18.00620 | 54° | 22km/h | 29063m | 6.0m/s | -45.6°C | 2.5% | 0hPa | 2.6V | 00:00:00 | 01:57:48 | 00:00:00 | |
| DO3MHA-11 | 2026-09-01 12:37:37 | 49.45475 | 18.00614 | 57° | 20km/h | 29057m | 7.4m/s | -45.7°C | 2.5% | 0hPa | 2.6V | 00:00:00 | 01:57:47 | 00:00:00 | |
| OE5DXL-15 | 2026-09-01 12:37:35 | 49.45469 | 18.00601 | 63° | 22km/h | 29044m | 4.0m/s | -45.7°C | 2.5% | 0hPa | 2.6V | 00:00:00 | 00:00:00 | 00:00:00 | |
| DO3MHA-11 | 2026-09-01 12:37:27 | 49.45451 | 18.00546 | 34° | 22km/h | 28995m | 5.5m/s | -45.8°C | 2.5% | 0hPa | 2.6V | 00:00:00 | 01:57:37 | 00:00:00 | |
| OE5MMP-10 | 2026-09-01 12:37:25 | 49.45440 | 18.00537 | 19° | 20km/h | 28981m | 6.9m/s | -46.0°C | 2.5% | 0hPa | 2.6V | 00:00:00 | 01:57:35 | 00:00:00 | |
| PETON7-10 | 2026-09-01 12:37:23 | 49.45428 | 18.00533 | 12° | 22km/h | 28968m | 6.9m/s | -46.0°C | 2.5% | 0hPa | 2.6V | 00:00:00 | 00:00:00 | 00:00:00 | |
| SP9KGR-15 | 2026-09-01 12:37:22 | 49.45428 | 18.00533 | 12° | 24km/h | 28968m | 7.0m/s | 0°C | 0% | 0hPa | 2.7V | 00:00:00 | 00:00:00 | 00:00:00 | |
| PG1ADW-2 | 2026-09-01 12:37:20 | 49.45411 | 18.00525 | 26° | 20km/h | 28950m | 5.1m/s | -45.9°C | 2.5% | 0hPa | 2.7V | 00:00:00 | 00:00:00 | 00:00:00 | |
| SP3WXH-11 | 2026-09-01 12:37:18 | 49.45406 | 18.00519 | 63° | 9km/h | 28936m | 6.9m/s | -45.9°C | 0.5% | -1.0hPa | 2.7V | 00:00:00 | 00:00:00 | 00:00:00 | |
| DO3MHA-11 | 2026-09-01 12:37:17 | 49.45405 | 18.00514 | 75° | 24km/h | 28930m | 5.4m/s | -45.9°C | 2.5% | 0hPa | 2.7V | 00:00:00 | 01:57:27 | 00:00:00 | |
| OE5MMP-10 | 2026-09-01 12:37:15 | 49.45401 | 18.00502 | 58° | 26km/h | 28917m | 7.3m/s | -46.0°C | 2.5% | 0hPa | 2.7V | 00:00:00 | 01:57:25 | 00:00:00 | |
| OE3OSB-13 | 2026-09-01 12:37:13 | 49.45392 | 18.00486 | 45° | 27km/h | 28905m | 5.2m/s | -46.2°C | 0.5% | -1.0hPa | 2.7V | 00:00:00 | 00:00:00 | 00:00:00 | |
| PETON7-10 | 2026-09-01 12:37:08 | 49.45367 | 18.00454 | 31° | 24km/h | 28872m | 7.8m/s | -46.3°C | 2.6% | 0hPa | 2.7V | 00:00:00 | 00:00:00 | 00:00:00 | |
| DO3MHA-11 | 2026-09-01 12:37:07 | 49.45361 | 18.00449 | 31° | 20km/h | 28865m | 4.5m/s | -46.3°C | 2.6% | 0hPa | 2.7V | 00:00:00 | 01:57:17 | 08:30:00 | |
| OE5DXL-15 | 2026-09-01 12:37:05 | 49.45352 | 18.00439 | 41° | 20km/h | 28855m | 7.9m/s | -46.4°C | 2.6% | 0hPa | 2.6V | 00:00:00 | 00:00:00 | 00:00:00 | |
| SP3WXH-11 | 2026-09-01 12:36:48 | 49.45273 | 18.00354 | 26° | 20km/h | 28739m | 7.3m/s | -46.2°C | 0.5% | -1.0hPa | 2.6V | 00:00:00 | 00:00:00 | 00:00:00 | |
| DO3MHA-11 | 2026-09-01 12:36:47 | 49.45273 | 18.00354 | 27° | 18km/h | 28739m | 7.3m/s | -46.2°C | 2.6% | 0hPa | 2.6V | 00:00:00 | 01:56:57 | 00:00:00 | |
| OE5MMP-10 | 2026-09-01 12:36:45 | 49.45262 | 18.00349 | 11° | 20km/h | 28726m | 5.0m/s | -46.2°C | 2.6% | 0hPa | 2.6V | 00:00:00 | 01:56:55 | 00:00:00 | |
| OE3OSB-13 | 2026-09-01 12:36:42 | 49.45245 | 18.00346 | 6° | 15km/h | 28708m | 6.6m/s | -46.4°C | 0.5% | -1.0hPa | 2.6V | 00:00:00 | 00:00:00 | 00:00:00 | |
| HA6NAB-11 | 2026-09-01 12:36:40 | 49.45242 | 18.00345 | 13° | 13km/h | 28701m | 6.1m/s | -46.2°C | 0.6% | 0hPa | 2.6V | 00:00:00 | 00:00:00 | 00:00:00 | |
| PG1ADW-2 | 2026-09-01 12:36:39 | 49.45235 | 18.00343 | 15° | 16km/h | 28689m | 6.2m/s | -46.1°C | 2.6% | 0hPa | 2.6V | 00:00:00 | 01:56:49 | 08:30:00 | |
| PETON7-10 | 2026-09-01 12:36:38 | 49.45231 | 18.00341 | 12° | 16km/h | 28683m | 7.1m/s | -46.1°C | 2.6% | 0hPa | 2.7V | 00:00:00 | 00:00:00 | 08:30:00 | |
| DO3MHA-11 | 2026-09-01 12:36:37 | 49.45225 | 18.00340 | 6° | 20km/h | 28676m | 6.2m/s | -46.1°C | 2.6% | 0hPa | 2.7V | 00:00:00 | 01:56:47 | 00:00:00 | |
| HA6NAB-11 | 2026-09-01 12:36:36 | 49.45219 | 18.00340 | 360° | 24km/h | 28670m | 5.9m/s | -46.3°C | 0.6% | 0hPa | 2.6V | 00:00:00 | 00:00:00 | 00:00:00 | |
| OE5MMP-10 | 2026-09-01 12:36:35 | 49.45214 | 18.00340 | 351° | 16km/h | 28663m | 7.2m/s | -46.3°C | 2.6% | 0hPa | 2.6V | 00:00:00 | 01:56:45 | 00:00:00 | |
| HA6NAB-11 | 2026-09-01 12:36:30 | 49.45191 | 18.00354 | 346° | 22km/h | 28632m | 6.9m/s | -46.2°C | 0.5% | 0hPa | 2.7V | 00:00:00 | 00:00:00 | 00:00:00 | |
| DB0DAN | 2026-09-01 12:36:25 | 49.45175 | 18.00359 | 359° | 4km/h | 28600m | 5.6m/s | -46.3°C | 0.5% | 0hPa | 2.7V | 00:00:00 | 00:00:00 | 00:00:00 | |
| OE5MMP-10 | 2026-09-01 12:36:25 | 49.45175 | 18.00359 | 360° | 16km/h | 28600m | 5.5m/s | -46.2°C | 2.7% | 0hPa | 2.7V | 00:00:00 | 01:56:35 | 00:00:00 | |
| PETON7-10 | 2026-09-01 12:36:23 | 49.45171 | 18.00358 | 13° | 16km/h | 28588m | 7.6m/s | -46.2°C | 2.7% | 0hPa | 2.7V | 00:00:00 | 00:00:00 | 00:00:00 | |
| NBG1-10 | 2026-09-01 12:36:21 | 49.45162 | 18.00356 | 2° | 11km/h | 28574m | 6.2m/s | 0°C | 0% | 0hPa | 2.7V | 00:00:00 | 01:56:31 | 00:00:00 | |
| OK1SLM-15 | 2026-09-01 12:36:20 | 49.45156 | 18.00357 | 356° | 22km/h | 28567m | 7.1m/s | 0°C | 0% | 0hPa | 2.7V | 00:00:00 | 00:00:00 | 00:00:00 | |
| PG1ADW-2 | 2026-09-01 12:36:19 | 49.45151 | 18.00358 | 346° | 15km/h | 28560m | 7.1m/s | -46.4°C | 2.6% | 0hPa | 2.7V | 00:00:00 | 00:00:00 | 00:00:00 | |
| HA6NAB-11 | 2026-09-01 12:36:18 | 49.45146 | 18.00361 | 335° | 18km/h | 28554m | 6.1m/s | -46.5°C | 0.6% | 0hPa | 2.7V | 00:00:00 | 00:00:00 | 00:00:00 | |
| DO3MHA-11 | 2026-09-01 12:36:17 | 49.45142 | 18.00364 | 328° | 15km/h | 28548m | 5.3m/s | -46.4°C | 2.6% | 0hPa | 2.7V | 00:00:00 | 01:56:27 | 00:00:00 | |
| SP3WXH-11 | 2026-09-01 12:36:16 | 49.45137 | 18.00369 | 327° | 22km/h | 28542m | 6.0m/s | -46.4°C | 0.5% | -1.0hPa | 2.7V | 00:00:00 | 00:00:00 | 00:00:00 | |
| OE5MMP-10 | 2026-09-01 12:36:15 | 49.45132 | 18.00373 | 331° | 13km/h | 28535m | 8.0m/s | -46.2°C | 2.7% | 0hPa | 2.7V | 00:00:00 | 01:56:25 | 00:00:00 | |
| OK1SLM-15 | 2026-09-01 12:36:14 | 49.45127 | 18.00378 | 334° | 27km/h | 28528m | 6.4m/s | 0°C | 0% | 0hPa | 2.7V | 00:00:00 | 00:00:00 | 00:00:00 | |
| OE3OSB-13 | 2026-09-01 12:36:11 | 49.45113 | 18.00390 | 322° | 11km/h | 28510m | 8.0m/s | -46.0°C | 0.5% | -1.0hPa | 2.7V | 00:00:00 | 00:00:00 | 00:00:00 | |
| OE5DRO-10 | 2026-09-01 12:36:08 | 49.45111 | 18.00392 | 66° | 11km/h | 28491m | 6.5m/s | -45.9°C | 2.5% | 0hPa | 2.7V | 00:00:00 | 00:00:00 | 00:00:00 | |
| PETON7-10 | 2026-09-01 12:36:07 | 49.45110 | 18.00391 | 32° | 13km/h | 28484m | 7.1m/s | -45.9°C | 2.5% | 0hPa | 2.7V | 00:00:00 | 01:56:17 | 00:00:00 | |
| OE5DXL-15 | 2026-09-01 12:36:05 | 49.45105 | 18.00389 | 3° | 11km/h | 28471m | 5.9m/s | -46.0°C | 2.6% | 0hPa | 2.7V | 00:00:00 | 00:00:00 | 00:00:00 | |
| PG1ADW-2 | 2026-09-01 12:35:59 | 49.45088 | 18.00411 | 306° | 11km/h | 28431m | 7.5m/s | -45.9°C | 2.6% | 0hPa | 2.6V | 00:00:00 | 00:00:00 | 00:00:00 | |
| DO3MHA-11 | 2026-09-01 12:35:57 | 49.45081 | 18.00421 | 324° | 7km/h | 28418m | 5.1m/s | -45.8°C | 2.6% | 0hPa | 2.6V | 00:00:00 | 01:56:07 | 00:00:00 | |
| OE5MMP-10 | 2026-09-01 12:35:55 | 49.45076 | 18.00427 | 326° | 7km/h | 28406m | 7.9m/s | -45.9°C | 2.5% | 0hPa | 2.6V | 00:00:00 | 01:56:05 | 00:00:00 | |
| PETON7-10 | 2026-09-01 12:35:52 | 49.45077 | 18.00425 | 107° | 9km/h | 28387m | 6.3m/s | -45.8°C | 2.5% | 0hPa | 2.6V | 00:00:00 | 00:00:00 | 00:00:00 | |
| OE5DRO-10 | 2026-09-01 12:35:49 | 49.45073 | 18.00425 | 326° | 11km/h | 28367m | 5.8m/s | -45.8°C | 2.5% | 0hPa | 2.7V | 00:00:00 | 00:00:00 | 00:00:00 | |
| DO3MHA-11 | 2026-09-01 12:35:47 | 49.45070 | 18.00432 | 291° | 11km/h | 28352m | 7.0m/s | -45.6°C | 2.6% | 0hPa | 2.7V | 00:00:00 | 01:55:57 | 00:00:00 | |
| OE5MMP-10 | 2026-09-01 12:35:45 | 49.45067 | 18.00442 | 300° | 11km/h | 28340m | 6.5m/s | -45.6°C | 2.6% | 0hPa | 2.7V | 00:00:00 | 01:55:55 | 00:00:00 | |
| NBG1-10 | 2026-09-01 12:35:44 | 49.45065 | 18.00447 | 312° | 11km/h | 28332m | 8.0m/s | 0°C | 0% | 0hPa | 2.7V | 00:00:00 | 01:55:54 | 00:00:00 | |
| HA6NAB-11 | 2026-09-01 12:35:43 | 49.45065 | 18.00447 | 313° | 15km/h | 28332m | 8.0m/s | -45.6°C | 0.5% | 0hPa | 2.7V | 00:00:00 | 00:00:00 | 00:00:00 | |
| OE3OSB-13 | 2026-09-01 12:35:40 | 49.45060 | 18.00450 | 124° | 9km/h | 28305m | 7.1m/s | -45.7°C | 0.5% | -1.0hPa | 2.7V | 00:00:00 | 00:00:00 | 00:00:00 | |
| PG1ADW-2 | 2026-09-01 12:35:39 | 49.45062 | 18.00446 | 126° | 13km/h | 28299m | 5.4m/s | -45.6°C | 2.5% | 0hPa | 2.7V | 00:00:00 | 00:00:00 | 00:00:00 | |
| PETON7-10 | 2026-09-01 12:35:37 | 49.45065 | 18.00437 | 106° | 13km/h | 28287m | 6.9m/s | -45.6°C | 2.5% | 0hPa | 2.6V | 00:00:00 | 00:00:00 | 00:00:00 | |
| OE5DXL-15 | 2026-09-01 12:35:35 | 49.45064 | 18.00434 | 342° | 11km/h | 28275m | 5.3m/s | -45.8°C | 2.5% | 0hPa | 2.6V | 00:00:00 | 00:00:00 | 00:00:00 | |
| HA6NAB-11 | 2026-09-01 12:35:31 | 49.45063 | 18.00445 | 263° | 18km/h | 28255m | 6.5m/s | -45.6°C | 0.5% | 0hPa | 2.6V | 00:00:00 | 00:00:00 | 00:00:00 | |
| OE5DRO-10 | 2026-09-01 12:35:30 | 49.45064 | 18.00461 | 274° | 11km/h | 28244m | 5.3m/s | -45.7°C | 2.6% | 0hPa | 2.6V | 00:00:00 | 00:00:00 | 00:00:00 | |
| DO3MHA-11 | 2026-09-01 12:35:27 | 49.45060 | 18.00482 | 299° | 11km/h | 28225m | 4.5m/s | -45.6°C | 2.5% | 0hPa | 2.7V | 00:00:00 | 01:55:37 | 00:00:00 | |
| HA6NAB-11 | 2026-09-01 12:35:26 | 49.45058 | 18.00486 | 288° | 11km/h | 28220m | 5.9m/s | -45.7°C | 0.6% | 0hPa | 2.7V | 00:00:00 | 00:00:00 | 00:00:00 | |
| OE5MMP-10 | 2026-09-01 12:35:25 | 49.45058 | 18.00490 | 258° | 9km/h | 28213m | 7.5m/s | -45.7°C | 2.6% | 0hPa | 2.7V | 00:00:00 | 01:55:35 | 00:00:00 | |
| PETON7-10 | 2026-09-01 12:35:22 | 49.45064 | 18.00497 | 217° | 9km/h | 28193m | 7.6m/s | -45.5°C | 2.5% | 0hPa | 2.7V | 00:00:00 | 01:55:32 | 00:00:00 | |
| HA6NAB-11 | 2026-09-01 12:35:19 | 49.45067 | 18.00502 | 219° | 11km/h | 28181m | 5.0m/s | -45.6°C | 0.5% | 0hPa | 2.7V | 00:00:00 | 00:00:00 | 00:00:00 | |
| DO3MHA-11 | 2026-09-01 12:35:17 | 49.45075 | 18.00509 | 206° | 9km/h | 28160m | 5.1m/s | -45.6°C | 2.5% | 0hPa | 2.7V | 00:00:00 | 01:55:27 | 00:00:00 | |
| SP3WXH-11 | 2026-09-01 12:35:15 | 49.45076 | 18.00514 | 337° | 7km/h | 28140m | 6.2m/s | -45.7°C | 0.5% | -1.0hPa | 2.7V | 00:00:00 | 00:00:00 | 00:00:00 | |
| HA6NAB-11 | 2026-09-01 12:35:13 | 49.45076 | 18.00514 | 338° | 7km/h | 28140m | 6.2m/s | -45.7°C | 0.5% | 0hPa | 2.7V | 00:00:00 | 00:00:00 | 00:00:00 | |
| OE5DRO-10 | 2026-09-01 12:35:11 | 49.45073 | 18.00511 | 111° | 13km/h | 28121m | 9.3m/s | -45.6°C | 2.5% | 0hPa | 2.7V | 00:00:00 | 00:00:00 | 00:00:00 | |
| OE3OSB-13 | 2026-09-01 12:35:09 | 49.45078 | 18.00504 | 147° | 15km/h | 28108m | 5.5m/s | -45.7°C | 0.5% | -1.0hPa | 2.7V | 00:00:00 | 00:00:00 | 00:00:00 | |
| PETON7-10 | 2026-09-01 12:35:07 | 49.45084 | 18.00500 | 174° | 13km/h | 28093m | 7.9m/s | -45.6°C | 2.5% | 0hPa | 2.7V | 00:00:00 | 00:00:00 | 00:00:00 | |
| OE5DXL-15 | 2026-09-01 12:35:05 | 49.45090 | 18.00501 | 184° | 13km/h | 28080m | 6.9m/s | -45.6°C | 2.6% | 0hPa | 2.7V | 00:00:00 | 00:00:00 | 00:00:00 | |
| PG1ADW-2 | 2026-09-01 12:34:59 | 49.45097 | 18.00501 | 20° | 15km/h | 28040m | 6.0m/s | -45.8°C | 2.5% | 0hPa | 2.7V | 00:00:00 | 00:00:00 | 00:00:00 | |
| DO3MHA-11 | 2026-09-01 12:34:57 | 49.45090 | 18.00493 | 53° | 16km/h | 28025m | 7.3m/s | -45.9°C | 2.4% | 0hPa | 2.7V | 00:00:00 | 01:55:07 | 00:00:00 | |
| OE5MMP-10 | 2026-09-01 12:34:55 | 49.45085 | 18.00480 | 63° | 15km/h | 28012m | 6.6m/s | -46.1°C | 2.5% | 0hPa | 2.7V | 00:00:00 | 01:55:05 | 00:00:00 | |
| OK1SLM-15 | 2026-09-01 12:34:53 | 49.45083 | 18.00473 | 66° | 18km/h | 28005m | 7.0m/s | 0°C | 0% | 0hPa | 2.7V | 00:00:00 | 00:00:00 | 00:00:00 | |
| PETON7-10 | 2026-09-01 12:34:52 | 49.45082 | 18.00463 | 104° | 13km/h | 27993m | 5.6m/s | -46.0°C | 2.5% | 0hPa | 2.7V | 00:00:00 | 00:00:00 | 00:00:00 | |
| OK1SLM-15 | 2026-09-01 12:34:48 | 49.45090 | 18.00451 | 158° | 20km/h | 27972m | 5.8m/s | 0°C | 0% | 0hPa | 2.7V | 00:00:00 | 00:00:00 | 00:00:00 | |
| DO3MHA-11 | 2026-09-01 12:34:47 | 49.45098 | 18.00447 | 178° | 11km/h | 27961m | 7.0m/s | -45.9°C | 2.6% | 0hPa | 2.7V | 00:00:00 | 01:54:57 | 00:00:00 | |
| OE5MMP-10 | 2026-09-01 12:34:45 | 49.45100 | 18.00448 | 335° | 11km/h | 27947m | 6.8m/s | -45.9°C | 2.6% | 0hPa | 2.7V | 00:00:00 | 01:54:55 | 00:00:00 | |
| SP3WXH-11 | 2026-09-01 12:34:43 | 49.45097 | 18.00446 | 43° | 9km/h | 27934m | 7.1m/s | -46.0°C | 0.5% | -1.0hPa | 2.7V | 00:00:00 | 00:00:00 | 00:00:00 | |
| PG1ADW-2 | 2026-09-01 12:34:39 | 49.45092 | 18.00428 | 62° | 11km/h | 27907m | 8.3m/s | -46.1°C | 2.5% | 0hPa | 2.7V | 00:00:00 | 00:00:00 | 00:00:00 | |
| HA6NAB-11 | 2026-09-01 12:34:38 | 49.45092 | 18.00428 | 63° | 13km/h | 27907m | 8.3m/s | -46.1°C | 0.5% | 0hPa | 2.6V | 00:00:00 | 00:00:00 | 00:00:00 | |
| OE5DXL-15 | 2026-09-01 12:34:35 | 49.45090 | 18.00415 | 118° | 11km/h | 27879m | 7.2m/s | -46.0°C | 2.5% | 0hPa | 2.6V | 00:00:00 | 00:00:00 | 08:30:00 | |
| OE5DRO-10 | 2026-09-01 12:34:33 | 49.45092 | 18.00408 | 117° | 11km/h | 27867m | 6.3m/s | -46.0°C | 2.6% | 0hPa | 2.7V | 00:00:00 | 00:00:00 | 00:00:00 | |
| HA6NAB-11 | 2026-09-01 12:34:27 | 49.45086 | 18.00393 | 60° | 16km/h | 27832m | 6.7m/s | -46.0°C | 0.5% | 0hPa | 2.6V | 00:00:00 | 00:00:00 | 00:00:00 | |
| OE5MMP-10 | 2026-09-01 12:34:25 | 49.45077 | 18.00379 | 33° | 11km/h | 27814m | 7.5m/s | -45.9°C | 2.4% | 0hPa | 2.6V | 00:00:00 | 01:54:35 | 00:00:00 | |
| PETON7-10 | 2026-09-01 12:34:22 | 49.45069 | 18.00375 | 359° | 11km/h | 27794m | 6.5m/s | -46.1°C | 2.5% | 0hPa | 2.6V | 00:00:00 | 00:00:00 | 08:30:00 | |
| PG1ADW-2 | 2026-09-01 12:34:19 | 49.45074 | 18.00376 | 193° | 11km/h | 27774m | 5.4m/s | -46.2°C | 2.5% | 0hPa | 2.6V | 00:00:00 | 00:00:00 | 00:00:00 | |
| DO3MHA-11 | 2026-09-01 12:34:17 | 49.45079 | 18.00380 | 229° | 13km/h | 27761m | 6.8m/s | -46.3°C | 2.6% | 0hPa | 2.6V | 00:00:00 | 01:54:27 | 00:00:00 | |
| HA6NAB-11 | 2026-09-01 12:34:16 | 49.45079 | 18.00380 | 229° | 9km/h | 27761m | 6.9m/s | -46.4°C | 0.6% | 0hPa | 2.6V | 00:00:00 | 00:00:00 | 00:00:00 | |
| OE5MMP-10 | 2026-09-01 12:34:15 | 49.45079 | 18.00385 | 339° | 13km/h | 27749m | 6.1m/s | -46.4°C | 2.6% | 0hPa | 2.6V | 00:00:00 | 01:54:25 | 00:00:00 | |
| OE5DRO-10 | 2026-09-01 12:34:14 | 49.45077 | 18.00385 | 14° | 9km/h | 27742m | 7.0m/s | -46.5°C | 2.6% | 0hPa | 2.6V | 00:00:00 | 00:00:00 | 00:00:00 | |
| DB0DAN | 2026-09-01 12:34:10 | 49.45063 | 18.00379 | 357° | 18km/h | 27716m | 7.4m/s | -46.8°C | 0.5% | 0hPa | 2.6V | 00:00:00 | 00:00:00 | 00:00:00 | |
| PETON7-10 | 2026-09-01 12:34:07 | 49.45052 | 18.00382 | 351° | 7km/h | 27698m | 7.5m/s | -46.9°C | 2.6% | 0hPa | 2.6V | 00:00:00 | 00:00:00 | 00:00:00 | |
| OE5DXL-15 | 2026-09-01 12:34:05 | 49.45051 | 18.00383 | 193° | 13km/h | 27685m | 5.8m/s | -47.0°C | 2.7% | 0hPa | 2.6V | 00:00:00 | 00:00:00 | 00:00:00 | |
| PG1ADW-2 | 2026-09-01 12:33:59 | 49.45060 | 18.00397 | 195° | 15km/h | 27646m | 7.5m/s | -47.2°C | 2.6% | 0hPa | 2.6V | 00:00:00 | 01:54:09 | 00:00:00 | |
| DB0DAN | 2026-09-01 12:33:55 | 49.45055 | 18.00397 | 321° | 9km/h | 27617m | 5.5m/s | -47.4°C | 0.5% | 0hPa | 2.6V | 00:00:00 | 00:00:00 | 00:00:00 | |
| OE5DRO-10 | 2026-09-01 12:33:55 | 49.45055 | 18.00397 | 322° | 16km/h | 27618m | 5.5m/s | -47.3°C | 2.7% | 0hPa | 2.7V | 00:00:00 | 00:00:00 | 00:00:00 | |
| PETON7-10 | 2026-09-01 12:33:52 | 49.45057 | 18.00406 | 208° | 16km/h | 27599m | 8.1m/s | -47.4°C | 2.7% | 0hPa | 2.7V | 00:00:00 | 01:54:02 | 00:00:00 | |
| DO3MHA-11 | 2026-09-01 12:33:47 | 49.45089 | 18.00428 | 199° | 11km/h | 27568m | 4.5m/s | -47.3°C | 2.7% | 0hPa | 2.7V | 00:00:00 | 01:53:57 | 00:00:00 | |
| OE5MMP-10 | 2026-09-01 12:33:45 | 49.45097 | 18.00429 | 155° | 13km/h | 27554m | 8.2m/s | -47.1°C | 2.7% | 0hPa | 2.7V | 00:00:00 | 01:53:55 | 00:00:00 | |
| DB0DAN | 2026-09-01 12:33:40 | 49.45103 | 18.00414 | 125° | 5km/h | 27520m | 5.3m/s | -47.2°C | 0.5% | 0hPa | 2.7V | 00:00:00 | 00:00:00 | 00:00:00 | |
| PG1ADW-2 | 2026-09-01 12:33:39 | 49.45105 | 18.00412 | 142° | 22km/h | 27514m | 7.5m/s | -47.1°C | 2.6% | 0hPa | 2.7V | 00:00:00 | 00:00:00 | 08:30:00 | |
| DO3MHA-11 | 2026-09-01 12:33:37 | 49.45111 | 18.00409 | 172° | 24km/h | 27500m | 6.4m/s | -47.1°C | 2.6% | 0hPa | 2.6V | 00:00:00 | 01:53:47 | 00:00:00 | |
| OE3OSB-13 | 2026-09-01 12:33:36 | 49.45122 | 18.00410 | 190° | 26km/h | 27485m | 7.3m/s | -47.3°C | 0.5% | -1.0hPa | 2.6V | 00:00:00 | 00:00:00 | 00:00:00 | |
| OE5DXL-15 | 2026-09-01 12:33:35 | 49.45122 | 18.00410 | 191° | 22km/h | 27485m | 7.2m/s | -47.3°C | 2.6% | 0hPa | 2.6V | 00:00:00 | 00:00:00 | 00:00:00 | |
| OK1SLM-15 | 2026-09-01 12:33:33 | 49.45137 | 18.00414 | 186° | 31km/h | 27473m | 5.9m/s | 0°C | 0% | 0hPa | 2.6V | 00:00:00 | 00:00:00 | 00:00:00 | |
| OK1SLM-15 | 2026-09-01 12:33:28 | 49.45163 | 18.00394 | 120° | 15km/h | 27441m | 7.5m/s | 0°C | 0% | 0hPa | 2.6V | 00:00:00 | 00:00:00 | 00:00:00 | |
| DO3MHA-11 | 2026-09-01 12:33:27 | 49.45164 | 18.00389 | 116° | 22km/h | 27434m | 6.6m/s | -47.7°C | 2.7% | 0hPa | 2.6V | 00:00:00 | 01:53:37 | 00:00:00 | |
| OE5MMP-10 | 2026-09-01 12:33:25 | 49.45168 | 18.00380 | 123° | 24km/h | 27422m | 6.8m/s | -47.8°C | 2.8% | 0hPa | 2.6V | 00:00:00 | 01:53:35 | 00:00:00 | |
| OK1SLM-15 | 2026-09-01 12:33:23 | 49.45175 | 18.00368 | 144° | 26km/h | 27408m | 6.0m/s | 0°C | 0% | 0hPa | 2.6V | 00:00:00 | 00:00:00 | 00:00:00 | |
| PETON7-10 | 2026-09-01 12:33:22 | 49.45181 | 18.00362 | 154° | 22km/h | 27402m | 6.4m/s | -48.1°C | 2.8% | 0hPa | 2.6V | 00:00:00 | 00:00:00 | 00:00:00 | |
| PG1ADW-2 | 2026-09-01 12:33:19 | 49.45201 | 18.00355 | 172° | 18km/h | 27380m | 5.8m/s | -48.2°C | 2.8% | 0hPa | 2.6V | 00:00:00 | 00:00:00 | 00:00:00 | |
| DO3MHA-11 | 2026-09-01 12:33:17 | 49.45212 | 18.00349 | 143° | 20km/h | 27367m | 6.3m/s | -48.2°C | 2.9% | 0hPa | 2.6V | 00:00:00 | 01:53:27 | 00:00:00 | |
| OE5MMP-10 | 2026-09-01 12:33:15 | 49.45218 | 18.00336 | 110° | 20km/h | 27355m | 6.3m/s | -48.3°C | 2.8% | 0hPa | 2.6V | 00:00:00 | 01:53:25 | 00:00:00 | |
| SP3WXH-11 | 2026-09-01 12:33:10 | 49.45222 | 18.00305 | 111° | 24km/h | 27323m | 7.9m/s | -48.2°C | 0.6% | -1.0hPa | 2.6V | 00:00:00 | 00:00:00 | 00:00:00 | |
| DO3MHA-11 | 2026-09-01 12:33:07 | 49.45233 | 18.00279 | 137° | 13km/h | 27303m | 7.7m/s | -48.1°C | 2.8% | 0hPa | 2.6V | 00:00:00 | 01:53:17 | 00:00:00 | |
| OE5DXL-15 | 2026-09-01 12:33:05 | 49.45242 | 18.00269 | 154° | 9km/h | 27289m | 5.0m/s | -48.2°C | 2.9% | 0hPa | 2.6V | 00:00:00 | 00:00:00 | 00:00:00 | |
| PG1ADW-2 | 2026-09-01 12:32:59 | 49.45250 | 18.00252 | 29° | 9km/h | 27250m | 6.9m/s | -48.3°C | 2.8% | 0hPa | 2.6V | 00:00:00 | 00:00:00 | 00:00:00 | |
| OE5DRO-10 | 2026-09-01 12:32:58 | 49.45249 | 18.00251 | 71° | 9km/h | 27244m | 5.1m/s | -48.3°C | 2.8% | 0hPa | 2.6V | 00:00:00 | 00:00:00 | 00:00:00 | |
| DO3MHA-11 | 2026-09-01 12:32:57 | 49.45249 | 18.00249 | 109° | 15km/h | 27238m | 7.2m/s | -48.3°C | 2.8% | 0hPa | 2.6V | 00:00:00 | 01:53:07 | 00:00:00 | |
| OE5MMP-10 | 2026-09-01 12:32:55 | 49.45253 | 18.00241 | 135° | 13km/h | 27224m | 5.6m/s | -48.0°C | 2.7% | 0hPa | 2.6V | 00:00:00 | 01:53:05 | 00:00:00 | |
| HA6NAB-11 | 2026-09-01 12:32:53 | 49.45260 | 18.00233 | 154° | 18km/h | 27211m | 7.8m/s | -48.1°C | 0.6% | 0hPa | 2.6V | 00:00:00 | 00:00:00 | 00:00:00 | |
| PETON7-10 | 2026-09-01 12:32:52 | 49.45264 | 18.00230 | 160° | 7km/h | 27204m | 5.8m/s | -48.1°C | 2.7% | 0hPa | 2.6V | 00:00:00 | 00:00:00 | 00:00:00 | |
| DO3MHA-11 | 2026-09-01 12:32:47 | 49.45274 | 18.00215 | 109° | 5km/h | 27173m | 6.2m/s | -48.2°C | 2.7% | 0hPa | 2.6V | 00:00:00 | 01:52:57 | 00:00:00 | |
| HA6NAB-11 | 2026-09-01 12:32:46 | 49.45274 | 18.00215 | 109° | 5km/h | 27173m | 6.3m/s | -48.2°C | 0.6% | 0hPa | 2.6V | 00:00:00 | 00:00:00 | 00:00:00 | |
| OE5MMP-10 | 2026-09-01 12:32:45 | 49.45275 | 18.00215 | 257° | 5km/h | 27159m | 6.7m/s | -48.2°C | 2.8% | 0hPa | 2.6V | 00:00:00 | 01:52:55 | 00:00:00 | |
| HA6NAB-11 | 2026-09-01 12:32:41 | 49.45277 | 18.00218 | 165° | 7km/h | 27139m | 6.4m/s | -48.2°C | 0.6% | 0hPa | 2.6V | 00:00:00 | 00:00:00 | 00:00:00 | |
| OE5DRO-10 | 2026-09-01 12:32:39 | 49.45282 | 18.00214 | 151° | 9km/h | 27121m | 7.0m/s | -48.3°C | 2.8% | 0hPa | 2.6V | 00:00:00 | 00:00:00 | 00:00:00 | |
| DO3MHA-11 | 2026-09-01 12:32:37 | 49.45283 | 18.00213 | 104° | 9km/h | 27108m | 5.9m/s | -48.4°C | 2.8% | 0hPa | 2.7V | 00:00:00 | 01:52:47 | 08:30:00 | |
| OE5DXL-15 | 2026-09-01 12:32:35 | 49.45283 | 18.00210 | 112° | 9km/h | 27095m | 7.6m/s | -48.5°C | 2.9% | 0hPa | 2.7V | 00:00:00 | 00:00:00 | 00:00:00 | |
| OE3OSB-13 | 2026-09-01 12:32:34 | 49.45286 | 18.00207 | 165° | 5km/h | 27082m | 5.3m/s | -48.6°C | 0.6% | -1.0hPa | 2.7V | 00:00:00 | 00:00:00 | 00:00:00 | |
| HA6NAB-11 | 2026-09-01 12:32:29 | 49.45292 | 18.00214 | 223° | 16km/h | 27063m | 5.0m/s | -48.7°C | 0.7% | 0hPa | 2.7V | 00:00:00 | 00:00:00 | 00:00:00 | |
| DO3MHA-11 | 2026-09-01 12:32:27 | 49.45304 | 18.00222 | 184° | 9km/h | 27044m | 4.3m/s | -48.5°C | 2.8% | 0hPa | 2.7V | 00:00:00 | 01:52:37 | 00:00:00 | |
| OE5MMP-10 | 2026-09-01 12:32:25 | 49.45312 | 18.00222 | 183° | 7km/h | 27032m | 8.3m/s | -48.5°C | 2.8% | 0hPa | 2.7V | 00:00:00 | 01:52:35 | 00:00:00 | |
| HA6NAB-11 | 2026-09-01 12:32:23 | 49.45314 | 18.00223 | 186° | 7km/h | 27025m | 6.2m/s | -48.6°C | 0.6% | 0hPa | 2.7V | 00:00:00 | 00:00:00 | 00:00:00 | |
| PETON7-10 | 2026-09-01 12:32:22 | 49.45318 | 18.00222 | 162° | 7km/h | 27012m | 8.0m/s | -48.5°C | 2.8% | 0hPa | 2.7V | 00:00:00 | 01:52:32 | 00:00:00 | |
| OE5DRO-10 | 2026-09-01 12:32:21 | 49.45322 | 18.00219 | 167° | 5km/h | 27000m | 4.9m/s | -48.5°C | 2.8% | 0hPa | 2.7V | 00:00:00 | 00:00:00 | 00:00:00 | |
| PG1ADW-2 | 2026-09-01 12:32:19 | 49.45324 | 18.00219 | 186° | 7km/h | 26993m | 7.8m/s | -48.6°C | 2.8% | 0hPa | 2.7V | 00:00:00 | 00:00:00 | 00:00:00 | |
| DO3MHA-11 | 2026-09-01 12:32:17 | 49.45326 | 18.00222 | 229° | 7km/h | 26979m | 5.4m/s | -48.6°C | 2.9% | 0hPa | 2.7V | 00:00:00 | 01:52:27 | 00:00:00 | |
| OE5MMP-10 | 2026-09-01 12:32:15 | 49.45330 | 18.00226 | 192° | 7km/h | 26966m | 7.7m/s | -48.6°C | 2.9% | 0hPa | 2.7V | 00:00:00 | 01:52:25 | 00:00:00 | |
| SP3WXH-11 | 2026-09-01 12:32:08 | 49.45343 | 18.00226 | 162° | 5km/h | 26921m | 6.7m/s | -49.0°C | 0.6% | -1.0hPa | 2.7V | 00:00:00 | 00:00:00 | 00:00:00 | |
| DO3MHA-11 | 2026-09-01 12:32:07 | 49.45344 | 18.00226 | 157° | 7km/h | 26915m | 5.7m/s | -48.9°C | 2.9% | 0hPa | 2.7V | 00:00:00 | 01:52:17 | 00:00:00 | |
| OE5DXL-15 | 2026-09-01 12:32:06 | 49.45345 | 18.00225 | 299° | 11km/h | 26902m | 6.6m/s | -48.9°C | 2.9% | 0hPa | 2.6V | 00:00:00 | 00:00:00 | 00:00:00 | |
| OE3OSB-13 | 2026-09-01 12:32:03 | 49.45346 | 18.00226 | 162° | 5km/h | 26884m | 7.3m/s | -49.1°C | 0.6% | -1.0hPa | 2.6V | 00:00:00 | 00:00:00 | 00:00:00 | |
| OE5DRO-10 | 2026-09-01 12:32:01 | 49.45349 | 18.00225 | 153° | 15km/h | 26877m | 6.5m/s | -49.0°C | 2.9% | 0hPa | 2.6V | 00:00:00 | 00:00:00 | 00:00:00 | |
| OK1SLM-15 | 2026-09-01 12:31:59 | 49.45354 | 18.00219 | 139° | 13km/h | 26867m | 5.2m/s | 0°C | 0% | 0hPa | 2.6V | 00:00:00 | 00:00:00 | 00:00:00 | |
| DO3MHA-11 | 2026-09-01 12:31:57 | 49.45357 | 18.00212 | 97° | 16km/h | 26854m | 6.2m/s | -49.2°C | 3.0% | 0hPa | 2.6V | 00:00:00 | 01:52:07 | 00:00:00 | |
| OE5MMP-10 | 2026-09-01 12:31:55 | 49.45356 | 18.00204 | 78° | 16km/h | 26842m | 7.1m/s | -49.4°C | 3.0% | 0hPa | 2.6V | 00:00:00 | 01:52:05 | 00:00:00 | |
| PETON7-10 | 2026-09-01 12:31:52 | 49.45353 | 18.00187 | 57° | 13km/h | 26822m | 6.9m/s | -49.7°C | 3.0% | 0hPa | 2.6V | 00:00:00 | 00:00:00 | 00:00:00 | |
| DO3MHA-11 | 2026-09-01 12:31:47 | 49.45340 | 18.00158 | 97° | 11km/h | 26791m | 6.4m/s | -49.5°C | 3.0% | 0hPa | 2.6V | 00:00:00 | 01:51:57 | 00:00:00 | |
| OE5MMP-10 | 2026-09-01 12:31:45 | 49.45344 | 18.00147 | 133° | 9km/h | 26780m | 5.2m/s | -49.5°C | 3.1% | 0hPa | 2.6V | 00:00:00 | 01:51:55 | 00:00:00 | |
| OE5DRO-10 | 2026-09-01 12:31:42 | 49.45349 | 18.00142 | 127° | 9km/h | 26761m | 5.5m/s | -49.5°C | 3.1% | 0hPa | 2.6V | 00:00:00 | 00:00:00 | 00:00:00 | |
| PG1ADW-2 | 2026-09-01 12:31:39 | 49.45346 | 18.00136 | 34° | 9km/h | 26742m | 5.6m/s | -49.4°C | 3.0% | 0hPa | 2.7V | 00:00:00 | 00:00:00 | 00:00:00 | |
| PETON7-10 | 2026-09-01 12:31:37 | 49.45340 | 18.00132 | 15° | 9km/h | 26727m | 6.4m/s | -49.4°C | 3.0% | 0hPa | 2.6V | 00:00:00 | 01:51:47 | 00:00:00 | |
| OE5MMP-10 | 2026-09-01 12:31:35 | 49.45334 | 18.00127 | 52° | 11km/h | 26716m | 7.4m/s | -49.3°C | 2.9% | 0hPa | 2.6V | 00:00:00 | 01:51:45 | 00:00:00 | |
| OE3OSB-13 | 2026-09-01 12:31:32 | 49.45340 | 18.00114 | 177° | 13km/h | 26690m | 8.5m/s | -49.5°C | 0.6% | -1.0hPa | 2.6V | 00:00:00 | 00:00:00 | 00:00:00 | |
| DO3MHA-11 | 2026-09-01 12:31:27 | 49.45349 | 18.00120 | 294° | 7km/h | 26665m | 6.6m/s | -49.3°C | 3.1% | 0hPa | 2.6V | 00:00:00 | 01:51:37 | 00:00:00 | |
| OE5MMP-10 | 2026-09-01 12:31:25 | 49.45347 | 18.00121 | 346° | 9km/h | 26652m | 7.3m/s | -49.2°C | 3.0% | 0hPa | 2.6V | 00:00:00 | 01:51:35 | 00:00:00 | |
| OE5DRO-10 | 2026-09-01 12:31:23 | 49.45344 | 18.00122 | 12° | 11km/h | 26639m | 5.1m/s | -49.3°C | 3.0% | 0hPa | 2.6V | 00:00:00 | 00:00:00 | 00:00:00 | |
| PETON7-10 | 2026-09-01 12:31:22 | 49.45343 | 18.00121 | 71° | 13km/h | 26633m | 7.2m/s | -49.3°C | 2.9% | 0hPa | 2.6V | 00:00:00 | 00:00:00 | 00:00:00 | |
| PG1ADW-2 | 2026-09-01 12:31:19 | 49.45346 | 18.00110 | 138° | 13km/h | 26613m | 5.8m/s | -49.2°C | 2.9% | 0hPa | 2.6V | 00:00:00 | 01:51:29 | 00:00:00 | |
| DO3MHA-11 | 2026-09-01 12:31:17 | 49.45351 | 18.00106 | 180° | 15km/h | 26600m | 5.6m/s | -49.1°C | 2.9% | 0hPa | 2.6V | 00:00:00 | 01:51:27 | 00:00:00 | |
| OE5MMP-10 | 2026-09-01 12:31:15 | 49.45354 | 18.00107 | 174° | 13km/h | 26589m | 6.0m/s | -49.0°C | 3.0% | 0hPa | 2.6V | 00:00:00 | 01:51:25 | 00:00:00 | |
| PETON7-10 | 2026-09-01 12:31:07 | 49.45325 | 18.00096 | 44° | 11km/h | 26540m | 6.5m/s | -49.2°C | 2.9% | 0hPa | 2.6V | 00:00:00 | 00:00:00 | 00:00:00 | |
| SP3WXH-11 | 2026-09-01 12:31:06 | 49.45325 | 18.00095 | 137° | 7km/h | 26532m | 8.1m/s | -49.2°C | 0.6% | -1.0hPa | 2.6V | 00:00:00 | 00:00:00 | 00:00:00 | |
| OE5DXL-15 | 2026-09-01 12:31:05 | 49.45328 | 18.00092 | 155° | 11km/h | 26526m | 6.1m/s | -49.2°C | 2.9% | 0hPa | 2.6V | 00:00:00 | 00:00:00 | 00:00:00 | |
| OE5DRO-10 | 2026-09-01 12:31:04 | 49.45332 | 18.00090 | 168° | 9km/h | 26520m | 5.2m/s | -49.2°C | 2.9% | 0hPa | 2.6V | 00:00:00 | 00:00:00 | 00:00:00 | |
| OE3OSB-13 | 2026-09-01 12:31:01 | 49.45347 | 18.00092 | 218° | 2km/h | 26495m | 7.4m/s | -49.1°C | 0.6% | -1.0hPa | 2.6V | 00:00:00 | 00:00:00 | 00:00:00 | |
| PG1ADW-2 | 2026-09-01 12:30:59 | 49.45347 | 18.00092 | 17° | 9km/h | 26488m | 7.2m/s | -49.1°C | 2.9% | 0hPa | 2.6V | 00:00:00 | 00:00:00 | 00:00:00 | |
| DO3MHA-11 | 2026-09-01 12:30:57 | 49.45343 | 18.00091 | 7° | 9km/h | 26475m | 7.1m/s | -49.3°C | 3.1% | 0hPa | 2.6V | 00:00:00 | 01:51:07 | 00:00:00 | |
| OE5MMP-10 | 2026-09-01 12:30:55 | 49.45338 | 18.00091 | 6° | 9km/h | 26461m | 5.3m/s | -49.1°C | 3.0% | 0hPa | 2.6V | 00:00:00 | 01:51:05 | 00:00:00 | |
| PETON7-10 | 2026-09-01 12:30:52 | 49.45335 | 18.00084 | 99° | 11km/h | 26442m | 6.0m/s | -49.2°C | 2.9% | 0hPa | 2.6V | 00:00:00 | 01:51:02 | 00:00:00 | |
| HA6NAB-11 | 2026-09-01 12:30:51 | 49.45336 | 18.00079 | 116° | 13km/h | 26436m | 5.1m/s | -49.3°C | 0.7% | 0hPa | 2.6V | 00:00:00 | 00:00:00 | 00:00:00 | |
| OE5DRO-10 | 2026-09-01 12:30:45 | 49.45344 | 18.00068 | 75° | 15km/h | 26397m | 6.5m/s | -49.1°C | 3.0% | 0hPa | 2.6V | 00:00:00 | 00:00:00 | 08:30:00 | |
| DB0DAN | 2026-09-01 12:30:40 | 49.45338 | 18.00053 | 58° | 11km/h | 26367m | 4.6m/s | -49.2°C | 0.6% | 0hPa | 2.6V | 00:00:00 | 00:00:00 | 00:00:00 | |
| PG1ADW-2 | 2026-09-01 12:30:39 | 49.45336 | 18.00048 | 66° | 18km/h | 26362m | 6.6m/s | -49.1°C | 2.9% | 0hPa | 2.6V | 00:00:00 | 00:00:00 | 08:30:00 | |
| PETON7-10 | 2026-09-01 12:30:37 | 49.45333 | 18.00035 | 79° | 18km/h | 26348m | 6.0m/s | -49.2°C | 2.9% | 0hPa | 2.7V | 00:00:00 | 00:00:00 | 00:00:00 | |
| HA6NAB-11 | 2026-09-01 12:30:35 | 49.45333 | 18.00022 | 96° | 15km/h | 26335m | 6.8m/s | -49.3°C | 0.7% | 0hPa | 2.6V | 00:00:00 | 00:00:00 | 00:00:00 | |
| OK1SLM-15 | 2026-09-01 12:30:34 | 49.45333 | 18.00022 | 96° | 15km/h | 26335m | 6.8m/s | 0°C | 0% | 0hPa | 2.6V | 00:00:00 | 00:00:00 | 00:00:00 | |
| HA6NAB-11 | 2026-09-01 12:30:30 | 49.45322 | 18.00007 | 7° | 22km/h | 26303m | 5.8m/s | -49.5°C | 0.7% | 0hPa | 2.6V | 00:00:00 | 00:00:00 | 00:00:00 | |
| OK1SLM-15 | 2026-09-01 12:30:29 | 49.45322 | 18.00007 | 7° | 22km/h | 26303m | 5.8m/s | 0°C | 0% | 0hPa | 2.6V | 00:00:00 | 00:00:00 | 00:00:00 | |
| DB0DAN | 2026-09-01 12:30:25 | 49.45297 | 18.00003 | 36° | 22km/h | 26270m | 8.6m/s | -49.5°C | 0.6% | 0hPa | 2.6V | 00:00:00 | 00:00:00 | 00:00:00 | |
| HA6NAB-11 | 2026-09-01 12:30:25 | 49.45297 | 18.00003 | 37° | 22km/h | 26271m | 8.6m/s | -49.5°C | 0.7% | 0hPa | 2.6V | 00:00:00 | 00:00:00 | 00:00:00 | |
| PETON7-10 | 2026-09-01 12:30:22 | 49.45286 | 17.99981 | 59° | 16km/h | 26250m | 8.0m/s | -49.6°C | 3.0% | 0hPa | 2.6V | 00:00:00 | 00:00:00 | 00:00:00 | |
| HA6NAB-11 | 2026-09-01 12:30:20 | 49.45277 | 17.99962 | 50° | 20km/h | 26230m | 8.3m/s | -49.6°C | 0.7% | 0hPa | 2.6V | 00:00:00 | 00:00:00 | 00:00:00 | |
| DO3MHA-11 | 2026-09-01 12:30:19 | 49.45269 | 17.99953 | 28° | 15km/h | 26216m | 6.0m/s | -49.6°C | 3.0% | 0hPa | 2.6V | 00:00:00 | 01:50:27 | 00:00:00 | |
| OE5MMP-10 | 2026-09-01 12:30:15 | 49.45261 | 17.99950 | 352° | 13km/h | 26201m | 6.6m/s | -49.5°C | 3.0% | 0hPa | 2.6V | 00:00:00 | 01:50:25 | 00:00:00 | |
| DO3MHA-11 | 2026-09-01 12:30:07 | 49.45239 | 17.99937 | 43° | 18km/h | 26150m | 5.3m/s | -49.5°C | 3.0% | 0hPa | 2.6V | 00:00:00 | 01:50:17 | 00:00:00 | |
| OE5DXL-15 | 2026-09-01 12:30:05 | 49.45234 | 17.99929 | 45° | 13km/h | 26137m | 6.8m/s | -49.5°C | 3.1% | 0hPa | 2.7V | 00:00:00 | 00:00:00 | 08:30:00 | |
| SP3WXH-11 | 2026-09-01 12:30:04 | 49.45226 | 17.99921 | 20° | 18km/h | 26125m | 5.4m/s | -49.6°C | 0.6% | -1.0hPa | 2.6V | 00:00:00 | 00:00:00 | 00:00:00 | |
| OE3OSB-13 | 2026-09-01 12:29:58 | 49.45202 | 17.99927 | 357° | 15km/h | 26093m | 8.2m/s | -49.6°C | 0.6% | -1.0hPa | 2.6V | 00:00:00 | 00:00:00 | 00:00:00 | |
| DB0DAN | 2026-09-01 12:29:55 | 49.45194 | 17.99925 | 2° | 5km/h | 26073m | 9m/s | -49.5°C | 0.6% | 0hPa | 2.6V | 00:00:00 | 00:00:00 | 00:00:00 | |
| OE5MMP-10 | 2026-09-01 12:29:55 | 49.45194 | 17.99925 | 2° | 7km/h | 26074m | 9.0m/s | -49.5°C | 3.0% | 0hPa | 2.7V | 00:00:00 | 01:50:05 | 00:00:00 | |
| PETON7-10 | 2026-09-01 12:29:52 | 49.45194 | 17.99923 | 106° | 11km/h | 26053m | 9.2m/s | -49.5°C | 3.1% | 0hPa | 2.7V | 00:00:00 | 00:00:00 | 08:30:00 | |
| OE5DRO-10 | 2026-09-01 12:29:48 | 49.45193 | 17.99917 | 317° | 13km/h | 26026m | 8.0m/s | -49.4°C | 3.1% | 0hPa | 2.7V | 00:00:00 | 00:00:00 | 00:00:00 | |
| DO3MHA-11 | 2026-09-01 12:29:47 | 49.45190 | 17.99920 | 322° | 13km/h | 26020m | 4.4m/s | -49.5°C | 3.0% | 0hPa | 2.6V | 00:00:00 | 01:49:57 | 00:00:00 | |
| OE5MMP-10 | 2026-09-01 12:29:45 | 49.45183 | 17.99926 | 343° | 11km/h | 26006m | 9.0m/s | -49.5°C | 3.0% | 0hPa | 2.6V | 00:00:00 | 01:49:55 | 00:00:00 | |
| DB0DAN | 2026-09-01 12:29:40 | 49.45171 | 17.99937 | 230° | 5km/h | 25975m | 5.5m/s | -49.1°C | 0.6% | 0hPa | 2.6V | 00:00:00 | 00:00:00 | 00:00:00 | |
| PG1ADW-2 | 2026-09-01 12:29:39 | 49.45173 | 17.99938 | 191° | 15km/h | 25968m | 8.9m/s | -49.1°C | 2.8% | 0hPa | 2.6V | 00:00:00 | 00:00:00 | 00:00:00 | |
| DO3MHA-11 | 2026-09-01 12:29:37 | 49.45177 | 17.99938 | 175° | 15km/h | 25955m | 4.3m/s | -49.1°C | 2.9% | 0hPa | 2.7V | 00:00:00 | 01:49:47 | 08:30:00 | |
| OE5DXL-15 | 2026-09-01 12:29:35 | 49.45181 | 17.99940 | 240° | 13km/h | 25941m | 8.5m/s | -49.2°C | 3.0% | 0hPa | 2.7V | 00:00:00 | 01:49:45 | 00:00:00 | |
| SP3WXH-11 | 2026-09-01 12:29:33 | 49.45180 | 17.99955 | 297° | 13km/h | 25921m | 8.2m/s | -49.2°C | 0.6% | -1.0hPa | 2.7V | 00:00:00 | 00:00:00 | 00:00:00 | |
| OE5DRO-10 | 2026-09-01 12:29:29 | 49.45177 | 17.99970 | 271° | 15km/h | 25902m | 7.5m/s | -49.2°C | 2.9% | 0hPa | 2.7V | 00:00:00 | 00:00:00 | 00:00:00 | |
| DB0DAN | 2026-09-01 12:29:25 | 49.45185 | 17.99980 | 174° | 15km/h | 25876m | 5.8m/s | -49.3°C | 0.6% | 0hPa | 2.7V | 00:00:00 | 00:00:00 | 00:00:00 | |
| OE5MMP-10 | 2026-09-01 12:29:25 | 49.45185 | 17.99980 | 174° | 16km/h | 25877m | 5.7m/s | -49.2°C | 2.9% | 0hPa | 2.7V | 00:00:00 | 01:49:35 | 00:00:00 | |
| PETON7-10 | 2026-09-01 12:29:22 | 49.45199 | 17.99982 | 205° | 11km/h | 25858m | 5.4m/s | -49.3°C | 2.9% | 0hPa | 2.7V | 00:00:00 | 01:49:32 | 00:00:00 | |
| DO3MHA-11 | 2026-09-01 12:29:21 | 49.45203 | 17.99986 | 216° | 15km/h | 25852m | 5.4m/s | -49.3°C | 2.9% | 0hPa | 2.7V | 00:00:00 | 01:49:31 | 00:00:00 | |
| PG1ADW-2 | 2026-09-01 12:29:19 | 49.45209 | 17.99994 | 245° | 9km/h | 25839m | 5.9m/s | -49.4°C | 2.9% | 0hPa | 2.7V | 00:00:00 | 00:00:00 | 00:00:00 | |
| OE5MMP-10 | 2026-09-01 12:29:15 | 49.45210 | 18.00017 | 264° | 9km/h | 25816m | 5.6m/s | -49.6°C | 3.0% | 0hPa | 2.7V | 00:00:00 | 01:49:25 | 00:00:00 | |
| DB0DAN | 2026-09-01 12:29:10 | 49.45213 | 18.00032 | 159° | 2km/h | 25787m | 4.5m/s | -49.8°C | 0.6% | 0hPa | 2.7V | 00:00:00 | 00:00:00 | 00:00:00 | |
| OE5DRO-10 | 2026-09-01 12:29:10 | 49.45213 | 18.00032 | 160° | 9km/h | 25787m | 4.4m/s | -49.7°C | 2.9% | 0hPa | 2.6V | 00:00:00 | 00:00:00 | 00:00:00 | |
| PETON7-10 | 2026-09-01 12:29:07 | 49.45215 | 18.00037 | 244° | 9km/h | 25769m | 4.5m/s | -49.8°C | 2.9% | 0hPa | 2.6V | 00:00:00 | 00:00:00 | 00:00:00 | |
| OE5DXL-15 | 2026-09-01 12:29:05 | 49.45218 | 18.00043 | 241° | 9km/h | 25757m | 7.1m/s | -50.0°C | 3.0% | 0hPa | 2.6V | 00:00:00 | 00:00:00 | 00:00:00 | |
| OK1SLM-15 | 2026-09-01 12:29:04 | 49.45218 | 18.00043 | 242° | 7km/h | 25757m | 7.2m/s | 0°C | 0% | 0hPa | 2.6V | 00:00:00 | 00:00:00 | 00:00:00 | |
| SP3WXH-11 | 2026-09-01 12:29:02 | 49.45222 | 18.00056 | 242° | 11km/h | 25732m | 5.0m/s | -50.2°C | 0.6% | -1.0hPa | 2.6V | 00:00:00 | 00:00:00 | 00:00:00 | |
| OE3OSB-13 | 2026-09-01 12:28:56 | 49.45229 | 18.00054 | 106° | 13km/h | 25702m | 6.0m/s | -50.3°C | 0.7% | -1.0hPa | 2.6V | 00:00:00 | 00:00:00 | 00:00:00 | |
| OE5MMP-10 | 2026-09-01 12:28:55 | 49.45230 | 18.00049 | 110° | 9km/h | 25696m | 6.5m/s | -50.2°C | 3.1% | 0hPa | 2.6V | 00:00:00 | 01:49:05 | 00:00:00 | |
| HA6NAB-11 | 2026-09-01 12:28:53 | 49.45231 | 18.00044 | 118° | 9km/h | 25690m | 6.0m/s | -50.2°C | 0.7% | 0hPa | 2.6V | 00:00:00 | 00:00:00 | 00:00:00 | |
| PETON7-10 | 2026-09-01 12:28:52 | 49.45232 | 18.00039 | 96° | 7km/h | 25679m | 5.5m/s | -50.2°C | 3.1% | 0hPa | 2.6V | 00:00:00 | 00:00:00 | 00:00:00 | |
| OE5DRO-10 | 2026-09-01 12:28:51 | 49.45232 | 18.00036 | 75° | 9km/h | 25672m | 7.6m/s | -50.2°C | 3.1% | 0hPa | 2.6V | 00:00:00 | 00:00:00 | 00:00:00 | |
| HA6NAB-11 | 2026-09-01 12:28:47 | 49.45227 | 18.00030 | 7° | 9km/h | 25655m | 7.8m/s | -50.2°C | 0.7% | 0hPa | 2.6V | 00:00:00 | 00:00:00 | 00:00:00 | |
| OE5MMP-10 | 2026-09-01 12:28:45 | 49.45220 | 18.00032 | 5° | 7km/h | 25637m | 7.0m/s | -50.2°C | 3.0% | 0hPa | 2.6V | 00:00:00 | 01:48:55 | 00:00:00 | |
| DO3MHA-11 | 2026-09-01 12:28:41 | 49.45215 | 18.00024 | 79° | 9km/h | 25612m | 6.6m/s | -50.3°C | 3.1% | 0hPa | 2.6V | 00:00:00 | 01:48:51 | 00:00:00 | |
| PG1ADW-2 | 2026-09-01 12:28:39 | 49.45214 | 18.00021 | 56° | 11km/h | 25601m | 6.2m/s | -50.3°C | 3.1% | 0hPa | 2.6V | 00:00:00 | 01:48:49 | 00:00:00 | |
| PETON7-10 | 2026-09-01 12:28:37 | 49.45212 | 18.00017 | 26° | 11km/h | 25589m | 4.4m/s | -50.4°C | 3.1% | 0hPa | 2.7V | 00:00:00 | 01:48:47 | 00:00:00 | |
| OE5DXL-15 | 2026-09-01 12:28:35 | 49.45208 | 18.00018 | 315° | 13km/h | 25577m | 7.5m/s | -50.4°C | 3.1% | 0hPa | 2.7V | 00:00:00 | 00:00:00 | 00:00:00 | |
| OE5DRO-10 | 2026-09-01 12:28:32 | 49.45203 | 18.00029 | 317° | 13km/h | 25558m | 6.6m/s | -50.4°C | 3.0% | 0hPa | 2.6V | 00:00:00 | 00:00:00 | 00:00:00 | |
| SP3WXH-11 | 2026-09-01 12:28:31 | 49.45197 | 18.00037 | 315° | 13km/h | 25547m | 5.1m/s | -50.5°C | 0.6% | -1.0hPa | 2.6V | 00:00:00 | 00:00:00 | 00:00:00 | |
| HA6NAB-11 | 2026-09-01 12:28:30 | 49.45197 | 18.00037 | 316° | 15km/h | 25548m | 5.1m/s | -50.5°C | 0.7% | 0hPa | 2.6V | 00:00:00 | 00:00:00 | 00:00:00 | |
| OE5MMP-10 | 2026-09-01 12:28:25 | 49.45187 | 18.00050 | 31° | 13km/h | 25517m | 6.2m/s | -50.4°C | 3.1% | 0hPa | 2.6V | 00:00:00 | 01:48:35 | 00:00:00 | |
| PETON7-10 | 2026-09-01 12:28:22 | 49.45181 | 18.00044 | 3° | 13km/h | 25501m | 6.2m/s | -50.4°C | 3.1% | 0hPa | 2.6V | 00:00:00 | 00:00:00 | 00:00:00 | |
| DO3MHA-11 | 2026-09-01 12:28:21 | 49.45178 | 18.00045 | 332° | 13km/h | 25495m | 5.5m/s | -50.4°C | 3.0% | 0hPa | 2.7V | 00:00:00 | 01:48:31 | 00:00:00 | |
| PG1ADW-2 | 2026-09-01 12:28:19 | 49.45173 | 18.00051 | 319° | 15km/h | 25484m | 5.9m/s | -50.5°C | 3.1% | 0hPa | 2.7V | 00:00:00 | 00:00:00 | 00:00:00 | |
| OE5MMP-10 | 2026-09-01 12:28:15 | 49.45163 | 18.00068 | 291° | 15km/h | 25461m | 7.0m/s | -50.5°C | 3.0% | 0hPa | 2.7V | 00:00:00 | 01:48:25 | 00:00:00 | |
| OE5DRO-10 | 2026-09-01 12:28:13 | 49.45161 | 18.00077 | 286° | 15km/h | 25450m | 4.0m/s | -50.5°C | 3.1% | 0hPa | 2.7V | 00:00:00 | 00:00:00 | 00:00:00 | |
| DO3MHA-11 | 2026-09-01 12:28:11 | 49.45158 | 18.00082 | 354° | 15km/h | 25439m | 6.8m/s | -50.5°C | 3.1% | 0hPa | 2.7V | 00:00:00 | 01:48:21 | 00:00:00 | |
| PETON7-10 | 2026-09-01 12:28:07 | 49.45142 | 18.00086 | 332° | 15km/h | 25417m | 5.1m/s | -50.6°C | 3.1% | 0hPa | 2.7V | 00:00:00 | 00:00:00 | 00:00:00 | |
| OE5DXL-15 | 2026-09-01 12:28:05 | 49.45136 | 18.00094 | 312° | 15km/h | 25407m | 6.8m/s | -50.6°C | 3.1% | 0hPa | 2.7V | 00:00:00 | 00:00:00 | 00:00:00 | |
| SP3WXH-11 | 2026-09-01 12:28:00 | 49.45126 | 18.00125 | 285° | 13km/h | 25372m | 7.0m/s | -50.9°C | 0.7% | -1.0hPa | 2.7V | 00:00:00 | 00:00:00 | 00:00:00 | |
| OE3OSB-13 | 2026-09-01 12:27:55 | 49.45120 | 18.00146 | 317° | 13km/h | 25342m | 5.3m/s | -51.2°C | 0.7% | -1.0hPa | 2.7V | 00:00:00 | 00:00:00 | 00:00:00 | |
| OE5DRO-10 | 2026-09-01 12:27:54 | 49.45120 | 18.00146 | 318° | 15km/h | 25342m | 5.2m/s | -51.1°C | 3.2% | 0hPa | 2.7V | 00:00:00 | 00:00:00 | 08:30:00 | |
| PETON7-10 | 2026-09-01 12:27:52 | 49.45114 | 18.00151 | 345° | 15km/h | 25329m | 6.1m/s | -51.1°C | 3.2% | 0hPa | 2.7V | 00:00:00 | 01:48:02 | 00:00:00 | |
| DO3MHA-11 | 2026-09-01 12:27:51 | 49.45112 | 18.00153 | 342° | 18km/h | 25324m | 4.0m/s | -51.2°C | 3.2% | 0hPa | 2.7V | 00:00:00 | 01:48:01 | 00:00:00 | |
| OK1SLM-15 | 2026-09-01 12:27:50 | 49.45112 | 18.00153 | 343° | 11km/h | 25324m | 4.0m/s | 0°C | 0% | 0hPa | 2.7V | 00:00:00 | 00:00:00 | 00:00:00 | |
| OK1SLM-15 | 2026-09-01 12:27:47 | 49.45102 | 18.00176 | 270° | 18km/h | 25296m | 7.1m/s | 0°C | 0% | 0hPa | 2.7V | 00:00:00 | 00:00:00 | 00:00:00 | |
| OE5MMP-10 | 2026-09-01 12:27:45 | 49.45103 | 18.00183 | 254° | 13km/h | 25289m | 6.2m/s | -51.5°C | 3.2% | 0hPa | 2.7V | 00:00:00 | 01:47:55 | 00:00:00 | |
| DO3MHA-11 | 2026-09-01 12:27:41 | 49.45110 | 18.00213 | 253° | 9km/h | 25266m | 4.0m/s | -51.5°C | 3.3% | 0hPa | 2.7V | 00:00:00 | 01:47:51 | 00:00:00 | |
| OK1SLM-15 | 2026-09-01 12:27:40 | 49.45110 | 18.00213 | 254° | 18km/h | 25266m | 4.1m/s | 0°C | 0% | 0hPa | 2.7V | 00:00:00 | 00:00:00 | 00:00:00 | |
| PG1ADW-2 | 2026-09-01 12:27:39 | 49.45112 | 18.00223 | 236° | 9km/h | 25255m | 6.8m/s | -51.5°C | 3.3% | 0hPa | 2.7V | 00:00:00 | 00:00:00 | 08:30:00 | |
| PETON7-10 | 2026-09-01 12:27:37 | 49.45113 | 18.00225 | 329° | 9km/h | 25244m | 5.1m/s | -51.6°C | 3.3% | 0hPa | 2.6V | 00:00:00 | 00:00:00 | 08:30:00 | |
| OE5DXL-15 | 2026-09-01 12:27:35 | 49.45111 | 18.00228 | 323° | 9km/h | 25231m | 5.8m/s | -51.6°C | 3.3% | 0hPa | 2.6V | 00:00:00 | 00:00:00 | 00:00:00 | |
| OK1SLM-15 | 2026-09-01 12:27:34 | 49.45111 | 18.00228 | 324° | 9km/h | 25231m | 5.9m/s | 0°C | 0% | 0hPa | 2.6V | 00:00:00 | 00:00:00 | 00:00:00 | |
| DO3MHA-11 | 2026-09-01 12:27:31 | 49.45105 | 18.00240 | 275° | 9km/h | 25208m | 4.5m/s | -51.4°C | 3.3% | 0hPa | 2.6V | 00:00:00 | 01:47:41 | 00:00:00 | |
| SP3WXH-11 | 2026-09-01 12:27:29 | 49.45106 | 18.00256 | 256° | 13km/h | 25191m | 4.7m/s | -51.6°C | 0.7% | -1.0hPa | 2.7V | 00:00:00 | 00:00:00 | 00:00:00 | |
| OE5MMP-10 | 2026-09-01 12:27:25 | 49.45110 | 18.00262 | 164° | 7km/h | 25173m | 6.4m/s | -51.3°C | 3.3% | 0hPa | 2.7V | 00:00:00 | 01:47:35 | 00:00:00 | |
| OE3OSB-13 | 2026-09-01 12:27:23 | 49.45112 | 18.00260 | 61° | 2km/h | 25160m | 6.6m/s | -51.3°C | 0.7% | -1.0hPa | 2.7V | 00:00:00 | 00:00:00 | 00:00:00 | |
| PETON7-10 | 2026-09-01 12:27:22 | 49.45111 | 18.00259 | 2° | 7km/h | 25154m | 5.2m/s | -51.3°C | 3.2% | 0hPa | 2.7V | 00:00:00 | 00:00:00 | 00:00:00 | |
| DO3MHA-11 | 2026-09-01 12:27:21 | 49.45109 | 18.00259 | 351° | 9km/h | 25150m | 4.1m/s | -51.3°C | 3.2% | 0hPa | 2.7V | 00:00:00 | 01:47:31 | 00:00:00 | |
| PG1ADW-2 | 2026-09-01 12:27:19 | 49.45106 | 18.00260 | 353° | 9km/h | 25138m | 6.7m/s | -51.3°C | 3.2% | 0hPa | 2.7V | 00:00:00 | 01:47:29 | 00:00:00 | |
| HA6NAB-11 | 2026-09-01 12:27:17 | 49.45102 | 18.00262 | 325° | 9km/h | 25126m | 6.2m/s | -51.4°C | 0.8% | 0hPa | 2.7V | 00:00:00 | 00:00:00 | 00:00:00 | |
| OE5DRO-10 | 2026-09-01 12:27:16 | 49.45100 | 18.00265 | 317° | 11km/h | 25119m | 7.5m/s | -51.4°C | 3.3% | 0hPa | 2.7V | 00:00:00 | 00:00:00 | 00:00:00 | |
| OE5MMP-10 | 2026-09-01 12:27:15 | 49.45097 | 18.00269 | 311° | 7km/h | 25113m | 5.3m/s | -51.4°C | 3.3% | 0hPa | 2.7V | 00:00:00 | 01:47:25 | 00:00:00 | |
| DO3MHA-11 | 2026-09-01 12:27:11 | 49.45095 | 18.00279 | 227° | 9km/h | 25088m | 6.1m/s | -51.4°C | 3.3% | 0hPa | 2.7V | 00:00:00 | 01:47:21 | 00:00:00 | |
| HA6NAB-11 | 2026-09-01 12:27:10 | 49.45095 | 18.00278 | 228° | 4km/h | 25088m | 6.1m/s | -51.5°C | 0.8% | 0hPa | 2.7V | 00:00:00 | 00:00:00 | 00:00:00 | |
| PETON7-10 | 2026-09-01 12:27:07 | 49.45097 | 18.00279 | 103° | 13km/h | 25065m | 7.1m/s | -51.5°C | 3.3% | 0hPa | 2.7V | 00:00:00 | 01:47:17 | 00:00:00 | |
| OE5DXL-15 | 2026-09-01 12:27:05 | 49.45095 | 18.00273 | 39° | 13km/h | 25054m | 4.3m/s | -51.5°C | 3.3% | 0hPa | 2.7V | 00:00:00 | 00:00:00 | 00:00:00 | |
| OE5MMP-10 | 2026-09-01 12:27:04 | 49.45092 | 18.00270 | 18° | 13km/h | 25048m | 7.3m/s | -51.6°C | 3.3% | 0hPa | 2.6V | 00:00:00 | 01:47:14 | 00:00:00 | |
| SP3WXH-11 | 2026-09-01 12:26:58 | 49.45070 | 18.00285 | 304° | 7km/h | 25004m | 6.2m/s | -51.5°C | 0.7% | -1.0hPa | 2.6V | 00:00:00 | 00:00:00 | 00:00:00 | |
| OE5DRO-10 | 2026-09-01 12:26:57 | 49.45070 | 18.00285 | 305° | 11km/h | 25004m | 6.2m/s | -51.4°C | 3.4% | 0hPa | 2.6V | 00:00:00 | 00:00:00 | 00:00:00 | |
| HA6NAB-11 | 2026-09-01 12:26:55 | 49.45068 | 18.00285 | 59° | 5km/h | 24992m | 7.7m/s | -51.3°C | 0.8% | 0hPa | 2.7V | 00:00:00 | 00:00:00 | 00:00:00 | |
| OE5MMP-10 | 2026-09-01 12:26:54 | 49.45068 | 18.00282 | 72° | 13km/h | 24985m | 6.4m/s | -51.2°C | 3.3% | 0hPa | 2.7V | 00:00:00 | 01:47:04 | 00:00:00 | |
| PETON7-10 | 2026-09-01 12:26:52 | 49.45064 | 18.00272 | 46° | 11km/h | 24974m | 6.7m/s | -51.2°C | 3.3% | 0hPa | 2.7V | 00:00:00 | 00:00:00 | 00:00:00 | |
| DO3MHA-11 | 2026-09-01 12:26:51 | 49.45060 | 18.00269 | 25° | 11km/h | 24967m | 8.2m/s | -51.2°C | 3.3% | 0hPa | 2.6V | 00:00:00 | 01:47:01 | 00:00:00 | |
| HA6NAB-11 | 2026-09-01 12:26:48 | 49.45053 | 18.00267 | 8° | 15km/h | 24955m | 6.1m/s | -51.1°C | 0.8% | 0hPa | 2.6V | 00:00:00 | 00:00:00 | 00:00:00 | |
| OE5MMP-10 | 2026-09-01 12:26:44 | 49.45042 | 18.00262 | 357° | 11km/h | 24920m | 5.3m/s | -50.9°C | 3.2% | 0hPa | 2.6V | 00:00:00 | 01:46:54 | 00:00:00 | |
| DO3MHA-11 | 2026-09-01 12:26:41 | 49.45036 | 18.00258 | 43° | 11km/h | 24901m | 5.9m/s | -50.9°C | 3.2% | 0hPa | 2.6V | 00:00:00 | 01:46:51 | 00:00:00 | |
| PG1ADW-2 | 2026-09-01 12:26:39 | 49.45031 | 18.00253 | 22° | 7km/h | 24888m | 8.4m/s | -50.9°C | 3.2% | 0hPa | 2.6V | 00:00:00 | 00:00:00 | 00:00:00 | |
| OE5DRO-10 | 2026-09-01 12:26:38 | 49.45027 | 18.00251 | 9° | 7km/h | 24881m | 5.6m/s | -50.9°C | 3.2% | 0hPa | 2.6V | 00:00:00 | 00:00:00 | 00:00:00 | |
| PETON7-10 | 2026-09-01 12:26:37 | 49.45024 | 18.00251 | 3° | 7km/h | 24876m | 5.3m/s | -50.9°C | 3.2% | 0hPa | 2.6V | 00:00:00 | 00:00:00 | 00:00:00 | |
| OE5DXL-15 | 2026-09-01 12:26:35 | 49.45019 | 18.00251 | 345° | 9km/h | 24862m | 6.1m/s | -50.8°C | 3.2% | 0hPa | 2.6V | 00:00:00 | 00:00:00 | 00:00:00 | |
| OE5MMP-10 | 2026-09-01 12:26:34 | 49.45017 | 18.00252 | 319° | 7km/h | 24856m | 5.8m/s | -50.8°C | 3.2% | 0hPa | 2.6V | 00:00:00 | 01:46:44 | 08:30:00 | |
| DO3MHA-11 | 2026-09-01 12:26:31 | 49.45014 | 18.00261 | 277° | 5km/h | 24836m | 6.5m/s | -50.8°C | 3.2% | 0hPa | 2.7V | 00:00:00 | 01:46:41 | 08:30:00 | |
| SP3WXH-11 | 2026-09-01 12:26:27 | 49.45014 | 18.00270 | 341° | 5km/h | 24803m | 6.3m/s | -50.9°C | 0.7% | -1.0hPa | 2.7V | 00:00:00 | 00:00:00 | 00:00:00 | |
| OE5MMP-10 | 2026-09-01 12:26:24 | 49.45011 | 18.00270 | 4° | 9km/h | 24791m | 7.0m/s | -50.7°C | 3.2% | 0hPa | 2.7V | 00:00:00 | 01:46:34 | 00:00:00 | |
| PETON7-10 | 2026-09-01 12:26:22 | 49.45009 | 18.00270 | 321° | 11km/h | 24778m | 5.3m/s | -50.8°C | 3.2% | 0hPa | 2.7V | 00:00:00 | 01:46:32 | 00:00:00 | |
| OE3OSB-13 | 2026-09-01 12:26:21 | 49.45009 | 18.00271 | 286° | 4km/h | 24773m | 5.5m/s | -50.8°C | 0.7% | -1.0hPa | 2.7V | 00:00:00 | 00:00:00 | 00:00:00 | |
| OE5DRO-10 | 2026-09-01 12:26:19 | 49.45007 | 18.00277 | 289° | 16km/h | 24760m | 6.1m/s | -50.7°C | 3.2% | 0hPa | 2.7V | 00:00:00 | 00:00:00 | 00:00:00 | |
| OE5MMP-10 | 2026-09-01 12:26:14 | 49.45013 | 18.00301 | 224° | 13km/h | 24730m | 5.1m/s | -50.4°C | 3.0% | 0hPa | 2.7V | 00:00:00 | 01:46:24 | 00:00:00 | |
| DO3MHA-11 | 2026-09-01 12:26:11 | 49.45019 | 18.00316 | 258° | 15km/h | 24711m | 5.3m/s | -50.5°C | 3.1% | 0hPa | 2.7V | 00:00:00 | 01:46:21 | 00:00:00 | |
| PETON7-10 | 2026-09-01 12:26:07 | 49.45019 | 18.00327 | 280° | 20km/h | 24685m | 5.3m/s | -50.4°C | 3.1% | 0hPa | 2.7V | 00:00:00 | 00:00:00 | 00:00:00 | |
| OE5DXL-15 | 2026-09-01 12:26:05 | 49.45019 | 18.00338 | 275° | 15km/h | 24672m | 6.7m/s | -50.6°C | 3.1% | 0hPa | 2.7V | 00:00:00 | 00:00:00 | 00:00:00 | |
| OE5MMP-10 | 2026-09-01 12:26:04 | 49.45018 | 18.00346 | 267° | 26km/h | 24666m | 6.1m/s | -50.7°C | 3.1% | 0hPa | 2.7V | 00:00:00 | 01:46:14 | 00:00:00 | |
| SP3WXH-11 | 2026-09-01 12:25:57 | 49.45043 | 18.00426 | 218° | 11km/h | 24609m | 7.3m/s | -51.0°C | 0.7% | -1.0hPa | 2.6V | 00:00:00 | 00:00:00 | 00:00:00 | |
| OE3OSB-13 | 2026-09-01 12:25:50 | 49.45049 | 18.00435 | 220° | 5km/h | 24576m | 7.7m/s | -51.0°C | 0.7% | -1.0hPa | 2.6V | 00:00:00 | 00:00:00 | 00:00:00 | |
| OE5MMP-10 | 2026-09-01 12:25:44 | 49.45058 | 18.00456 | 242° | 9km/h | 24536m | 6.8m/s | -51.3°C | 3.2% | 0hPa | 2.6V | 00:00:00 | 01:45:54 | 00:00:00 | |
| DB0DAN | 2026-09-01 12:25:40 | 49.45065 | 18.00463 | 160° | 4km/h | 24509m | 7.5m/s | -51.3°C | 0.7% | 0hPa | 2.6V | 00:00:00 | 00:00:00 | 00:00:00 | |
| PG1ADW-2 | 2026-09-01 12:25:39 | 49.45066 | 18.00462 | 95° | 11km/h | 24503m | 5.8m/s | -51.3°C | 3.2% | 0hPa | 2.6V | 00:00:00 | 00:00:00 | 00:00:00 | |
| NBG1-10 | 2026-09-01 12:25:38 | 49.45066 | 18.00460 | 91° | 16km/h | 24497m | 6.1m/s | 0°C | 0% | 0hPa | 2.6V | 00:00:00 | 01:45:48 | 00:00:00 | |
| PETON7-10 | 2026-09-01 12:25:37 | 49.45066 | 18.00456 | 107° | 11km/h | 24490m | 7.0m/s | -51.3°C | 3.2% | 0hPa | 2.6V | 00:00:00 | 01:45:47 | 00:00:00 | |
| OE5DXL-15 | 2026-09-01 12:25:35 | 49.45069 | 18.00449 | 143° | 11km/h | 24477m | 5.5m/s | -51.3°C | 3.2% | 0hPa | 2.6V | 00:00:00 | 00:00:00 | 08:30:00 | |
| OE5MMP-10 | 2026-09-01 12:25:34 | 49.45072 | 18.00447 | 166° | 9km/h | 24471m | 6.0m/s | -51.4°C | 3.2% | 0hPa | 2.6V | 00:00:00 | 01:45:44 | 00:00:00 | |
| DO3MHA-11 | 2026-09-01 12:25:31 | 49.45078 | 18.00454 | 243° | 7km/h | 24450m | 6.0m/s | -51.4°C | 3.2% | 0hPa | 2.7V | 00:00:00 | 01:45:41 | 00:00:00 | |
| HA6NAB-11 | 2026-09-01 12:25:26 | 49.45087 | 18.00478 | 271° | 5km/h | 24419m | 7.4m/s | -51.4°C | 0.8% | 0hPa | 2.6V | 00:00:00 | 00:00:00 | 00:00:00 | |
| SP3WXH-11 | 2026-09-01 12:25:25 | 49.45086 | 18.00479 | 89° | 2km/h | 24406m | 6.8m/s | -51.4°C | 0.7% | -1.0hPa | 2.6V | 00:00:00 | 00:00:00 | 00:00:00 | |
| PETON7-10 | 2026-09-01 12:25:22 | 49.45088 | 18.00474 | 128° | 9km/h | 24392m | 5.5m/s | -51.5°C | 3.3% | 0hPa | 2.6V | 00:00:00 | 00:00:00 | 08:30:00 | |
| DO3MHA-11 | 2026-09-01 12:25:21 | 49.45090 | 18.00471 | 125° | 7km/h | 24387m | 5.5m/s | -51.6°C | 3.3% | 0hPa | 2.6V | 00:00:00 | 01:45:31 | 00:00:00 | |
| HA6NAB-11 | 2026-09-01 12:25:20 | 49.45090 | 18.00471 | 126° | 11km/h | 24387m | 5.5m/s | -51.7°C | 0.8% | 0hPa | 2.6V | 00:00:00 | 00:00:00 | 00:00:00 | |
| PG1ADW-2 | 2026-09-01 12:25:19 | 49.45092 | 18.00464 | 110° | 13km/h | 24373m | 6.3m/s | -51.7°C | 3.2% | 0hPa | 2.6V | 00:00:00 | 00:00:00 | 00:00:00 | |
| HA6NAB-11 | 2026-09-01 12:25:14 | 49.45098 | 18.00456 | 185° | 7km/h | 24347m | 6.0m/s | -51.9°C | 0.8% | 0hPa | 2.6V | 00:00:00 | 00:00:00 | 00:00:00 | |
| DO3MHA-11 | 2026-09-01 12:25:11 | 49.45101 | 18.00460 | 134° | 16km/h | 24321m | 7.6m/s | -52.1°C | 3.2% | 0hPa | 2.6V | 00:00:00 | 01:45:21 | 00:00:00 | |
| PETON7-10 | 2026-09-01 12:25:07 | 49.45098 | 18.00443 | 62° | 18km/h | 24294m | 7.1m/s | -52.2°C | 3.3% | 0hPa | 2.6V | 00:00:00 | 00:00:00 | 00:00:00 | |
| OE5DXL-15 | 2026-09-01 12:25:05 | 49.45094 | 18.00428 | 70° | 22km/h | 24281m | 7.4m/s | -52.4°C | 3.4% | 0hPa | 2.6V | 00:00:00 | 00:00:00 | 00:00:00 | |
| OE5DRO-10 | 2026-09-01 12:25:03 | 49.45090 | 18.00413 | 64° | 18km/h | 24269m | 4.2m/s | -52.5°C | 3.4% | 0hPa | 2.6V | 00:00:00 | 00:00:00 | 08:30:00 | |
| SP3WXH-11 | 2026-09-01 12:24:53 | 49.45050 | 18.00386 | 30° | 20km/h | 24201m | 7.9m/s | -52.8°C | 0.8% | -1.0hPa | 2.7V | 00:00:00 | 00:00:00 | 00:00:00 | |
| OE3OSB-13 | 2026-09-01 12:24:48 | 49.45028 | 18.00364 | 16° | 20km/h | 24168m | 5.7m/s | -52.8°C | 0.8% | -1.0hPa | 2.7V | 00:00:00 | 00:00:00 | 00:00:00 | |
| NBG1-10 | 2026-09-01 12:24:47 | 49.45023 | 18.00362 | 14° | 16km/h | 24163m | 5.8m/s | 0°C | 0% | 0hPa | 2.7V | 00:00:00 | 01:44:57 | 00:00:00 | |
| OE5DRO-10 | 2026-09-01 12:24:44 | 49.45008 | 18.00359 | 359° | 22km/h | 24143m | 6.2m/s | -52.8°C | 3.5% | 0hPa | 2.7V | 00:00:00 | 00:00:00 | 00:00:00 | |
| DB0DAN | 2026-09-01 12:24:40 | 49.44983 | 18.00367 | 351° | 27km/h | 24119m | 5.1m/s | -52.8°C | 0.8% | 0hPa | 2.7V | 00:00:00 | 00:00:00 | 00:00:00 | |
| PG1ADW-2 | 2026-09-01 12:24:39 | 49.44975 | 18.00368 | 358° | 18km/h | 24113m | 7.4m/s | -52.8°C | 3.5% | 0hPa | 2.7V | 00:00:00 | 01:44:49 | 08:30:00 | |
| PETON7-10 | 2026-09-01 12:24:37 | 49.44963 | 18.00367 | 7° | 18km/h | 24100m | 5.2m/s | -52.8°C | 3.5% | 0hPa | 2.6V | 00:00:00 | 00:00:00 | 00:00:00 | |
| OE5DXL-15 | 2026-09-01 12:24:35 | 49.44951 | 18.00366 | 356° | 13km/h | 24086m | 6.4m/s | -52.8°C | 3.5% | 0hPa | 2.6V | 00:00:00 | 00:00:00 | 00:00:00 | |
| DO3MHA-11 | 2026-09-01 12:24:31 | 49.44932 | 18.00366 | 4° | 16km/h | 24060m | 5.4m/s | -52.7°C | 3.3% | 0hPa | 2.6V | 00:00:00 | 01:44:41 | 00:00:00 | |
| DB0DAN | 2026-09-01 12:24:25 | 49.44905 | 18.00363 | 17° | 13km/h | 24022m | 5.5m/s | 0°C | 0% | 0hPa | 2.6V | 00:00:00 | 00:00:00 | 00:00:00 | |
| OE5DRO-10 | 2026-09-01 12:24:25 | 49.44905 | 18.00363 | 18° | 9km/h | 24023m | 5.4m/s | -52.8°C | 3.4% | 0hPa | 2.7V | 00:00:00 | 00:00:00 | 00:00:00 | |
| PETON7-10 | 2026-09-01 12:24:22 | 49.44895 | 18.00363 | 350° | 9km/h | 24004m | 4.2m/s | -52.8°C | 3.5% | 0hPa | 2.7V | 00:00:00 | 00:00:00 | 00:00:00 | |
| DO3MHA-11 | 2026-09-01 12:24:21 | 49.44893 | 18.00363 | 354° | 11km/h | 23999m | 6.3m/s | -52.9°C | 3.5% | 0hPa | 2.7V | 00:00:00 | 01:44:31 | 00:00:00 | |
| PG1ADW-2 | 2026-09-01 12:24:19 | 49.44890 | 18.00363 | 6° | 7km/h | 23986m | 5.5m/s | -53.0°C | 3.6% | 0hPa | 2.7V | 00:00:00 | 00:00:00 | 00:00:00 | |
| OE3OSB-13 | 2026-09-01 12:24:17 | 49.44882 | 18.00366 | 333° | 13km/h | 23967m | 4.1m/s | -53.0°C | 0.8% | -1.0hPa | 2.7V | 00:00:00 | 00:00:00 | 00:00:00 | |
| DB0DAN | 2026-09-01 12:24:10 | 49.44868 | 18.00382 | 330° | 11km/h | 23930m | 4.8m/s | 0°C | 0% | 0hPa | 2.7V | 00:00:00 | 00:00:00 | 00:00:00 | |
| PETON7-10 | 2026-09-01 12:24:07 | 49.44865 | 18.00384 | 189° | 5km/h | 23912m | 5.0m/s | -52.8°C | 3.6% | 0hPa | 2.7V | 00:00:00 | 01:44:17 | 00:00:00 | |
| OE5DRO-10 | 2026-09-01 12:24:06 | 49.44865 | 18.00385 | 233° | 7km/h | 23906m | 5.5m/s | -52.8°C | 3.6% | 0hPa | 2.7V | 00:00:00 | 00:00:00 | 00:00:00 | |
| OE5DXL-15 | 2026-09-01 12:24:05 | 49.44865 | 18.00386 | 271° | 7km/h | 23900m | 7.0m/s | -52.8°C | 3.6% | 0hPa | 2.7V | 00:00:00 | 00:00:00 | 00:00:00 | |
| SP3WXH-11 | 2026-09-01 12:23:52 | 49.44878 | 18.00411 | 182° | 5km/h | 23816m | 6.5m/s | -52.7°C | 0.8% | -1.0hPa | 2.6V | 00:00:00 | 00:00:00 | 00:00:00 | |
| OE3OSB-13 | 2026-09-01 12:23:47 | 49.44886 | 18.00402 | 174° | 2km/h | 23778m | 6.9m/s | -52.7°C | 0.8% | -1.0hPa | 2.6V | 00:00:00 | 00:00:00 | 00:00:00 | |
| DO3MHA-11 | 2026-09-01 12:23:41 | 49.44891 | 18.00406 | 185° | 9km/h | 23755m | 6.5m/s | -52.7°C | 3.6% | 0hPa | 2.6V | 00:00:00 | 01:43:51 | 00:00:00 | |
| PG1ADW-2 | 2026-09-01 12:23:39 | 49.44897 | 18.00405 | 170° | 7km/h | 23744m | 6.2m/s | -52.8°C | 3.6% | 0hPa | 2.6V | 00:00:00 | 00:00:00 | 00:00:00 | |
| PETON7-10 | 2026-09-01 12:23:37 | 49.44901 | 18.00403 | 152° | 9km/h | 23731m | 5.3m/s | -52.8°C | 3.5% | 0hPa | 2.7V | 00:00:00 | 00:00:00 | 00:00:00 | |
| OE5DXL-15 | 2026-09-01 12:23:35 | 49.44904 | 18.00400 | 140° | 9km/h | 23719m | 7.3m/s | -52.9°C | 3.5% | 0hPa | 2.7V | 00:00:00 | 00:00:00 | 00:00:00 | |
| DO3MHA-11 | 2026-09-01 12:23:31 | 49.44907 | 18.00393 | 27° | 9km/h | 23694m | 5.6m/s | -52.7°C | 3.5% | 0hPa | 2.7V | 00:00:00 | 01:43:41 | 08:30:00 | |
| OE5DRO-10 | 2026-09-01 12:23:28 | 49.44903 | 18.00387 | 63° | 11km/h | 23676m | 6.7m/s | -52.7°C | 3.4% | 0hPa | 2.7V | 00:00:00 | 00:00:00 | 00:00:00 | |
| DB0DAN | 2026-09-01 12:23:25 | 49.44897 | 18.00375 | 43° | 13km/h | 23656m | 6.6m/s | 0°C | 0% | 0hPa | 2.7V | 00:00:00 | 00:00:00 | 00:00:00 | |
| PETON7-10 | 2026-09-01 12:23:22 | 49.44892 | 18.00369 | 29° | 11km/h | 23640m | 7.0m/s | -52.6°C | 3.5% | 0hPa | 2.7V | 00:00:00 | 01:43:32 | 00:00:00 | |
| DO3MHA-11 | 2026-09-01 12:23:21 | 49.44892 | 18.00369 | 262° | 9km/h | 23633m | 6.0m/s | -52.7°C | 3.6% | 0hPa | 2.7V | 00:00:00 | 01:43:31 | 00:00:00 | |
| SP3WXH-11 | 2026-09-01 12:23:20 | 49.44892 | 18.00370 | 285° | 4km/h | 23627m | 6.6m/s | -52.7°C | 0.8% | -1.0hPa | 2.7V | 00:00:00 | 00:00:00 | 00:00:00 | |
| PG1ADW-2 | 2026-09-01 12:23:19 | 49.44891 | 18.00372 | 306° | 11km/h | 23620m | 6.6m/s | -52.6°C | 3.5% | 0hPa | 2.7V | 00:00:00 | 01:43:29 | 00:00:00 | |
| OE3OSB-13 | 2026-09-01 12:23:15 | 49.44883 | 18.00374 | 11° | 13km/h | 23590m | 6.1m/s | -52.6°C | 0.8% | -1.0hPa | 2.7V | 00:00:00 | 00:00:00 | 00:00:00 | |
| DB0DAN | 2026-09-01 12:23:10 | 49.44865 | 18.00371 | 7° | 15km/h | 23563m | 7.4m/s | 0°C | 0% | 0hPa | 2.7V | 00:00:00 | 00:00:00 | 00:00:00 | |
| OE5DRO-10 | 2026-09-01 12:23:09 | 49.44861 | 18.00371 | 356° | 9km/h | 23558m | 4.6m/s | -52.5°C | 3.5% | 0hPa | 2.7V | 00:00:00 | 00:00:00 | 00:00:00 | |
| PETON7-10 | 2026-09-01 12:23:07 | 49.44856 | 18.00375 | 324° | 9km/h | 23546m | 7.2m/s | -52.7°C | 3.5% | 0hPa | 2.6V | 00:00:00 | 00:00:00 | 08:30:00 | |
| OE5DXL-15 | 2026-09-01 12:23:05 | 49.44850 | 18.00381 | 325° | 11km/h | 23535m | 5.8m/s | -52.7°C | 3.5% | 0hPa | 2.6V | 00:00:00 | 00:00:00 | 00:00:00 | |
| DO3MHA-11 | 2026-09-01 12:23:01 | 49.44842 | 18.00381 | 14° | 9km/h | 23508m | 7.1m/s | -52.8°C | 3.5% | 0hPa | 2.6V | 00:00:00 | 01:43:11 | 00:00:00 | |
| PG1ADW-2 | 2026-09-01 12:22:59 | 49.44836 | 18.00379 | 19° | 13km/h | 23496m | 5.8m/s | -52.7°C | 3.5% | 0hPa | 2.6V | 00:00:00 | 00:00:00 | 00:00:00 | |
| DB0DAN | 2026-09-01 12:22:55 | 49.44828 | 18.00369 | 36° | 5km/h | 23474m | 6.1m/s | 0°C | 0% | 0hPa | 2.6V | 00:00:00 | 00:00:00 | 00:00:00 | |
| SP3WXH-11 | 2026-09-01 12:22:49 | 49.44822 | 18.00375 | 356° | 7km/h | 23436m | 5.4m/s | -52.6°C | 0.8% | -1.0hPa | 2.6V | 00:00:00 | 00:00:00 | 00:00:00 | |
| OE3OSB-13 | 2026-09-01 12:22:44 | 49.44794 | 18.00376 | 5° | 22km/h | 23398m | 5.9m/s | -52.6°C | 0.8% | -1.0hPa | 2.6V | 00:00:00 | 00:00:00 | 00:00:00 | |
| DO3MHA-11 | 2026-09-01 12:22:41 | 49.44784 | 18.00377 | 343° | 11km/h | 23385m | 5.6m/s | -52.5°C | 3.5% | 0hPa | 2.6V | 00:00:00 | 01:42:51 | 00:00:00 | |
| PG1ADW-2 | 2026-09-01 12:22:39 | 49.44779 | 18.00380 | 334° | 13km/h | 23375m | 6.4m/s | -52.6°C | 3.5% | 0hPa | 2.6V | 00:00:00 | 00:00:00 | 00:00:00 | |
| PETON7-10 | 2026-09-01 12:22:37 | 49.44775 | 18.00381 | 18° | 13km/h | 23362m | 5.8m/s | -52.5°C | 3.5% | 0hPa | 2.7V | 00:00:00 | 01:42:47 | 00:00:00 | |
| OE5DXL-15 | 2026-09-01 12:22:35 | 49.44771 | 18.00380 | 2° | 11km/h | 23350m | 6.9m/s | -52.6°C | 3.5% | 0hPa | 2.7V | 00:00:00 | 00:00:00 | 00:00:00 | |
| HA6NAB-11 | 2026-09-01 12:22:33 | 49.44765 | 18.00379 | 13° | 16km/h | 23338m | 5.8m/s | -52.8°C | 0.9% | 0hPa | 2.7V | 00:00:00 | 00:00:00 | 00:00:00 | |
| OE5DRO-10 | 2026-09-01 12:22:32 | 49.44757 | 18.00374 | 31° | 11km/h | 23325m | 5.3m/s | -52.8°C | 3.5% | 0hPa | 2.7V | 00:00:00 | 00:00:00 | 00:00:00 | |
| HA6NAB-11 | 2026-09-01 12:22:27 | 49.44741 | 18.00364 | 13° | 13km/h | 23303m | 4.7m/s | -52.6°C | 0.9% | 0hPa | 2.7V | 00:00:00 | 00:00:00 | 00:00:00 | |
| HA6NAB-11 | 2026-09-01 12:22:22 | 49.44736 | 18.00346 | 95° | 13km/h | 23276m | 5.1m/s | -52.5°C | 0.9% | 0hPa | 2.7V | 00:00:00 | 00:00:00 | 00:00:00 | |
| DO3MHA-11 | 2026-09-01 12:22:21 | 49.44736 | 18.00342 | 89° | 9km/h | 23270m | 6.7m/s | -52.4°C | 3.5% | 0hPa | 2.7V | 00:00:00 | 01:42:31 | 00:00:00 | |
| PG1ADW-2 | 2026-09-01 12:22:19 | 49.44735 | 18.00338 | 49° | 11km/h | 23258m | 5.0m/s | -52.4°C | 3.5% | 0hPa | 2.7V | 00:00:00 | 00:00:00 | 00:00:00 | |
| SP3WXH-11 | 2026-09-01 12:22:18 | 49.44734 | 18.00337 | 55° | 4km/h | 23252m | 6.7m/s | -52.5°C | 0.8% | -1.0hPa | 2.7V | 00:00:00 | 00:00:00 | 00:00:00 | |
| HA6NAB-11 | 2026-09-01 12:22:15 | 49.44732 | 18.00333 | 41° | 9km/h | 23240m | 4.4m/s | -52.5°C | 0.9% | 0hPa | 2.7V | 00:00:00 | 00:00:00 | 00:00:00 | |
| OE3OSB-13 | 2026-09-01 12:22:14 | 49.44721 | 18.00327 | 21° | 13km/h | 23216m | 6.6m/s | -52.2°C | 0.8% | -1.0hPa | 2.7V | 00:00:00 | 00:00:00 | 00:00:00 | |
| DO3MHA-11 | 2026-09-01 12:22:12 | 49.44718 | 18.00325 | 36° | 11km/h | 23209m | 6.4m/s | -52.2°C | 3.3% | 0hPa | 2.7V | 00:00:00 | 01:42:21 | 00:00:00 | |
| HA6NAB-11 | 2026-09-01 12:22:11 | 49.44718 | 18.00325 | 37° | 13km/h | 23209m | 6.5m/s | -52.2°C | 0.9% | 0hPa | 2.7V | 00:00:00 | 00:00:00 | 00:00:00 | |
| PETON7-10 | 2026-09-01 12:22:07 | 49.44708 | 18.00317 | 355° | 18km/h | 23187m | 5.4m/s | -52.3°C | 3.4% | 0hPa | 2.7V | 00:00:00 | 00:00:00 | 00:00:00 | |
| HA6NAB-11 | 2026-09-01 12:22:05 | 49.44704 | 18.00318 | 3° | 9km/h | 23175m | 6.9m/s | -52.2°C | 0.9% | 0hPa | 2.7V | 00:00:00 | 00:00:00 | 00:00:00 | |
| SP3WXH-11 | 2026-09-01 12:21:47 | 49.44619 | 18.00329 | 335° | 16km/h | 23071m | 4.5m/s | -52.0°C | 0.8% | -1.0hPa | 2.7V | 00:00:00 | 00:00:00 | 00:00:00 | |
| OE3OSB-13 | 2026-09-01 12:21:42 | 49.44602 | 18.00341 | 329° | 15km/h | 23037m | 5.7m/s | -52.1°C | 0.7% | -1.0hPa | 2.7V | 00:00:00 | 00:00:00 | 00:00:00 | |
| DO3MHA-11 | 2026-09-01 12:21:41 | 49.44602 | 18.00341 | 330° | 15km/h | 23037m | 5.7m/s | -52.0°C | 3.3% | 0hPa | 2.7V | 00:00:00 | 01:41:51 | 00:00:00 | |
| PG1ADW-2 | 2026-09-01 12:21:39 | 49.44593 | 18.00345 | 351° | 9km/h | 23026m | 7.1m/s | -52.1°C | 3.3% | 0hPa | 2.7V | 00:00:00 | 00:00:00 | 08:30:00 | |
| PETON7-10 | 2026-09-01 12:21:37 | 49.44584 | 18.00344 | 11° | 9km/h | 23014m | 4.6m/s | -52.0°C | 3.4% | 0hPa | 2.6V | 00:00:00 | 00:00:00 | 00:00:00 | |
| OE5DXL-15 | 2026-09-01 12:21:35 | 49.44575 | 18.00342 | 4° | 7km/h | 23003m | 5.6m/s | -52.1°C | 3.3% | 0hPa | 2.6V | 00:00:00 | 00:00:00 | 00:00:00 | |
| OE5DRO-10 | 2026-09-01 12:21:34 | 49.44572 | 18.00342 | 9° | 7km/h | 22998m | 4.4m/s | -52.1°C | 3.4% | 0hPa | 2.6V | 00:00:00 | 00:00:00 | 00:00:00 | |
| DO3MHA-11 | 2026-09-01 12:21:31 | 49.44568 | 18.00338 | 77° | 5km/h | 22981m | 5.2m/s | -52.1°C | 3.4% | 0hPa | 2.6V | 00:00:00 | 01:41:41 | 00:00:00 | |
| HA6NAB-11 | 2026-09-01 12:21:27 | 49.44566 | 18.00334 | 26° | 4km/h | 22964m | 4.4m/s | -52.3°C | 0.9% | 0hPa | 2.6V | 00:00:00 | 00:00:00 | 00:00:00 | |
| HA6NAB-11 | 2026-09-01 12:21:22 | 49.44560 | 18.00321 | 41° | 4km/h | 22929m | 5.8m/s | -52.3°C | 0.9% | 0hPa | 2.6V | 00:00:00 | 00:00:00 | 00:00:00 | |
| DO3MHA-11 | 2026-09-01 12:21:21 | 49.44560 | 18.00320 | 37° | 9km/h | 22923m | 4.8m/s | -52.3°C | 3.4% | 0hPa | 2.6V | 00:00:00 | 01:41:31 | 00:00:00 | |
| OE5MMP-10 | 2026-09-01 12:21:20 | 49.44559 | 18.00319 | 51° | 11km/h | 22918m | 6.9m/s | -52.3°C | 3.4% | 0hPa | 2.6V | 00:00:00 | 01:41:30 | 00:00:00 | |
| PG1ADW-2 | 2026-09-01 12:21:19 | 49.44558 | 18.00317 | 53° | 11km/h | 22912m | 5.2m/s | -52.2°C | 3.4% | 0hPa | 2.6V | 00:00:00 | 00:00:00 | 00:00:00 | |
| HA6NAB-11 | 2026-09-01 12:21:16 | 49.44551 | 18.00311 | 10° | 13km/h | 22895m | 6.6m/s | -52.3°C | 0.9% | 0hPa | 2.6V | 00:00:00 | 00:00:00 | 00:00:00 | |
| OE5DRO-10 | 2026-09-01 12:21:15 | 49.44548 | 18.00310 | 3° | 13km/h | 22889m | 5.5m/s | -52.3°C | 3.4% | 0hPa | 2.6V | 00:00:00 | 00:00:00 | 00:00:00 | |
| DO3MHA-11 | 2026-09-01 12:21:11 | 49.44538 | 18.00304 | 35° | 9km/h | 22866m | 4.4m/s | -52.3°C | 3.5% | 0hPa | 2.6V | 00:00:00 | 01:41:21 | 00:00:00 | |
| OE5MMP-10 | 2026-09-01 12:21:10 | 49.44536 | 18.00303 | 15° | 11km/h | 22861m | 6.5m/s | -52.3°C | 3.5% | 0hPa | 2.6V | 00:00:00 | 01:41:20 | 00:00:00 | |
| PETON7-10 | 2026-09-01 12:21:07 | 49.44535 | 18.00306 | 275° | 15km/h | 22844m | 6.0m/s | -52.3°C | 3.5% | 0hPa | 2.6V | 00:00:00 | 01:41:17 | 00:00:00 | |
| OE5DXL-15 | 2026-09-01 12:21:05 | 49.44533 | 18.00305 | 28° | 16km/h | 22833m | 4.5m/s | -52.1°C | 3.4% | 0hPa | 2.6V | 00:00:00 | 00:00:00 | 08:30:00 | |
| SP3WXH-11 | 2026-09-01 12:20:45 | 49.44457 | 18.00330 | 353° | 26km/h | 22719m | 4.5m/s | -52.0°C | 0.8% | -1.0hPa | 2.7V | 00:00:00 | 00:00:00 | 00:00:00 | |
| DO3MHA-11 | 2026-09-01 12:20:41 | 49.44433 | 18.00342 | 327° | 18km/h | 22698m | 5.0m/s | -51.9°C | 3.3% | 0hPa | 2.7V | 00:00:00 | 01:40:51 | 00:00:00 | |
| OE3OSB-13 | 2026-09-01 12:20:40 | 49.44426 | 18.00350 | 313° | 11km/h | 22686m | 5.7m/s | -52.0°C | 0.7% | -1.0hPa | 2.7V | 00:00:00 | 00:00:00 | 00:00:00 | |
| PG1ADW-2 | 2026-09-01 12:20:38 | 49.44424 | 18.00353 | 306° | 22km/h | 22681m | 4.6m/s | -52.0°C | 3.3% | 0hPa | 2.7V | 00:00:00 | 01:40:48 | 00:00:00 | |
| PETON7-10 | 2026-09-01 12:20:37 | 49.44422 | 18.00358 | 305° | 24km/h | 22675m | 6.4m/s | -52.0°C | 3.3% | 0hPa | 2.6V | 00:00:00 | 00:00:00 | 00:00:00 | |
| OE5DXL-15 | 2026-09-01 12:20:35 | 49.44416 | 18.00369 | 312° | 22km/h | 22663m | 4.7m/s | -52.2°C | 3.4% | 0hPa | 2.6V | 00:00:00 | 00:00:00 | 00:00:00 | |
| DO3MHA-11 | 2026-09-01 12:20:31 | 49.44397 | 18.00388 | 339° | 26km/h | 22640m | 6.5m/s | -52.4°C | 3.4% | 0hPa | 2.6V | 00:00:00 | 01:40:41 | 08:30:00 | |
| OE5MMP-10 | 2026-09-01 12:20:30 | 49.44390 | 18.00392 | 339° | 26km/h | 22633m | 6.6m/s | -52.4°C | 3.3% | 0hPa | 2.6V | 00:00:00 | 01:40:40 | 00:00:00 | |
| PETON7-10 | 2026-09-01 12:20:22 | 49.44346 | 18.00433 | 313° | 18km/h | 22586m | 4.4m/s | -52.4°C | 3.5% | 0hPa | 2.6V | 00:00:00 | 01:40:32 | 00:00:00 | |
| DO3MHA-11 | 2026-09-01 12:20:21 | 49.44343 | 18.00438 | 316° | 20km/h | 22580m | 7.2m/s | -52.4°C | 3.4% | 0hPa | 2.6V | 00:00:00 | 01:40:31 | 00:00:00 | |
| OE5MMP-10 | 2026-09-01 12:20:20 | 49.44340 | 18.00441 | 328° | 20km/h | 22574m | 6.0m/s | -52.4°C | 3.4% | 0hPa | 2.6V | 00:00:00 | 01:40:30 | 08:30:00 | |
| PG1ADW-2 | 2026-09-01 12:20:18 | 49.44332 | 18.00447 | 342° | 18km/h | 22562m | 7.4m/s | -52.5°C | 3.4% | 0hPa | 2.7V | 00:00:00 | 00:00:00 | 00:00:00 | |
| SP3WXH-11 | 2026-09-01 12:20:14 | 49.44305 | 18.00458 | 335° | 18km/h | 22533m | 5.7m/s | -52.7°C | 0.8% | -1.0hPa | 2.7V | 00:00:00 | 00:00:00 | 00:00:00 | |
| DO3MHA-11 | 2026-09-01 12:20:11 | 49.44297 | 18.00467 | 309° | 18km/h | 22520m | 5.8m/s | -52.6°C | 3.4% | 0hPa | 2.7V | 00:00:00 | 01:40:21 | 00:00:00 | |
| OE5MMP-10 | 2026-09-01 12:20:10 | 49.44294 | 18.00473 | 297° | 18km/h | 22514m | 5.5m/s | -52.6°C | 3.5% | 0hPa | 2.7V | 00:00:00 | 01:40:20 | 00:00:00 | |
| OE3OSB-13 | 2026-09-01 12:20:08 | 49.44292 | 18.00486 | 282° | 13km/h | 22501m | 5.6m/s | -52.4°C | 0.8% | -1.0hPa | 2.7V | 00:00:00 | 00:00:00 | 00:00:00 | |
| HA6NAB-11 | 2026-09-01 12:20:07 | 49.44291 | 18.00491 | 291° | 13km/h | 22497m | 4.2m/s | -52.5°C | 0.9% | 0hPa | 2.7V | 00:00:00 | 00:00:00 | 00:00:00 | |
| OE5DXL-15 | 2026-09-01 12:20:05 | 49.44287 | 18.00501 | 303° | 15km/h | 22485m | 7.4m/s | -52.5°C | 3.4% | 0hPa | 2.7V | 00:00:00 | 00:00:00 | 00:00:00 | |
| DO3MHA-11 | 2026-09-01 12:20:01 | 49.44274 | 18.00527 | 311° | 15km/h | 22460m | 6.3m/s | -52.5°C | 3.4% | 0hPa | 2.7V | 00:00:00 | 01:40:11 | 00:00:00 | |
| OE5MMP-10 | 2026-09-01 12:20:00 | 49.44272 | 18.00531 | 309° | 15km/h | 22454m | 5.2m/s | -52.5°C | 3.4% | 0hPa | 2.6V | 00:00:00 | 01:40:10 | 00:00:00 | |
| OE5DRO-10 | 2026-09-01 12:19:59 | 49.44271 | 18.00535 | 301° | 15km/h | 22449m | 5.4m/s | -52.4°C | 3.3% | 0hPa | 2.6V | 00:00:00 | 00:00:00 | 00:00:00 | |
| PG1ADW-2 | 2026-09-01 12:19:58 | 49.44269 | 18.00539 | 293° | 15km/h | 22443m | 6.6m/s | -52.5°C | 3.3% | 0hPa | 2.6V | 00:00:00 | 00:00:00 | 00:00:00 | |
| HA6NAB-11 | 2026-09-01 12:19:54 | 49.44267 | 18.00556 | 268° | 15km/h | 22425m | 7.8m/s | -52.5°C | 0.9% | 0hPa | 2.6V | 00:00:00 | 00:00:00 | 00:00:00 | |
| PETON7-10 | 2026-09-01 12:19:52 | 49.44269 | 18.00574 | 261° | 13km/h | 22406m | 6.8m/s | -52.6°C | 3.5% | 0hPa | 2.6V | 00:00:00 | 00:00:00 | 00:00:00 | |
| DO3MHA-11 | 2026-09-01 12:19:51 | 49.44270 | 18.00581 | 264° | 15km/h | 22401m | 4.7m/s | -52.7°C | 3.5% | 0hPa | 2.6V | 00:00:00 | 01:40:01 | 00:00:00 | |
| HA6NAB-11 | 2026-09-01 12:19:48 | 49.44271 | 18.00594 | 257° | 16km/h | 22390m | 6.9m/s | -52.9°C | 1.0% | 0hPa | 2.6V | 00:00:00 | 00:00:00 | 00:00:00 | |
| SP3WXH-11 | 2026-09-01 12:19:43 | 49.44272 | 18.00630 | 265° | 7km/h | 22348m | 7.1m/s | -52.9°C | 0.8% | -1.0hPa | 2.6V | 00:00:00 | 00:00:00 | 00:00:00 | |
| DO3MHA-11 | 2026-09-01 12:19:41 | 49.44272 | 18.00633 | 252° | 7km/h | 22342m | 5.6m/s | -52.8°C | 3.4% | 0hPa | 2.6V | 00:00:00 | 01:39:51 | 00:00:00 | |
| OE5MMP-10 | 2026-09-01 12:19:40 | 49.44273 | 18.00636 | 252° | 7km/h | 22337m | 5.1m/s | -52.7°C | 3.4% | 0hPa | 2.6V | 00:00:00 | 01:39:50 | 00:00:00 | |
| OE3OSB-13 | 2026-09-01 12:19:38 | 49.44273 | 18.00647 | 276° | 7km/h | 22318m | 5.0m/s | -52.7°C | 0.8% | -1.0hPa | 2.6V | 00:00:00 | 00:00:00 | 00:00:00 | |
| PETON7-10 | 2026-09-01 12:19:37 | 49.44273 | 18.00647 | 277° | 5km/h | 22318m | 5.0m/s | -52.7°C | 3.5% | 0hPa | 2.6V | 00:00:00 | 01:39:47 | 00:00:00 | |
| OE5DXL-15 | 2026-09-01 12:19:35 | 49.44273 | 18.00651 | 271° | 7km/h | 22306m | 5.7m/s | -52.7°C | 3.5% | 0hPa | 2.6V | 00:00:00 | 00:00:00 | 00:00:00 | |
| DO3MHA-11 | 2026-09-01 12:19:31 | 49.44270 | 18.00659 | 308° | 5km/h | 22284m | 4.1m/s | -52.8°C | 3.5% | 0hPa | 2.7V | 00:00:00 | 01:39:41 | 00:00:00 | |
| OE5MMP-10 | 2026-09-01 12:19:30 | 49.44269 | 18.00660 | 277° | 5km/h | 22278m | 6.8m/s | -52.9°C | 3.5% | 0hPa | 2.7V | 00:00:00 | 01:39:40 | 00:00:00 | |
| PETON7-10 | 2026-09-01 12:19:22 | 49.44277 | 18.00672 | 211° | 7km/h | 22229m | 5.9m/s | -52.6°C | 3.5% | 0hPa | 2.7V | 00:00:00 | 00:00:00 | 00:00:00 | |
| DO3MHA-11 | 2026-09-01 12:19:21 | 49.44278 | 18.00672 | 55° | 7km/h | 22224m | 5.0m/s | -52.7°C | 3.5% | 0hPa | 2.6V | 00:00:00 | 01:39:31 | 00:00:00 | |
| OE5DRO-10 | 2026-09-01 12:19:20 | 49.44277 | 18.00672 | 357° | 9km/h | 22217m | 6.8m/s | -52.6°C | 3.5% | 0hPa | 2.6V | 00:00:00 | 00:00:00 | 08:30:00 | |
| PG1ADW-2 | 2026-09-01 12:19:18 | 49.44275 | 18.00672 | 15° | 9km/h | 22206m | 4.4m/s | -52.7°C | 3.4% | 0hPa | 2.6V | 00:00:00 | 01:39:28 | 00:00:00 | |
| SP3WXH-11 | 2026-09-01 12:19:12 | 49.44276 | 18.00650 | 106° | 9km/h | 22162m | 7.4m/s | -52.9°C | 0.8% | -1.0hPa | 2.6V | 00:00:00 | 00:00:00 | 00:00:00 | |
| DO3MHA-11 | 2026-09-01 12:19:11 | 49.44275 | 18.00650 | 107° | 11km/h | 22162m | 7.3m/s | -52.8°C | 3.5% | 0hPa | 2.6V | 00:00:00 | 01:39:21 | 00:00:00 | |
| OE5MMP-10 | 2026-09-01 12:19:10 | 49.44276 | 18.00646 | 113° | 11km/h | 22155m | 6.3m/s | -52.8°C | 3.5% | 0hPa | 2.6V | 00:00:00 | 01:39:20 | 00:00:00 | |
| PETON7-10 | 2026-09-01 12:19:07 | 49.44277 | 18.00637 | 51° | 13km/h | 22135m | 5.9m/s | -52.8°C | 3.5% | 0hPa | 2.6V | 00:00:00 | 00:00:00 | 00:00:00 | |
| OE3OSB-13 | 2026-09-01 12:19:06 | 49.44276 | 18.00635 | 55° | 9km/h | 22130m | 5.6m/s | -52.8°C | 0.8% | -1.0hPa | 2.6V | 00:00:00 | 00:00:00 | 00:00:00 | |
| OE5DXL-15 | 2026-09-01 12:19:05 | 49.44274 | 18.00631 | 70° | 16km/h | 22123m | 7.5m/s | -52.8°C | 3.4% | 0hPa | 2.6V | 00:00:00 | 00:00:00 | 00:00:00 | |
| DO3MHA-11 | 2026-09-01 12:19:01 | 49.44273 | 18.00612 | 93° | 15km/h | 22098m | 5.1m/s | -52.8°C | 3.5% | 0hPa | 2.6V | 00:00:00 | 01:39:11 | 08:30:00 | |
| OE5MMP-10 | 2026-09-01 12:19:00 | 49.44273 | 18.00608 | 104° | 16km/h | 22092m | 5.8m/s | -52.8°C | 3.5% | 0hPa | 2.6V | 00:00:00 | 01:39:10 | 00:00:00 | |
| PG1ADW-2 | 2026-09-01 12:18:58 | 49.44275 | 18.00598 | 112° | 16km/h | 22079m | 5.3m/s | -52.8°C | 3.6% | 0hPa | 2.6V | 00:00:00 | 00:00:00 | 00:00:00 | |
| PETON7-10 | 2026-09-01 12:18:52 | 49.44269 | 18.00568 | 60° | 16km/h | 22043m | 5.4m/s | -52.6°C | 3.4% | 0hPa | 2.6V | 00:00:00 | 01:39:02 | 00:00:00 | |
| DO3MHA-11 | 2026-09-01 12:18:51 | 49.44266 | 18.00560 | 56° | 18km/h | 22037m | 5.6m/s | -52.6°C | 3.4% | 0hPa | 2.6V | 00:00:00 | 01:39:01 | 00:00:00 | |
| OE5MMP-10 | 2026-09-01 12:18:50 | 49.44262 | 18.00553 | 52° | 15km/h | 22031m | 7.2m/s | -52.6°C | 3.4% | 0hPa | 2.6V | 00:00:00 | 01:39:00 | 08:30:00 | |
| OE5DRO-10 | 2026-09-01 12:18:42 | 49.44251 | 18.00508 | 53° | 18km/h | 21984m | 5.0m/s | -52.6°C | 3.5% | 0hPa | 2.7V | 00:00:00 | 00:00:00 | 00:00:00 | |
| SP3WXH-11 | 2026-09-01 12:18:41 | 49.44248 | 18.00501 | 63° | 15km/h | 21972m | 6.6m/s | -52.6°C | 0.8% | -1.0hPa | 2.7V | 00:00:00 | 00:00:00 | 00:00:00 | |
| OE5MMP-10 | 2026-09-01 12:18:39 | 49.44246 | 18.00495 | 70° | 22km/h | 21966m | 5.8m/s | -52.6°C | 3.4% | 0hPa | 2.7V | 00:00:00 | 01:38:49 | 00:00:00 | |
| PG1ADW-2 | 2026-09-01 12:18:38 | 49.44244 | 18.00488 | 71° | 20km/h | 21961m | 5.0m/s | -52.6°C | 3.4% | 0hPa | 2.7V | 00:00:00 | 00:00:00 | 08:30:00 | |
| PETON7-10 | 2026-09-01 12:18:37 | 49.44242 | 18.00480 | 68° | 20km/h | 21955m | 7.1m/s | -52.6°C | 3.4% | 0hPa | 2.7V | 00:00:00 | 00:00:00 | 08:30:00 | |
| OE5DXL-15 | 2026-09-01 12:18:35 | 49.44238 | 18.00466 | 62° | 20km/h | 21943m | 5.1m/s | -52.5°C | 3.4% | 0hPa | 2.6V | 00:00:00 | 00:00:00 | 00:00:00 | |
| DO3MHA-11 | 2026-09-01 12:18:30 | 49.44225 | 18.00429 | 60° | 18km/h | 21914m | 5.1m/s | -52.3°C | 3.6% | 0hPa | 2.6V | 00:00:00 | 01:38:40 | 00:00:00 | |
| OE5MMP-10 | 2026-09-01 12:18:29 | 49.44223 | 18.00424 | 66° | 18km/h | 21909m | 5.1m/s | -52.3°C | 3.5% | 0hPa | 2.7V | 00:00:00 | 01:38:39 | 00:00:00 | |
| HA6NAB-11 | 2026-09-01 12:18:24 | 49.44217 | 18.00399 | 63° | 16km/h | 21885m | 6.6m/s | -52.4°C | 0.9% | 0hPa | 2.7V | 00:00:00 | 00:00:00 | 00:00:00 | |
| PETON7-10 | 2026-09-01 12:18:22 | 49.44208 | 18.00382 | 52° | 20km/h | 21868m | 6.8m/s | -52.2°C | 3.4% | 0hPa | 2.7V | 00:00:00 | 00:00:00 | 00:00:00 | |
| DO3MHA-11 | 2026-09-01 12:18:20 | 49.44201 | 18.00368 | 51° | 18km/h | 21856m | 6.2m/s | -52.0°C | 3.4% | 0hPa | 2.7V | 00:00:00 | 01:38:30 | 00:00:00 | |
| OE5MMP-10 | 2026-09-01 12:18:19 | 49.44198 | 18.00362 | 52° | 18km/h | 21850m | 6.1m/s | -51.9°C | 3.4% | 0hPa | 2.7V | 00:00:00 | 01:38:29 | 00:00:00 | |
| PG1ADW-2 | 2026-09-01 12:18:18 | 49.44195 | 18.00357 | 59° | 20km/h | 21845m | 4.3m/s | -51.9°C | 3.4% | 0hPa | 2.7V | 00:00:00 | 00:00:00 | 00:00:00 | |
| HA6NAB-11 | 2026-09-01 12:18:12 | 49.44190 | 18.00325 | 79° | 15km/h | 21814m | 5.3m/s | -52.0°C | 0.9% | 0hPa | 2.7V | 00:00:00 | 00:00:00 | 00:00:00 | |
| SP3WXH-11 | 2026-09-01 12:18:10 | 49.44180 | 18.00298 | 45° | 24km/h | 21791m | 5.7m/s | -52.0°C | 0.8% | -1.0hPa | 2.7V | 00:00:00 | 00:00:00 | 00:00:00 | |
| OE5MMP-10 | 2026-09-01 12:18:09 | 49.44180 | 18.00298 | 46° | 24km/h | 21791m | 5.7m/s | -52.0°C | 3.4% | 0hPa | 2.7V | 00:00:00 | 01:38:19 | 00:00:00 | |
| PETON7-10 | 2026-09-01 12:18:07 | 49.44171 | 18.00284 | 46° | 22km/h | 21780m | 4.8m/s | -51.9°C | 3.4% | 0hPa | 2.7V | 00:00:00 | 01:38:17 | 00:00:00 | |
| HA6NAB-11 | 2026-09-01 12:18:06 | 49.44171 | 18.00284 | 46° | 24km/h | 21780m | 4.8m/s | -51.9°C | 0.9% | 0hPa | 2.7V | 00:00:00 | 00:00:00 | 00:00:00 | |
| OE5DXL-15 | 2026-09-01 12:18:05 | 49.44164 | 18.00270 | 63° | 18km/h | 21768m | 6.8m/s | -51.8°C | 3.4% | 0hPa | 2.7V | 00:00:00 | 00:00:00 | 00:00:00 | |
| OE5DRO-10 | 2026-09-01 12:18:04 | 49.44161 | 18.00261 | 70° | 20km/h | 21763m | 4.1m/s | -51.8°C | 3.4% | 0hPa | 2.7V | 00:00:00 | 00:00:00 | 00:00:00 | |
| HA6NAB-11 | 2026-09-01 12:18:01 | 49.44158 | 18.00243 | 77° | 22km/h | 21752m | 6.3m/s | -51.8°C | 0.9% | 0hPa | 2.7V | 00:00:00 | 00:00:00 | 00:00:00 | |
| DO3MHA-11 | 2026-09-01 12:18:00 | 49.44155 | 18.00228 | 73° | 20km/h | 21740m | 6.5m/s | -51.6°C | 3.3% | 0hPa | 2.7V | 00:00:00 | 01:38:10 | 00:00:00 | |
| OE5MMP-10 | 2026-09-01 12:17:59 | 49.44153 | 18.00221 | 68° | 18km/h | 21733m | 6.2m/s | -51.6°C | 3.2% | 0hPa | 2.7V | 00:00:00 | 01:38:09 | 00:00:00 | |
| PG1ADW-2 | 2026-09-01 12:17:58 | 49.44151 | 18.00214 | 63° | 18km/h | 21728m | 4.7m/s | -51.7°C | 3.3% | 0hPa | 2.7V | 00:00:00 | 01:38:08 | 00:00:00 | |
| HA6NAB-11 | 2026-09-01 12:17:55 | 49.44147 | 18.00203 | 53° | 16km/h | 21716m | 6.2m/s | -51.8°C | 0.9% | 0hPa | 2.7V | 00:00:00 | 00:00:00 | 00:00:00 | |
| PETON7-10 | 2026-09-01 12:17:52 | 49.44135 | 18.00178 | 59° | 16km/h | 21694m | 4.6m/s | -51.8°C | 3.3% | 0hPa | 2.7V | 00:00:00 | 00:00:00 | 00:00:00 | |
| DO3MHA-11 | 2026-09-01 12:17:50 | 49.44130 | 18.00165 | 66° | 18km/h | 21683m | 4.9m/s | -51.7°C | 3.4% | 0hPa | 2.6V | 00:00:00 | 01:38:00 | 00:00:00 | |
| OE5MMP-10 | 2026-09-01 12:17:49 | 49.44129 | 18.00159 | 70° | 16km/h | 21678m | 5.0m/s | -51.7°C | 3.3% | 0hPa | 2.6V | 00:00:00 | 01:37:59 | 00:00:00 | |
| OE5DRO-10 | 2026-09-01 12:17:45 | 49.44121 | 18.00129 | 67° | 11km/h | 21656m | 6.3m/s | -51.7°C | 3.3% | 0hPa | 2.6V | 00:00:00 | 00:00:00 | 00:00:00 | |
| DO3MHA-11 | 2026-09-01 12:17:40 | 49.44110 | 18.00108 | 51° | 11km/h | 21627m | 5.4m/s | -51.7°C | 3.3% | 0hPa | 2.6V | 00:00:00 | 01:37:50 | 00:00:00 | |
| SP3WXH-11 | 2026-09-01 12:17:39 | 49.44108 | 18.00100 | 79° | 7km/h | 21615m | 5.0m/s | -51.7°C | 0.8% | -1.0hPa | 2.6V | 00:00:00 | 00:00:00 | 00:00:00 | |
| PG1ADW-2 | 2026-09-01 12:17:38 | 49.44108 | 18.00100 | 80° | 9km/h | 21615m | 5.0m/s | -51.7°C | 3.3% | 0hPa | 2.6V | 00:00:00 | 00:00:00 | 00:00:00 | |
| PETON7-10 | 2026-09-01 12:17:37 | 49.44108 | 18.00097 | 92° | 9km/h | 21611m | 4.1m/s | -51.6°C | 3.3% | 0hPa | 2.7V | 00:00:00 | 00:00:00 | 00:00:00 | |
| OE5DXL-15 | 2026-09-01 12:17:35 | 49.44108 | 18.00088 | 91° | 7km/h | 21599m | 5.4m/s | -51.5°C | 3.3% | 0hPa | 2.7V | 00:00:00 | 00:00:00 | 00:00:00 | |
| OE3OSB-13 | 2026-09-01 12:17:34 | 49.44108 | 18.00079 | 100° | 9km/h | 21588m | 6.5m/s | -51.6°C | 0.8% | -1.0hPa | 2.7V | 00:00:00 | 00:00:00 | 00:00:00 | |
| DO3MHA-11 | 2026-09-01 12:17:30 | 49.44109 | 18.00071 | 91° | 9km/h | 21572m | 6.1m/s | -51.6°C | 3.3% | 0hPa | 2.7V | 00:00:00 | 01:37:40 | 08:30:00 | |
| OE5MMP-10 | 2026-09-01 12:17:29 | 49.44109 | 18.00067 | 88° | 7km/h | 21566m | 5.4m/s | -51.5°C | 3.3% | 0hPa | 2.7V | 00:00:00 | 01:37:39 | 00:00:00 | |
| OE5DRO-10 | 2026-09-01 12:17:26 | 49.44110 | 18.00056 | 122° | 5km/h | 21551m | 5.8m/s | -51.6°C | 3.3% | 0hPa | 2.7V | 00:00:00 | 00:00:00 | 00:00:00 | |
| PETON7-10 | 2026-09-01 12:17:22 | 49.44114 | 18.00044 | 98° | 5km/h | 21528m | 5.2m/s | -51.7°C | 3.3% | 0hPa | 2.6V | 00:00:00 | 01:37:32 | 00:00:00 | |
| DO3MHA-11 | 2026-09-01 12:17:20 | 49.44114 | 18.00042 | 332° | 5km/h | 21516m | 4.4m/s | -51.7°C | 3.2% | 0hPa | 2.6V | 00:00:00 | 01:37:30 | 00:00:00 | |
| PG1ADW-2 | 2026-09-01 12:17:19 | 49.44112 | 18.00042 | 21° | 9km/h | 21505m | 6.5m/s | -51.8°C | 3.2% | 0hPa | 2.6V | 00:00:00 | 00:00:00 | 00:00:00 | |
| DO3MHA-11 | 2026-09-01 12:17:10 | 49.44106 | 18.00032 | 85° | 9km/h | 21462m | 5.5m/s | -52.0°C | 3.4% | 0hPa | 2.6V | 00:00:00 | 01:37:20 | 00:00:00 | |
| SP3WXH-11 | 2026-09-01 12:17:08 | 49.44106 | 18.00024 | 89° | 9km/h | 21446m | 6.4m/s | -52.3°C | 0.8% | -1.0hPa | 2.6V | 00:00:00 | 00:00:00 | 00:00:00 | |
| OE5DRO-10 | 2026-09-01 12:17:07 | 49.44106 | 18.00024 | 90° | 13km/h | 21446m | 6.4m/s | -52.2°C | 3.4% | 0hPa | 2.6V | 00:00:00 | 00:00:00 | 00:00:00 | |
| OE5DXL-15 | 2026-09-01 12:17:05 | 49.44106 | 18.00015 | 81° | 18km/h | 21435m | 4.4m/s | -52.3°C | 3.5% | 0hPa | 2.6V | 00:00:00 | 00:00:00 | 00:00:00 | |
| OE5MMP-10 | 2026-09-01 12:17:03 | 49.44104 | 18.00008 | 59° | 13km/h | 21424m | 4.8m/s | -52.0°C | 3.5% | 0hPa | 2.6V | 00:00:00 | 01:37:13 | 00:00:00 | |
| OE3OSB-13 | 2026-09-01 12:17:02 | 49.44101 | 18.00000 | 68° | 11km/h | 21414m | 6.6m/s | -52.1°C | 0.8% | -1.0hPa | 2.6V | 00:00:00 | 00:00:00 | 00:00:00 | |
| DO3MHA-11 | 2026-09-01 12:17:00 | 49.44100 | 17.99995 | 80° | 15km/h | 21408m | 5.6m/s | -52.0°C | 3.4% | 0hPa | 2.6V | 00:00:00 | 01:37:10 | 00:00:00 | |
| PG1ADW-2 | 2026-09-01 12:16:58 | 49.44099 | 17.99985 | 84° | 18km/h | 21397m | 5.7m/s | -52.1°C | 3.3% | 0hPa | 2.6V | 00:00:00 | 00:00:00 | 00:00:00 | |
| OE5MMP-10 | 2026-09-01 12:16:53 | 49.44097 | 17.99959 | 88° | 18km/h | 21368m | 4.2m/s | -51.8°C | 3.3% | 0hPa | 2.6V | 00:00:00 | 01:37:03 | 00:00:00 | |
| PETON7-10 | 2026-09-01 12:16:52 | 49.44097 | 17.99951 | 86° | 20km/h | 21363m | 5.1m/s | -51.7°C | 3.3% | 0hPa | 2.6V | 00:00:00 | 00:00:00 | 00:00:00 | |
| DO3MHA-11 | 2026-09-01 12:16:50 | 49.44096 | 17.99939 | 85° | 20km/h | 21352m | 4.4m/s | -51.7°C | 3.3% | 0hPa | 2.6V | 00:00:00 | 01:37:00 | 00:00:00 | |
| OE5DRO-10 | 2026-09-01 12:16:48 | 49.44096 | 17.99926 | 92° | 26km/h | 21341m | 6.9m/s | -51.7°C | 3.2% | 0hPa | 2.6V | 00:00:00 | 00:00:00 | 00:00:00 | |
| OE5MMP-10 | 2026-09-01 12:16:43 | 49.44097 | 17.99888 | 83° | 26km/h | 21313m | 4.5m/s | -52.0°C | 3.3% | 0hPa | 2.6V | 00:00:00 | 01:36:53 | 00:00:00 | |
| DO3MHA-11 | 2026-09-01 12:16:40 | 49.44092 | 17.99860 | 74° | 27km/h | 21297m | 5.0m/s | -52.1°C | 3.3% | 0hPa | 2.6V | 00:00:00 | 01:36:50 | 00:00:00 | |
| PG1ADW-2 | 2026-09-01 12:16:38 | 49.44088 | 17.99842 | 64° | 26km/h | 21286m | 5.2m/s | -52.0°C | 3.4% | 0hPa | 2.6V | 00:00:00 | 01:36:48 | 00:00:00 | |
| PETON7-10 | 2026-09-01 12:16:37 | 49.44085 | 17.99833 | 59° | 26km/h | 21280m | 6.8m/s | -52.0°C | 3.4% | 0hPa | 2.7V | 00:00:00 | 01:36:47 | 00:00:00 | |
| SP3WXH-11 | 2026-09-01 12:16:36 | 49.44081 | 17.99824 | 57° | 29km/h | 21273m | 5.6m/s | -52.1°C | 0.8% | -1.0hPa | 2.7V | 00:00:00 | 00:00:00 | 00:00:00 | |
| OE5DXL-15 | 2026-09-01 12:16:35 | 49.44077 | 17.99814 | 60° | 24km/h | 21269m | 3.9m/s | -52.0°C | 3.4% | 0hPa | 2.7V | 00:00:00 | 00:00:00 | 08:30:00 | |
| OE5MMP-10 | 2026-09-01 12:16:32 | 49.44069 | 17.99784 | 75° | 26km/h | 21253m | 4.8m/s | -52.2°C | 3.3% | 0hPa | 2.7V | 00:00:00 | 01:36:42 | 00:00:00 | |
| OE3OSB-13 | 2026-09-01 12:16:31 | 49.44066 | 17.99762 | 81° | 29km/h | 21242m | 4.6m/s | -52.2°C | 0.8% | -1.0hPa | 2.7V | 00:00:00 | 00:00:00 | 00:00:00 | |
| OE5DRO-10 | 2026-09-01 12:16:30 | 49.44065 | 17.99751 | 87° | 22km/h | 21237m | 4.5m/s | -52.1°C | 3.4% | 0hPa | 2.7V | 00:00:00 | 00:00:00 | 08:30:00 | |
| OE5MMP-10 | 2026-09-01 12:16:22 | 49.44063 | 17.99690 | 67° | 20km/h | 21199m | 6.3m/s | -52.2°C | 3.3% | 0hPa | 2.7V | 00:00:00 | 01:36:32 | 00:00:00 | |
| PG1ADW-2 | 2026-09-01 12:16:18 | 49.44052 | 17.99659 | 61° | 22km/h | 21178m | 5.2m/s | -52.2°C | 3.4% | 0hPa | 2.7V | 00:00:00 | 00:00:00 | 00:00:00 | |
| OE5MMP-10 | 2026-09-01 12:16:12 | 49.44043 | 17.99617 | 91° | 22km/h | 21146m | 5.3m/s | -52.4°C | 3.5% | 0hPa | 2.7V | 00:00:00 | 01:36:22 | 00:00:00 | |
| DO3MHA-11 | 2026-09-01 12:16:10 | 49.44044 | 17.99600 | 95° | 22km/h | 21136m | 5.3m/s | -52.5°C | 3.5% | 0hPa | 2.7V | 00:00:00 | 01:36:20 | 00:00:00 | |
| PETON7-10 | 2026-09-01 12:16:07 | 49.44044 | 17.99579 | 80° | 24km/h | 21121m | 5.5m/s | -52.4°C | 3.4% | 0hPa | 2.7V | 00:00:00 | 00:00:00 | 00:00:00 | |
| SP3WXH-11 | 2026-09-01 12:16:06 | 49.44040 | 17.99562 | 65° | 24km/h | 21109m | 4.8m/s | -52.5°C | 0.8% | -1.0hPa | 2.7V | 00:00:00 | 00:00:00 | 00:00:00 | |
| OE5DXL-15 | 2026-09-01 12:16:05 | 49.44040 | 17.99562 | 66° | 26km/h | 21109m | 4.8m/s | -52.4°C | 3.3% | 0hPa | 2.7V | 00:00:00 | 00:00:00 | 00:00:00 | |
| OE3OSB-13 | 2026-09-01 12:16:00 | 49.44017 | 17.99517 | 53° | 24km/h | 21075m | 5.0m/s | -52.6°C | 0.8% | -1.0hPa | 2.7V | 00:00:00 | 00:00:00 | 00:00:00 | |
| PG1ADW-2 | 2026-09-01 12:15:58 | 49.44014 | 17.99509 | 57° | 24km/h | 21069m | 6.7m/s | -52.6°C | 3.4% | 0hPa | 2.7V | 00:00:00 | 00:00:00 | 00:00:00 | |
| HA6NAB-11 | 2026-09-01 12:15:56 | 49.44010 | 17.99496 | 79° | 20km/h | 21058m | 4.6m/s | -52.6°C | 0.9% | 0hPa | 2.7V | 00:00:00 | 00:00:00 | 00:00:00 | |
| PETON7-10 | 2026-09-01 12:15:52 | 49.44006 | 17.99458 | 77° | 26km/h | 21036m | 6.5m/s | -52.9°C | 3.4% | 0hPa | 2.7V | 00:00:00 | 01:36:02 | 00:00:00 | |
| OE5DRO-10 | 2026-09-01 12:15:51 | 49.44004 | 17.99447 | 69° | 26km/h | 21030m | 4.7m/s | -52.9°C | 3.4% | 0hPa | 2.7V | 00:00:00 | 00:00:00 | 00:00:00 | |
| DO3MHA-11 | 2026-09-01 12:15:50 | 49.44001 | 17.99437 | 64° | 26km/h | 21025m | 5.6m/s | -53.0°C | 3.4% | 0hPa | 2.7V | 00:00:00 | 01:36:00 | 00:00:00 | |
| HA6NAB-11 | 2026-09-01 12:15:49 | 49.44001 | 17.99437 | 65° | 31km/h | 21025m | 5.7m/s | -53.0°C | 0.9% | 0hPa | 2.7V | 00:00:00 | 00:00:00 | 00:00:00 | |
| HA6NAB-11 | 2026-09-01 12:15:44 | 49.43980 | 17.99389 | 54° | 24km/h | 20997m | 5.5m/s | -53.1°C | 1.0% | 0hPa | 2.7V | 00:00:00 | 00:00:00 | 00:00:00 | |
| OE5MMP-10 | 2026-09-01 12:15:42 | 49.43972 | 17.99366 | 68° | 26km/h | 20979m | 4.2m/s | -53.2°C | 3.6% | 0hPa | 2.7V | 00:00:00 | 01:35:52 | 08:30:00 | |
| DO3MHA-11 | 2026-09-01 12:15:40 | 49.43968 | 17.99353 | 65° | 27km/h | 20967m | 4.8m/s | -53.3°C | 3.6% | 0hPa | 2.6V | 00:00:00 | 01:35:50 | 00:00:00 | |
| PG1ADW-2 | 2026-09-01 12:15:38 | 49.43963 | 17.99339 | 57° | 27km/h | 20957m | 6.5m/s | -53.3°C | 3.6% | 0hPa | 2.6V | 00:00:00 | 00:00:00 | 08:30:00 | |
| PETON7-10 | 2026-09-01 12:15:37 | 49.43959 | 17.99330 | 55° | 29km/h | 20951m | 5.3m/s | -53.4°C | 3.6% | 0hPa | 2.6V | 00:00:00 | 00:00:00 | 00:00:00 | |
| OE5DXL-15 | 2026-09-01 12:15:35 | 49.43951 | 17.99314 | 49° | 27km/h | 20939m | 5.6m/s | -53.1°C | 3.5% | 0hPa | 2.6V | 00:00:00 | 00:00:00 | 00:00:00 | |
| SP3WXH-11 | 2026-09-01 12:15:34 | 49.43945 | 17.99305 | 45° | 29km/h | 20934m | 4.5m/s | -53.1°C | 0.8% | -1.0hPa | 2.6V | 00:00:00 | 00:00:00 | 00:00:00 | |
| OE5DRO-10 | 2026-09-01 12:15:33 | 49.43933 | 17.99288 | 42° | 27km/h | 20923m | 5.2m/s | -53.1°C | 3.4% | 0hPa | 2.6V | 00:00:00 | 00:00:00 | 00:00:00 | |
| DO3MHA-11 | 2026-09-01 12:15:32 | 49.43920 | 17.99273 | 32° | 27km/h | 20912m | 6.4m/s | -53.2°C | 3.5% | 0hPa | 2.7V | 00:00:00 | 01:35:40 | 00:00:00 | |
| OE3OSB-13 | 2026-09-01 12:15:29 | 49.43908 | 17.99265 | 17° | 24km/h | 20901m | 4.4m/s | -53.0°C | 0.9% | -1.0hPa | 2.7V | 00:00:00 | 00:00:00 | 00:00:00 | |
| HA6NAB-11 | 2026-09-01 12:15:27 | 49.43908 | 17.99265 | 18° | 26km/h | 20902m | 4.4m/s | -53.0°C | 1.0% | 0hPa | 2.7V | 00:00:00 | 00:00:00 | 00:00:00 | |
| HA6NAB-11 | 2026-09-01 12:15:22 | 49.43870 | 17.99241 | 35° | 24km/h | 20867m | 5.7m/s | -53.2°C | 1.0% | 0hPa | 2.7V | 00:00:00 | 00:00:00 | 00:00:00 | |
| HA6NAB-11 | 2026-09-01 12:15:19 | 49.43846 | 17.99207 | 36° | 26km/h | 20840m | 6.4m/s | -53.5°C | 1.0% | 0hPa | 2.7V | 00:00:00 | 00:00:00 | 00:00:00 | |
| OE5DRO-10 | 2026-09-01 12:15:13 | 49.43819 | 17.99189 | 17° | 22km/h | 20817m | 4.6m/s | -53.6°C | 3.7% | 0hPa | 2.7V | 00:00:00 | 00:00:00 | 00:00:00 | |
| OE5MMP-10 | 2026-09-01 12:15:12 | 49.43811 | 17.99186 | 13° | 24km/h | 20812m | 5.2m/s | -53.6°C | 3.6% | 0hPa | 2.7V | 00:00:00 | 01:35:22 | 00:00:00 | |
| HA6NAB-11 | 2026-09-01 12:15:11 | 49.43803 | 17.99184 | 9° | 29km/h | 20806m | 5.9m/s | -53.6°C | 1.0% | 0hPa | 2.6V | 00:00:00 | 00:00:00 | 00:00:00 | |
| PETON7-10 | 2026-09-01 12:15:07 | 49.43777 | 17.99175 | 22° | 16km/h | 20783m | 4.9m/s | -53.5°C | 3.6% | 0hPa | 2.6V | 00:00:00 | 01:35:17 | 00:00:00 | |
| DO3MHA-11 | 2026-09-01 12:15:06 | 49.43771 | 17.99172 | 25° | 20km/h | 20778m | 6.3m/s | -53.4°C | 3.6% | 0hPa | 2.6V | 00:00:00 | 01:35:16 | 00:00:00 | |
| OE5DXL-15 | 2026-09-01 12:15:05 | 49.43768 | 17.99169 | 29° | 13km/h | 20771m | 6.2m/s | -53.3°C | 3.5% | 0hPa | 2.6V | 00:00:00 | 00:00:00 | 00:00:00 | |
| SP3WXH-11 | 2026-09-01 12:15:03 | 49.43761 | 17.99162 | 36° | 18km/h | 20760m | 7.0m/s | -53.4°C | 0.9% | -1.0hPa | 2.7V | 00:00:00 | 00:00:00 | 00:00:00 | |
| OE3OSB-13 | 2026-09-01 12:14:59 | 49.43737 | 17.99135 | 32° | 18km/h | 20724m | 6.0m/s | -53.3°C | 0.9% | -1.0hPa | 2.7V | 00:00:00 | 00:00:00 | 00:00:00 | |
| PG1ADW-2 | 2026-09-01 12:14:58 | 49.43741 | 17.99139 | 36° | 11km/h | 20730m | 6.4m/s | -53.3°C | 3.6% | 0hPa | 2.7V | 00:00:00 | 00:00:00 | 00:00:00 | |
| DO3MHA-11 | 2026-09-01 12:14:56 | 49.43733 | 17.99131 | 33° | 11km/h | 20718m | 4.7m/s | -53.3°C | 3.6% | 0hPa | 2.7V | 00:00:00 | 01:35:06 | 00:00:00 | |
| OE5DRO-10 | 2026-09-01 12:14:54 | 49.43728 | 17.99125 | 47° | 11km/h | 20706m | 6.1m/s | -53.2°C | 3.6% | 0hPa | 2.7V | 00:00:00 | 00:00:00 | 00:00:00 | |
| HA6NAB-11 | 2026-09-01 12:14:53 | 49.43728 | 17.99125 | 47° | 7km/h | 20706m | 6.1m/s | -53.2°C | 1.0% | 0hPa | 2.7V | 00:00:00 | 00:00:00 | 00:00:00 | |
| PETON7-10 | 2026-09-01 12:14:52 | 49.43726 | 17.99121 | 67° | 11km/h | 20696m | 6.3m/s | -53.1°C | 3.5% | 0hPa | 2.7V | 00:00:00 | 00:00:00 | 00:00:00 | |
| HA6NAB-11 | 2026-09-01 12:14:47 | 49.43721 | 17.99107 | 70° | 9km/h | 20672m | 6.5m/s | -53.1°C | 1.0% | 0hPa | 2.7V | 00:00:00 | 00:00:00 | 00:00:00 | |
| DO3MHA-11 | 2026-09-01 12:14:46 | 49.43719 | 17.99101 | 50° | 13km/h | 20661m | 5.0m/s | -53.0°C | 3.5% | 0hPa | 2.7V | 00:00:00 | 01:34:56 | 00:00:00 | |
| HA6NAB-11 | 2026-09-01 12:14:41 | 49.43711 | 17.99089 | 58° | 11km/h | 20639m | 6.3m/s | -53.1°C | 1.0% | 0hPa | 2.7V | 00:00:00 | 00:00:00 | 00:00:00 | |
| OE5MMP-10 | 2026-09-01 12:14:40 | 49.43711 | 17.99081 | 114° | 9km/h | 20627m | 4.4m/s | -53.2°C | 3.6% | 0hPa | 2.7V | 00:00:00 | 01:34:50 | 00:00:00 | |
| PG1ADW-2 | 2026-09-01 12:14:38 | 49.43714 | 17.99071 | 112° | 15km/h | 20617m | 6.4m/s | -53.2°C | 3.5% | 0hPa | 2.6V | 00:00:00 | 00:00:00 | 00:00:00 | |
| PETON7-10 | 2026-09-01 12:14:37 | 49.43715 | 17.99066 | 103° | 13km/h | 20611m | 5.1m/s | -53.2°C | 3.6% | 0hPa | 2.7V | 00:00:00 | 00:00:00 | 00:00:00 | |
| DO3MHA-11 | 2026-09-01 12:14:36 | 49.43715 | 17.99062 | 101° | 9km/h | 20606m | 4.6m/s | -53.2°C | 3.6% | 0hPa | 2.7V | 00:00:00 | 01:34:46 | 00:00:00 | |
| OE5DXL-15 | 2026-09-01 12:14:35 | 49.43716 | 17.99058 | 106° | 15km/h | 20601m | 6.0m/s | -53.3°C | 3.6% | 0hPa | 2.7V | 00:00:00 | 00:00:00 | 00:00:00 | |
| SP3WXH-11 | 2026-09-01 12:14:33 | 49.43718 | 17.99047 | 93° | 9km/h | 20584m | 5.5m/s | -53.4°C | 0.9% | -1.0hPa | 2.7V | 00:00:00 | 00:00:00 | 00:00:00 | |
| OE5MMP-10 | 2026-09-01 12:14:28 | 49.43715 | 17.99037 | 107° | 18km/h | 20563m | 5.3m/s | 0°C | 0% | 0hPa | 2.7V | 00:00:00 | 01:34:38 | 00:00:00 | |
| DO3MHA-11 | 2026-09-01 12:14:26 | 49.43718 | 17.99030 | 117° | 20km/h | 20553m | 4.8m/s | -53.1°C | 3.6% | 0hPa | 2.7V | 00:00:00 | 01:34:36 | 08:30:00 | |
| PETON7-10 | 2026-09-01 12:14:22 | 49.43720 | 17.98997 | 85° | 16km/h | 20532m | 5.4m/s | -53.1°C | 3.5% | 0hPa | 2.6V | 00:00:00 | 01:34:32 | 00:00:00 | |
| PG1ADW-2 | 2026-09-01 12:14:18 | 49.43718 | 17.98967 | 89° | 15km/h | 20512m | 5.7m/s | -52.9°C | 3.5% | 0hPa | 2.6V | 00:00:00 | 00:00:00 | 00:00:00 | |
| OE5MMP-10 | 2026-09-01 12:14:17 | 49.43718 | 17.98960 | 95° | 15km/h | 20506m | 5.7m/s | 0°C | 0% | 0hPa | 2.6V | 00:00:00 | 01:34:27 | 00:00:00 | |
| OE5DRO-10 | 2026-09-01 12:14:16 | 49.43719 | 17.98953 | 98° | 15km/h | 20501m | 4.2m/s | -52.9°C | 3.5% | 0hPa | 2.6V | 00:00:00 | 00:00:00 | 00:00:00 | |
| HA6NAB-11 | 2026-09-01 12:14:10 | 49.43720 | 17.98930 | 89° | 15km/h | 20473m | 4.7m/s | -52.9°C | 1.1% | 0hPa | 2.6V | 00:00:00 | 00:00:00 | 00:00:00 | |
| OE5MMP-10 | 2026-09-01 12:14:07 | 49.43713 | 17.98905 | 62° | 15km/h | 20451m | 6.0m/s | 0°C | 0% | 0hPa | 2.6V | 00:00:00 | 01:34:17 | 08:30:00 | |
| DO3MHA-11 | 2026-09-01 12:14:06 | 49.43711 | 17.98898 | 69° | 15km/h | 20445m | 5.5m/s | -52.9°C | 3.5% | 0hPa | 2.6V | 00:00:00 | 01:34:16 | 00:00:00 | |
| OE5DXL-15 | 2026-09-01 12:14:05 | 49.43709 | 17.98891 | 72° | 18km/h | 20440m | 4.8m/s | -52.8°C | 3.4% | 0hPa | 2.6V | 00:00:00 | 00:00:00 | 00:00:00 | |
| SP3WXH-11 | 2026-09-01 12:14:01 | 49.43706 | 17.98872 | 91° | 11km/h | 20418m | 6.4m/s | -52.9°C | 0.8% | -1.0hPa | 2.6V | 00:00:00 | 00:00:00 | 00:00:00 | |
| OE3OSB-13 | 2026-09-01 12:13:55 | 49.43699 | 17.98846 | 38° | 13km/h | 20388m | 4.9m/s | -52.9°C | 0.8% | -1.0hPa | 2.6V | 00:00:00 | 00:00:00 | 00:00:00 | |
| PETON7-10 | 2026-09-01 12:13:52 | 49.43691 | 17.98834 | 51° | 20km/h | 20372m | 5.0m/s | -53.0°C | 3.4% | 0hPa | 2.6V | 00:00:00 | 00:00:00 | 00:00:00 | |
| OE5MMP-10 | 2026-09-01 12:13:47 | 49.43676 | 17.98808 | 58° | 20km/h | 20346m | 5.0m/s | 0°C | 0% | 0hPa | 2.6V | 00:00:00 | 01:33:57 | 00:00:00 | |
| OE3JTB-15 | 2026-09-01 12:13:46 | 49.43664 | 17.98789 | 33° | 20km/h | 20325m | 4.7m/s | -53.5°C | 3.6% | 0hPa | 2.6V | 00:00:00 | 01:33:53 | 00:00:00 | |
| OE5DRO-10 | 2026-09-01 12:13:38 | 49.43637 | 17.98768 | 26° | 24km/h | 20299m | 4.5m/s | -53.4°C | 3.5% | 0hPa | 2.6V | 00:00:00 | 00:00:00 | 08:30:00 | |
| OE5MMP-10 | 2026-09-01 12:13:37 | 49.43630 | 17.98762 | 29° | 22km/h | 20294m | 6.1m/s | 0°C | 0% | 0hPa | 2.7V | 00:00:00 | 01:33:47 | 00:00:00 | |
| DO3MHA-11 | 2026-09-01 12:13:36 | 49.43624 | 17.98757 | 32° | 22km/h | 20288m | 5.1m/s | -53.3°C | 3.5% | 0hPa | 2.7V | 00:00:00 | 01:33:46 | 00:00:00 | |
| OE5DXL-15 | 2026-09-01 12:13:35 | 49.43619 | 17.98752 | 30° | 22km/h | 20283m | 4.2m/s | -53.3°C | 3.5% | 0hPa | 2.7V | 00:00:00 | 00:00:00 | 00:00:00 | |
| SP3WXH-11 | 2026-09-01 12:13:30 | 49.43593 | 17.98734 | 31° | 18km/h | 20257m | 4.5m/s | -53.5°C | 0.9% | -1.0hPa | 2.6V | 00:00:00 | 00:00:00 | 00:00:00 | |
| OE5MMP-10 | 2026-09-01 12:13:26 | 49.43573 | 17.98720 | 21° | 26km/h | 20237m | 3.9m/s | 0°C | 0% | 0hPa | 2.6V | 00:00:00 | 01:33:36 | 00:00:00 | |
| OE3OSB-13 | 2026-09-01 12:13:24 | 49.43561 | 17.98712 | 26° | 24km/h | 20227m | 5.2m/s | -53.5°C | 0.9% | -1.0hPa | 2.6V | 00:00:00 | 00:00:00 | 00:00:00 | |
| PETON7-10 | 2026-09-01 12:13:22 | 49.43551 | 17.98705 | 20° | 22km/h | 20218m | 6.3m/s | -53.5°C | 3.5% | 0hPa | 2.6V | 00:00:00 | 00:00:00 | 00:00:00 | |
| OE5DRO-10 | 2026-09-01 12:13:19 | 49.43536 | 17.98696 | 32° | 22km/h | 20202m | 6.1m/s | -53.7°C | 3.5% | 0hPa | 2.6V | 00:00:00 | 00:00:00 | 00:00:00 | |
| PG1ADW-2 | 2026-09-01 12:13:18 | 49.43532 | 17.98691 | 41° | 22km/h | 20197m | 4.8m/s | -53.8°C | 3.6% | 0hPa | 2.6V | 00:00:00 | 00:00:00 | 00:00:00 | |
| DO3MHA-11 | 2026-09-01 12:13:16 | 49.43524 | 17.98680 | 44° | 22km/h | 20186m | 5.5m/s | -54.0°C | 3.7% | 0hPa | 2.6V | 00:00:00 | 01:33:26 | 00:00:00 | |
| OE3JTB-15 | 2026-09-01 12:13:11 | 49.43497 | 17.98632 | 36° | 26km/h | 20146m | 5.9m/s | -54.0°C | 3.7% | 0hPa | 2.6V | 00:00:00 | 00:00:00 | 00:00:00 | |
| PETON7-10 | 2026-09-01 12:13:07 | 49.43492 | 17.98627 | 36° | 26km/h | 20140m | 5.0m/s | -54.0°C | 3.7% | 0hPa | 2.6V | 00:00:00 | 00:00:00 | 00:00:00 | |
| DO3MHA-11 | 2026-09-01 12:13:06 | 49.43486 | 17.98621 | 33° | 26km/h | 20136m | 4.1m/s | -54.0°C | 3.7% | 0hPa | 2.6V | 00:00:00 | 01:33:16 | 00:00:00 | |
| OE5DXL-15 | 2026-09-01 12:13:05 | 49.43480 | 17.98615 | 29° | 26km/h | 20131m | 6.0m/s | -54.0°C | 3.7% | 0hPa | 2.6V | 00:00:00 | 00:00:00 | 00:00:00 | |
| SP3WXH-11 | 2026-09-01 12:12:59 | 49.43449 | 17.98585 | 34° | 22km/h | 20099m | 5.7m/s | -53.9°C | 0.9% | -1.0hPa | 2.6V | 00:00:00 | 00:00:00 | 00:00:00 | |
| OE3OSB-13 | 2026-09-01 12:12:53 | 49.43416 | 17.98552 | 21° | 27km/h | 20067m | 5.5m/s | -53.7°C | 0.9% | -1.0hPa | 2.6V | 00:00:00 | 00:00:00 | 00:00:00 | |
| PETON7-10 | 2026-09-01 12:12:52 | 49.43409 | 17.98549 | 19° | 24km/h | 20062m | 4.6m/s | -53.6°C | 3.7% | 0hPa | 2.6V | 00:00:00 | 01:33:02 | 00:00:00 | |
| DO3MHA-11 | 2026-09-01 12:12:46 | 49.43371 | 17.98525 | 20° | 22km/h | 20030m | 4.4m/s | -53.6°C | 3.7% | 0hPa | 2.6V | 00:00:00 | 01:32:56 | 00:00:00 | |
| OE5DRO-10 | 2026-09-01 12:12:41 | 49.43348 | 17.98505 | 31° | 24km/h | 20003m | 3.7m/s | -53.3°C | 3.7% | 0hPa | 2.6V | 00:00:00 | 00:00:00 | 00:00:00 | |
| PG1ADW-2 | 2026-09-01 12:12:38 | 49.43335 | 17.98490 | 37° | 24km/h | 19988m | 4.3m/s | -53.2°C | 3.6% | 0hPa | 2.7V | 00:00:00 | 01:32:48 | 08:30:00 | |
| PETON7-10 | 2026-09-01 12:12:37 | 49.43329 | 17.98485 | 30° | 24km/h | 19983m | 5.3m/s | -53.2°C | 3.6% | 0hPa | 2.7V | 00:00:00 | 00:00:00 | 00:00:00 | |
| OE5MMP-10 | 2026-09-01 12:12:36 | 49.43323 | 17.98480 | 23° | 24km/h | 19978m | 6.0m/s | 0°C | 0% | 0hPa | 2.6V | 00:00:00 | 01:32:46 | 00:00:00 | |
| OE5DXL-15 | 2026-09-01 12:12:35 | 49.43316 | 17.98476 | 20° | 22km/h | 19972m | 4.9m/s | -53.1°C | 3.5% | 0hPa | 2.6V | 00:00:00 | 00:00:00 | 00:00:00 | |
| SP3WXH-11 | 2026-09-01 12:12:28 | 49.43280 | 17.98439 | 53° | 16km/h | 19935m | 5.3m/s | -52.8°C | 0.9% | -1.0hPa | 2.6V | 00:00:00 | 00:00:00 | 00:00:00 | |
| OE5MMP-10 | 2026-09-01 12:12:26 | 49.43275 | 17.98427 | 59° | 22km/h | 19924m | 4.5m/s | 0°C | 0% | 0hPa | 2.6V | 00:00:00 | 01:32:36 | 00:00:00 | |
| PETON7-10 | 2026-09-01 12:12:22 | 49.43258 | 17.98408 | 23° | 20km/h | 19903m | 5.0m/s | -52.5°C | 3.4% | 0hPa | 2.6V | 00:00:00 | 00:00:00 | 00:00:00 | |
| PG1ADW-2 | 2026-09-01 12:12:18 | 49.43235 | 17.98390 | 26° | 18km/h | 19882m | 6.6m/s | -52.6°C | 3.3% | 0hPa | 2.6V | 00:00:00 | 00:00:00 | 00:00:00 | |
| OE5MMP-10 | 2026-09-01 12:12:16 | 49.43227 | 17.98382 | 38° | 18km/h | 19872m | 4.2m/s | 0°C | 0% | 0hPa | 2.6V | 00:00:00 | 01:32:26 | 00:00:00 | |
| OE3JTB-15 | 2026-09-01 12:12:11 | 49.43205 | 17.98336 | 42° | 13km/h | 19830m | 5.4m/s | -53.1°C | 3.5% | 0hPa | 2.6V | 00:00:00 | 01:32:18 | 00:00:00 | |
| PETON7-10 | 2026-09-01 12:12:07 | 49.43201 | 17.98331 | 40° | 16km/h | 19826m | 3.9m/s | -53.1°C | 3.5% | 0hPa | 2.6V | 00:00:00 | 01:32:17 | 00:00:00 | |
| OE5MMP-10 | 2026-09-01 12:12:06 | 49.43197 | 17.98326 | 34° | 16km/h | 19821m | 5.5m/s | 0°C | 0% | 0hPa | 2.6V | 00:00:00 | 01:32:16 | 00:00:00 | |
| OE5DXL-15 | 2026-09-01 12:12:05 | 49.43194 | 17.98323 | 26° | 13km/h | 19815m | 6.1m/s | -53.3°C | 3.5% | 0hPa | 2.6V | 00:00:00 | 00:00:00 | 08:30:00 | |
| OE5DRO-10 | 2026-09-01 12:12:03 | 49.43186 | 17.98317 | 38° | 15km/h | 19805m | 5.3m/s | -53.4°C | 3.6% | 0hPa | 2.7V | 00:00:00 | 00:00:00 | 00:00:00 | |
| HA6NAB-11 | 2026-09-01 12:12:02 | 49.43186 | 17.98317 | 39° | 16km/h | 19805m | 5.3m/s | -53.5°C | 1.0% | 0hPa | 2.7V | 00:00:00 | 00:00:00 | 00:00:00 | |
| SP3WXH-11 | 2026-09-01 12:11:58 | 49.43167 | 17.98282 | 47° | 18km/h | 19771m | 5.6m/s | -53.4°C | 0.9% | -1.0hPa | 2.7V | 00:00:00 | 00:00:00 | 00:00:00 | |
| OE3OSB-13 | 2026-09-01 12:11:51 | 49.43150 | 17.98269 | 350° | 11km/h | 19739m | 5.7m/s | -53.3°C | 0.9% | -1.0hPa | 2.7V | 00:00:00 | 00:00:00 | 00:00:00 | |
| DO3MHA-11 | 2026-09-01 12:11:50 | 49.43147 | 17.98270 | 4° | 9km/h | 19733m | 6.2m/s | -53.3°C | 3.5% | 0hPa | 2.7V | 00:00:00 | 01:32:00 | 00:00:00 | |
| HA6NAB-11 | 2026-09-01 12:11:45 | 49.43136 | 17.98263 | 29° | 11km/h | 19712m | 4.8m/s | -53.4°C | 1.0% | 0hPa | 2.6V | 00:00:00 | 00:00:00 | 00:00:00 | |
| OE5DRO-10 | 2026-09-01 12:11:44 | 49.43133 | 17.98259 | 63° | 11km/h | 19702m | 7.0m/s | -53.5°C | 3.6% | 0hPa | 2.6V | 00:00:00 | 00:00:00 | 00:00:00 | |
| DO3MHA-11 | 2026-09-01 12:11:40 | 49.43133 | 17.98250 | 51° | 11km/h | 19678m | 4.3m/s | -53.5°C | 3.5% | 0hPa | 2.6V | 00:00:00 | 01:31:50 | 00:00:00 | |
| PG1ADW-2 | 2026-09-01 12:11:38 | 49.43132 | 17.98249 | 56° | 15km/h | 19668m | 6.2m/s | -53.5°C | 3.6% | 0hPa | 2.6V | 00:00:00 | 00:00:00 | 00:00:00 | |
| PETON7-10 | 2026-09-01 12:11:37 | 49.43131 | 17.98247 | 34° | 13km/h | 19663m | 3.7m/s | -53.5°C | 3.5% | 0hPa | 2.7V | 00:00:00 | 00:00:00 | 00:00:00 | |
| OE5DXL-15 | 2026-09-01 12:11:35 | 49.43126 | 17.98244 | 13° | 15km/h | 19653m | 6.6m/s | -53.6°C | 3.5% | 0hPa | 2.7V | 00:00:00 | 00:00:00 | 00:00:00 | |
| HA6NAB-11 | 2026-09-01 12:11:34 | 49.43126 | 17.98244 | 13° | 15km/h | 19653m | 6.6m/s | -53.6°C | 1.0% | 0hPa | 2.7V | 00:00:00 | 00:00:00 | 00:00:00 | |
| DO3MHA-11 | 2026-09-01 12:11:30 | 49.43106 | 17.98236 | 28° | 13km/h | 19624m | 4.4m/s | -53.6°C | 3.5% | 0hPa | 2.7V | 00:00:00 | 01:31:40 | 00:00:00 | |
| SP3WXH-11 | 2026-09-01 12:11:26 | 49.43096 | 17.98228 | 38° | 9km/h | 19603m | 6.4m/s | -54.0°C | 0.9% | -1.0hPa | 2.7V | 00:00:00 | 00:00:00 | 00:00:00 | |
| OE5DRO-10 | 2026-09-01 12:11:25 | 49.43094 | 17.98225 | 46° | 15km/h | 19597m | 5.6m/s | -53.9°C | 3.7% | 0hPa | 2.7V | 00:00:00 | 00:00:00 | 00:00:00 | |
| PETON7-10 | 2026-09-01 12:11:22 | 49.43086 | 17.98220 | 2° | 15km/h | 19582m | 5.9m/s | -54.1°C | 3.6% | 0hPa | 2.7V | 00:00:00 | 01:31:32 | 00:00:00 | |
| DO3MHA-11 | 2026-09-01 12:11:20 | 49.43075 | 17.98222 | 349° | 15km/h | 19571m | 3.8m/s | -54.1°C | 3.6% | 0hPa | 2.7V | 00:00:00 | 01:31:30 | 08:30:00 | |
| PG1ADW-2 | 2026-09-01 12:11:18 | 49.43064 | 17.98225 | 352° | 9km/h | 19560m | 6.0m/s | -54.3°C | 3.8% | 0hPa | 2.7V | 00:00:00 | 01:31:28 | 00:00:00 | |
| OE3JTB-15 | 2026-09-01 12:11:11 | 49.43039 | 17.98232 | 351° | 7km/h | 19511m | 7.4m/s | -54.1°C | 3.8% | 0hPa | 2.7V | 00:00:00 | 00:00:00 | 00:00:00 | |
| DO3MHA-11 | 2026-09-01 12:11:10 | 49.43039 | 17.98232 | 351° | 7km/h | 19511m | 7.4m/s | -54.1°C | 3.8% | 0hPa | 2.7V | 00:00:00 | 01:31:20 | 00:00:00 | |
| PETON7-10 | 2026-09-01 12:11:07 | 49.43032 | 17.98236 | 337° | 7km/h | 19493m | 5.7m/s | -54.0°C | 3.8% | 0hPa | 2.7V | 00:00:00 | 00:00:00 | 00:00:00 | |
| OE5DXL-15 | 2026-09-01 12:11:05 | 49.43027 | 17.98238 | 358° | 9km/h | 19481m | 5.5m/s | -53.9°C | 3.7% | 0hPa | 2.6V | 00:00:00 | 00:00:00 | 00:00:00 | |
| SP3WXH-11 | 2026-09-01 12:10:55 | 49.43021 | 17.98247 | 353° | 2km/h | 19422m | 6.2m/s | -53.5°C | 0.9% | -1.0hPa | 2.6V | 00:00:00 | 00:00:00 | 00:00:00 | |
| OE3OSB-13 | 2026-09-01 12:10:49 | 49.43017 | 17.98229 | 78° | 4km/h | 19385m | 4.7m/s | -53.2°C | 0.9% | -1.0hPa | 2.6V | 00:00:00 | 00:00:00 | 00:00:00 | |
| HA6NAB-11 | 2026-09-01 12:10:47 | 49.43019 | 17.98229 | 199° | 11km/h | 19372m | 5.9m/s | -53.0°C | 1.0% | 0hPa | 2.6V | 00:00:00 | 00:00:00 | 00:00:00 | |
| HA6NAB-11 | 2026-09-01 12:10:43 | 49.43032 | 17.98230 | 103° | 4km/h | 19342m | 7.1m/s | -52.7°C | 1.0% | 0hPa | 2.6V | 00:00:00 | 00:00:00 | 00:00:00 | |
| OE3JTB-15 | 2026-09-01 12:10:42 | 49.43032 | 17.98229 | 52° | 15km/h | 19335m | 6.4m/s | -52.7°C | 3.6% | 0hPa | 2.6V | 00:00:00 | 01:30:51 | 00:00:00 | |
| DO3MHA-11 | 2026-09-01 12:10:40 | 49.43030 | 17.98227 | 27° | 13km/h | 19328m | 8.8m/s | -52.6°C | 3.5% | 0hPa | 2.6V | 00:00:00 | 01:30:50 | 00:00:00 | |
| PG1ADW-2 | 2026-09-01 12:10:38 | 49.43024 | 17.98223 | 31° | 13km/h | 19314m | 6.3m/s | -52.5°C | 3.5% | 0hPa | 2.6V | 00:00:00 | 00:00:00 | 00:00:00 | |
| PETON7-10 | 2026-09-01 12:10:37 | 49.43021 | 17.98219 | 44° | 13km/h | 19308m | 6.5m/s | -52.5°C | 3.5% | 0hPa | 2.7V | 00:00:00 | 01:30:47 | 00:00:00 | |
| HA6NAB-11 | 2026-09-01 12:10:36 | 49.43018 | 17.98214 | 59° | 16km/h | 19302m | 5.1m/s | -52.5°C | 1.0% | 0hPa | 2.7V | 00:00:00 | 00:00:00 | 00:00:00 | |
| OE5DXL-15 | 2026-09-01 12:10:35 | 49.43016 | 17.98209 | 71° | 16km/h | 19296m | 5.7m/s | -52.5°C | 3.5% | 0hPa | 2.7V | 00:00:00 | 00:00:00 | 00:00:00 | |
| DO3MHA-11 | 2026-09-01 12:10:30 | 49.43025 | 17.98198 | 155° | 11km/h | 19264m | 5.9m/s | -52.4°C | 3.4% | 0hPa | 2.6V | 00:00:00 | 01:30:40 | 00:00:00 | |
| OE5DRO-10 | 2026-09-01 12:10:28 | 49.43030 | 17.98194 | 127° | 16km/h | 19252m | 7.1m/s | -52.4°C | 3.4% | 0hPa | 2.6V | 00:00:00 | 00:00:00 | 00:00:00 | |
| HA6NAB-11 | 2026-09-01 12:10:23 | 49.43022 | 17.98191 | 13° | 15km/h | 19223m | 8.7m/s | -52.4°C | 1.0% | 0hPa | 2.6V | 00:00:00 | 00:00:00 | 00:00:00 | |
| PETON7-10 | 2026-09-01 12:10:22 | 49.43015 | 17.98185 | 47° | 20km/h | 19209m | 5.7m/s | -52.2°C | 3.3% | 0hPa | 2.6V | 00:00:00 | 00:00:00 | 00:00:00 | |
| DO3MHA-11 | 2026-09-01 12:10:20 | 49.43012 | 17.98176 | 78° | 35km/h | 19195m | 6.4m/s | -52.2°C | 3.3% | 0hPa | 2.7V | 00:00:00 | 01:30:30 | 00:00:00 | |
| PG1ADW-2 | 2026-09-01 12:10:18 | 49.43010 | 17.98163 | 82° | 26km/h | 19181m | 7.7m/s | -52.2°C | 3.3% | 0hPa | 2.6V | 00:00:00 | 00:00:00 | 00:00:00 | |
| HA6NAB-11 | 2026-09-01 12:10:16 | 49.43009 | 17.98154 | 80° | 24km/h | 19174m | 6.1m/s | -52.2°C | 0.9% | 0hPa | 2.6V | 00:00:00 | 00:00:00 | 00:00:00 | |
| OE3JTB-15 | 2026-09-01 12:10:12 | 49.43000 | 17.98115 | 55° | 27km/h | 19141m | 8.0m/s | -52.4°C | 3.5% | 0hPa | 2.6V | 00:00:00 | 00:00:00 | 08:30:00 | |
| HA6NAB-11 | 2026-09-01 12:10:11 | 49.42997 | 17.98108 | 55° | 24km/h | 19134m | 5.3m/s | -52.5°C | 1.0% | 0hPa | 2.7V | 00:00:00 | 00:00:00 | 00:00:00 | |
| OE5DRO-10 | 2026-09-01 12:10:09 | 49.42991 | 17.98093 | 67° | 29km/h | 19121m | 7.1m/s | -52.4°C | 3.5% | 0hPa | 2.7V | 00:00:00 | 00:00:00 | 00:00:00 | |
| PETON7-10 | 2026-09-01 12:10:07 | 49.42988 | 17.98075 | 79° | 31km/h | 19106m | 8.2m/s | -52.3°C | 3.5% | 0hPa | 2.7V | 00:00:00 | 00:00:00 | 00:00:00 | |
| OE5DXL-15 | 2026-09-01 12:10:05 | 49.42984 | 17.98051 | 80° | 29km/h | 19093m | 5.4m/s | -52.2°C | 3.4% | 0hPa | 2.7V | 00:00:00 | 00:00:00 | 00:00:00 | |
| HA6NAB-11 | 2026-09-01 12:10:04 | 49.42984 | 17.98051 | 80° | 35km/h | 19093m | 5.5m/s | -52.3°C | 1.0% | 0hPa | 2.7V | 00:00:00 | 00:00:00 | 00:00:00 | |
| SP3WXH-11 | 2026-09-01 12:09:54 | 49.42946 | 17.97911 | 75° | 27km/h | 19013m | 5.0m/s | -52.2°C | 0.9% | -1.0hPa | 2.7V | 00:00:00 | 00:00:00 | 00:00:00 | |
| OE3OSB-13 | 2026-09-01 12:09:47 | 49.42932 | 17.97865 | 52° | 27km/h | 18982m | 5.3m/s | -52.9°C | 0.9% | -1.0hPa | 2.7V | 00:00:00 | 00:00:00 | 00:00:00 | |
| OE3JTB-15 | 2026-09-01 12:09:43 | 49.42915 | 17.97835 | 57° | 26km/h | 18957m | 7.3m/s | -52.8°C | 3.4% | 0hPa | 2.7V | 00:00:00 | 00:00:00 | 00:00:00 | |
| PG1ADW-2 | 2026-09-01 12:09:38 | 49.42905 | 17.97785 | 79° | 24km/h | 18926m | 6.2m/s | -52.6°C | 3.3% | 0hPa | 2.7V | 00:00:00 | 00:00:00 | 08:30:00 | |
| PETON7-10 | 2026-09-01 12:09:37 | 49.42903 | 17.97773 | 76° | 24km/h | 18920m | 6.0m/s | -52.6°C | 3.4% | 0hPa | 2.7V | 00:00:00 | 00:00:00 | 08:30:00 | |
| OE5DXL-15 | 2026-09-01 12:09:35 | 49.42899 | 17.97751 | 70° | 29km/h | 18908m | 7.2m/s | -52.5°C | 3.4% | 0hPa | 2.6V | 00:00:00 | 00:00:00 | 00:00:00 | |
| OE5DRO-10 | 2026-09-01 12:09:31 | 49.42888 | 17.97733 | 67° | 26km/h | 18884m | 6.2m/s | -52.5°C | 3.4% | 0hPa | 2.6V | 00:00:00 | 00:00:00 | 00:00:00 | |
| PETON7-10 | 2026-09-01 12:09:22 | 49.42875 | 17.97645 | 81° | 31km/h | 18835m | 6.2m/s | -53.0°C | 3.5% | 0hPa | 2.6V | 00:00:00 | 00:00:00 | 00:00:00 | |
| PG1ADW-2 | 2026-09-01 12:09:18 | 49.42872 | 17.97601 | 82° | 38km/h | 18812m | 6.5m/s | -52.9°C | 3.5% | 0hPa | 2.6V | 00:00:00 | 00:00:00 | 00:00:00 | |
| OE3OSB-13 | 2026-09-01 12:09:16 | 49.42869 | 17.97561 | 88° | 31km/h | 18795m | 6.1m/s | -53.0°C | 0.9% | -1.0hPa | 2.6V | 00:00:00 | 00:00:00 | 00:00:00 | |
| OE3JTB-15 | 2026-09-01 12:09:14 | 49.42869 | 17.97549 | 93° | 42km/h | 18789m | 5.1m/s | -52.9°C | 3.6% | 0hPa | 2.6V | 00:00:00 | 01:29:24 | 00:00:00 | |
| OE5DRO-10 | 2026-09-01 12:09:12 | 49.42870 | 17.97525 | 94° | 40km/h | 18778m | 5.7m/s | -52.8°C | 3.6% | 0hPa | 2.6V | 00:00:00 | 00:00:00 | 00:00:00 | |
| HA6NAB-11 | 2026-09-01 12:09:11 | 49.42870 | 17.97525 | 95° | 31km/h | 18778m | 5.7m/s | -52.9°C | 1.1% | 0hPa | 2.6V | 00:00:00 | 00:00:00 | 00:00:00 | |
| PETON7-10 | 2026-09-01 12:09:07 | 49.42881 | 17.97461 | 105° | 44km/h | 18750m | 6.7m/s | -52.6°C | 3.5% | 0hPa | 2.6V | 00:00:00 | 01:29:17 | 00:00:00 | |
| HA6NAB-11 | 2026-09-01 12:09:06 | 49.42883 | 17.97445 | 102° | 46km/h | 18744m | 4.9m/s | -52.7°C | 1.0% | 0hPa | 2.6V | 00:00:00 | 00:00:00 | 00:00:00 | |
| OE5DXL-15 | 2026-09-01 12:09:05 | 49.42885 | 17.97427 | 100° | 46km/h | 18739m | 5.3m/s | -52.6°C | 3.4% | 0hPa | 2.6V | 00:00:00 | 00:00:00 | 00:00:00 | |
| SP3WXH-11 | 2026-09-01 12:08:51 | 49.42911 | 17.97177 | 103° | 44km/h | 18657m | 4.1m/s | -52.6°C | 0.9% | -1.0hPa | 2.6V | 00:00:00 | 00:00:00 | 00:00:00 | |
| OE3OSB-13 | 2026-09-01 12:08:45 | 49.42918 | 17.97091 | 92° | 40km/h | 18630m | 4.9m/s | -52.6°C | 0.9% | -1.0hPa | 2.6V | 00:00:00 | 00:00:00 | 00:00:00 | |
| HA6NAB-11 | 2026-09-01 12:08:44 | 49.42918 | 17.97075 | 91° | 42km/h | 18625m | 5.9m/s | -52.7°C | 1.0% | 0hPa | 2.6V | 00:00:00 | 00:00:00 | 00:00:00 | |
| DO3MHA-11 | 2026-09-01 12:08:43 | 49.42918 | 17.97058 | 88° | 47km/h | 18620m | 5.4m/s | -52.7°C | 3.4% | 0hPa | 2.6V | 00:00:00 | 01:28:53 | 00:00:00 | |
| PG1ADW-2 | 2026-09-01 12:08:38 | 49.42919 | 17.96967 | 92° | 49km/h | 18593m | 6.3m/s | -52.9°C | 3.5% | 0hPa | 2.6V | 00:00:00 | 01:28:48 | 00:00:00 | |
| PETON7-10 | 2026-09-01 12:08:37 | 49.42919 | 17.96947 | 91° | 49km/h | 18588m | 4.3m/s | -52.8°C | 3.5% | 0hPa | 2.6V | 00:00:00 | 00:00:00 | 00:00:00 | |
| OE5DXL-15 | 2026-09-01 12:08:35 | 49.42919 | 17.96909 | 91° | 47km/h | 18578m | 5.1m/s | -52.8°C | 3.5% | 0hPa | 2.6V | 00:00:00 | 00:00:00 | 00:00:00 | |
| OE5DRO-10 | 2026-09-01 12:08:34 | 49.42919 | 17.96890 | 90° | 49km/h | 18573m | 4.5m/s | -52.7°C | 3.5% | 0hPa | 2.6V | 00:00:00 | 00:00:00 | 00:00:00 | |
| DO3MHA-11 | 2026-09-01 12:08:33 | 49.42919 | 17.96872 | 88° | 47km/h | 18567m | 6.4m/s | -52.8°C | 3.5% | 0hPa | 2.6V | 00:00:00 | 01:28:43 | 00:00:00 | |
| PETON7-10 | 2026-09-01 12:08:22 | 49.42912 | 17.96661 | 80° | 47km/h | 18511m | 5.0m/s | -52.7°C | 3.6% | 0hPa | 2.6V | 00:00:00 | 01:28:32 | 00:00:00 | |
| SP3WXH-11 | 2026-09-01 12:08:20 | 49.42902 | 17.96609 | 71° | 44km/h | 18495m | 5.9m/s | -52.8°C | 0.9% | -1.0hPa | 2.6V | 00:00:00 | 00:00:00 | 00:00:00 | |
| OE3JTB-15 | 2026-09-01 12:08:18 | 49.42892 | 17.96558 | 77° | 44km/h | 18480m | 5.8m/s | -52.6°C | 3.5% | 0hPa | 2.6V | 00:00:00 | 00:00:00 | 00:00:00 | |
| OE5DRO-10 | 2026-09-01 12:08:15 | 49.42890 | 17.96539 | 81° | 46km/h | 18475m | 4.6m/s | -52.6°C | 3.5% | 0hPa | 2.6V | 00:00:00 | 00:00:00 | 00:00:00 | |
| OE3OSB-13 | 2026-09-01 12:08:14 | 49.42887 | 17.96499 | 86° | 51km/h | 18464m | 5.9m/s | -52.6°C | 0.9% | -1.0hPa | 2.6V | 00:00:00 | 00:00:00 | 00:00:00 | |
| PETON7-10 | 2026-09-01 12:08:08 | 49.42875 | 17.96392 | 74° | 42km/h | 18434m | 5.1m/s | -52.3°C | 3.4% | 0hPa | 2.6V | 00:00:00 | 00:00:00 | 00:00:00 | |
| OE5DXL-15 | 2026-09-01 12:08:05 | 49.42870 | 17.96362 | 75° | 42km/h | 18425m | 5.9m/s | -52.4°C | 3.4% | 0hPa | 2.7V | 00:00:00 | 00:00:00 | 00:00:00 | |
| SP3WXH-11 | 2026-09-01 12:07:49 | 49.42828 | 17.96096 | 60° | 38km/h | 18341m | 4.7m/s | -52.2°C | 0.9% | -1.0hPa | 2.7V | 00:00:00 | 00:00:00 | 00:00:00 | |
| OE3JTB-15 | 2026-09-01 12:07:47 | 49.42823 | 17.96083 | 62° | 38km/h | 18337m | 4.0m/s | -52.2°C | 3.4% | 0hPa | 2.7V | 00:00:00 | 01:27:57 | 00:00:00 | |
| HA6NAB-11 | 2026-09-01 12:07:45 | 49.42814 | 17.96054 | 69° | 44km/h | 18327m | 4.7m/s | -52.3°C | 1.0% | 0hPa | 2.7V | 00:00:00 | 00:00:00 | 00:00:00 | |
| OE3OSB-13 | 2026-09-01 12:07:43 | 49.42800 | 17.96003 | 67° | 46km/h | 18313m | 4.2m/s | -52.1°C | 0.9% | -1.0hPa | 2.7V | 00:00:00 | 00:00:00 | 00:00:00 | |
| DO3MHA-11 | 2026-09-01 12:07:42 | 49.42800 | 17.96003 | 68° | 40km/h | 18313m | 4.1m/s | -52.1°C | 3.4% | 0hPa | 2.7V | 00:00:00 | 01:27:52 | 00:00:00 | |
| PG1ADW-2 | 2026-09-01 12:07:38 | 49.42791 | 17.95942 | 86° | 35km/h | 18293m | 4.6m/s | -52.1°C | 3.3% | 0hPa | 2.7V | 00:00:00 | 00:00:00 | 00:00:00 | |
| OE5DRO-10 | 2026-09-01 12:07:37 | 49.42790 | 17.95927 | 85° | 35km/h | 18289m | 5.2m/s | -52.2°C | 3.4% | 0hPa | 2.7V | 00:00:00 | 00:00:00 | 00:00:00 | |
| OE5DXL-15 | 2026-09-01 12:07:35 | 49.42788 | 17.95897 | 83° | 29km/h | 18279m | 4.2m/s | -52.1°C | 3.3% | 0hPa | 2.7V | 00:00:00 | 01:27:45 | 08:30:00 | |
| HA6NAB-11 | 2026-09-01 12:07:34 | 49.42788 | 17.95897 | 83° | 40km/h | 18279m | 4.3m/s | -52.2°C | 1.1% | 0hPa | 2.7V | 00:00:00 | 00:00:00 | 00:00:00 | |
| DO3MHA-11 | 2026-09-01 12:07:30 | 49.42775 | 17.95826 | 63° | 37km/h | 18253m | 4.4m/s | -52.4°C | 3.3% | 0hPa | 2.7V | 00:00:00 | 01:27:40 | 00:00:00 | |
| HA6NAB-11 | 2026-09-01 12:07:28 | 49.42766 | 17.95800 | 63° | 35km/h | 18243m | 5.7m/s | -52.6°C | 1.0% | 0hPa | 2.7V | 00:00:00 | 00:00:00 | 00:00:00 | |
| PETON7-10 | 2026-09-01 12:07:22 | 49.42745 | 17.95728 | 67° | 26km/h | 18211m | 6.5m/s | -52.7°C | 3.4% | 0hPa | 2.7V | 00:00:00 | 00:00:00 | 08:30:00 | |
| DO3MHA-11 | 2026-09-01 12:07:20 | 49.42739 | 17.95708 | 63° | 26km/h | 18201m | 4.0m/s | -52.9°C | 3.4% | 0hPa | 2.7V | 00:00:00 | 01:27:30 | 00:00:00 | |
| OE5DRO-10 | 2026-09-01 12:07:18 | 49.42731 | 17.95691 | 51° | 20km/h | 18190m | 5.8m/s | -53.1°C | 3.4% | 0hPa | 2.7V | 00:00:00 | 00:00:00 | 00:00:00 | |
| SP3WXH-11 | 2026-09-01 12:07:17 | 49.42726 | 17.95682 | 46° | 29km/h | 18184m | 4.0m/s | -53.2°C | 0.9% | -1.0hPa | 2.7V | 00:00:00 | 00:00:00 | 00:00:00 | |
| OE3OSB-13 | 2026-09-01 12:07:12 | 49.42708 | 17.95632 | 83° | 24km/h | 18152m | 6.1m/s | -53.9°C | 1.0% | -1.0hPa | 2.7V | 00:00:00 | 00:00:00 | 00:00:00 | |
| DO3MHA-11 | 2026-09-01 12:07:09 | 49.42707 | 17.95615 | 88° | 18km/h | 18140m | 7.3m/s | -53.9°C | 3.4% | 0hPa | 2.7V | 00:00:00 | 01:27:19 | 00:00:00 | |
| OE5DXL-15 | 2026-09-01 12:07:06 | 49.42708 | 17.95590 | 91° | 18km/h | 18115m | 5.4m/s | -54.0°C | 3.5% | 0hPa | 2.7V | 00:00:00 | 00:00:00 | 00:00:00 | |
| SP3WXH-11 | 2026-09-01 12:06:47 | 49.42720 | 17.95467 | 114° | 18km/h | 18008m | 6.7m/s | -55.7°C | 1.2% | -1.0hPa | 2.7V | 00:00:00 | 00:00:00 | 00:00:00 | |
| DO3MHA-11 | 2026-09-01 12:06:45 | 49.42722 | 17.95461 | 117° | 20km/h | 18003m | 5.7m/s | -55.7°C | 4.1% | 0hPa | 2.7V | 00:00:00 | 01:26:55 | 00:00:00 | |
| OE5DRO-10 | 2026-09-01 12:06:40 | 49.42732 | 17.95427 | 104° | 22km/h | 17972m | 6.0m/s | -55.3°C | 4.0% | 0hPa | 2.7V | 00:00:00 | 00:00:00 | 00:00:00 | |
| PG1ADW-2 | 2026-09-01 12:06:39 | 49.42734 | 17.95411 | 100° | 22km/h | 17961m | 6.8m/s | -55.3°C | 4.0% | 0hPa | 2.7V | 00:00:00 | 00:00:00 | 08:30:00 | |
| PETON7-10 | 2026-09-01 12:06:37 | 49.42735 | 17.95403 | 103° | 22km/h | 17955m | 5.3m/s | -55.2°C | 3.9% | 0hPa | 2.7V | 00:00:00 | 00:00:00 | 00:00:00 | |
| OE5DXL-15 | 2026-09-01 12:06:35 | 49.42737 | 17.95388 | 104° | 20km/h | 17943m | 7.0m/s | -55.1°C | 3.9% | 0hPa | 2.7V | 00:00:00 | 00:00:00 | 00:00:00 | |
| HA6NAB-11 | 2026-09-01 12:06:33 | 49.42739 | 17.95376 | 110° | 16km/h | 17933m | 5.1m/s | -55.2°C | 1.3% | 0hPa | 2.7V | 00:00:00 | 00:00:00 | 00:00:00 | |
| HA6NAB-11 | 2026-09-01 12:06:26 | 49.42752 | 17.95332 | 113° | 24km/h | 17900m | 4.4m/s | -55.0°C | 1.3% | 0hPa | 2.7V | 00:00:00 | 00:00:00 | 00:00:00 | |
| DO3MHA-11 | 2026-09-01 12:06:25 | 49.42757 | 17.95313 | 112° | 22km/h | 17888m | 5.8m/s | -55.1°C | 3.9% | 0hPa | 2.7V | 00:00:00 | 01:26:35 | 08:30:00 | |
| PETON7-10 | 2026-09-01 12:06:22 | 49.42764 | 17.95285 | 107° | 20km/h | 17871m | 6.3m/s | -55.2°C | 3.9% | 0hPa | 2.7V | 00:00:00 | 00:00:00 | 00:00:00 | |
| OE5DRO-10 | 2026-09-01 12:06:21 | 49.42765 | 17.95278 | 105° | 20km/h | 17865m | 5.0m/s | -55.2°C | 3.8% | 0hPa | 2.7V | 00:00:00 | 00:00:00 | 00:00:00 | |
| OE3JTB-15 | 2026-09-01 12:06:20 | 49.42768 | 17.95257 | 100° | 26km/h | 17847m | 5.1m/s | -55.2°C | 3.9% | 0hPa | 2.7V | 00:00:00 | 01:26:28 | 00:00:00 | |
| PG1ADW-2 | 2026-09-01 12:06:18 | 49.42768 | 17.95257 | 100° | 22km/h | 17847m | 5.1m/s | -55.2°C | 3.9% | 0hPa | 2.7V | 00:00:00 | 00:00:00 | 00:00:00 | |
| DO3MHA-11 | 2026-09-01 12:06:17 | 49.42770 | 17.95234 | 101° | 22km/h | 17830m | 5.1m/s | -55.1°C | 3.9% | 0hPa | 2.7V | 00:00:00 | 01:26:25 | 00:00:00 | |
| HA6NAB-11 | 2026-09-01 12:06:16 | 49.42770 | 17.95234 | 102° | 22km/h | 17830m | 5.1m/s | -55.2°C | 1.3% | 0hPa | 2.7V | 00:00:00 | 00:00:00 | 00:00:00 | |
| OE3OSB-13 | 2026-09-01 12:06:09 | 49.42780 | 17.95185 | 96° | 18km/h | 17797m | 6.7m/s | -55.2°C | 1.1% | -1.0hPa | 2.7V | 00:00:00 | 00:00:00 | 00:00:00 | |
| PETON7-10 | 2026-09-01 12:06:07 | 49.42780 | 17.95169 | 83° | 27km/h | 17787m | 5.1m/s | -55.3°C | 4.0% | 0hPa | 2.7V | 00:00:00 | 01:26:17 | 00:00:00 | |
| DO3MHA-11 | 2026-09-01 12:06:05 | 49.42777 | 17.95156 | 69° | 27km/h | 17775m | 3.8m/s | -55.4°C | 4.1% | 0hPa | 2.7V | 00:00:00 | 01:26:15 | 00:00:00 | |
| OE5DRO-10 | 2026-09-01 12:06:02 | 49.42773 | 17.95129 | 88° | 29km/h | 17761m | 5.3m/s | -55.3°C | 4.0% | 0hPa | 2.7V | 00:00:00 | 00:00:00 | 00:00:00 | |
| PG1ADW-2 | 2026-09-01 12:05:58 | 49.42774 | 17.95084 | 90° | 31km/h | 17740m | 4.4m/s | -55.0°C | 3.9% | 0hPa | 2.7V | 00:00:00 | 01:26:08 | 00:00:00 | |
| HA6NAB-11 | 2026-09-01 12:05:56 | 49.42774 | 17.95074 | 86° | 27km/h | 17735m | 4.9m/s | -55.1°C | 1.3% | 0hPa | 2.7V | 00:00:00 | 00:00:00 | 00:00:00 | |
| DO3MHA-11 | 2026-09-01 12:05:55 | 49.42772 | 17.95051 | 82° | 29km/h | 17724m | 4.2m/s | -55.0°C | 3.9% | 0hPa | 2.7V | 00:00:00 | 01:26:05 | 00:00:00 | |
| PETON7-10 | 2026-09-01 12:05:52 | 49.42769 | 17.95017 | 85° | 31km/h | 17710m | 4.5m/s | -55.1°C | 3.9% | 0hPa | 2.7V | 00:00:00 | 00:00:00 | 00:00:00 | |
| OE3JTB-15 | 2026-09-01 12:05:51 | 49.42768 | 17.94996 | 93° | 35km/h | 17700m | 6.1m/s | -55.1°C | 3.9% | 0hPa | 2.7V | 00:00:00 | 00:00:00 | 08:30:00 | |
| DO3MHA-11 | 2026-09-01 12:05:45 | 49.42772 | 17.94936 | 90° | 33km/h | 17676m | 5.3m/s | -54.9°C | 3.9% | 0hPa | 2.7V | 00:00:00 | 01:25:55 | 00:00:00 | |
| HA6NAB-11 | 2026-09-01 12:05:44 | 49.42772 | 17.94936 | 91° | 31km/h | 17676m | 5.3m/s | -55.0°C | 1.3% | 0hPa | 2.7V | 00:00:00 | 00:00:00 | 00:00:00 | |
| OE5DRO-10 | 2026-09-01 12:05:43 | 49.42771 | 17.94910 | 83° | 35km/h | 17666m | 3.4m/s | -54.9°C | 3.9% | 0hPa | 2.7V | 00:00:00 | 00:00:00 | 00:00:00 | |
| OE3OSB-13 | 2026-09-01 12:05:39 | 49.42766 | 17.94848 | 86° | 31km/h | 17641m | 4.1m/s | -54.8°C | 1.1% | -1.0hPa | 2.7V | 00:00:00 | 00:00:00 | 00:00:00 | |
| PG1ADW-2 | 2026-09-01 12:05:38 | 49.42766 | 17.94848 | 87° | 35km/h | 17641m | 4.0m/s | -54.8°C | 3.9% | 0hPa | 2.7V | 00:00:00 | 00:00:00 | 00:00:00 | |
| PETON7-10 | 2026-09-01 12:05:37 | 49.42765 | 17.94836 | 87° | 35km/h | 17636m | 5.8m/s | -54.8°C | 3.9% | 0hPa | 2.7V | 00:00:00 | 00:00:00 | 00:00:00 | |
| DO3MHA-11 | 2026-09-01 12:05:35 | 49.42763 | 17.94811 | 83° | 37km/h | 17627m | 4.0m/s | -54.7°C | 3.8% | 0hPa | 2.7V | 00:00:00 | 01:25:45 | 00:00:00 | |
| DO3MHA-11 | 2026-09-01 12:05:25 | 49.42740 | 17.94678 | 77° | 37km/h | 17578m | 4.4m/s | -54.9°C | 3.9% | 0hPa | 2.7V | 00:00:00 | 01:25:35 | 00:00:00 | |
| OE5DRO-10 | 2026-09-01 12:05:24 | 49.42738 | 17.94664 | 79° | 38km/h | 17573m | 5.4m/s | -55.0°C | 3.9% | 0hPa | 2.7V | 00:00:00 | 00:00:00 | 00:00:00 | |
| PETON7-10 | 2026-09-01 12:05:22 | 49.42734 | 17.94636 | 80° | 38km/h | 17564m | 3.9m/s | -54.9°C | 3.9% | 0hPa | 2.7V | 00:00:00 | 01:25:32 | 00:00:00 | |
| PG1ADW-2 | 2026-09-01 12:05:18 | 49.42725 | 17.94582 | 75° | 42km/h | 17545m | 5.3m/s | -55.0°C | 3.9% | 0hPa | 2.7V | 00:00:00 | 00:00:00 | 00:00:00 | |
| DO3MHA-11 | 2026-09-01 12:05:15 | 49.42717 | 17.94541 | 68° | 40km/h | 17531m | 5.1m/s | -55.1°C | 3.9% | 0hPa | 2.7V | 00:00:00 | 01:25:25 | 00:00:00 | |
| SP3WXH-11 | 2026-09-01 12:05:13 | 49.42709 | 17.94516 | 65° | 37km/h | 17521m | 5.4m/s | -55.4°C | 1.2% | -1.0hPa | 2.7V | 00:00:00 | 00:00:00 | 00:00:00 | |
| PETON7-10 | 2026-09-01 12:05:07 | 49.42688 | 17.94426 | 72° | 46km/h | 17492m | 5.5m/s | -55.3°C | 4.0% | 0hPa | 2.7V | 00:00:00 | 00:00:00 | 08:30:00 | |
| OE5DXL-15 | 2026-09-01 12:05:05 | 49.42680 | 17.94392 | 67° | 42km/h | 17483m | 3.9m/s | -55.2°C | 4.0% | 0hPa | 2.7V | 00:00:00 | 00:00:00 | 00:00:00 | |
| HA6NAB-11 | 2026-09-01 12:05:03 | 49.42675 | 17.94376 | 65° | 46km/h | 17478m | 6.0m/s | -55.2°C | 1.3% | 0hPa | 2.7V | 00:00:00 | 00:00:00 | 00:00:00 | |
| PG1ADW-2 | 2026-09-01 12:04:58 | 49.42639 | 17.94290 | 58° | 42km/h | 17449m | 6.0m/s | -55.0°C | 4.1% | 0hPa | 2.7V | 00:00:00 | 00:00:00 | 00:00:00 | |
| PETON7-10 | 2026-09-01 12:04:52 | 49.42608 | 17.94195 | 65° | 40km/h | 17422m | 5.3m/s | -54.9°C | 3.9% | 0hPa | 2.7V | 00:00:00 | 00:00:00 | 00:00:00 | |
| OE5DRO-10 | 2026-09-01 12:04:46 | 49.42575 | 17.94112 | 54° | 37km/h | 17388m | 6.3m/s | -54.7°C | 4.0% | 0hPa | 2.7V | 00:00:00 | 00:00:00 | 00:00:00 | |
| DO3MHA-11 | 2026-09-01 12:04:45 | 49.42569 | 17.94101 | 52° | 40km/h | 17382m | 5.1m/s | -54.6°C | 4.0% | 0hPa | 2.7V | 00:00:00 | 01:24:55 | 08:30:00 | |
| SP3WXH-11 | 2026-09-01 12:04:42 | 49.42552 | 17.94063 | 59° | 42km/h | 17368m | 4.7m/s | -54.6°C | 1.1% | -1.0hPa | 2.7V | 00:00:00 | 00:00:00 | 00:00:00 | |
| HA6NAB-11 | 2026-09-01 12:04:40 | 49.42547 | 17.94049 | 61° | 44km/h | 17364m | 3.5m/s | -54.5°C | 1.2% | 0hPa | 2.7V | 00:00:00 | 00:00:00 | 00:00:00 | |
| PG1ADW-2 | 2026-09-01 12:04:38 | 49.42530 | 17.94009 | 54° | 35km/h | 17350m | 3.9m/s | -54.4°C | 3.9% | 0hPa | 2.7V | 00:00:00 | 01:24:48 | 00:00:00 | |
| PETON7-10 | 2026-09-01 12:04:37 | 49.42525 | 17.93998 | 54° | 35km/h | 17345m | 6.1m/s | -54.3°C | 3.9% | 0hPa | 2.7V | 00:00:00 | 01:24:47 | 00:00:00 | |
| OE3OSB-13 | 2026-09-01 12:04:36 | 49.42519 | 17.93987 | 52° | 35km/h | 17339m | 4.4m/s | -54.3°C | 1.1% | -1.0hPa | 2.7V | 00:00:00 | 00:00:00 | 00:00:00 | |
| OE5DXL-15 | 2026-09-01 12:04:35 | 49.42514 | 17.93976 | 50° | 33km/h | 17334m | 5.5m/s | -54.2°C | 3.9% | 0hPa | 2.7V | 00:00:00 | 00:00:00 | 00:00:00 | |
| HA6NAB-11 | 2026-09-01 12:04:29 | 49.42487 | 17.93929 | 53° | 35km/h | 17308m | 4.2m/s | -54.1°C | 1.2% | 0hPa | 2.7V | 00:00:00 | 00:00:00 | 00:00:00 | |
| OE5DRO-10 | 2026-09-01 12:04:27 | 49.42471 | 17.93898 | 52° | 33km/h | 17292m | 5.2m/s | -53.9°C | 3.9% | 0hPa | 2.7V | 00:00:00 | 00:00:00 | 00:00:00 | |
| DO3MHA-11 | 2026-09-01 12:04:25 | 49.42460 | 17.93876 | 56° | 31km/h | 17282m | 4.8m/s | -53.8°C | 3.8% | 0hPa | 2.7V | 00:00:00 | 01:24:35 | 00:00:00 | |
| HA6NAB-11 | 2026-09-01 12:04:24 | 49.42460 | 17.93876 | 56° | 37km/h | 17282m | 4.8m/s | -53.9°C | 1.2% | 0hPa | 2.7V | 00:00:00 | 00:00:00 | 00:00:00 | |
| PETON7-10 | 2026-09-01 12:04:22 | 49.42446 | 17.93842 | 63° | 31km/h | 17266m | 4.2m/s | -53.7°C | 3.8% | 0hPa | 2.7V | 00:00:00 | 00:00:00 | 00:00:00 | |
| PG1ADW-2 | 2026-09-01 12:04:18 | 49.42430 | 17.93797 | 56° | 29km/h | 17246m | 5.9m/s | -53.5°C | 3.8% | 0hPa | 2.7V | 00:00:00 | 00:00:00 | 00:00:00 | |
| HA6NAB-11 | 2026-09-01 12:04:13 | 49.42411 | 17.93763 | 50° | 31km/h | 17224m | 4.4m/s | -53.3°C | 1.2% | 0hPa | 2.7V | 00:00:00 | 00:00:00 | 00:00:00 | |
| DO3MHA-11 | 2026-09-01 12:04:12 | 49.42402 | 17.93745 | 52° | 31km/h | 17213m | 5.9m/s | -53.2°C | 3.7% | 0hPa | 2.7V | 00:00:00 | 01:24:22 | 00:00:00 | |
| SP3WXH-11 | 2026-09-01 12:04:11 | 49.42397 | 17.93736 | 56° | 29km/h | 17208m | 4.1m/s | -53.2°C | 1.0% | -1.0hPa | 2.7V | 00:00:00 | 00:00:00 | 00:00:00 | |
| OE5DRO-10 | 2026-09-01 12:04:08 | 49.42386 | 17.93703 | 69° | 29km/h | 17192m | 3.8m/s | -53.1°C | 3.6% | 0hPa | 2.7V | 00:00:00 | 00:00:00 | 00:00:00 | |
| PETON7-10 | 2026-09-01 12:04:07 | 49.42384 | 17.93692 | 69° | 27km/h | 17188m | 5.4m/s | -53.0°C | 3.7% | 0hPa | 2.7V | 00:00:00 | 00:00:00 | 00:00:00 | |
| HA6NAB-11 | 2026-09-01 12:04:06 | 49.42384 | 17.93692 | 70° | 31km/h | 17188m | 5.5m/s | -53.0°C | 1.2% | 0hPa | 2.7V | 00:00:00 | 00:00:00 | 00:00:00 | |
| OE5DXL-15 | 2026-09-01 12:04:05 | 49.42378 | 17.93673 | 61° | 26km/h | 17177m | 4.2m/s | -52.9°C | 3.7% | 0hPa | 2.7V | 00:00:00 | 00:00:00 | 00:00:00 | |
| DO3MHA-11 | 2026-09-01 12:04:02 | 49.42365 | 17.93648 | 42° | 29km/h | 17161m | 4.1m/s | -52.8°C | 3.7% | 0hPa | 2.7V | 00:00:00 | 01:24:12 | 00:00:00 | |
| PG1ADW-2 | 2026-09-01 12:03:58 | 49.42342 | 17.93619 | 44° | 27km/h | 17138m | 5.8m/s | -52.6°C | 3.6% | 0hPa | 2.7V | 00:00:00 | 00:00:00 | 00:00:00 | |
| DO3MHA-11 | 2026-09-01 12:03:52 | 49.42320 | 17.93564 | 68° | 27km/h | 17108m | 6.2m/s | -52.3°C | 3.5% | 0hPa | 2.7V | 00:00:00 | 01:24:02 | 00:00:00 | |
| OE5DRO-10 | 2026-09-01 12:03:49 | 49.42310 | 17.93533 | 56° | 22km/h | 17093m | 5.6m/s | -52.2°C | 3.5% | 0hPa | 2.7V | 00:00:00 | 00:00:00 | 00:00:00 | |
| DO3MHA-11 | 2026-09-01 12:03:42 | 49.42273 | 17.93490 | 41° | 20km/h | 17058m | 6.0m/s | -51.9°C | 3.5% | 0hPa | 2.7V | 00:00:00 | 01:23:52 | 00:00:00 | |
| SP3WXH-11 | 2026-09-01 12:03:40 | 49.42266 | 17.93478 | 55° | 20km/h | 17048m | 5.8m/s | -51.9°C | 1.0% | -1.0hPa | 2.7V | 00:00:00 | 00:00:00 | 00:00:00 | |
| PG1ADW-2 | 2026-09-01 12:03:38 | 49.42260 | 17.93464 | 64° | 20km/h | 17037m | 4.5m/s | -51.8°C | 3.5% | 0hPa | 2.7V | 00:00:00 | 00:00:00 | 08:30:00 | |
| PETON7-10 | 2026-09-01 12:03:37 | 49.42258 | 17.93456 | 66° | 20km/h | 17032m | 5.7m/s | -51.8°C | 3.5% | 0hPa | 2.7V | 00:00:00 | 00:00:00 | 00:00:00 | |
| OE5DXL-15 | 2026-09-01 12:03:35 | 49.42255 | 17.93444 | 61° | 22km/h | 17022m | 4.6m/s | -51.6°C | 3.5% | 0hPa | 2.7V | 00:00:00 | 00:00:00 | 00:00:00 | |
| DO3MHA-11 | 2026-09-01 12:03:31 | 49.42241 | 17.93421 | 36° | 22km/h | 17001m | 6.2m/s | 0°C | 0% | 0hPa | 2.7V | 00:00:00 | 01:23:41 | 00:00:00 | |
| OE5DRO-10 | 2026-09-01 12:03:30 | 49.42236 | 17.93416 | 32° | 22km/h | 16996m | 4.7m/s | -51.6°C | 3.4% | 0hPa | 2.7V | 00:00:00 | 00:00:00 | 00:00:00 | |
| OE3JTB-15 | 2026-09-01 12:03:29 | 49.42219 | 17.93395 | 53° | 53km/h | 16975m | 5.9m/s | -51.3°C | 3.3% | 0hPa | 2.7V | 00:00:00 | 00:00:00 | 00:00:00 | |
| PETON7-10 | 2026-09-01 12:03:22 | 49.42211 | 17.93366 | 70° | 24km/h | 16954m | 5.4m/s | -51.2°C | 3.2% | 0hPa | 2.7V | 00:00:00 | 00:00:00 | 00:00:00 | |
| DO3MHA-11 | 2026-09-01 12:03:21 | 49.42209 | 17.93358 | 68° | 22km/h | 16950m | 3.9m/s | 0°C | 0% | 0hPa | 2.7V | 00:00:00 | 01:23:31 | 00:00:00 | |
| PG1ADW-2 | 2026-09-01 12:03:18 | 49.42201 | 17.93336 | 51° | 22km/h | 16935m | 4.6m/s | -51.0°C | 3.3% | 0hPa | 2.7V | 00:00:00 | 01:23:28 | 00:00:00 | |
| DO3MHA-11 | 2026-09-01 12:03:11 | 49.42173 | 17.93291 | 58° | 20km/h | 16898m | 6.1m/s | 0°C | 0% | 0hPa | 2.7V | 00:00:00 | 01:23:21 | 08:30:00 | |
| PETON7-10 | 2026-09-01 12:03:07 | 49.42162 | 17.93254 | 73° | 20km/h | 16878m | 5.2m/s | -50.9°C | 3.2% | 0hPa | 2.7V | 00:00:00 | 01:23:17 | 00:00:00 | |
| OE5DXL-15 | 2026-09-01 12:03:05 | 49.42159 | 17.93243 | 55° | 24km/h | 16868m | 5.7m/s | -51.3°C | 3.2% | 0hPa | 2.7V | 00:00:00 | 00:00:00 | 08:30:00 | |
| OE3OSB-13 | 2026-09-01 12:03:03 | 49.42153 | 17.93234 | 37° | 15km/h | 16858m | 5.0m/s | -51.5°C | 0% | -1.0hPa | 2.7V | 00:00:00 | 00:00:00 | 00:00:00 | |
| DO3MHA-11 | 2026-09-01 12:03:01 | 49.42146 | 17.93226 | 39° | 24km/h | 16848m | 4.4m/s | 0°C | 0% | 0hPa | 2.7V | 00:00:00 | 01:23:11 | 00:00:00 | |
| PG1ADW-2 | 2026-09-01 12:02:58 | 49.42133 | 17.93207 | 51° | 24km/h | 16832m | 4.5m/s | -51.6°C | 3.3% | 0hPa | 2.7V | 00:00:00 | 00:00:00 | 00:00:00 | |
| PETON7-10 | 2026-09-01 12:02:52 | 49.42121 | 17.93155 | 78° | 24km/h | 16799m | 4.3m/s | -51.6°C | 3.4% | 0hPa | 2.7V | 00:00:00 | 00:00:00 | 08:30:00 | |
| DO3MHA-11 | 2026-09-01 12:02:51 | 49.42120 | 17.93147 | 79° | 37km/h | 16794m | 5.7m/s | 0°C | 0% | 0hPa | 2.7V | 00:00:00 | 01:23:01 | 00:00:00 | |
| PG1ADW-2 | 2026-09-01 12:02:38 | 49.42097 | 17.93031 | 81° | 26km/h | 16727m | 3.9m/s | -51.2°C | 3.3% | 0hPa | 2.7V | 00:00:00 | 00:00:00 | 00:00:00 | |
| PETON7-10 | 2026-09-01 12:02:37 | 49.42095 | 17.93022 | 77° | 26km/h | 16723m | 5.0m/s | -51.3°C | 3.2% | 0hPa | 2.7V | 00:00:00 | 00:00:00 | 00:00:00 | |
| OE5DXL-15 | 2026-09-01 12:02:35 | 49.42092 | 17.93004 | 68° | 29km/h | 16712m | 4.7m/s | -51.6°C | 3.3% | 0hPa | 2.7V | 00:00:00 | 00:00:00 | 00:00:00 | |
| OE5DRO-10 | 2026-09-01 12:02:33 | 49.42088 | 17.92989 | 68° | 27km/h | 16701m | 4.7m/s | -51.6°C | 3.3% | 0hPa | 2.7V | 00:00:00 | 00:00:00 | 00:00:00 | |
| OE3OSB-13 | 2026-09-01 12:02:32 | 49.42086 | 17.92981 | 65° | 20km/h | 16697m | 4.1m/s | -51.6°C | 1.0% | -1.0hPa | 2.7V | 00:00:00 | 00:00:00 | 00:00:00 | |
| PETON7-10 | 2026-09-01 12:02:22 | 49.42060 | 17.92885 | 62° | 31km/h | 16645m | 5.9m/s | -51.8°C | 3.4% | 0hPa | 2.7V | 00:00:00 | 01:22:32 | 00:00:00 | |
| PG1ADW-2 | 2026-09-01 12:02:18 | 49.42047 | 17.92845 | 60° | 31km/h | 16623m | 6.4m/s | -51.8°C | 3.5% | 0hPa | 2.7V | 00:00:00 | 00:00:00 | 00:00:00 | |
| OE5DRO-10 | 2026-09-01 12:02:14 | 49.42034 | 17.92804 | 72° | 31km/h | 16602m | 4.8m/s | -51.5°C | 3.5% | 0hPa | 2.7V | 00:00:00 | 00:00:00 | 08:30:00 | |
| HA6NAB-11 | 2026-09-01 12:02:09 | 49.42019 | 17.92744 | 74° | 38km/h | 16574m | 5.0m/s | -51.3°C | 1.1% | 0hPa | 2.7V | 00:00:00 | 00:00:00 | 00:00:00 | |
| PETON7-10 | 2026-09-01 12:02:07 | 49.42013 | 17.92716 | 70° | 31km/h | 16563m | 5.6m/s | -51.3°C | 3.3% | 0hPa | 2.7V | 00:00:00 | 00:00:00 | 00:00:00 | |
| OE5DXL-15 | 2026-09-01 12:02:05 | 49.42008 | 17.92692 | 73° | 29km/h | 16553m | 5.5m/s | -51.2°C | 3.3% | 0hPa | 2.7V | 00:00:00 | 00:00:00 | 00:00:00 | |
| HA6NAB-11 | 2026-09-01 12:02:03 | 49.42006 | 17.92681 | 79° | 27km/h | 16547m | 5.4m/s | -51.1°C | 1.1% | 0hPa | 2.7V | 00:00:00 | 00:00:00 | 00:00:00 | |
| OE3OSB-13 | 2026-09-01 12:02:01 | 49.42001 | 17.92651 | 70° | 26km/h | 16531m | 5.7m/s | -51.0°C | 1.0% | -1.0hPa | 2.7V | 00:00:00 | 00:00:00 | 00:00:00 | |
| HA6NAB-11 | 2026-09-01 12:01:58 | 49.41994 | 17.92619 | 75° | 31km/h | 16515m | 5.1m/s | -50.9°C | 1.1% | 0hPa | 2.7V | 00:00:00 | 00:00:00 | 00:00:00 | |
| OE5DRO-10 | 2026-09-01 12:01:55 | 49.41986 | 17.92583 | 69° | 29km/h | 16499m | 4.9m/s | -50.8°C | 3.3% | 0hPa | 2.7V | 00:00:00 | 00:00:00 | 00:00:00 | |
| PETON7-10 | 2026-09-01 12:01:52 | 49.41980 | 17.92548 | 86° | 29km/h | 16483m | 5.9m/s | -50.8°C | 3.3% | 0hPa | 2.7V | 00:00:00 | 00:00:00 | 00:00:00 | |
| HA6NAB-11 | 2026-09-01 12:01:51 | 49.41980 | 17.92548 | 86° | 29km/h | 16483m | 5.9m/s | -50.8°C | 1.1% | 0hPa | 2.7V | 00:00:00 | 00:00:00 | 00:00:00 | |
| HA6NAB-11 | 2026-09-01 12:01:45 | 49.41978 | 17.92491 | 85° | 26km/h | 16449m | 4.7m/s | -50.6°C | 1.1% | 0hPa | 2.7V | 00:00:00 | 00:00:00 | 00:00:00 | |
| HA6NAB-11 | 2026-09-01 12:01:39 | 49.41970 | 17.92421 | 92° | 33km/h | 16415m | 5.2m/s | -50.4°C | 1.1% | 0hPa | 2.7V | 00:00:00 | 00:00:00 | 00:00:00 | |
| PG1ADW-2 | 2026-09-01 12:01:38 | 49.41970 | 17.92396 | 93° | 27km/h | 16403m | 5.5m/s | -50.4°C | 3.2% | 0hPa | 2.7V | 00:00:00 | 00:00:00 | 00:00:00 | |
| PETON7-10 | 2026-09-01 12:01:37 | 49.41971 | 17.92385 | 97° | 26km/h | 16398m | 5.2m/s | -50.6°C | 3.2% | 0hPa | 2.7V | 00:00:00 | 01:21:47 | 00:00:00 | |
| OE5DRO-10 | 2026-09-01 12:01:36 | 49.41972 | 17.92375 | 102° | 27km/h | 16392m | 6.2m/s | -50.8°C | 3.3% | 0hPa | 2.7V | 00:00:00 | 00:00:00 | 00:00:00 | |
| OE5DXL-15 | 2026-09-01 12:01:35 | 49.41973 | 17.92364 | 105° | 35km/h | 16386m | 6.8m/s | -50.9°C | 3.3% | 0hPa | 2.7V | 00:00:00 | 00:00:00 | 00:00:00 | |
| OE3OSB-13 | 2026-09-01 12:01:30 | 49.41976 | 17.92324 | 76° | 16km/h | 16359m | 5.7m/s | -50.8°C | 0.9% | -1.0hPa | 2.7V | 00:00:00 | 00:00:00 | 00:00:00 | |
| HA6NAB-11 | 2026-09-01 12:01:23 | 49.41973 | 17.92262 | 104° | 35km/h | 16320m | 5.0m/s | -50.7°C | 1.1% | 0hPa | 2.7V | 00:00:00 | 00:00:00 | 00:00:00 | |
| PETON7-10 | 2026-09-01 12:01:22 | 49.41980 | 17.92237 | 121° | 40km/h | 16306m | 6.2m/s | -50.6°C | 3.3% | 0hPa | 2.7V | 00:00:00 | 00:00:00 | 00:00:00 | |
| PG1ADW-2 | 2026-09-01 12:01:18 | 49.41992 | 17.92196 | 96° | 46km/h | 16285m | 4.6m/s | -50.5°C | 3.2% | 0hPa | 2.7V | 00:00:00 | 00:00:00 | 00:00:00 | |
| OE5DRO-10 | 2026-09-01 12:01:17 | 49.41993 | 17.92185 | 91° | 46km/h | 16279m | 6.3m/s | -50.5°C | 3.1% | 0hPa | 2.7V | 00:00:00 | 00:00:00 | 00:00:00 | |
| HA6NAB-11 | 2026-09-01 12:01:12 | 49.41995 | 17.92117 | 100° | 51km/h | 16254m | 6.4m/s | -50.4°C | 1.1% | 0hPa | 2.7V | 00:00:00 | 00:00:00 | 00:00:00 | |
| PETON7-10 | 2026-09-01 12:01:07 | 49.42009 | 17.92004 | 100° | 47km/h | 16218m | 6.2m/s | -50.4°C | 3.2% | 0hPa | 2.7V | 00:00:00 | 00:00:00 | 00:00:00 | |
| HA6NAB-11 | 2026-09-01 12:01:06 | 49.42009 | 17.92004 | 101° | 49km/h | 16218m | 6.2m/s | -50.5°C | 1.1% | 0hPa | 2.7V | 00:00:00 | 00:00:00 | 00:00:00 | |
| OE5DXL-15 | 2026-09-01 12:01:05 | 49.42014 | 17.91968 | 101° | 51km/h | 16207m | 4.4m/s | -50.4°C | 3.1% | 0hPa | 2.7V | 00:00:00 | 00:00:00 | 00:00:00 | |
| OE3OSB-13 | 2026-09-01 12:00:59 | 49.42020 | 17.91850 | 88° | 44km/h | 16166m | 7.0m/s | -50.8°C | 1.0% | -1.0hPa | 2.7V | 00:00:00 | 00:00:00 | 00:00:00 | |
| PG1ADW-2 | 2026-09-01 12:00:58 | 49.42020 | 17.91850 | 89° | 53km/h | 16166m | 6.9m/s | -50.8°C | 3.3% | 0hPa | 2.7V | 00:00:00 | 00:00:00 | 00:00:00 | |
| PETON7-10 | 2026-09-01 12:00:53 | 49.42017 | 17.91728 | 89° | 53km/h | 16136m | 5.9m/s | -50.8°C | 3.2% | 0hPa | 2.7V | 00:00:00 | 01:21:02 | 00:00:00 | |
| DO3MHA-11 | 2026-09-01 12:00:43 | 49.41999 | 17.91527 | 77° | 53km/h | 16082m | 5.9m/s | 0°C | 0% | 0hPa | 2.7V | 00:00:00 | 01:20:52 | 00:00:00 | |
| OE5DRO-10 | 2026-09-01 12:00:39 | 49.41990 | 17.91467 | 75° | 51km/h | 16067m | 5.6m/s | -50.7°C | 3.3% | 0hPa | 2.7V | 00:00:00 | 00:00:00 | 00:00:00 | |
| PG1ADW-2 | 2026-09-01 12:00:38 | 49.41986 | 17.91448 | 74° | 51km/h | 16061m | 4.8m/s | -50.7°C | 3.3% | 0hPa | 2.7V | 00:00:00 | 01:20:48 | 08:30:00 | |
| PETON7-10 | 2026-09-01 12:00:37 | 49.41983 | 17.91429 | 76° | 51km/h | 16056m | 5.6m/s | -50.7°C | 3.3% | 0hPa | 2.7V | 00:00:00 | 00:00:00 | 08:30:00 | |
| OE5DXL-15 | 2026-09-01 12:00:36 | 49.41977 | 17.91391 | 77° | 53km/h | 16046m | 4.7m/s | -50.7°C | 3.3% | 0hPa | 2.7V | 00:00:00 | 00:00:00 | 00:00:00 | |
| DO3MHA-11 | 2026-09-01 12:00:32 | 49.41967 | 17.91332 | 78° | 51km/h | 16030m | 4.8m/s | 0°C | 0% | 0hPa | 2.7V | 00:00:00 | 01:20:42 | 00:00:00 | |
| HA6NAB-11 | 2026-09-01 12:00:30 | 49.41964 | 17.91311 | 79° | 55km/h | 16024m | 6.0m/s | -50.7°C | 1.1% | 0hPa | 2.7V | 00:00:00 | 00:00:00 | 00:00:00 | |
| OE3OSB-13 | 2026-09-01 12:00:28 | 49.41953 | 17.91234 | 76° | 47km/h | 16004m | 4.2m/s | -50.6°C | 0% | -1.0hPa | 2.7V | 00:00:00 | 00:00:00 | 00:00:00 | |
| HA6NAB-11 | 2026-09-01 12:00:25 | 49.41948 | 17.91196 | 83° | 49km/h | 15993m | 5.3m/s | -50.6°C | 1.2% | 0hPa | 2.7V | 00:00:00 | 00:00:00 | 00:00:00 | |
| DO3MHA-11 | 2026-09-01 12:00:22 | 49.41943 | 17.91139 | 80° | 51km/h | 15976m | 4.6m/s | 0°C | 0% | 0hPa | 2.7V | 00:00:00 | 01:20:32 | 00:00:00 | |
| OE5DRO-10 | 2026-09-01 12:00:20 | 49.41938 | 17.91099 | 82° | 53km/h | 15966m | 6.1m/s | -50.5°C | 3.2% | 0hPa | 2.7V | 00:00:00 | 00:00:00 | 00:00:00 | |
| PG1ADW-2 | 2026-09-01 12:00:19 | 49.41935 | 17.91058 | 85° | 55km/h | 15955m | 5.3m/s | -50.4°C | 3.2% | 0hPa | 2.7V | 00:00:00 | 00:00:00 | 00:00:00 | |
| DO3MHA-11 | 2026-09-01 12:00:12 | 49.41933 | 17.90941 | 92° | 55km/h | 15921m | 6.0m/s | 0°C | 0% | 0hPa | 2.7V | 00:00:00 | 01:20:22 | 00:00:00 | |
| PETON7-10 | 2026-09-01 12:00:07 | 49.41935 | 17.90835 | 89° | 58km/h | 15895m | 5.8m/s | -50.3°C | 3.2% | 0hPa | 2.7V | 00:00:00 | 01:20:17 | 00:00:00 | |
| OE5DXL-15 | 2026-09-01 12:00:05 | 49.41933 | 17.90792 | 84° | 64km/h | 15884m | 4.3m/s | -50.3°C | 3.2% | 0hPa | 2.7V | 00:00:00 | 00:00:00 | 00:00:00 | |
| OE3OSB-13 | 2026-09-01 11:59:57 | 49.41933 | 17.90591 | 92° | 58km/h | 15832m | 5.4m/s | -50.8°C | 1.0% | -1.0hPa | 2.7V | 00:00:00 | 00:00:00 | 00:00:00 | |
| HA6NAB-11 | 2026-09-01 11:59:54 | 49.41934 | 17.90544 | 93° | 62km/h | 15822m | 6.7m/s | -50.9°C | 1.2% | 0hPa | 2.7V | 00:00:00 | 00:00:00 | 00:00:00 | |
| DO3MHA-11 | 2026-09-01 11:59:52 | 49.41935 | 17.90495 | 90° | 71km/h | 15811m | 3.9m/s | 0°C | 0% | 0hPa | 2.7V | 00:00:00 | 01:20:02 | 00:00:00 | |
| HA6NAB-11 | 2026-09-01 11:59:50 | 49.41933 | 17.90417 | 89° | 69km/h | 15796m | 4.7m/s | -51.2°C | 1.2% | 0hPa | 2.7V | 00:00:00 | 00:00:00 | 00:00:00 | |
| OE5DRO-10 | 2026-09-01 11:59:42 | 49.41933 | 17.90227 | 90° | 69km/h | 15759m | 6.0m/s | -51.5°C | 3.4% | 0hPa | 2.7V | 00:00:00 | 00:00:00 | 00:00:00 | |
| HA6NAB-11 | 2026-09-01 11:59:38 | 49.41931 | 17.90128 | 89° | 60km/h | 15738m | 6.2m/s | -51.7°C | 1.2% | 0hPa | 2.7V | 00:00:00 | 00:00:00 | 00:00:00 | |
| OE5DXL-15 | 2026-09-01 11:59:35 | 49.41930 | 17.90057 | 89° | 73km/h | 15722m | 6.4m/s | -51.7°C | 3.4% | 0hPa | 2.7V | 00:00:00 | 00:00:00 | 00:00:00 | |
| HA6NAB-11 | 2026-09-01 11:59:32 | 49.41927 | 17.89980 | 87° | 71km/h | 15708m | 5.5m/s | -51.7°C | 1.2% | 0hPa | 2.7V | 00:00:00 | 00:00:00 | 00:00:00 | |
| HA6NAB-11 | 2026-09-01 11:59:27 | 49.41924 | 17.89833 | 91° | 77km/h | 15682m | 5.6m/s | -51.9°C | 1.3% | 0hPa | 2.7V | 00:00:00 | 00:00:00 | 00:00:00 | |
| OE3OSB-13 | 2026-09-01 11:59:26 | 49.41925 | 17.89775 | 90° | 73km/h | 15672m | 4.9m/s | -52.0°C | 1.2% | -1.0hPa | 2.7V | 00:00:00 | 00:00:00 | 00:00:00 | |
| OE5DRO-10 | 2026-09-01 11:59:23 | 49.41924 | 17.89720 | 87° | 73km/h | 15661m | 4.3m/s | -51.9°C | 3.6% | 0hPa | 2.7V | 00:00:00 | 00:00:00 | 08:30:00 | |
| PETON7-10 | 2026-09-01 11:59:22 | 49.41923 | 17.89694 | 87° | 73km/h | 15657m | 4.2m/s | -51.9°C | 3.6% | 0hPa | 2.7V | 00:00:00 | 01:19:32 | 00:00:00 | |
| HA6NAB-11 | 2026-09-01 11:59:19 | 49.41921 | 17.89640 | 88° | 71km/h | 15647m | 4.2m/s | -51.9°C | 1.3% | 0hPa | 2.7V | 00:00:00 | 00:00:00 | 00:00:00 | |
| PG1ADW-2 | 2026-09-01 11:59:18 | 49.41918 | 17.89585 | 84° | 71km/h | 15637m | 5.1m/s | -52.0°C | 3.5% | 0hPa | 2.7V | 00:00:00 | 01:19:28 | 00:00:00 | |
| PETON7-10 | 2026-09-01 11:59:07 | 49.41907 | 17.89268 | 87° | 68km/h | 15584m | 4.4m/s | -52.2°C | 3.6% | 0hPa | 2.7V | 00:00:00 | 00:00:00 | 00:00:00 | |
| OE5DXL-15 | 2026-09-01 11:59:05 | 49.41904 | 17.89212 | 86° | 68km/h | 15575m | 5.4m/s | -52.2°C | 3.6% | 0hPa | 2.7V | 00:00:00 | 00:00:00 | 00:00:00 | |
| OE5DRO-10 | 2026-09-01 11:59:04 | 49.41903 | 17.89186 | 84° | 68km/h | 15570m | 4.1m/s | -52.2°C | 3.6% | 0hPa | 2.7V | 00:00:00 | 00:00:00 | 00:00:00 | |
| PG1ADW-2 | 2026-09-01 11:58:58 | 49.41881 | 17.89036 | 75° | 68km/h | 15542m | 4.7m/s | -52.3°C | 3.6% | 0hPa | 2.7V | 00:00:00 | 00:00:00 | 00:00:00 | |
| PETON7-10 | 2026-09-01 11:58:52 | 49.41860 | 17.88889 | 78° | 69km/h | 15514m | 4.4m/s | -52.4°C | 3.6% | 0hPa | 2.7V | 00:00:00 | 00:00:00 | 00:00:00 | |
| HA6NAB-11 | 2026-09-01 11:58:43 | 49.41838 | 17.88677 | 86° | 69km/h | 15474m | 3.8m/s | -52.4°C | 1.4% | 0hPa | 2.7V | 00:00:00 | 00:00:00 | 00:00:00 | |
| PG1ADW-2 | 2026-09-01 11:58:39 | 49.41832 | 17.88516 | 87° | 78km/h | 15448m | 3.9m/s | -52.3°C | 3.6% | 0hPa | 2.7V | 00:00:00 | 00:00:00 | 00:00:00 | |
| PETON7-10 | 2026-09-01 11:58:37 | 49.41830 | 17.88488 | 85° | 77km/h | 15443m | 6.2m/s | -52.4°C | 3.6% | 0hPa | 2.7V | 00:00:00 | 01:18:47 | 00:00:00 | |
| OE5DXL-15 | 2026-09-01 11:58:35 | 49.41827 | 17.88431 | 84° | 77km/h | 15432m | 5.6m/s | -52.5°C | 3.6% | 0hPa | 2.7V | 00:00:00 | 00:00:00 | 08:30:00 | |
| HA6NAB-11 | 2026-09-01 11:58:33 | 49.41822 | 17.88373 | 85° | 77km/h | 15422m | 5.2m/s | -52.7°C | 0% | 0hPa | 2.7V | 00:00:00 | 00:00:00 | 00:00:00 | |
| HA6NAB-11 | 2026-09-01 11:58:27 | 49.41818 | 17.88222 | 91° | 82km/h | 15398m | 3.2m/s | -52.7°C | 0% | 0hPa | 2.7V | 00:00:00 | 00:00:00 | 00:00:00 | |
| OE5DRO-10 | 2026-09-01 11:58:26 | 49.41818 | 17.88159 | 89° | 77km/h | 15389m | 4.4m/s | -52.7°C | 3.7% | 0hPa | 2.7V | 00:00:00 | 00:00:00 | 00:00:00 | |
| OE3OSB-13 | 2026-09-01 11:58:24 | 49.41812 | 17.88068 | 82° | 78km/h | 15375m | 4.4m/s | -52.6°C | 1.2% | -1.0hPa | 2.7V | 00:00:00 | 00:00:00 | 00:00:00 | |
| PETON7-10 | 2026-09-01 11:58:22 | 49.41810 | 17.88038 | 83° | 77km/h | 15371m | 4.2m/s | -52.6°C | 3.7% | 0hPa | 2.7V | 00:00:00 | 00:00:00 | 08:30:00 | |
| PG1ADW-2 | 2026-09-01 11:58:18 | 49.41800 | 17.87916 | 85° | 77km/h | 15352m | 5.0m/s | -52.5°C | 3.7% | 0hPa | 2.7V | 00:00:00 | 00:00:00 | 00:00:00 | |
| HA6NAB-11 | 2026-09-01 11:58:17 | 49.41798 | 17.87885 | 86° | 82km/h | 15348m | 3.0m/s | -52.5°C | 0% | 0hPa | 2.7V | 00:00:00 | 00:00:00 | 00:00:00 | |
| HA6NAB-11 | 2026-09-01 11:58:11 | 49.41781 | 17.87706 | 80° | 75km/h | 15322m | 3.6m/s | -52.6°C | 0% | 0hPa | 2.7V | 00:00:00 | 00:00:00 | 00:00:00 | |
| PETON7-10 | 2026-09-01 11:58:07 | 49.41773 | 17.87599 | 88° | 77km/h | 15304m | 4.5m/s | -52.6°C | 3.7% | 0hPa | 2.7V | 00:00:00 | 00:00:00 | 00:00:00 | |
| HA6NAB-11 | 2026-09-01 11:58:06 | 49.41772 | 17.87571 | 88° | 73km/h | 15299m | 4.9m/s | -52.7°C | 0% | 0hPa | 2.7V | 00:00:00 | 00:00:00 | 00:00:00 | |
| OE5DXL-15 | 2026-09-01 11:58:05 | 49.41771 | 17.87542 | 88° | 78km/h | 15295m | 3.7m/s | -52.6°C | 3.7% | 0hPa | 2.7V | 00:00:00 | 00:00:00 | 00:00:00 | |
| OE3OSB-13 | 2026-09-01 11:57:53 | 49.41752 | 17.87153 | 90° | 78km/h | 15235m | 4.1m/s | -53.0°C | 1.3% | -1.0hPa | 2.7V | 00:00:00 | 00:00:00 | 00:00:00 | |
| PETON7-10 | 2026-09-01 11:57:52 | 49.41752 | 17.87153 | 91° | 80km/h | 15235m | 4.1m/s | -52.9°C | 3.7% | 0hPa | 2.7V | 00:00:00 | 01:18:02 | 00:00:00 | |
| OE5DRO-10 | 2026-09-01 11:57:48 | 49.41751 | 17.87033 | 87° | 82km/h | 15218m | 4.9m/s | -52.8°C | 3.7% | 0hPa | 2.7V | 00:00:00 | 00:00:00 | 00:00:00 | |
| PG1ADW-2 | 2026-09-01 11:57:38 | 49.41727 | 17.86721 | 84° | 80km/h | 15170m | 3.5m/s | -52.9°C | 3.9% | 0hPa | 2.7V | 00:00:00 | 00:00:00 | 08:30:00 | |
| PETON7-10 | 2026-09-01 11:57:37 | 49.41725 | 17.86690 | 84° | 80km/h | 15166m | 5.5m/s | -53.0°C | 3.8% | 0hPa | 2.7V | 00:00:00 | 00:00:00 | 00:00:00 | |
| OE5DXL-15 | 2026-09-01 11:57:35 | 49.41719 | 17.86626 | 80° | 77km/h | 15156m | 3.9m/s | -52.9°C | 3.8% | 0hPa | 2.7V | 00:00:00 | 00:00:00 | 00:00:00 | |
| OE5DRO-10 | 2026-09-01 11:57:29 | 49.41687 | 17.86433 | 75° | 75km/h | 15128m | 4.0m/s | -53.1°C | 3.9% | 0hPa | 2.7V | 00:00:00 | 00:00:00 | 00:00:00 | |
| OE3OSB-13 | 2026-09-01 11:57:22 | 49.41664 | 17.86139 | 79° | 82km/h | 15078m | 5.2m/s | -53.0°C | 1.4% | -1.0hPa | 2.7V | 00:00:00 | 00:00:00 | 00:00:00 | |
| PG1ADW-2 | 2026-09-01 11:57:18 | 49.41660 | 17.86108 | 77° | 69km/h | 15072m | 8.3m/s | -52.9°C | 3.9% | 0hPa | 2.7V | 00:00:00 | 00:00:00 | 00:00:00 | |
| OE5DRO-10 | 2026-09-01 11:57:10 | 49.41638 | 17.85889 | 87° | 68km/h | 15020m | 7.8m/s | -53.1°C | 4.0% | 0hPa | 2.7V | 00:00:00 | 00:00:00 | 00:00:00 | |
| PETON7-10 | 2026-09-01 11:57:07 | 49.41633 | 17.85808 | 84° | 68km/h | 15002m | 4.8m/s | -53.2°C | 3.9% | 0hPa | 2.7V | 00:00:00 | 01:17:17 | 00:00:00 | |
| OE5DXL-15 | 2026-09-01 11:57:05 | 49.41629 | 17.85755 | 84° | 69km/h | 14991m | 3.2m/s | -53.2°C | 3.9% | 0hPa | 2.7V | 00:00:00 | 00:00:00 | 00:00:00 | |
| OE3OSB-13 | 2026-09-01 11:56:51 | 49.41626 | 17.85343 | 93° | 66km/h | 14902m | 3.9m/s | -53.5°C | 1.6% | -1.0hPa | 2.7V | 00:00:00 | 00:00:00 | 00:00:00 | |
| HA6NAB-11 | 2026-09-01 11:56:50 | 49.41624 | 17.85395 | 94° | 68km/h | 14910m | 7.4m/s | -53.5°C | 0% | 0hPa | 2.7V | 00:00:00 | 00:00:00 | 00:00:00 | |
| HA6NAB-11 | 2026-09-01 11:56:44 | 49.41629 | 17.85242 | 92° | 64km/h | 14879m | 4.8m/s | -53.5°C | 0% | 0hPa | 2.7V | 00:00:00 | 00:00:00 | 00:00:00 | |
| HA6NAB-11 | 2026-09-01 11:56:39 | 49.41639 | 17.85067 | 98° | 86km/h | 14841m | 4.7m/s | -54.0°C | 0% | 0hPa | 2.7V | 00:00:00 | 00:00:00 | 00:00:00 | |
| PG1ADW-2 | 2026-09-01 11:56:38 | 49.41642 | 17.85035 | 98° | 80km/h | 14835m | 8.4m/s | -54.0°C | 4.3% | 0hPa | 2.7V | 00:00:00 | 01:16:48 | 00:00:00 | |
| PETON7-10 | 2026-09-01 11:56:37 | 49.41645 | 17.85003 | 100° | 80km/h | 14829m | 2.5m/s | -54.1°C | 4.4% | 0hPa | 2.7V | 00:00:00 | 00:00:00 | 00:00:00 | |
| OE5DXL-15 | 2026-09-01 11:56:35 | 49.41651 | 17.84943 | 99° | 80km/h | 14821m | 3.9m/s | -54.2°C | 4.3% | 0hPa | 2.7V | 00:00:00 | 00:00:00 | 00:00:00 | |
| HA6NAB-11 | 2026-09-01 11:56:34 | 49.41653 | 17.84914 | 100° | 75km/h | 14815m | 7.3m/s | -54.2°C | 0% | 0hPa | 2.7V | 00:00:00 | 00:00:00 | 00:00:00 | |
| OE5DRO-10 | 2026-09-01 11:56:32 | 49.41661 | 17.84856 | 104° | 80km/h | 14806m | 6.1m/s | -54.2°C | 4.2% | 0hPa | 2.7V | 00:00:00 | 00:00:00 | 08:30:00 | |
| HA6NAB-11 | 2026-09-01 11:56:27 | 49.41678 | 17.84745 | 101° | 78km/h | 14780m | 4.7m/s | -54.7°C | 0% | 0hPa | 2.7V | 00:00:00 | 00:00:00 | 00:00:00 | |
| HA6NAB-11 | 2026-09-01 11:56:22 | 49.41695 | 17.84547 | 96° | 86km/h | 14745m | 9.7m/s | 0°C | 0% | 0hPa | 2.7V | 00:00:00 | 00:00:00 | 00:00:00 | |
| OE3OSB-13 | 2026-09-01 11:56:19 | 49.41698 | 17.84452 | 93° | 77km/h | 14724m | 4.6m/s | -54.7°C | 1.8% | -1.0hPa | 2.7V | 00:00:00 | 00:00:00 | 00:00:00 | |
| PG1ADW-2 | 2026-09-01 11:56:18 | 49.41699 | 17.84422 | 93° | 77km/h | 14718m | 8.0m/s | -54.7°C | 4.5% | 0hPa | 2.7V | 00:00:00 | 00:00:00 | 00:00:00 | |
| OE5DRO-10 | 2026-09-01 11:56:13 | 49.41704 | 17.84269 | 92° | 77km/h | 14689m | 7.7m/s | -55.0°C | 4.5% | 0hPa | 2.7V | 00:00:00 | 00:00:00 | 00:00:00 | |
| PETON7-10 | 2026-09-01 11:56:07 | 49.41704 | 17.84084 | 86° | 75km/h | 14645m | 4.9m/s | -55.1°C | 4.6% | 0hPa | 2.7V | 00:00:00 | 00:00:00 | 08:30:00 | |
| OE5DXL-15 | 2026-09-01 11:56:06 | 49.41700 | 17.84022 | 82° | 77km/h | 14633m | 3.4m/s | -55.1°C | 4.6% | 0hPa | 2.7V | 00:00:00 | 00:00:00 | 00:00:00 | |
| OE3OSB-13 | 2026-09-01 11:55:48 | 49.41681 | 17.83523 | 89° | 77km/h | 14526m | 4.8m/s | -54.9°C | 1.9% | -1.0hPa | 2.7V | 00:00:00 | 00:00:00 | 00:00:00 | |
| HA6NAB-11 | 2026-09-01 11:55:45 | 49.41680 | 17.83462 | 90° | 78km/h | 14514m | 6.1m/s | 0°C | 0% | 0hPa | 2.7V | 00:00:00 | 00:00:00 | 00:00:00 | |
| HA6NAB-11 | 2026-09-01 11:55:40 | 49.41679 | 17.83303 | 90° | 82km/h | 14481m | 7.3m/s | 0°C | 0% | 0hPa | 2.7V | 00:00:00 | 00:00:00 | 00:00:00 | |
| PG1ADW-2 | 2026-09-01 11:55:38 | 49.41675 | 17.83209 | 87° | 80km/h | 14461m | 4.5m/s | -54.8°C | 4.6% | 0hPa | 2.7V | 00:00:00 | 00:00:00 | 00:00:00 | |
| PETON7-10 | 2026-09-01 11:55:37 | 49.41674 | 17.83179 | 86° | 82km/h | 14455m | 7.1m/s | -54.9°C | 4.6% | 0hPa | 2.7V | 00:00:00 | 01:15:47 | 00:00:00 | |
| OE5DXL-15 | 2026-09-01 11:55:35 | 49.41670 | 17.83124 | 85° | 82km/h | 14438m | 6.2m/s | -54.9°C | 4.7% | 0hPa | 2.7V | 00:00:00 | 00:00:00 | 00:00:00 | |
| HA6NAB-11 | 2026-09-01 11:55:34 | 49.41671 | 17.83124 | 85° | 71km/h | 14438m | 6.3m/s | 0°C | 0% | 0hPa | 2.7V | 00:00:00 | 00:00:00 | 00:00:00 | |
| PETON7-10 | 2026-09-01 11:55:22 | 49.41646 | 17.82708 | 84° | 80km/h | 14355m | 8.4m/s | -54.9°C | 4.8% | 0hPa | 2.7V | 00:00:00 | 00:00:00 | 00:00:00 | |
| PG1ADW-2 | 2026-09-01 11:55:18 | 49.41637 | 17.82586 | 82° | 80km/h | 14331m | 2.8m/s | -55.0°C | 4.7% | 0hPa | 2.7V | 00:00:00 | 01:15:28 | 00:00:00 | |
| OE3OSB-13 | 2026-09-01 11:55:17 | 49.41634 | 17.82555 | 81° | 80km/h | 14327m | 5.9m/s | -55.1°C | 1.9% | -1.0hPa | 2.7V | 00:00:00 | 00:00:00 | 00:00:00 | |
| OE5DRO-10 | 2026-09-01 11:55:16 | 49.41630 | 17.82523 | 80° | 80km/h | 14321m | 6.6m/s | -55.0°C | 4.6% | 0hPa | 2.7V | 00:00:00 | 00:00:00 | 00:00:00 | |
| PETON7-10 | 2026-09-01 11:55:07 | 49.41593 | 17.82245 | 74° | 77km/h | 14259m | 3.3m/s | -54.5°C | 4.6% | 0hPa | 2.7V | 00:00:00 | 00:00:00 | 00:00:00 | |
| OE5DXL-15 | 2026-09-01 11:55:05 | 49.41582 | 17.82186 | 76° | 73km/h | 14247m | 8.1m/s | -54.7°C | 4.6% | 0hPa | 2.7V | 00:00:00 | 00:00:00 | 00:00:00 | |
| OE3OSB-13 | 2026-09-01 11:54:46 | 49.41518 | 17.81650 | 83° | 77km/h | 14131m | 6.1m/s | -54.5°C | 1.8% | -1.0hPa | 2.7V | 00:00:00 | 00:00:00 | 00:00:00 | |
| PG1ADW-2 | 2026-09-01 11:54:38 | 49.41505 | 17.81440 | 87° | 78km/h | 14077m | 7.5m/s | -54.2°C | 4.4% | 0hPa | 2.7V | 00:00:00 | 00:00:00 | 08:30:00 | |
| PETON7-10 | 2026-09-01 11:54:37 | 49.41504 | 17.81412 | 86° | 75km/h | 14070m | 6.0m/s | -54.2°C | 4.5% | 0hPa | 2.7V | 00:00:00 | 00:00:00 | 00:00:00 | |
| OE5DXL-15 | 2026-09-01 11:54:35 | 49.41500 | 17.81352 | 83° | 80km/h | 14056m | 7.9m/s | -54.1°C | 4.5% | 0hPa | 2.7V | 00:00:00 | 00:00:00 | 00:00:00 | |
| PETON7-10 | 2026-09-01 11:54:22 | 49.41456 | 17.80978 | 78° | 84km/h | 13979m | 9.0m/s | -54.0°C | 4.3% | 0hPa | 2.7V | 00:00:00 | 00:00:00 | 00:00:00 | |
| OE5DRO-10 | 2026-09-01 11:54:19 | 49.41443 | 17.80877 | 81° | 84km/h | 13963m | 6.6m/s | -53.9°C | 4.3% | 0hPa | 2.7V | 00:00:00 | 00:00:00 | 00:00:00 | |
| PG1ADW-2 | 2026-09-01 11:54:18 | 49.41440 | 17.80844 | 81° | 82km/h | 13957m | 5.4m/s | -53.9°C | 4.4% | 0hPa | 2.7V | 00:00:00 | 00:00:00 | 00:00:00 | |
| OE3OSB-13 | 2026-09-01 11:54:15 | 49.41429 | 17.80749 | 78° | 80km/h | 13942m | 5.2m/s | -53.9°C | 1.8% | -1.0hPa | 2.7V | 00:00:00 | 00:00:00 | 00:00:00 | |
| PETON7-10 | 2026-09-01 11:54:07 | 49.41394 | 17.80498 | 82° | 78km/h | 13891m | 5.5m/s | -54.0°C | 4.5% | 0hPa | 2.7V | 00:00:00 | 01:14:17 | 00:00:00 | |
| OE5DXL-15 | 2026-09-01 11:54:05 | 49.41388 | 17.80430 | 83° | 78km/h | 13876m | 4.0m/s | -54.0°C | 4.5% | 0hPa | 2.7V | 00:00:00 | 00:00:00 | 08:30:00 | |
| OE5DRO-10 | 2026-09-01 11:54:00 | 49.41373 | 17.80273 | 76° | 78km/h | 13845m | 5.6m/s | -54.0°C | 4.5% | 0hPa | 2.7V | 00:00:00 | 00:00:00 | 00:00:00 | |
| PG1ADW-2 | 2026-09-01 11:53:58 | 49.41361 | 17.80216 | 72° | 78km/h | 13834m | 2.9m/s | -54.0°C | 4.4% | 0hPa | 2.7V | 00:00:00 | 01:14:08 | 00:00:00 | |
| PETON7-10 | 2026-09-01 11:53:52 | 49.41328 | 17.80056 | 79° | 78km/h | 13792m | 5.4m/s | -53.9°C | 4.6% | 0hPa | 2.7V | 00:00:00 | 00:00:00 | 08:30:00 | |
| OE3OSB-13 | 2026-09-01 11:53:44 | 49.41309 | 17.79807 | 77° | 86km/h | 13744m | 10.1m/s | -54.1°C | 2.0% | -1.0hPa | 2.7V | 00:00:00 | 00:00:00 | 00:00:00 | |
| OE5DRO-10 | 2026-09-01 11:53:41 | 49.41289 | 17.79716 | 70° | 78km/h | 13726m | 3.7m/s | -53.9°C | 4.5% | 0hPa | 2.7V | 00:00:00 | 00:00:00 | 08:30:00 | |
| PG1ADW-2 | 2026-09-01 11:53:38 | 49.41271 | 17.79634 | 76° | 78km/h | 13708m | 8.6m/s | -54.0°C | 4.6% | 0hPa | 2.7V | 00:00:00 | 00:00:00 | 00:00:00 | |
| PETON7-10 | 2026-09-01 11:53:37 | 49.41268 | 17.79607 | 85° | 80km/h | 13701m | 4.7m/s | -53.9°C | 4.6% | 0hPa | 2.7V | 00:00:00 | 00:00:00 | 00:00:00 | |
| OE5DXL-15 | 2026-09-01 11:53:35 | 49.41266 | 17.79550 | 91° | 77km/h | 13687m | 5.0m/s | -53.8°C | 4.6% | 0hPa | 2.7V | 00:00:00 | 00:00:00 | 00:00:00 | |
| OE5DRO-10 | 2026-09-01 11:53:22 | 49.41252 | 17.79141 | 85° | 73km/h | 13614m | 4.9m/s | -53.7°C | 4.7% | 0hPa | 2.7V | 00:00:00 | 00:00:00 | 00:00:00 | |
| PG1ADW-2 | 2026-09-01 11:53:18 | 49.41246 | 17.79027 | 87° | 71km/h | 13590m | 7.4m/s | -53.6°C | 4.7% | 0hPa | 2.7V | 00:00:00 | 00:00:00 | 00:00:00 | |
| OE3OSB-13 | 2026-09-01 11:53:13 | 49.41237 | 17.78887 | 85° | 71km/h | 13563m | 3.0m/s | -53.5°C | 2.3% | -1.0hPa | 2.7V | 00:00:00 | 00:00:00 | 00:00:00 | |
| PETON7-10 | 2026-09-01 11:53:07 | 49.41231 | 17.78719 | 91° | 73km/h | 13530m | 2.6m/s | -53.7°C | 4.8% | 0hPa | 2.7V | 00:00:00 | 00:00:00 | 00:00:00 | |
| OE5DXL-15 | 2026-09-01 11:53:05 | 49.41231 | 17.78666 | 90° | 77km/h | 13517m | 8.5m/s | -53.8°C | 4.9% | 0hPa | 2.7V | 00:00:00 | 00:00:00 | 00:00:00 | |
| OE5DRO-10 | 2026-09-01 11:53:03 | 49.41232 | 17.78612 | 94° | 75km/h | 13505m | 6.5m/s | -53.9°C | 4.9% | 0hPa | 2.7V | 00:00:00 | 00:00:00 | 00:00:00 | |
| PG1ADW-2 | 2026-09-01 11:52:58 | 49.41236 | 17.78482 | 90° | 78km/h | 13477m | 1.6m/s | -54.5°C | 5.5% | 0hPa | 2.7V | 00:00:00 | 00:00:00 | 00:00:00 | |
| PETON7-10 | 2026-09-01 11:52:52 | 49.41232 | 17.78292 | 87° | 78km/h | 13440m | 4.3m/s | -54.7°C | 5.5% | 0hPa | 2.7V | 00:00:00 | 00:00:00 | 00:00:00 | |
| OE5DRO-10 | 2026-09-01 11:52:44 | 49.41225 | 17.78051 | 93° | 80km/h | 13393m | 8.6m/s | -55.1°C | 6.0% | 0hPa | 2.7V | 00:00:00 | 00:00:00 | 00:00:00 | |
| OE3OSB-13 | 2026-09-01 11:52:42 | 49.41228 | 17.77994 | 95° | 75km/h | 13380m | 8.1m/s | -55.3°C | 3.3% | -1.0hPa | 2.7V | 00:00:00 | 00:00:00 | 00:00:00 | |
| PG1ADW-2 | 2026-09-01 11:52:38 | 49.41238 | 17.77870 | 97° | 84km/h | 13350m | 8.0m/s | -55.2°C | 6.4% | 0hPa | 2.7V | 00:00:00 | 01:12:48 | 00:00:00 | |
| PETON7-10 | 2026-09-01 11:52:37 | 49.41240 | 17.77840 | 97° | 82km/h | 13342m | 8.0m/s | -55.2°C | 6.4% | 0hPa | 2.7V | 00:00:00 | 01:12:47 | 00:00:00 | |
| OE5DXL-15 | 2026-09-01 11:52:35 | 49.41245 | 17.77782 | 99° | 89km/h | 13330m | 7.2m/s | -55.2°C | 6.6% | 0hPa | 2.7V | 00:00:00 | 00:00:00 | 00:00:00 | |
| OE5DRO-10 | 2026-09-01 11:52:25 | 49.41279 | 17.77457 | 103° | 93km/h | 13267m | 5.0m/s | -55.6°C | 7.0% | 0hPa | 2.7V | 00:00:00 | 00:00:00 | 00:00:00 | |
| PETON7-10 | 2026-09-01 11:52:22 | 49.41294 | 17.77364 | 104° | 95km/h | 13248m | 3.8m/s | -55.8°C | 7.4% | 0hPa | 2.7V | 00:00:00 | 00:00:00 | 00:00:00 | |
| PG1ADW-2 | 2026-09-01 11:52:18 | 49.41316 | 17.77219 | 104° | 99km/h | 13226m | 5.7m/s | -55.8°C | 7.5% | 0hPa | 2.7V | 00:00:00 | 00:00:00 | 00:00:00 | |
| OE3OSB-13 | 2026-09-01 11:52:12 | 49.41356 | 17.76921 | 103° | 88km/h | 13180m | 5.1m/s | -55.7°C | 4.8% | -1.0hPa | 2.7V | 00:00:00 | 00:00:00 | 00:00:00 | |
| PETON7-10 | 2026-09-01 11:52:08 | 49.41370 | 17.76824 | 98° | 95km/h | 13166m | 4.0m/s | -55.7°C | 8.2% | 0hPa | 2.7V | 00:00:00 | 00:00:00 | 00:00:00 | |
| OE5DRO-10 | 2026-09-01 11:52:06 | 49.41373 | 17.76791 | 95° | 95km/h | 13162m | 5.2m/s | -55.6°C | 8.2% | 0hPa | 2.7V | 00:00:00 | 00:00:00 | 00:00:00 | |
| OE5DXL-15 | 2026-09-01 11:52:05 | 49.41374 | 17.76755 | 93° | 95km/h | 13156m | 6.0m/s | -55.5°C | 8.0% | 0hPa | 2.7V | 00:00:00 | 00:00:00 | 00:00:00 | |
| PG1ADW-2 | 2026-09-01 11:51:58 | 49.41401 | 17.76469 | 101° | 91km/h | 13112m | 6.9m/s | -55.5°C | 8.5% | 0hPa | 2.7V | 00:00:00 | 00:00:00 | 00:00:00 | |
| PETON7-10 | 2026-09-01 11:51:52 | 49.41408 | 17.76282 | 95° | 95km/h | 13071m | 6.1m/s | -56.2°C | 9.5% | 0hPa | 2.7V | 00:00:00 | 01:12:02 | 00:00:00 | |
| OE5DRO-10 | 2026-09-01 11:51:47 | 49.41406 | 17.76098 | 80° | 99km/h | 13041m | 6.6m/s | -56.6°C | 9.8% | 0hPa | 2.7V | 00:00:00 | 00:00:00 | 00:00:00 | |
| OE3OSB-13 | 2026-09-01 11:51:40 | 49.41375 | 17.75803 | 87° | 97km/h | 12995m | 8.1m/s | -57.1°C | 7.4% | -1.0hPa | 2.7V | 00:00:00 | 00:00:00 | 00:00:00 | |
| PETON7-10 | 2026-09-01 11:51:38 | 49.41374 | 17.75727 | 90° | 99km/h | 12982m | 7.0m/s | -57.1°C | 11.2% | 0hPa | 2.7V | 00:00:00 | 00:00:00 | 08:30:00 | |
| OE5DXL-15 | 2026-09-01 11:51:35 | 49.41375 | 17.75652 | 92° | 95km/h | 12969m | 4.7m/s | -56.9°C | 11.3% | 0hPa | 2.7V | 00:00:00 | 00:00:00 | 00:00:00 | |
| OE5DRO-10 | 2026-09-01 11:51:28 | 49.41355 | 17.75375 | 79° | 93km/h | 12926m | 3.7m/s | -57.0°C | 11.6% | 0hPa | 2.7V | 00:00:00 | 00:00:00 | 00:00:00 | |
| PETON7-10 | 2026-09-01 11:51:22 | 49.41338 | 17.75164 | 86° | 93km/h | 12887m | 9.6m/s | -57.1°C | 11.9% | 0hPa | 2.7V | 00:00:00 | 00:00:00 | 00:00:00 | |
| PG1ADW-2 | 2026-09-01 11:51:18 | 49.41332 | 17.75022 | 88° | 91km/h | 12860m | 8.3m/s | -56.9°C | 12.2% | 0hPa | 2.7V | 00:00:00 | 01:11:28 | 00:00:00 | |
| OE3OSB-13 | 2026-09-01 11:51:09 | 49.41305 | 17.74665 | 82° | 89km/h | 12789m | 4.1m/s | -57.0°C | 9.6% | -1.0hPa | 2.7V | 00:00:00 | 00:00:00 | 00:00:00 | |
| PETON7-10 | 2026-09-01 11:51:07 | 49.41302 | 17.74630 | 84° | 86km/h | 12783m | 8.6m/s | -57.0°C | 13.6% | 0hPa | 2.7V | 00:00:00 | 01:11:17 | 00:00:00 | |
| OE5DXL-15 | 2026-09-01 11:51:05 | 49.41297 | 17.74558 | 84° | 84km/h | 12772m | 6.4m/s | -57.2°C | 13.7% | 0hPa | 2.7V | 00:00:00 | 00:00:00 | 00:00:00 | |
| PG1ADW-2 | 2026-09-01 11:50:58 | 49.41273 | 17.74321 | 78° | 82km/h | 12735m | 3.4m/s | -57.7°C | 13.7% | 0hPa | 2.7V | 00:00:00 | 00:00:00 | 00:00:00 | |
| OE3JTB-15 | 2026-09-01 11:50:55 | 49.41265 | 17.74139 | 93° | 106km/h | 12703m | 6.5m/s | -57.5°C | 14.6% | 0hPa | 2.7V | 00:00:00 | 01:11:02 | 00:00:00 | |
| PETON7-10 | 2026-09-01 11:50:52 | 49.41265 | 17.74139 | 93° | 84km/h | 12703m | 6.5m/s | -57.5°C | 14.6% | 0hPa | 2.7V | 00:00:00 | 00:00:00 | 00:00:00 | |
| OE5DRO-10 | 2026-09-01 11:50:50 | 49.41266 | 17.74073 | 90° | 86km/h | 12694m | 4.7m/s | -57.5°C | 14.6% | 0hPa | 2.9V | 00:00:00 | 00:00:00 | 08:30:00 | |
| OE3OSB-13 | 2026-09-01 11:50:38 | 49.41263 | 17.73648 | 92° | 88km/h | 12629m | 4.9m/s | -57.0°C | 10.5% | -1.0hPa | 2.9V | 00:00:00 | 00:00:00 | 00:00:00 | |
| PETON7-10 | 2026-09-01 11:50:37 | 49.41263 | 17.73648 | 93° | 93km/h | 12629m | 4.8m/s | -57.0°C | 14.6% | 0hPa | 2.9V | 00:00:00 | 00:00:00 | 00:00:00 | |
| OE5DXL-15 | 2026-09-01 11:50:35 | 49.41267 | 17.73580 | 98° | 89km/h | 12617m | 4.7m/s | -56.9°C | 14.7% | 0hPa | 2.9V | 00:00:00 | 00:00:00 | 00:00:00 | |
| OE5DRO-10 | 2026-09-01 11:50:31 | 49.41278 | 17.73444 | 95° | 91km/h | 12597m | 4.7m/s | -56.7°C | 14.8% | 0hPa | 2.9V | 00:00:00 | 00:00:00 | 00:00:00 | |
| PETON7-10 | 2026-09-01 11:50:22 | 49.41261 | 17.73112 | 89° | 88km/h | 12546m | 5.5m/s | -56.3°C | 15.4% | 0hPa | 2.9V | 00:00:00 | 01:10:32 | 00:00:00 | |
| PG1ADW-2 | 2026-09-01 11:50:18 | 49.41269 | 17.72974 | 101° | 89km/h | 12523m | 4.5m/s | -56.2°C | 15.7% | 0hPa | 2.9V | 00:00:00 | 00:00:00 | 00:00:00 | |
| HA6NAB-11 | 2026-09-01 11:50:17 | 49.41270 | 17.72974 | 101° | 82km/h | 12523m | 4.6m/s | 0°C | 0% | 0hPa | 2.9V | 00:00:00 | 00:00:00 | 00:00:00 | |
| OE5DRO-10 | 2026-09-01 11:50:12 | 49.41269 | 17.72779 | 83° | 93km/h | 12493m | 8.1m/s | -56.0°C | 15.3% | 0hPa | 2.9V | 00:00:00 | 00:00:00 | 00:00:00 | |
| HA6NAB-11 | 2026-09-01 11:50:11 | 49.41269 | 17.72779 | 84° | 93km/h | 12493m | 8.2m/s | 0°C | 0% | 0hPa | 2.9V | 00:00:00 | 00:00:00 | 00:00:00 | |
| OE3OSB-13 | 2026-09-01 11:50:07 | 49.41257 | 17.72571 | 87° | 88km/h | 12451m | 4.2m/s | -55.7°C | 11.8% | -1.0hPa | 2.9V | 00:00:00 | 00:00:00 | 00:00:00 | |
| OE5DXL-15 | 2026-09-01 11:50:05 | 49.41256 | 17.72536 | 88° | 106km/h | 12446m | 6.5m/s | -55.6°C | 15.7% | 0hPa | 2.9V | 00:00:00 | 00:00:00 | 00:00:00 | |
| PG1ADW-2 | 2026-09-01 11:49:58 | 49.41251 | 17.72284 | 93° | 110km/h | 12402m | 6.6m/s | -55.2°C | 17.1% | 0hPa | 2.9V | 00:00:00 | 01:10:08 | 00:00:00 | |
| PETON7-10 | 2026-09-01 11:49:52 | 49.41256 | 17.72043 | 88° | 111km/h | 12368m | 5.3m/s | -55.1°C | 18.4% | 0hPa | 2.9V | 00:00:00 | 00:00:00 | 00:00:00 | |
| PG1ADW-2 | 2026-09-01 11:49:38 | 49.41229 | 17.71439 | 79° | 111km/h | 12266m | 10.5m/s | -54.7°C | 21.6% | 0hPa | 2.9V | 00:00:00 | 00:00:00 | 00:00:00 | |
| PETON7-10 | 2026-09-01 11:49:37 | 49.41223 | 17.71397 | 78° | 110km/h | 12258m | 6.6m/s | -54.6°C | 21.6% | 0hPa | 2.7V | 00:00:00 | 01:09:47 | 00:00:00 | |
| OE3OSB-13 | 2026-09-01 11:49:36 | 49.41211 | 17.71315 | 76° | 108km/h | 12244m | 7.4m/s | -54.5°C | 18.2% | -1.0hPa | 2.7V | 00:00:00 | 00:00:00 | 00:00:00 | |
| OE5DXL-15 | 2026-09-01 11:49:35 | 49.41211 | 17.71315 | 77° | 111km/h | 12244m | 7.3m/s | -54.5°C | 22.3% | 0hPa | 2.7V | 00:00:00 | 00:00:00 | 08:30:00 | |
| OE5DRO-10 | 2026-09-01 11:49:34 | 49.41205 | 17.71273 | 79° | 113km/h | 12238m | 4.7m/s | -54.4°C | 22.7% | 0hPa | 2.9V | 00:00:00 | 00:00:00 | 00:00:00 | |
| PETON7-10 | 2026-09-01 11:49:22 | 49.41190 | 17.70765 | 83° | 113km/h | 12150m | 4.9m/s | -56.2°C | 32.7% | 0hPa | 2.9V | 00:00:00 | 00:00:00 | 08:30:00 | |
| PG1ADW-2 | 2026-09-01 11:49:18 | 49.41171 | 17.70587 | 82° | 113km/h | 12117m | 5.9m/s | -56.4°C | 33.6% | 0hPa | 2.9V | 00:00:00 | 00:00:00 | 00:00:00 | |
| OE5DRO-10 | 2026-09-01 11:49:15 | 49.41161 | 17.70448 | 86° | 110km/h | 12098m | 4.6m/s | -56.7°C | 35.4% | 0hPa | 2.9V | 00:00:00 | 00:00:00 | 00:00:00 | |
| PETON7-10 | 2026-09-01 11:49:07 | 49.41152 | 17.70109 | 90° | 110km/h | 12041m | 6.3m/s | -57.1°C | 39.0% | 0hPa | 2.9V | 00:00:00 | 00:00:00 | 00:00:00 | |
| OE3OSB-13 | 2026-09-01 11:49:05 | 49.41146 | 17.69985 | 83° | 106km/h | 12024m | 6.3m/s | -57.2°C | 33.6% | -1.0hPa | 2.9V | 00:00:00 | 00:00:00 | 00:00:00 | |
| PG1ADW-2 | 2026-09-01 11:48:58 | 49.41127 | 17.69721 | 85° | 110km/h | 11981m | 7.4m/s | -57.4°C | 40.8% | 0hPa | 2.9V | 00:00:00 | 00:00:00 | 00:00:00 | |
| OE5DRO-10 | 2026-09-01 11:48:56 | 49.41122 | 17.69636 | 85° | 110km/h | 11965m | 7.0m/s | -57.5°C | 41.5% | 0hPa | 2.9V | 00:00:00 | 00:00:00 | 00:00:00 | |
| PETON7-10 | 2026-09-01 11:48:52 | 49.41114 | 17.69474 | 88° | 110km/h | 11939m | 4.2m/s | -57.6°C | 43.1% | 0hPa | 2.9V | 00:00:00 | 01:09:02 | 00:00:00 | |
| PG1ADW-2 | 2026-09-01 11:48:38 | 49.41084 | 17.68881 | 86° | 117km/h | 11849m | 9.0m/s | -57.9°C | 47.7% | 0hPa | 2.9V | 00:00:00 | 01:08:48 | 08:30:00 | |
| PETON7-10 | 2026-09-01 11:48:37 | 49.41082 | 17.68835 | 87° | 117km/h | 11841m | 7.7m/s | -57.8°C | 48.4% | 0hPa | 2.9V | 00:00:00 | 00:00:00 | 00:00:00 | |
| OE5DXL-15 | 2026-09-01 11:48:35 | 49.41080 | 17.68742 | 89° | 113km/h | 11826m | 9.1m/s | -57.7°C | 49.4% | 0hPa | 2.9V | 00:00:00 | 00:00:00 | 00:00:00 | |
| OE3OSB-13 | 2026-09-01 11:48:33 | 49.41077 | 17.68650 | 86° | 113km/h | 11811m | 4.7m/s | -57.7°C | 45.0% | -1.0hPa | 2.9V | 00:00:00 | 00:00:00 | 00:00:00 | |
| PETON7-10 | 2026-09-01 11:48:22 | 49.41060 | 17.68160 | 92° | 111km/h | 11738m | 9.6m/s | -57.7°C | 49.8% | 0hPa | 2.9V | 00:00:00 | 00:00:00 | 00:00:00 | |
| PG1ADW-2 | 2026-09-01 11:48:18 | 49.41067 | 17.67984 | 92° | 111km/h | 11710m | 5.8m/s | -57.6°C | 51.8% | 0hPa | 2.9V | 00:00:00 | 00:00:00 | 00:00:00 | |
| HA6NAB-11 | 2026-09-01 11:48:11 | 49.41071 | 17.67682 | 90° | 115km/h | 11662m | 7.0m/s | 0°C | 0% | 0hPa | 2.9V | 00:00:00 | 00:00:00 | 00:00:00 | |
| PETON7-10 | 2026-09-01 11:48:07 | 49.41064 | 17.67512 | 85° | 110km/h | 11634m | 5.4m/s | -57.5°C | 54.5% | 0hPa | 2.9V | 00:00:00 | 01:08:17 | 00:00:00 | |
| OE5DXL-15 | 2026-09-01 11:48:05 | 49.41058 | 17.67432 | 83° | 113km/h | 11622m | 7.6m/s | -57.4°C | 54.6% | 0hPa | 2.9V | 00:00:00 | 00:00:00 | 00:00:00 | |
| OE3OSB-13 | 2026-09-01 11:48:02 | 49.41050 | 17.67301 | 86° | 115km/h | 11603m | 7.1m/s | -57.4°C | 47.8% | -1.0hPa | 2.9V | 00:00:00 | 00:00:00 | 00:00:00 | |
| OE5DRO-10 | 2026-09-01 11:47:59 | 49.41051 | 17.67165 | 93° | 111km/h | 11579m | 5.0m/s | -57.4°C | 55.5% | 0hPa | 2.9V | 00:00:00 | 00:00:00 | 08:30:00 | |
| PG1ADW-2 | 2026-09-01 11:47:58 | 49.41052 | 17.67120 | 93° | 111km/h | 11572m | 9.3m/s | -57.4°C | 55.4% | 0hPa | 2.9V | 00:00:00 | 00:00:00 | 00:00:00 | |
| PETON7-10 | 2026-09-01 11:47:52 | 49.41056 | 17.66874 | 91° | 113km/h | 11533m | 5.2m/s | -57.0°C | 55.6% | 0hPa | 2.9V | 00:00:00 | 00:00:00 | 00:00:00 | |
| OE5DRO-10 | 2026-09-01 11:47:40 | 49.41052 | 17.66349 | 92° | 113km/h | 11468m | 6.9m/s | -56.6°C | 54.2% | 0hPa | 2.7V | 00:00:00 | 00:00:00 | 00:00:00 | |
| PG1ADW-2 | 2026-09-01 11:47:38 | 49.41053 | 17.66256 | 92° | 111km/h | 11459m | 4.6m/s | -56.5°C | 55.8% | 0hPa | 2.7V | 00:00:00 | 00:00:00 | 00:00:00 | |
| PETON7-10 | 2026-09-01 11:47:37 | 49.41054 | 17.66209 | 92° | 110km/h | 11454m | 5.1m/s | -56.5°C | 56.7% | 0hPa | 2.7V | 00:00:00 | 00:00:00 | 00:00:00 | |
| OE5DXL-15 | 2026-09-01 11:47:35 | 49.41055 | 17.66116 | 91° | 113km/h | 11445m | 4.6m/s | -56.4°C | 57.7% | 0hPa | 2.7V | 00:00:00 | 00:00:00 | 00:00:00 | |
| OE3OSB-13 | 2026-09-01 11:47:31 | 49.41054 | 17.65935 | 88° | 108km/h | 11425m | 5.7m/s | -56.3°C | 50.8% | -1.0hPa | 2.7V | 00:00:00 | 00:00:00 | 00:00:00 | |
| PETON7-10 | 2026-09-01 11:47:23 | 49.41069 | 17.65571 | 97° | 115km/h | 11376m | 6.1m/s | -55.9°C | 59.0% | 0hPa | 2.7V | 00:00:00 | 01:07:32 | 00:00:00 | |
| OE5DRO-10 | 2026-09-01 11:47:20 | 49.41073 | 17.65482 | 91° | 115km/h | 11364m | 7.1m/s | -55.8°C | 57.5% | 0hPa | 2.7V | 00:00:00 | 00:00:00 | 00:00:00 | |
| PG1ADW-2 | 2026-09-01 11:47:18 | 49.41071 | 17.65394 | 88° | 115km/h | 11350m | 8.3m/s | -55.6°C | 56.7% | 0hPa | 2.7V | 00:00:00 | 01:07:28 | 00:00:00 | |
| PETON7-10 | 2026-09-01 11:47:07 | 49.41097 | 17.64906 | 97° | 119km/h | 11274m | 6.1m/s | -55.0°C | 62.4% | 0hPa | 2.7V | 00:00:00 | 00:00:00 | 08:30:00 | |
| OE5DXL-15 | 2026-09-01 11:47:05 | 49.41105 | 17.64807 | 98° | 117km/h | 11263m | 6.5m/s | -54.9°C | 61.7% | 0hPa | 2.7V | 00:00:00 | 00:00:00 | 00:00:00 | |
| OE3OSB-13 | 2026-09-01 11:47:03 | 49.41128 | 17.64591 | 102° | 111km/h | 11229m | 7.5m/s | -54.6°C | 55.3% | -1.0hPa | 2.7V | 00:00:00 | 00:00:00 | 00:00:00 | |
| OE5DRO-10 | 2026-09-01 11:47:01 | 49.41122 | 17.64634 | 102° | 115km/h | 11236m | 6.9m/s | -54.7°C | 61.4% | 0hPa | 2.7V | 00:00:00 | 00:00:00 | 00:00:00 | |
| PG1ADW-2 | 2026-09-01 11:46:58 | 49.41139 | 17.64503 | 99° | 117km/h | 11216m | 7.1m/s | -54.4°C | 61.2% | 0hPa | 2.7V | 00:00:00 | 00:00:00 | 00:00:00 | |
| PETON7-10 | 2026-09-01 11:46:52 | 49.41149 | 17.64222 | 95° | 115km/h | 11171m | 4.2m/s | !°C | 60.5% | 0hPa | 2.7V | 00:00:00 | 00:00:00 | 00:00:00 | |
| OE5DRO-10 | 2026-09-01 11:46:41 | 49.41167 | 17.63736 | 92° | 122km/h | 11093m | 4.9m/s | -53.4°C | 59.1% | 0hPa | 2.7V | 00:00:00 | 00:00:00 | 00:00:00 | |
| S52SK | 2026-09-01 11:46:40 | 49.41168 | 17.63689 | 92° | 120km/h | 11087m | 7.1m/s | 0°C | 0% | 0hPa | 2.7V | 00:00:00 | 00:00:00 | 00:00:00 | |
| PG1ADW-2 | 2026-09-01 11:46:38 | 49.41169 | 17.63596 | 92° | 122km/h | 11072m | 6.8m/s | -53.1°C | 58.7% | 0hPa | 2.7V | 00:00:00 | 00:00:00 | 00:00:00 | |
| PETON7-10 | 2026-09-01 11:46:37 | 49.41171 | 17.63551 | 93° | 122km/h | 11065m | 6.6m/s | -53.1°C | 58.8% | 0hPa | 2.9V | 00:00:00 | 01:06:47 | 00:00:00 | |
| OE5DXL-15 | 2026-09-01 11:46:35 | 49.41172 | 17.63461 | 91° | 120km/h | 11051m | 8.7m/s | -53.0°C | 58.3% | 0hPa | 2.9V | 00:00:00 | 00:00:00 | 00:00:00 | |
| S52SK | 2026-09-01 11:46:33 | 49.41172 | 17.63417 | 92° | 115km/h | 11042m | 9.1m/s | 0°C | 0% | 0hPa | 2.7V | 00:00:00 | 00:00:00 | 00:00:00 | |
| OE3OSB-13 | 2026-09-01 11:46:29 | 49.41182 | 17.63193 | 94° | 122km/h | 11005m | 9.2m/s | -52.7°C | 50.7% | -1.0hPa | 2.7V | 00:00:00 | 00:00:00 | 00:00:00 | |
| PETON7-10 | 2026-09-01 11:46:22 | 49.41203 | 17.62839 | 100° | 119km/h | 10957m | 8.1m/s | -52.3°C | 54.5% | 0hPa | 2.7V | 00:00:00 | 00:00:00 | 00:00:00 | |
| PETON7-10 | 2026-09-01 11:46:07 | 49.41258 | 17.62156 | 102° | 119km/h | 10859m | 7.0m/s | -51.5°C | 50.0% | 0hPa | 2.9V | 00:00:00 | 00:00:00 | 00:00:00 | |
| OE5DXL-15 | 2026-09-01 11:46:05 | 49.41268 | 17.62064 | 98° | 115km/h | 10848m | 7.8m/s | 0°C | 0% | 0hPa | 2.9V | 00:00:00 | 00:00:00 | 00:00:00 | |
| OE5DRO-10 | 2026-09-01 11:46:03 | 49.41273 | 17.61967 | 93° | 115km/h | 10832m | 6.8m/s | -51.3°C | 50.2% | 0hPa | 2.9V | 00:00:00 | 00:00:00 | 00:00:00 | |
| PG1ADW-2 | 2026-09-01 11:45:59 | 49.41282 | 17.61732 | 96° | 113km/h | 10800m | 4.9m/s | -51.0°C | 48.4% | 0hPa | 2.9V | 00:00:00 | 01:06:08 | 00:00:00 | |
| PETON7-10 | 2026-09-01 11:45:52 | 49.41302 | 17.61468 | 98° | 113km/h | 10757m | 7.8m/s | -50.7°C | 50.2% | 0hPa | 2.9V | 00:00:00 | 01:06:02 | 00:00:00 | |
| OE3JTB-15 | 2026-09-01 11:45:49 | 49.41299 | 17.61162 | 86° | 117km/h | 10716m | 6.0m/s | -50.4°C | 52.1% | 0hPa | 2.9V | 00:00:00 | 00:00:00 | 00:00:00 | |
| PG1ADW-2 | 2026-09-01 11:45:38 | 49.41312 | 17.60858 | 94° | 113km/h | 10673m | 8.5m/s | -50.1°C | 52.5% | 0hPa | 2.9V | 00:00:00 | 00:00:00 | 08:30:00 | |
| PETON7-10 | 2026-09-01 11:45:37 | 49.41314 | 17.60814 | 91° | 113km/h | 10666m | 6.1m/s | -50.0°C | 52.0% | 0hPa | 2.9V | 00:00:00 | 00:00:00 | 00:00:00 | |
| OE5DXL-15 | 2026-09-01 11:45:35 | 49.41313 | 17.60721 | 89° | 111km/h | 10654m | 7.8m/s | 0°C | 0% | 0hPa | 2.9V | 00:00:00 | 01:05:45 | 00:00:00 | |
| S52SK | 2026-09-01 11:45:33 | 49.41312 | 17.60674 | 89° | 122km/h | 10647m | 7.2m/s | 0°C | 0% | 0hPa | 2.9V | 00:00:00 | 00:00:00 | 00:00:00 | |
| S52SK | 2026-09-01 11:45:28 | 49.41303 | 17.60444 | 91° | 111km/h | 10614m | 5.8m/s | 0°C | 0% | 0hPa | 2.9V | 00:00:00 | 00:00:00 | 00:00:00 | |
| OE3OSB-13 | 2026-09-01 11:45:27 | 49.41306 | 17.60361 | 95° | 104km/h | 10599m | 8.0m/s | -49.5°C | 48.3% | -1.0hPa | 2.9V | 00:00:00 | 00:00:00 | 00:00:00 | |
| OE5DRO-10 | 2026-09-01 11:45:24 | 49.41315 | 17.60239 | 95° | 108km/h | 10580m | 8.2m/s | -49.3°C | 54.4% | 0hPa | 2.9V | 00:00:00 | 00:00:00 | 00:00:00 | |
| PETON7-10 | 2026-09-01 11:45:22 | 49.41316 | 17.60156 | 87° | 108km/h | 10567m | 5.4m/s | -49.2°C | 53.7% | 0hPa | 2.9V | 00:00:00 | 00:00:00 | 00:00:00 | |
| PG1ADW-2 | 2026-09-01 11:45:20 | 49.41310 | 17.59987 | 92° | 110km/h | 10538m | 8.1m/s | -48.9°C | 52.9% | 0hPa | 2.9V | 00:00:00 | 00:00:00 | 00:00:00 | |
| HA6NAB-11 | 2026-09-01 11:45:18 | 49.41312 | 17.59945 | 96° | 108km/h | 10530m | 7.1m/s | 0°C | 0% | 0hPa | 2.9V | 00:00:00 | 00:00:00 | 00:00:00 | |
| PETON7-10 | 2026-09-01 11:45:07 | 49.41327 | 17.59531 | 88° | 110km/h | 10470m | 6.7m/s | -48.3°C | 52.5% | 0hPa | 2.9V | 00:00:00 | 01:05:17 | 00:00:00 | |
| OE5DRO-10 | 2026-09-01 11:45:06 | 49.41327 | 17.59445 | 92° | 110km/h | 10459m | 6.0m/s | -48.2°C | 53.5% | 0hPa | 2.9V | 00:00:00 | 00:00:00 | 08:30:00 | |
| OE3OSB-13 | 2026-09-01 11:44:56 | 49.41340 | 17.59058 | 94° | 110km/h | 10399m | 8.5m/s | -47.8°C | 47.5% | -1.0hPa | 2.7V | 00:00:00 | 00:00:00 | 00:00:00 | |
| PETON7-10 | 2026-09-01 11:44:52 | 49.41349 | 17.58897 | 92° | 106km/h | 10368m | 6.6m/s | -47.5°C | 53.3% | 0hPa | 2.7V | 00:00:00 | 00:00:00 | 08:30:00 | |
| OE5DRO-10 | 2026-09-01 11:44:46 | 49.41334 | 17.58645 | 88° | 108km/h | 10337m | 4.7m/s | -47.2°C | 54.9% | 0hPa | 2.9V | 00:00:00 | 00:00:00 | 00:00:00 | |
| S52SK | 2026-09-01 11:44:42 | 49.41338 | 17.58511 | 97° | 110km/h | 10317m | 8.5m/s | 0°C | 0% | 0hPa | 2.9V | 00:00:00 | 00:00:00 | 00:00:00 | |
| PETON7-10 | 2026-09-01 11:44:38 | 49.41350 | 17.58279 | 94° | 110km/h | 10270m | 5.8m/s | -46.7°C | 53.9% | 0hPa | 2.9V | 00:00:00 | 00:00:00 | 00:00:00 | |
| S52SK | 2026-09-01 11:44:32 | 49.41358 | 17.58107 | 95° | 117km/h | 10242m | 7.3m/s | 0°C | 0% | 0hPa | 2.9V | 00:00:00 | 00:00:00 | 00:00:00 | |
| OE5DRO-10 | 2026-09-01 11:44:27 | 49.41379 | 17.57852 | 97° | 106km/h | 10201m | 10.0m/s | -46.3°C | 58.2% | 0hPa | 2.9V | 00:00:00 | 00:00:00 | 00:00:00 | |
| OE3OSB-13 | 2026-09-01 11:44:26 | 49.41386 | 17.57727 | 93° | 104km/h | 10180m | 8.8m/s | -46.2°C | 55.4% | -1.0hPa | 2.9V | 00:00:00 | 00:00:00 | 00:00:00 | |
| OE3JTB-15 | 2026-09-01 11:44:25 | 49.41387 | 17.57686 | 95° | 110km/h | 10172m | 6.3m/s | -46.1°C | 59.7% | 0hPa | 2.9V | 00:00:00 | 01:04:33 | 00:00:00 | |
| PETON7-10 | 2026-09-01 11:44:22 | 49.41390 | 17.57645 | 96° | 104km/h | 10166m | 5.7m/s | -46.0°C | 59.8% | 0hPa | 2.9V | 00:00:00 | 01:04:32 | 00:00:00 | |
| PG1ADW-2 | 2026-09-01 11:44:18 | 49.41406 | 17.57470 | 101° | 104km/h | 10138m | 8.8m/s | 0°C | 0% | 0hPa | 2.9V | 00:00:00 | 00:00:00 | 00:00:00 | |
| PETON7-10 | 2026-09-01 11:44:08 | 49.41435 | 17.57043 | 93° | 111km/h | 10067m | 8.3m/s | -45.2°C | 64.5% | 0hPa | 2.9V | 00:00:00 | 00:00:00 | 00:00:00 | |
| OE3OSB-13 | 2026-09-01 11:43:54 | 49.41470 | 17.56484 | 95° | 113km/h | 9983m | 4.1m/s | -44.6°C | 0% | -1.0hPa | 2.9V | 00:00:00 | 00:00:00 | 00:00:00 | |
| PETON7-10 | 2026-09-01 11:43:52 | 49.41477 | 17.56400 | 99° | 106km/h | 9971m | 6.8m/s | -44.5°C | 64.3% | 0hPa | 2.9V | 00:00:00 | 00:00:00 | 00:00:00 | |
| OE5DRO-10 | 2026-09-01 11:43:49 | 49.41489 | 17.56283 | 96° | 106km/h | 9950m | 6.8m/s | -44.3°C | 65.0% | 0hPa | 2.9V | 00:00:00 | 00:00:00 | 00:00:00 | |
| S52SK | 2026-09-01 11:43:42 | 49.41497 | 17.56026 | 96° | 111km/h | 9919m | 4.4m/s | 0°C | 0% | 0hPa | 2.9V | 00:00:00 | 00:00:00 | 00:00:00 | |
| PG1ADW-2 | 2026-09-01 11:43:38 | 49.41506 | 17.55822 | 92° | 102km/h | 9880m | 6.1m/s | 0°C | 0% | 0hPa | 2.9V | 00:00:00 | 00:00:00 | 00:00:00 | |
| PETON7-10 | 2026-09-01 11:43:37 | 49.41506 | 17.55783 | 94° | 100km/h | 9874m | 6.8m/s | -43.6°C | 65.8% | 0hPa | 2.9V | 00:00:00 | 01:03:47 | 00:00:00 | |
| OE5DRO-10 | 2026-09-01 11:43:30 | 49.41527 | 17.55507 | 92° | 100km/h | 9827m | 6.9m/s | 0°C | 0% | 0hPa | 2.9V | 00:00:00 | 00:00:00 | 00:00:00 | |
| OE3JTB-15 | 2026-09-01 11:43:26 | 49.41534 | 17.55363 | 98° | 106km/h | 9805m | 7.2m/s | -43.0°C | 69.4% | 0hPa | 2.9V | 00:00:00 | 00:00:00 | 00:00:00 | |
| OE3OSB-13 | 2026-09-01 11:43:23 | 49.41543 | 17.55240 | 94° | 111km/h | 9785m | 7.9m/s | -42.9°C | 63.9% | -1.0hPa | 2.9V | 00:00:00 | 00:00:00 | 00:00:00 | |
| PETON7-10 | 2026-09-01 11:43:22 | 49.41545 | 17.55196 | 94° | 102km/h | 9777m | 8.4m/s | -42.8°C | 68.2% | 0hPa | 2.9V | 00:00:00 | 00:00:00 | 00:00:00 | |
| PG1ADW-2 | 2026-09-01 11:43:18 | 49.41552 | 17.55030 | 97° | 104km/h | 9745m | 4.6m/s | 0°C | 0% | 0hPa | 2.9V | 00:00:00 | 01:03:28 | 00:00:00 | |
| OE5DRO-10 | 2026-09-01 11:43:11 | 49.41581 | 17.54765 | 100° | 110km/h | 9694m | 4.7m/s | 0°C | 0% | 0hPa | 2.9V | 00:00:00 | 00:00:00 | 00:00:00 | |
| PETON7-10 | 2026-09-01 11:43:07 | 49.41595 | 17.54607 | 97° | 111km/h | 9669m | 4.7m/s | -42.0°C | 73.6% | 0hPa | 2.9V | 00:00:00 | 00:00:00 | 00:00:00 | |
| OE3JTB-15 | 2026-09-01 11:42:56 | 49.41632 | 17.54137 | 96° | 110km/h | 9603m | 6.8m/s | -41.5°C | 72.1% | 0hPa | 2.9V | 00:00:00 | 01:03:06 | 00:00:00 | |
| S52SK | 2026-09-01 11:42:53 | 49.41634 | 17.54050 | 90° | 117km/h | 9591m | 5.2m/s | 0°C | 0% | 0hPa | 2.9V | 00:00:00 | 00:00:00 | 00:00:00 | |
| PETON7-10 | 2026-09-01 11:42:52 | 49.41632 | 17.53957 | 87° | 102km/h | 9580m | 5.3m/s | -41.3°C | 72.7% | 0hPa | 2.9V | 00:00:00 | 01:03:02 | 00:00:00 | |
| PG1ADW-2 | 2026-09-01 11:42:38 | 49.41670 | 17.53406 | 91° | 106km/h | 9484m | 6.9m/s | 0°C | 0% | 0hPa | 2.9V | 00:00:00 | 00:00:00 | 00:00:00 | |
| PETON7-10 | 2026-09-01 11:42:37 | 49.41670 | 17.53367 | 91° | 104km/h | 9478m | 5.8m/s | -40.5°C | 68.2% | 0hPa | 2.9V | 00:00:00 | 00:00:00 | 08:30:00 | |
| OE5DRO-10 | 2026-09-01 11:42:33 | 49.41677 | 17.53196 | 96° | 104km/h | 9449m | 6.2m/s | 0°C | 0% | 0hPa | 2.7V | 00:00:00 | 00:00:00 | 00:00:00 | |
| OE3JTB-15 | 2026-09-01 11:42:26 | 49.41686 | 17.52917 | 94° | 100km/h | 9410m | 5.0m/s | -40.0°C | 71.1% | 0hPa | 2.7V | 00:00:00 | 00:00:00 | 08:30:00 | |
| PETON7-10 | 2026-09-01 11:42:22 | 49.41692 | 17.52757 | 96° | 99km/h | 9389m | 4.2m/s | -39.9°C | 70.9% | 0hPa | 2.9V | 00:00:00 | 00:00:00 | 00:00:00 | |
| OE3OSB-13 | 2026-09-01 11:42:21 | 49.41699 | 17.52670 | 100° | 111km/h | 9382m | 4.6m/s | -39.9°C | 67.1% | -1.0hPa | 2.9V | 00:00:00 | 00:00:00 | 00:00:00 | |
| OE5DRO-10 | 2026-09-01 11:42:13 | 49.41718 | 17.52411 | 87° | 97km/h | 9346m | 6.2m/s | 0°C | 0% | 0hPa | 2.9V | 00:00:00 | 00:00:00 | 00:00:00 | |
| PETON7-10 | 2026-09-01 11:42:07 | 49.41716 | 17.52185 | 91° | 102km/h | 9299m | 5.5m/s | -39.3°C | 72.7% | 0hPa | 2.9V | 00:00:00 | 01:02:17 | 00:00:00 | |
| OE3OSB-13 | 2026-09-01 11:41:50 | 49.41720 | 17.51460 | 90° | 104km/h | 9188m | 3.9m/s | -38.5°C | 66.4% | -1.0hPa | 2.9V | 00:00:00 | 00:00:00 | 00:00:00 | |
| PETON7-10 | 2026-09-01 11:41:37 | 49.41754 | 17.51007 | 99° | 97km/h | 9105m | 5.3m/s | -37.7°C | 68.6% | 0hPa | 2.9V | 00:00:00 | 00:00:00 | 00:00:00 | |
| OE3JTB-15 | 2026-09-01 11:41:28 | 49.41767 | 17.50679 | 89° | 104km/h | 9060m | 4.0m/s | -37.5°C | 69.4% | 0hPa | 2.9V | 00:00:00 | 01:01:38 | 00:00:00 | |
| PETON7-10 | 2026-09-01 11:41:22 | 49.41784 | 17.50446 | 105° | 100km/h | 9029m | 5.0m/s | -37.3°C | 70.2% | 0hPa | 2.9V | 00:00:00 | 01:01:32 | 00:00:00 | |
| OE3OSB-13 | 2026-09-01 11:41:19 | 49.41805 | 17.50280 | 94° | 104km/h | 9011m | 5.6m/s | -37.1°C | 69.1% | -1.0hPa | 2.9V | 00:00:00 | 00:00:00 | 00:00:00 | |
| OE3OSB-13 | 2026-09-01 11:40:47 | 49.41863 | 17.49119 | 90° | 111km/h | 8794m | 6.7m/s | -35.2°C | 65.6% | -1.0hPa | 2.9V | 00:00:00 | 00:00:00 | 00:00:00 | |
| PETON7-10 | 2026-09-01 11:40:37 | 49.41866 | 17.48698 | 100° | 102km/h | 8728m | 4.8m/s | -34.6°C | 66.5% | 0hPa | 2.9V | 00:00:00 | 01:00:47 | 00:00:00 | |
| PETON7-10 | 2026-09-01 11:40:22 | 49.41888 | 17.48108 | 108° | 102km/h | 8648m | 5.9m/s | -34.0°C | 66.3% | 0hPa | 2.9V | 00:00:00 | 00:00:00 | 08:30:00 | |
| OE3OSB-13 | 2026-09-01 11:40:17 | 49.41921 | 17.47886 | 93° | 102km/h | 8611m | 7.1m/s | -33.8°C | 61.3% | -1.0hPa | 2.9V | 00:00:00 | 00:00:00 | 00:00:00 | |
| PETON7-10 | 2026-09-01 11:40:07 | 49.41938 | 17.47528 | 102° | 104km/h | 8549m | 4.9m/s | -33.2°C | 63.4% | 0hPa | 2.9V | 00:00:00 | 00:00:00 | 00:00:00 | |
| OE3OSB-13 | 2026-09-01 11:39:45 | 49.42022 | 17.46637 | 93° | 108km/h | 8402m | 5.3m/s | -31.9°C | 58.5% | -1.0hPa | 2.9V | 00:00:00 | 00:00:00 | 00:00:00 | |
| PETON7-10 | 2026-09-01 11:39:37 | 49.42030 | 17.46285 | 100° | 110km/h | 8351m | 7.9m/s | -31.5°C | 59.1% | 0hPa | 2.9V | 00:00:00 | 00:00:00 | 00:00:00 | |
| PETON7-10 | 2026-09-01 11:39:22 | 49.42102 | 17.45652 | 95° | 108km/h | 8257m | 3.0m/s | -30.8°C | 59.2% | 0hPa | 2.7V | 00:00:00 | 00:00:00 | 00:00:00 | |
| OE3OSB-13 | 2026-09-01 11:39:15 | 49.42147 | 17.45295 | 104° | 97km/h | 8210m | 7.9m/s | -30.5°C | 55.4% | -1.0hPa | 2.7V | 00:00:00 | 00:00:00 | 00:00:00 | |
| PETON7-10 | 2026-09-01 11:39:07 | 49.42176 | 17.45035 | 95° | 113km/h | 8170m | 6.1m/s | -30.2°C | 58.0% | 0hPa | 2.7V | 00:00:00 | 00:59:17 | 00:00:00 | |
| PETON7-10 | 2026-09-01 11:38:52 | 49.42212 | 17.44379 | 101° | 113km/h | 8078m | 6.2m/s | -29.8°C | 56.1% | 0hPa | 2.7V | 00:00:00 | 00:00:00 | 00:00:00 | |
| OE3OSB-13 | 2026-09-01 11:38:43 | 49.42225 | 17.43994 | 91° | 117km/h | 8022m | 7.9m/s | -29.5°C | 56.0% | -1.0hPa | 2.9V | 00:00:00 | 00:00:00 | 00:00:00 | |
| PETON7-10 | 2026-09-01 11:38:37 | 49.42257 | 17.43732 | 103° | 111km/h | 7987m | 2.7m/s | -29.2°C | 59.8% | 0hPa | 2.9V | 00:00:00 | 00:00:00 | 00:00:00 | |
| PETON7-10 | 2026-09-01 11:38:22 | 49.42330 | 17.43100 | 102° | 117km/h | 7904m | 4.7m/s | -28.5°C | 57.1% | 0hPa | 2.9V | 00:00:00 | 00:58:32 | 00:00:00 | |
| OE3OSB-13 | 2026-09-01 11:38:12 | 49.42378 | 17.42668 | 96° | 126km/h | 7844m | 4.0m/s | -28.1°C | 58.7% | -1.0hPa | 2.9V | 00:00:00 | 00:00:00 | 00:00:00 | |
| PETON7-10 | 2026-09-01 11:38:07 | 49.42394 | 17.42426 | 99° | 111km/h | 7825m | 5.0m/s | -27.9°C | 59.8% | 0hPa | 2.9V | 00:00:00 | 00:00:00 | 08:30:00 | |
| PETON7-10 | 2026-09-01 11:37:52 | 49.42477 | 17.41799 | 105° | 108km/h | 7730m | 5.2m/s | -27.1°C | 66.1% | 0hPa | 2.9V | 00:00:00 | 00:00:00 | 00:00:00 | |
| OE3OSB-13 | 2026-09-01 11:37:41 | 49.42508 | 17.41333 | 92° | 97km/h | 7670m | 5.8m/s | -27.0°C | 62.4% | -1.0hPa | 2.9V | 00:00:00 | 00:00:00 | 00:00:00 | |
| PETON7-10 | 2026-09-01 11:37:37 | 49.42510 | 17.41180 | 95° | 119km/h | 7654m | 3.2m/s | -26.8°C | 63.8% | 0hPa | 2.9V | 00:00:00 | 00:57:47 | 00:00:00 | |
| PETON7-10 | 2026-09-01 11:37:22 | 49.42557 | 17.40498 | 101° | 113km/h | 7574m | 4.1m/s | -26.5°C | 57.5% | 0hPa | 2.9V | 00:00:00 | 00:00:00 | 00:00:00 | |
| OE3OSB-13 | 2026-09-01 11:37:10 | 49.42602 | 17.39990 | 97° | 124km/h | 7504m | 3.4m/s | -25.9°C | 57.4% | -1.0hPa | 2.9V | 00:00:00 | 00:00:00 | 00:00:00 | |
| PETON7-10 | 2026-09-01 11:37:07 | 49.42612 | 17.39845 | 93° | 111km/h | 7494m | 3.6m/s | -25.8°C | 59.5% | 0hPa | 2.9V | 00:00:00 | 00:00:00 | 00:00:00 | |
| PETON7-10 | 2026-09-01 11:36:52 | 49.42615 | 17.39201 | 92° | 102km/h | 7408m | 2.3m/s | -25.1°C | 62.4% | 0hPa | 2.9V | 00:00:00 | 00:57:02 | 00:00:00 | |
| OE3JTB-15 | 2026-09-01 11:36:50 | 49.42618 | 17.39063 | 92° | 102km/h | 7392m | 7.5m/s | -25.0°C | 62.0% | 0hPa | 2.9V | 00:00:00 | 00:00:00 | 00:00:00 | |
| OE3OSB-13 | 2026-09-01 11:36:39 | 49.42637 | 17.38692 | 92° | 99km/h | 7331m | 4.9m/s | -24.6°C | 57.2% | -1.0hPa | 2.9V | 00:00:00 | 00:00:00 | 00:00:00 | |
| PETON7-10 | 2026-09-01 11:36:37 | 49.42638 | 17.38609 | 92° | 110km/h | 7321m | 4.6m/s | -24.5°C | 57.7% | 0hPa | 2.9V | 00:00:00 | 00:00:00 | 00:00:00 | |
| PETON7-10 | 2026-09-01 11:36:22 | 49.42680 | 17.37976 | 93° | 111km/h | 7246m | 8.0m/s | -23.9°C | 52.6% | 0hPa | 3.0V | 00:00:00 | 00:00:00 | 00:00:00 | |
| OE3OSB-13 | 2026-09-01 11:36:08 | 49.42705 | 17.37373 | 97° | 120km/h | 7165m | 4.7m/s | -23.1°C | 48.9% | -1.0hPa | 3.0V | 00:00:00 | 00:00:00 | 00:00:00 | |
| PETON7-10 | 2026-09-01 11:36:07 | 49.42709 | 17.37326 | 96° | 110km/h | 7161m | 3.0m/s | -23.0°C | 50.3% | 0hPa | 3.0V | 00:00:00 | 00:56:17 | 00:00:00 | |
| PETON7-10 | 2026-09-01 11:35:52 | 49.42725 | 17.36697 | 101° | 110km/h | 7083m | 3.8m/s | -22.4°C | 48.5% | 0hPa | 3.0V | 00:00:00 | 00:00:00 | 08:30:00 | |
| PETON7-10 | 2026-09-01 11:35:37 | 49.42762 | 17.36065 | 90° | 100km/h | 7002m | 4.7m/s | -21.8°C | 39.7% | 0hPa | 3.0V | 00:00:00 | 00:00:00 | 00:00:00 | |
| PETON7-10 | 2026-09-01 11:35:22 | 49.42780 | 17.35493 | 95° | 93km/h | 6922m | 5.1m/s | -21.1°C | 42.0% | 0hPa | 3.0V | 00:00:00 | 00:55:32 | 00:00:00 | |
| PETON7-10 | 2026-09-01 11:35:07 | 49.42839 | 17.34960 | 107° | 95km/h | 6838m | 6.3m/s | -20.3°C | 39.7% | 0hPa | 3.0V | 00:00:00 | 00:00:00 | 00:00:00 | |
| OE3OSB-13 | 2026-09-01 11:35:06 | 49.42846 | 17.34926 | 107° | 95km/h | 6831m | 7.7m/s | -20.3°C | 38.5% | -1.0hPa | 3.0V | 00:00:00 | 00:00:00 | 00:00:00 | |
| PETON7-10 | 2026-09-01 11:34:52 | 49.42911 | 17.34422 | 104° | 108km/h | 6744m | 4.6m/s | -19.5°C | 39.1% | 0hPa | 3.0V | 00:00:00 | 00:00:00 | 00:00:00 | |
| PETON7-10 | 2026-09-01 11:34:37 | 49.42975 | 17.33798 | 99° | 100km/h | 6660m | 5.3m/s | -19.0°C | 41.1% | 0hPa | 3.0V | 00:00:00 | 00:54:47 | 00:00:00 | |
| OE3OSB-13 | 2026-09-01 11:34:35 | 49.42981 | 17.33719 | 96° | 97km/h | 6650m | 5.4m/s | -19.0°C | 41.0% | -1.0hPa | 3.0V | 00:00:00 | 00:00:00 | 00:00:00 | |
| OE3JTB-15 | 2026-09-01 11:34:29 | 49.43011 | 17.33413 | 110° | 91km/h | 6599m | 5.0m/s | -18.6°C | 42.3% | 0hPa | 3.0V | 00:00:00 | 00:00:00 | 00:00:00 | |
| PETON7-10 | 2026-09-01 11:34:22 | 49.43054 | 17.33233 | 105° | 91km/h | 6570m | 5.8m/s | -18.5°C | 50.3% | 0hPa | 3.0V | 00:00:00 | 00:00:00 | 00:00:00 | |
| PETON7-10 | 2026-09-01 11:34:07 | 49.43118 | 17.32708 | 97° | 88km/h | 6472m | 5.1m/s | -18.4°C | 62.3% | 0hPa | 2.9V | 00:00:00 | 00:00:00 | 00:00:00 | |
| OE3OSB-13 | 2026-09-01 11:34:04 | 49.43129 | 17.32598 | 102° | 93km/h | 6455m | 8.8m/s | -18.4°C | 62.2% | -1.0hPa | 2.9V | 00:00:00 | 00:00:00 | 00:00:00 | |
| OE3JTB-15 | 2026-09-01 11:34:00 | 49.43158 | 17.32435 | 105° | 80km/h | 6424m | 5.5m/s | -18.2°C | 64.9% | 0hPa | 2.9V | 00:00:00 | 00:54:09 | 00:00:00 | |
| PETON7-10 | 2026-09-01 11:33:52 | 49.43152 | 17.32217 | 84° | 78km/h | 6384m | 4.3m/s | -17.9°C | 65.8% | 0hPa | 2.9V | 00:00:00 | 00:54:02 | 00:00:00 | |
| PETON7-10 | 2026-09-01 11:33:37 | 49.43173 | 17.31760 | 95° | 80km/h | 6290m | 5.6m/s | -17.4°C | 60.8% | 0hPa | 2.9V | 00:00:00 | 00:00:00 | 08:30:00 | |
| OE3OSB-13 | 2026-09-01 11:33:33 | 49.43183 | 17.31604 | 89° | 86km/h | 6260m | 5.5m/s | -17.2°C | 55.4% | -1.0hPa | 3.0V | 00:00:00 | 00:00:00 | 00:00:00 | |
| OE3JTB-15 | 2026-09-01 11:33:31 | 49.43180 | 17.31538 | 85° | 82km/h | 6249m | 7.0m/s | -17.1°C | 46.4% | 0hPa | 3.0V | 00:00:00 | 00:00:00 | 00:00:00 | |
| PETON7-10 | 2026-09-01 11:33:22 | 49.43200 | 17.31295 | 94° | 82km/h | 6191m | 5.7m/s | -16.6°C | 36.0% | 0hPa | 3.0V | 00:00:00 | 00:00:00 | 00:00:00 | |
| PETON7-10 | 2026-09-01 11:33:07 | 49.43195 | 17.30823 | 94° | 82km/h | 6105m | 6.5m/s | -15.9°C | 24.6% | 0hPa | 3.0V | 00:00:00 | 00:53:17 | 00:00:00 | |
| OE3OSB-13 | 2026-09-01 11:33:02 | 49.43190 | 17.30619 | 89° | 86km/h | 6066m | 8.7m/s | -15.7°C | 15.0% | -1.0hPa | 3.0V | 00:00:00 | 00:00:00 | 00:00:00 | |
| PETON7-10 | 2026-09-01 11:32:52 | 49.43197 | 17.30345 | 87° | 77km/h | 6004m | 8.3m/s | -15.3°C | 6.3% | 0hPa | 3.0V | 00:00:00 | 00:00:00 | 00:00:00 | |
| PETON7-10 | 2026-09-01 11:32:37 | 49.43204 | 17.29902 | 88° | 69km/h | 5915m | 3.5m/s | -14.9°C | 3.6% | 0hPa | 3.0V | 00:00:00 | 00:00:00 | 00:00:00 | |
| OE3JTB-15 | 2026-09-01 11:32:33 | 49.43200 | 17.29781 | 93° | 69km/h | 5899m | 5.4m/s | -14.8°C | 3.5% | 0hPa | 3.0V | 00:00:00 | 00:52:43 | 00:00:00 | |
| OE3OSB-13 | 2026-09-01 11:32:31 | 49.43209 | 17.29701 | 107° | 66km/h | 5879m | 7.3m/s | -14.7°C | 3.4% | -1.0hPa | 3.0V | 00:00:00 | 00:00:00 | 00:00:00 | |
| PETON7-10 | 2026-09-01 11:32:22 | 49.43207 | 17.29503 | 81° | 71km/h | 5824m | 6.4m/s | -14.4°C | 5.4% | 0hPa | 3.0V | 00:00:00 | 00:52:32 | 00:00:00 | |
| PETON7-10 | 2026-09-01 11:32:07 | 49.43237 | 17.29098 | 83° | 75km/h | 5734m | 6.8m/s | -13.9°C | 4.9% | 0hPa | 3.0V | 00:00:00 | 00:00:00 | 00:00:00 | |
| OE3JTB-15 | 2026-09-01 11:32:04 | 49.43230 | 17.29022 | 88° | 78km/h | 5718m | 4.2m/s | -13.8°C | 5.0% | 0hPa | 3.0V | 00:00:00 | 00:00:00 | 08:30:00 | |
| PETON7-10 | 2026-09-01 11:31:52 | 49.43279 | 17.28670 | 100° | 78km/h | 5653m | 4.6m/s | -13.3°C | 5.0% | 0hPa | 3.0V | 00:00:00 | 00:00:00 | 00:00:00 | |
| PETON7-10 | 2026-09-01 11:31:37 | 49.43302 | 17.28215 | 84° | 68km/h | 5552m | 4.6m/s | -12.5°C | 5.1% | 0hPa | 3.0V | 00:00:00 | 00:51:47 | 00:00:00 | |
| OE3JTB-15 | 2026-09-01 11:31:35 | 49.43299 | 17.28156 | 87° | 66km/h | 5542m | 5.7m/s | -12.4°C | 5.0% | 0hPa | 3.0V | 00:00:00 | 00:00:00 | 00:00:00 | |
| OE3OSB-13 | 2026-09-01 11:31:30 | 49.43310 | 17.27966 | 106° | 53km/h | 5501m | 7.4m/s | -12.1°C | 4.7% | -1.0hPa | 3.0V | 00:00:00 | 00:00:00 | 00:00:00 | |
| PETON7-10 | 2026-09-01 11:31:22 | 49.43345 | 17.27837 | 116° | 64km/h | 5471m | 4.1m/s | -11.8°C | 4.8% | 0hPa | 3.0V | 00:00:00 | 00:00:00 | 08:30:00 | |
| PETON7-10 | 2026-09-01 11:31:06 | 49.43412 | 17.27456 | 109° | 69km/h | 5386m | 6.3m/s | -11.1°C | 4.2% | 0hPa | 3.0V | 00:00:00 | 00:00:00 | 00:00:00 | |
| OE3OSB-13 | 2026-09-01 11:30:57 | 49.43459 | 17.27215 | 109° | 73km/h | 5329m | 5.7m/s | -10.7°C | 3.4% | -1.0hPa | 3.0V | 00:00:00 | 00:00:00 | 00:00:00 | |
| PETON7-10 | 2026-09-01 11:30:51 | 49.43485 | 17.27075 | 98° | 60km/h | 5297m | 5.7m/s | -10.3°C | 3.5% | 0hPa | 3.0V | 00:00:00 | 00:51:01 | 00:00:00 | |
| OE3JTB-15 | 2026-09-01 11:30:38 | 49.43506 | 17.26720 | 107° | 64km/h | 5215m | 5.8m/s | -9.8°C | 2.7% | 0hPa | 3.0V | 00:00:00 | 00:00:00 | 00:00:00 | |
| PETON7-10 | 2026-09-01 11:30:36 | 49.43506 | 17.26720 | 107° | 71km/h | 5215m | 5.8m/s | -9.8°C | 2.7% | 0hPa | 3.0V | 00:00:00 | 00:00:00 | 00:00:00 | |
| OE3OSB-13 | 2026-09-01 11:30:27 | 49.43506 | 17.26453 | 94° | 77km/h | 5161m | 5.0m/s | -9.9°C | 2.6% | -1.0hPa | 3.0V | 00:00:00 | 00:00:00 | 00:00:00 | |
| PETON7-10 | 2026-09-01 11:30:21 | 49.43510 | 17.26313 | 87° | 55km/h | 5132m | 7.2m/s | -9.8°C | 3.1% | 0hPa | 3.0V | 00:00:00 | 00:00:00 | 00:00:00 | |
| PETON7-10 | 2026-09-01 11:30:06 | 49.43544 | 17.26010 | 107° | 58km/h | 5041m | 3.6m/s | -9.6°C | 5.7% | 0hPa | 3.0V | 00:00:00 | 00:50:16 | 00:00:00 | |
| OE3OSB-13 | 2026-09-01 11:29:55 | 49.43556 | 17.25770 | 104° | 57km/h | 4978m | 5.6m/s | -9.4°C | 8.3% | -1.0hPa | 3.0V | 00:00:00 | 00:00:00 | 00:00:00 | |
| PETON7-10 | 2026-09-01 11:29:51 | 49.43562 | 17.25669 | 85° | 55km/h | 4958m | 4.8m/s | -9.3°C | 8.7% | 0hPa | 3.0V | 00:00:00 | 00:00:00 | 00:00:00 | |
| OE3JTB-15 | 2026-09-01 11:29:38 | 49.43564 | 17.25395 | 92° | 46km/h | 4894m | 7.0m/s | -8.8°C | 8.7% | 0hPa | 3.0V | 00:00:00 | 00:00:00 | 00:00:00 | |
| PETON7-10 | 2026-09-01 11:29:36 | 49.43569 | 17.25353 | 106° | 58km/h | 4882m | 4.5m/s | -8.7°C | 8.6% | 0hPa | 3.0V | 00:00:00 | 00:00:00 | 00:00:00 | |
| OE3OSB-13 | 2026-09-01 11:29:24 | 49.43589 | 17.25083 | 89° | 58km/h | 4819m | 6.2m/s | -8.4°C | 8.7% | -1.0hPa | 3.0V | 00:00:00 | 00:00:00 | 00:00:00 | |
| PETON7-10 | 2026-09-01 11:29:21 | 49.43586 | 17.25016 | 82° | 60km/h | 4803m | 6.2m/s | -8.3°C | 9.4% | 0hPa | 3.0V | 00:00:00 | 00:49:31 | 00:00:00 | |
| PETON7-10 | 2026-09-01 11:29:06 | 49.43577 | 17.24667 | 73° | 51km/h | 4724m | 5.5m/s | -7.8°C | 10.0% | 0hPa | 3.0V | 00:00:00 | 00:00:00 | 08:30:00 | |
| OE3OSB-13 | 2026-09-01 11:28:53 | 49.43570 | 17.24423 | 85° | 62km/h | 4665m | 5.1m/s | -7.4°C | 10.3% | -1.0hPa | 3.0V | 00:00:00 | 00:00:00 | 00:00:00 | |
| PETON7-10 | 2026-09-01 11:28:51 | 49.43568 | 17.24372 | 90° | 58km/h | 4657m | 4.5m/s | -7.3°C | 10.4% | 0hPa | 3.0V | 00:00:00 | 00:00:00 | 00:00:00 | |
| PETON7-10 | 2026-09-01 11:28:36 | 49.43569 | 17.24042 | 86° | 46km/h | 4591m | 3.7m/s | -7.0°C | 10.0% | 0hPa | 3.0V | 00:00:00 | 00:48:46 | 00:00:00 | |
| OE3OSB-13 | 2026-09-01 11:28:22 | 49.43576 | 17.23795 | 99° | 38km/h | 4536m | 5.1m/s | -7.0°C | 14.7% | -1.0hPa | 3.0V | 00:00:00 | 00:00:00 | 00:00:00 | |
| PETON7-10 | 2026-09-01 11:28:21 | 49.43577 | 17.23780 | 93° | 49km/h | 4531m | 4.7m/s | -6.9°C | 14.8% | 0hPa | 3.0V | 00:00:00 | 00:00:00 | 00:00:00 | |
| PETON7-10 | 2026-09-01 11:28:06 | 49.43589 | 17.23488 | 97° | 57km/h | 4471m | 3.8m/s | -6.5°C | 15.6% | 0hPa | 3.0V | 00:00:00 | 00:00:00 | 00:00:00 | |
| PETON7-10 | 2026-09-01 11:27:51 | 49.43597 | 17.23171 | 103° | 44km/h | 4407m | 3.4m/s | -6.2°C | 16.7% | 0hPa | 3.0V | 00:00:00 | 00:48:01 | 00:00:00 | |
| PETON7-10 | 2026-09-01 11:27:36 | 49.43612 | 17.22920 | 98° | 47km/h | 4329m | 7.4m/s | -5.7°C | 17.7% | 0hPa | 3.0V | 00:00:00 | 00:00:00 | 00:00:00 | |
| PETON7-10 | 2026-09-01 11:27:21 | 49.43638 | 17.22650 | 102° | 46km/h | 4260m | 5.0m/s | -5.3°C | 16.9% | 0hPa | 3.0V | 00:00:00 | 00:00:00 | 00:00:00 | |
| OE3OSB-13 | 2026-09-01 11:27:20 | 49.43640 | 17.22631 | 95° | 49km/h | 4255m | 5.5m/s | -5.4°C | 16.9% | -1.0hPa | 3.0V | 00:00:00 | 00:00:00 | 00:00:00 | |
| PETON7-10 | 2026-09-01 11:27:06 | 49.43675 | 17.22397 | 96° | 49km/h | 4188m | 6.3m/s | -5.1°C | 22.5% | 0hPa | 3.0V | 00:00:00 | 00:47:16 | 00:00:00 | |
| OE3OSB-13 | 2026-09-01 11:26:49 | 49.43684 | 17.22093 | 107° | 31km/h | 4092m | 7.8m/s | -4.4°C | 24.0% | -1.0hPa | 3.0V | 00:00:00 | 00:00:00 | 00:00:00 | |
| PETON7-10 | 2026-09-01 11:26:36 | 49.43691 | 17.21882 | 101° | 40km/h | 4021m | 7.9m/s | -3.9°C | 24.9% | 0hPa | 3.0V | 00:00:00 | 00:00:00 | 00:00:00 | |
| PETON7-10 | 2026-09-01 11:26:21 | 49.43691 | 17.21646 | 107° | 46km/h | 3935m | 4.8m/s | -3.3°C | 23.7% | 0hPa | 3.0V | 00:00:00 | 00:46:31 | 00:00:00 | |
| PETON7-10 | 2026-09-01 11:26:06 | 49.43688 | 17.21390 | 82° | 44km/h | 3856m | 4.2m/s | -3.1°C | 25.3% | 0hPa | 3.0V | 00:00:00 | 00:00:00 | 00:00:00 | |
| OE3OSB-13 | 2026-09-01 11:25:47 | 49.43739 | 17.21079 | 114° | 53km/h | 3758m | 5.4m/s | -2.6°C | 27.8% | -1.0hPa | 3.0V | 00:00:00 | 00:00:00 | 00:00:00 | |
| PETON7-10 | 2026-09-01 11:25:36 | 49.43795 | 17.20897 | 118° | 42km/h | 3686m | 7.2m/s | -2.0°C | 25.9% | 0hPa | 3.0V | 00:00:00 | 00:45:46 | 00:00:00 | |
| PETON7-10 | 2026-09-01 11:25:21 | 49.43852 | 17.20670 | 105° | 47km/h | 3599m | 7.0m/s | -1.5°C | 28.0% | 0hPa | 3.0V | 00:00:00 | 00:00:00 | 00:00:00 | |
| OE3OSB-13 | 2026-09-01 11:25:16 | 49.43867 | 17.20563 | 86° | 44km/h | 3559m | 6.6m/s | -1.2°C | 28.1% | -1.0hPa | 3.0V | 00:00:00 | 00:00:00 | 00:00:00 | |
| OE3JTB-15 | 2026-09-01 11:25:09 | 49.43873 | 17.20449 | 108° | 42km/h | 3520m | 6.1m/s | -0.9°C | 28.3% | 0hPa | 3.0V | 00:00:00 | 00:00:00 | 00:00:00 | |
| PETON7-10 | 2026-09-01 11:25:06 | 49.43879 | 17.20401 | 91° | 40km/h | 3502m | 6.9m/s | -0.8°C | 28.0% | 0hPa | 3.0V | 00:00:00 | 00:00:00 | 00:00:00 | |
| PETON7-10 | 2026-09-01 11:24:51 | 49.43891 | 17.20174 | 90° | 38km/h | 3414m | 6.4m/s | -0.1°C | 27.5% | 0hPa | 3.0V | 00:00:00 | 00:45:01 | 00:00:00 | |
| OE3OSB-13 | 2026-09-01 11:24:45 | 49.43911 | 17.20073 | 98° | 47km/h | 3377m | 5.7m/s | 0°C | -1.0% | -1.0hPa | 3.0V | 00:00:00 | 00:00:00 | 00:00:00 | |
| OE3JTB-15 | 2026-09-01 11:24:40 | 49.43918 | 17.20014 | 115° | 44km/h | 3356m | 4.3m/s | 0.2°C | 28.6% | 0hPa | 3.0V | 00:00:00 | 00:00:00 | 00:00:00 | |
| PETON7-10 | 2026-09-01 11:24:36 | 49.43934 | 17.19958 | 106° | 46km/h | 3334m | 5.1m/s | 0.3°C | 28.7% | 0hPa | 3.0V | 00:00:00 | 00:00:00 | 08:30:00 | |
| PETON7-10 | 2026-09-01 11:24:21 | 49.43997 | 17.19709 | 126° | 42km/h | 3236m | 4.0m/s | 0.6°C | 32.0% | 0hPa | 3.0V | 00:00:00 | 00:00:00 | 00:00:00 | |
| OE3JTB-15 | 2026-09-01 11:24:11 | 49.44032 | 17.19553 | 121° | 42km/h | 3183m | 6.8m/s | 0.9°C | 32.6% | 0hPa | 3.0V | 00:00:00 | 00:44:21 | 00:00:00 | |
| PETON7-10 | 2026-09-01 11:24:06 | 49.44058 | 17.19489 | 114° | 44km/h | 3154m | 5.8m/s | 0.7°C | 34.8% | 0hPa | 3.0V | 00:00:00 | 00:44:16 | 00:00:00 | |
| PETON7-10 | 2026-09-01 11:23:51 | 49.44134 | 17.19268 | 107° | 46km/h | 3047m | 5.0m/s | 0°C | 0% | 0hPa | 3.0V | 00:00:00 | 00:00:00 | 00:00:00 | |
| OE3JTB-15 | 2026-09-01 11:23:42 | 49.44183 | 17.19143 | 126° | 47km/h | 2989m | 7.0m/s | 0.7°C | 41.7% | 0hPa | 3.0V | 00:00:00 | 00:00:00 | 08:30:00 | |
| PETON7-10 | 2026-09-01 11:23:36 | 49.44205 | 17.19033 | 103° | 46km/h | 2947m | 8.3m/s | 0°C | 0% | 0hPa | 3.0V | 00:00:00 | 00:00:00 | 00:00:00 | |
| PETON7-10 | 2026-09-01 11:23:21 | 49.44257 | 17.18780 | 113° | 44km/h | 2847m | 6.1m/s | 0°C | 0% | 0hPa | 3.0V | 00:00:00 | 00:43:31 | 00:00:00 | |
| OE3JTB-15 | 2026-09-01 11:23:13 | 49.44300 | 17.18648 | 115° | 44km/h | 2795m | 8.3m/s | 1.7°C | 48.1% | 0hPa | 3.0V | 00:00:00 | 00:00:00 | 00:00:00 | |
| PETON7-10 | 2026-09-01 11:23:06 | 49.44317 | 17.18546 | 116° | 49km/h | 2744m | 6.0m/s | 0°C | 0% | 0hPa | 3.0V | 00:00:00 | 00:00:00 | 00:00:00 | |
| PETON7-10 | 2026-09-01 11:22:51 | 49.44406 | 17.18303 | 115° | 46km/h | 2647m | 6.5m/s | 0°C | 0% | 0hPa | 3.0V | 00:00:00 | 00:00:00 | 00:00:00 | |
| OE3JTB-15 | 2026-09-01 11:22:44 | 49.44432 | 17.18193 | 117° | 44km/h | 2604m | 5.0m/s | 2.5°C | 59.3% | 0hPa | 3.0V | 00:00:00 | 00:42:54 | 00:00:00 | |
| PETON7-10 | 2026-09-01 11:22:36 | 49.44462 | 17.18053 | 117° | 44km/h | 2552m | 4.2m/s | 0°C | 0% | 0hPa | 3.0V | 00:00:00 | 00:42:46 | 00:00:00 | |
| PETON7-10 | 2026-09-01 11:22:21 | 49.44506 | 17.17823 | 90° | 40km/h | 2454m | 7.8m/s | 0°C | 0% | 0hPa | 3.0V | 00:00:00 | 00:00:00 | 08:30:00 | |
| OE3JTB-15 | 2026-09-01 11:22:15 | 49.44521 | 17.17726 | 101° | 37km/h | 2414m | 6.9m/s | 2.5°C | 87.4% | 0hPa | 3.0V | 00:00:00 | 00:00:00 | 00:00:00 | |
| OE3JTB-15 | 2026-09-01 11:21:46 | 49.44577 | 17.17331 | 91° | 35km/h | 2216m | 7.3m/s | 3.9°C | 85.9% | 0hPa | 3.0V | 00:00:00 | 00:00:00 | 00:00:00 | |
| OE3JTB-15 | 2026-09-01 11:21:17 | 49.44596 | 17.16936 | 83° | 33km/h | 2021m | 6.7m/s | 5.6°C | 82.0% | 0hPa | 3.0V | 00:00:00 | 00:41:27 | 00:00:00 | |
| OE3JTB-15 | 2026-09-01 11:20:48 | 49.44595 | 17.16574 | 93° | 37km/h | 1833m | 6.4m/s | 7.4°C | 75.3% | 0hPa | 3.0V | 00:00:00 | 00:00:00 | 00:00:00 | |
| OE3JTB-15 | 2026-09-01 11:20:19 | 49.44590 | 17.16175 | 76° | 33km/h | 1654m | 6.0m/s | 8.7°C | 75.5% | 0hPa | 0V | 00:00:00 | 00:00:00 | 00:00:00 | |
| OE3JTB-15 | 2026-09-01 11:19:50 | 49.44596 | 17.15810 | 84° | 33km/h | 1490m | 5.5m/s | 0°C | 0% | 0hPa | 0V | 00:00:00 | 00:40:00 | 00:00:00 |